# Wetter Temperatur Luftdruck Luftfeuchtigkeit Sichtweite Windgeschwindigkeit Windrichtung Zeit
1 Clear 18 1014 77 14484 2.27 167 09:40 14.07.2020
2 Clear 18 1014 77 14484 2.16 167 09:22 14.07.2020
3 Clear 18 1014 77 14484 1.5 260 08:57 14.07.2020
4 Clear 18 1014 77 14484 1.5 260 08:37 14.07.2020
5 Clear 19 1014 77 14484 1.5 260 08:18 14.07.2020
6 Clear 19 1013 82 14484 2.01 178 07:42 14.07.2020
7 Clear 19 1013 82 14484 2.23 190 07:19 14.07.2020
8 Clear 20 1013 77 16093 1.5 250 06:53 14.07.2020
9 Clear 20 1013 77 16093 1.5 250 06:25 14.07.2020
10 Clear 21 1012 73 12874 2.6 250 05:49 14.07.2020
11 Clear 24 1012 64 12874 1.5 250 04:51 14.07.2020
12 Clear 24 1012 64 12874 1.5 250 04:33 14.07.2020
13 Clear 26 1011 57 14484 3.57 207 03:27 14.07.2020
14 Clear 27 1012 54 14484 1.5 0 02:27 14.07.2020
15 Clear 29 1012 51 16093 3.98 210 01:41 14.07.2020
16 Clear 29 1012 51 16093 4.06 200 01:22 14.07.2020
17 Clear 29 1012 51 16093 1.5 0 00:42 14.07.2020
18 Clear 29 1012 51 16093 1.5 0 00:22 14.07.2020
19 Clear 29 1012 51 16093 4.02 188 23:39 13.07.2020
20 Clear 29 1012 51 16093 4.05 184 23:20 13.07.2020
21 Clear 29 1013 54 16093 4.05 184 22:57 13.07.2020
22 Clear 29 1013 54 16093 4.05 184 22:39 13.07.2020
23 Clear 28 1013 54 16093 3.97 185 22:19 13.07.2020
24 Clear 29 1013 48 16093 3.97 185 21:55 13.07.2020
25 Clear 29 1013 48 16093 4.05 179 21:36 13.07.2020
26 Clear 28 1013 48 16093 3.61 177 21:18 13.07.2020
27 Clear 28 1013 51 16093 3.7 174 20:54 13.07.2020
28 Clear 28 1013 51 16093 3.7 174 20:36 13.07.2020
29 Clear 28 1013 51 16093 3.5 167 20:18 13.07.2020
30 Clear 27 1012 54 16093 3.5 167 19:42 13.07.2020
31 Clear 26 1012 54 16093 3.09 164 19:23 13.07.2020
32 Clear 25 1012 65 12874 3.09 164 18:57 13.07.2020
33 Clear 25 1012 65 12874 3.09 164 18:38 13.07.2020
34 Clear 25 1012 65 12874 3.09 164 18:38 13.07.2020
35 Clear 24 1012 65 12874 2.87 162 18:20 13.07.2020
36 Clouds 23 1012 73 12874 2.87 162 17:55 13.07.2020
37 Clouds 23 1012 73 12874 2.87 162 17:37 13.07.2020
38 Clouds 22 1012 73 12874 2.51 152 17:18 13.07.2020
39 Clouds 21 1012 83 11265 2.1 0 16:42 13.07.2020
40 Clouds 21 1012 83 11265 2.1 0 16:42 13.07.2020
41 Clouds 20 1012 83 11265 2.1 0 16:21 13.07.2020
42 Clear 20 1012 83 11265 2.12 140 15:59 13.07.2020
43 Clear 20 1012 83 11265 2.12 140 15:39 13.07.2020
44 Clear 20 1012 83 11265 2.1 145 15:20 13.07.2020
45 Clear 20 1012 77 12874 2.1 145 14:58 13.07.2020
46 Clear 20 1012 77 12874 2.1 145 14:39 13.07.2020
47 Clear 20 1012 77 12874 2.21 149 14:20 13.07.2020
48 Clear 20 1011 82 12874 2.21 149 13:56 13.07.2020
49 Clear 20 1011 82 12874 2.21 149 13:37 13.07.2020
50 Clear 20 1011 82 12874 1.76 147 13:19 13.07.2020
51 Clear 20 1011 77 12874 1.76 147 12:43 13.07.2020
52 Clear 20 1011 77 12874 2.16 156 12:22 13.07.2020
53 Clear 20 1012 77 14484 2.16 156 11:58 13.07.2020
54 Clear 20 1012 77 14484 2.16 156 11:38 13.07.2020
55 Clear 20 1012 77 14484 2.22 152 11:19 13.07.2020
56 Clear 20 1012 77 14484 2.22 152 10:38 13.07.2020
57 Clear 20 1012 77 14484 2.35 153 10:20 13.07.2020
58 Clear 21 1012 73 14484 1.5 270 09:43 13.07.2020
59 Clear 20 1012 73 14484 1.5 270 09:25 13.07.2020
60 Clear 21 1011 73 14484 2 174 08:54 13.07.2020
61 Clear 20 1011 73 14484 2 174 08:35 13.07.2020
62 Clear 21 1011 60 16093 1.5 280 07:46 13.07.2020
63 Clear 21 1011 60 16093 1.5 280 07:20 13.07.2020
64 Clear 22 1011 60 16093 3.1 260 06:44 13.07.2020
65 Clear 22 1011 60 16093 3.1 260 06:24 13.07.2020
66 Clear 26 1009 47 16093 2.6 250 04:57 13.07.2020
67 Clear 31 1010 42 16093 4.18 241 01:58 13.07.2020
68 Clear 31 1010 42 16093 4.18 241 01:38 13.07.2020
69 Clear 31 1010 42 16093 4.25 239 01:19 13.07.2020
70 Clear 32 1011 39 16093 2.6 250 00:38 13.07.2020
71 Clear 32 1011 39 16093 2.6 250 00:19 13.07.2020
72 Clear 32 1011 40 16093 2.6 250 23:41 12.07.2020
73 Clear 32 1011 40 16093 2.6 250 23:22 12.07.2020
74 Clear 32 1012 45 16093 1.5 250 22:56 12.07.2020
75 Clear 32 1012 45 16093 1.5 250 22:37 12.07.2020
76 Clear 32 1012 45 16093 1.5 250 22:18 12.07.2020
77 Clear 31 1012 40 16093 4.05 222 21:56 12.07.2020
78 Clear 31 1012 40 16093 3.72 214 21:38 12.07.2020
79 Clear 31 1012 40 16093 2.72 214 21:19 12.07.2020
80 Clear 32 1012 31 16093 2.72 214 20:42 12.07.2020
81 Clear 32 1012 31 16093 2.72 214 20:42 12.07.2020
82 Clear 31 1012 31 16093 1.66 224 20:20 12.07.2020
83 Clear 30 1012 45 16093 1.66 224 19:59 12.07.2020
84 Clear 30 1012 45 16093 1.66 224 19:39 12.07.2020
85 Clear 29 1012 45 16093 1.5 211 19:20 12.07.2020
86 Clear 28 1013 54 16093 1.5 211 18:55 12.07.2020
87 Clear 27 1013 54 16093 1.5 211 18:37 12.07.2020
88 Clear 26 1013 54 16093 1.29 204 18:18 12.07.2020
89 Clear 24 1013 64 16093 1.29 204 17:38 12.07.2020
90 Clear 24 1013 64 16093 1.08 201 17:20 12.07.2020
91 Clear 22 1013 77 14484 1.08 201 16:48 12.07.2020
92 Clear 21 1013 77 14484 1.39 192 16:23 12.07.2020
93 Clear 20 1013 77 14484 1.39 192 15:58 12.07.2020
94 Clear 20 1013 77 14484 1.39 192 15:40 12.07.2020
95 Clear 20 1013 77 14484 1.23 196 15:20 12.07.2020
96 Clear 20 1013 82 16093 1.23 196 14:41 12.07.2020
97 Clear 20 1013 82 16093 1.23 202 14:22 12.07.2020
98 Clear 20 1013 73 16093 1.23 202 13:41 12.07.2020
99 Clear 20 1013 73 16093 1.29 209 13:22 12.07.2020
100 Clear 21 1013 68 16093 1.29 209 12:58 12.07.2020
101 Clear 21 1013 68 16093 1.53 198 12:39 12.07.2020
102 Clear 21 1013 68 16093 1.53 198 12:19 12.07.2020
103 Clear 21 1014 64 16093 1.53 198 11:57 12.07.2020
104 Clear 21 1014 64 16093 1.53 198 11:39 12.07.2020
105 Clear 21 1014 64 16093 1.85 178 11:18 12.07.2020
106 Clear 21 1014 60 16093 1.85 178 10:41 12.07.2020
107 Clear 21 1014 60 16093 1.33 186 10:19 12.07.2020
108 Clear 21 1014 60 16093 1.33 186 09:43 12.07.2020
109 Clear 21 1014 60 16093 1.6 190 09:22 12.07.2020
110 Clear 22 1015 60 16093 2.15 167 08:58 12.07.2020
111 Clear 22 1015 60 16093 2.15 167 08:39 12.07.2020
112 Clear 22 1015 60 16093 1.8 166 08:21 12.07.2020
113 Clear 23 1014 68 16093 1.8 166 07:50 12.07.2020
114 Clear 22 1014 68 16093 1.8 166 07:31 12.07.2020
115 Clear 23 1014 68 16093 1.5 250 06:56 12.07.2020
116 Clear 24 1014 68 16093 1.5 250 06:38 12.07.2020
117 Clear 24 1014 68 16093 1.5 250 06:19 12.07.2020
118 Clear 28 1013 42 16093 2.1 270 04:59 12.07.2020
119 Clear 28 1013 42 16093 2.1 270 04:29 12.07.2020
120 Clear 30 1013 37 16093 3.85 249 03:45 12.07.2020
121 Clear 30 1013 37 16093 4.42 250 03:25 12.07.2020
122 Clear 32 1013 28 16093 2.1 250 02:26 12.07.2020
123 Clear 32 1014 32 16093 3.6 280 01:29 12.07.2020
124 Clear 33 1014 29 16093 3.6 260 00:39 12.07.2020
125 Clear 33 1014 29 16093 3.6 260 00:21 12.07.2020
126 Clear 33 1014 37 16093 2.1 280 23:41 11.07.2020
127 Clear 33 1014 37 16093 2.1 280 23:23 11.07.2020
128 Clear 33 1015 38 16093 1.5 0 23:00 11.07.2020
129 Clear 32 1015 38 16093 1.5 0 22:41 11.07.2020
130 Clear 33 1015 38 16093 1.5 0 22:23 11.07.2020
131 Clear 32 1015 35 16093 3.47 235 21:57 11.07.2020
132 Clear 32 1015 35 16093 3.43 240 21:38 11.07.2020
133 Clear 27 1015 35 16093 2.98 227 21:19 11.07.2020
134 Clear 28 1015 33 16093 2.98 227 20:55 11.07.2020
135 Clear 29 1015 33 16093 2.98 227 20:37 11.07.2020
136 Clear 29 1015 33 16093 2.7 220 20:18 11.07.2020
137 Clear 28 1016 48 16093 1.5 0 19:48 11.07.2020
138 Clear 28 1016 48 16093 1.5 0 19:30 11.07.2020
139 Clear 27 1016 57 14484 2.49 210 18:58 11.07.2020
140 Clear 27 1016 57 14484 2.49 210 18:40 11.07.2020
141 Clear 25 1016 57 14484 2.12 215 18:22 11.07.2020
142 Clear 25 1016 73 12874 2.12 215 17:58 11.07.2020
143 Clear 23 1016 73 12874 2.12 215 17:38 11.07.2020
144 Clear 23 1016 73 12874 1.79 213 17:19 11.07.2020
145 Clear 22 1016 82 11265 1.79 213 16:56 11.07.2020
146 Clear 20 1016 82 11265 1.79 213 16:38 11.07.2020
147 Clear 20 1016 82 11265 1.02 229 16:18 11.07.2020
148 Clear 18 1015 88 11265 1.02 229 15:42 11.07.2020
149 Clear 18 1015 88 11265 1.04 265 15:21 11.07.2020
150 Clear 18 1015 88 12874 1.04 265 14:59 11.07.2020
151 Clear 18 1015 88 12874 1.04 265 14:40 11.07.2020
152 Clear 18 1015 88 12874 1.28 234 14:22 11.07.2020
153 Clear 19 1015 88 11265 1.28 234 13:44 11.07.2020
154 Clear 19 1015 88 11265 1.77 235 13:23 11.07.2020
155 Clear 19 1015 88 11265 1.77 235 12:59 11.07.2020
156 Clear 19 1015 88 11265 1.77 235 12:41 11.07.2020
157 Clear 19 1015 88 11265 2.01 233 12:23 11.07.2020
158 Clear 19 1015 88 14484 2.01 233 11:58 11.07.2020
159 Clear 19 1015 88 14484 2.01 233 11:40 11.07.2020
160 Clear 19 1015 88 14484 1.77 247 11:19 11.07.2020
161 Clear 19 1015 82 14484 1.77 247 10:46 11.07.2020
162 Clear 20 1015 82 14484 1.56 252 10:26 11.07.2020
163 Clear 19 1015 82 12874 1.56 252 09:56 11.07.2020
164 Clear 20 1015 82 12874 1.49 237 09:37 11.07.2020
165 Clear 20 1015 82 12874 1.64 232 09:18 11.07.2020
166 Haze 20 1015 82 9656 1.64 232 08:39 11.07.2020
167 Haze 21 1015 82 9656 1.6 217 08:20 11.07.2020
168 Clear 21 1014 73 14484 1.6 217 07:50 11.07.2020
169 Clear 22 1014 73 14484 1.87 212 07:27 11.07.2020
170 Clear 22 1014 68 16093 1.87 212 06:59 11.07.2020
171 Clear 22 1014 68 16093 2.24 230 06:23 11.07.2020
172 Clear 23 1013 64 16093 2.6 270 05:46 11.07.2020
173 Clear 24 1013 64 16093 2.6 270 05:46 11.07.2020
174 Clear 24 1013 64 16093 2.6 270 05:18 11.07.2020
175 Clear 26 1013 54 16093 1.5 0 04:39 11.07.2020
176 Clear 26 1013 54 16093 1.5 0 04:19 11.07.2020
177 Clear 29 1014 51 16093 1.5 0 02:52 11.07.2020
178 Clear 30 1014 48 16093 2.1 0 01:57 11.07.2020
179 Clear 30 1014 48 16093 2.1 0 01:21 11.07.2020
180 Clear 31 1014 45 16093 2.1 260 00:55 11.07.2020
181 Clear 31 1014 45 16093 2.1 260 00:36 11.07.2020
182 Clear 31 1014 45 16093 2.1 260 00:18 11.07.2020
183 Clear 31 1015 48 16093 1.5 0 23:44 10.07.2020
184 Clear 30 1015 48 16093 1.5 0 23:26 10.07.2020
185 Clear 30 1015 51 11265 3.82 238 22:50 10.07.2020
186 Clear 30 1015 51 11265 3.75 232 22:25 10.07.2020
187 Clear 29 1015 45 12874 1.5 270 21:59 10.07.2020
188 Clear 29 1015 45 12874 1.5 270 21:38 10.07.2020
189 Clear 29 1015 45 12874 1.5 270 21:20 10.07.2020
190 Haze 28 1015 54 9656 3.23 228 20:55 10.07.2020
191 Haze 28 1015 54 9656 3.23 228 20:36 10.07.2020
192 Haze 27 1015 54 9656 2.69 222 20:18 10.07.2020
193 Haze 26 1016 64 8047 2.69 222 19:54 10.07.2020
194 Haze 25 1016 64 8047 2.69 222 19:36 10.07.2020
195 Haze 25 1016 64 8047 2.24 220 19:18 10.07.2020
196 Haze 22 1016 69 6437 2.24 220 18:38 10.07.2020
197 Haze 22 1016 69 6437 1.85 204 18:19 10.07.2020
198 Haze 21 1016 73 6437 1.85 204 17:55 10.07.2020
199 Haze 20 1015 82 4828 1.56 231 17:37 10.07.2020
200 Haze 20 1015 82 4828 1.56 231 17:18 10.07.2020
201 Haze 19 1015 82 6437 1.56 231 16:41 10.07.2020
202 Haze 19 1015 82 6437 1.3 265 16:20 10.07.2020
203 Mist 18 1014 88 6437 1.3 265 15:44 10.07.2020
204 Mist 18 1014 88 6437 1.35 254 15:22 10.07.2020
205 Haze 18 1014 88 6437 1.35 254 14:55 10.07.2020
206 Mist 18 1014 88 6437 1.05 238 14:37 10.07.2020
207 Mist 18 1014 88 6437 1.05 238 14:18 10.07.2020
208 Mist 18 1014 88 6437 1.05 238 13:56 10.07.2020
209 Mist 18 1014 88 6437 1.05 238 13:37 10.07.2020
210 Mist 17 1014 88 6437 1.04 234 13:19 10.07.2020
211 Mist 18 1014 88 8047 1.04 234 12:43 10.07.2020
212 Mist 17 1014 88 8047 1.16 221 12:24 10.07.2020
213 Mist 17 1014 88 8047 1.16 221 11:59 10.07.2020
214 Mist 17 1014 88 8047 1.16 221 11:38 10.07.2020
215 Mist 17 1014 88 9656 1.5 260 11:19 10.07.2020
216 Mist 17 1014 88 9656 1.5 260 10:55 10.07.2020
217 Mist 17 1014 88 9656 1.5 260 10:36 10.07.2020
218 Clear 17 1014 82 12874 1.56 187 10:18 10.07.2020
219 Clear 17 1014 82 12874 1.44 195 09:38 10.07.2020
220 Clear 18 1014 82 12874 1.26 209 09:20 10.07.2020
221 Clear 18 1014 88 12874 1.26 209 08:58 10.07.2020
222 Clear 18 1014 88 12874 1.26 209 08:39 10.07.2020
223 Clear 18 1014 88 12874 1.38 208 08:21 10.07.2020
224 Clear 19 1013 82 16093 1.38 208 07:43 10.07.2020
225 Clear 19 1013 82 16093 1.59 215 07:23 10.07.2020
226 Clear 19 1012 73 16093 1.5 260 06:51 10.07.2020
227 Clear 20 1012 73 16093 1.5 260 06:27 10.07.2020
228 Clear 22 1012 68 14484 2.1 260 05:19 10.07.2020
229 Clear 25 1011 57 16093 2.1 0 03:39 10.07.2020
230 Clear 26 1012 57 16093 2.1 250 02:53 10.07.2020
231 Clear 27 1012 54 16093 1.5 240 01:53 10.07.2020
232 Clear 28 1012 54 14484 4.16 241 00:49 10.07.2020
233 Clear 28 1012 54 14484 4.28 238 00:21 10.07.2020
234 Clear 28 1012 51 12874 4.28 238 23:55 09.07.2020
235 Clear 28 1012 51 12874 4.28 238 23:37 09.07.2020
236 Clear 28 1012 51 12874 4.02 229 23:18 09.07.2020
237 Clear 28 1012 51 11265 2.1 0 22:55 09.07.2020
238 Clear 28 1012 51 11265 2.1 0 22:36 09.07.2020
239 Clear 28 1012 51 11265 2.1 0 22:18 09.07.2020
240 Clear 27 1012 51 12874 1.5 240 21:39 09.07.2020
241 Clear 26 1012 51 12874 1.5 240 21:19 09.07.2020
242 Clear 26 1012 51 11265 2.91 211 20:58 09.07.2020
243 Clear 26 1012 51 11265 2.91 211 20:39 09.07.2020
244 Clear 25 1012 51 11265 2.43 205 20:21 09.07.2020
245 Clear 24 1012 57 12874 2.43 205 19:43 09.07.2020
246 Clear 24 1012 57 12874 2.01 198 19:21 09.07.2020
247 Clouds 23 1013 64 11265 2.01 198 18:56 09.07.2020
248 Clouds 23 1013 64 11265 2.01 198 18:38 09.07.2020
249 Clouds 22 1013 64 11265 1.87 189 18:18 09.07.2020
250 Haze 21 1012 73 9656 1.87 189 17:43 09.07.2020
251 Haze 20 1012 77 9656 1.47 190 17:22 09.07.2020
252 Haze 19 1012 82 9656 1.47 190 16:56 09.07.2020
253 Haze 18 1012 82 9656 1.47 190 16:38 09.07.2020
254 Haze 18 1012 82 9656 1.09 207 16:19 09.07.2020
255 Clouds 18 1012 77 11265 1.09 207 15:58 09.07.2020
256 Clouds 18 1012 77 11265 1.09 207 15:37 09.07.2020
257 Clouds 18 1012 77 11265 1.3 198 15:18 09.07.2020
258 Clouds 17 1012 77 12874 1.3 198 14:57 09.07.2020
259 Clouds 18 1012 77 12874 1.3 198 14:39 09.07.2020
260 Clouds 18 1012 77 12874 1.58 175 14:20 09.07.2020
261 Clouds 17 1012 72 14484 1.67 168 13:56 09.07.2020
262 Clouds 18 1012 72 14484 1.67 168 13:38 09.07.2020
263 Clouds 18 1012 72 14484 1.48 172 13:18 09.07.2020
264 Clouds 17 1012 82 14484 1.48 172 12:41 09.07.2020
265 Clouds 17 1012 82 14484 1.52 192 12:23 09.07.2020
266 Clouds 18 1012 77 16093 1.52 192 11:57 09.07.2020
267 Clouds 18 1012 77 16093 1.52 192 11:38 09.07.2020
268 Clear 17 1012 77 16093 1.79 191 11:19 09.07.2020
269 Clouds 18 1012 77 16093 1.79 191 10:56 09.07.2020
270 Clouds 18 1012 77 16093 1.45 190 10:38 09.07.2020
271 Clouds 18 1012 77 16093 1.45 190 10:19 09.07.2020
272 Clear 18 1012 77 12874 1.58 193 09:43 09.07.2020
273 Clear 18 1012 77 12874 1.61 194 09:22 09.07.2020
274 Clear 18 1012 77 14484 1.61 194 08:49 09.07.2020
275 Clear 18 1012 77 14484 1.84 198 08:26 09.07.2020
276 Clear 18 1011 68 16093 1.84 198 07:56 09.07.2020
277 Clear 18 1011 68 16093 1.84 198 07:38 09.07.2020
278 Clear 19 1011 68 16093 1.9 198 07:20 09.07.2020
279 Clear 20 1011 64 16093 2.26 207 06:21 09.07.2020
280 Clear 20 1011 68 14484 1.5 270 05:57 09.07.2020
281 Clear 23 1011 64 16093 2.1 270 04:29 09.07.2020
282 Clear 25 1010 57 16093 2.1 250 03:22 09.07.2020
283 Clear 27 1011 54 16093 3.68 216 01:56 09.07.2020
284 Clear 27 1011 54 16093 4 214 01:19 09.07.2020
285 Clear 27 1011 54 16093 4 214 00:41 09.07.2020
286 Clear 28 1011 54 16093 4.14 207 00:23 09.07.2020
287 Clear 27 1011 54 16093 1.5 0 23:44 08.07.2020
288 Clear 27 1011 54 16093 1.5 0 23:25 08.07.2020
289 Clear 27 1012 54 16093 1.5 0 22:57 08.07.2020
290 Clear 27 1012 54 16093 1.5 0 22:38 08.07.2020
291 Clear 27 1012 54 16093 1.5 0 22:20 08.07.2020
292 Clear 27 1012 48 16093 1.5 0 21:57 08.07.2020
293 Clear 26 1012 48 16093 1.5 0 21:38 08.07.2020
294 Clear 27 1012 48 16093 1.5 0 21:20 08.07.2020
295 Clear 25 1012 54 14484 3.48 175 20:43 08.07.2020
296 Clear 25 1012 54 14484 3.02 172 20:25 08.07.2020
297 Clear 24 1012 60 12874 3.02 172 19:58 08.07.2020
298 Clear 24 1012 60 12874 3.02 172 19:39 08.07.2020
299 Clear 23 1012 60 12874 2.64 164 19:21 08.07.2020
300 Clouds 22 1012 68 11265 1.5 140 18:55 08.07.2020
301 Clouds 22 1012 68 11265 1.5 140 18:36 08.07.2020
302 Clouds 21 1012 68 11265 1.5 140 18:18 08.07.2020
303 Clouds 20 1012 77 11265 2.32 165 17:54 08.07.2020
304 Clouds 20 1012 77 11265 2.32 165 17:36 08.07.2020
305 Clouds 19 1012 77 11265 1.9 169 17:18 08.07.2020
306 Haze 19 1012 82 9656 1.5 100 16:38 08.07.2020
307 Haze 18 1012 82 9656 1.5 100 16:20 08.07.2020
308 Clouds 18 1012 82 12874 1.5 0 15:58 08.07.2020
309 Clouds 18 1012 82 12874 1.5 0 15:39 08.07.2020
310 Clouds 17 1012 82 12874 1.5 0 15:19 08.07.2020
311 Clear 18 1011 77 14484 1.5 0 14:48 08.07.2020
312 Clear 18 1011 77 14484 1.5 0 14:29 08.07.2020
313 Clear 18 1011 72 16093 1.68 157 13:58 08.07.2020
314 Clear 18 1011 72 16093 1.68 157 13:40 08.07.2020
315 Clear 18 1011 72 16093 1.57 163 13:22 08.07.2020
316 Clear 18 1011 72 16093 1.57 163 12:44 08.07.2020
317 Clear 18 1011 72 16093 1.92 161 12:21 08.07.2020
318 Clear 18 1011 68 16093 1.92 161 11:57 08.07.2020
319 Clear 18 1011 68 16093 1.92 161 11:38 08.07.2020
320 Clear 18 1011 68 16093 1.95 167 11:20 08.07.2020
321 Clear 18 1011 72 14484 1.95 167 10:45 08.07.2020
322 Clear 18 1011 72 14484 1.95 167 10:45 08.07.2020
323 Clear 18 1011 72 14484 1.67 173 10:26 08.07.2020
324 Clear 19 1011 68 16093 1.67 173 09:59 08.07.2020
325 Clear 19 1011 68 16093 1.67 173 09:40 08.07.2020
326 Clear 20 1011 68 16093 1.8 173 09:20 08.07.2020
327 Clear 20 1011 64 16093 1.81 163 08:42 08.07.2020
328 Clear 20 1011 64 16093 1.66 186 08:24 08.07.2020
329 Clear 20 1011 60 16093 1.66 186 07:47 08.07.2020
330 Clear 20 1011 60 16093 1.91 210 07:23 08.07.2020
331 Clear 20 1010 49 16093 2.1 280 06:55 08.07.2020
332 Clear 20 1010 49 16093 2.1 280 06:35 08.07.2020
333 Clear 22 1010 46 16093 1.5 250 05:55 08.07.2020
334 Clear 22 1010 46 16093 1.5 250 05:20 08.07.2020
335 Clear 24 1010 47 16093 3.1 270 04:36 08.07.2020
336 Clear 28 1010 47 16093 2.1 260 02:42 08.07.2020
337 Clear 28 1011 54 16093 4.07 237 01:46 08.07.2020
338 Clear 29 1011 54 16093 4.47 236 01:23 08.07.2020
339 Clear 28 1011 54 16093 4.52 231 00:28 08.07.2020
340 Clear 29 1012 54 16093 1.5 0 23:59 07.07.2020
341 Clear 29 1012 54 16093 1.5 0 23:40 07.07.2020
342 Clear 29 1012 54 16093 1.5 0 23:19 07.07.2020
343 Clear 28 1012 54 16093 1.5 0 22:43 07.07.2020
344 Clear 28 1012 54 16093 1.5 0 22:23 07.07.2020
345 Clear 28 1012 54 14484 2.1 250 21:59 07.07.2020
346 Clear 27 1012 54 14484 2.1 250 21:40 07.07.2020
347 Clear 28 1012 54 14484 2.1 250 21:21 07.07.2020
348 Clear 27 1012 51 16093 3.3 217 20:57 07.07.2020
349 Clear 27 1012 51 16093 3.3 217 20:39 07.07.2020
350 Clear 27 1012 51 16093 2.64 217 20:21 07.07.2020
351 Clear 26 1012 57 12874 2.64 217 19:42 07.07.2020
352 Clear 25 1012 57 12874 2.16 223 19:21 07.07.2020
353 Clear 25 1012 57 12874 2.16 223 19:21 07.07.2020
354 Haze 24 1012 64 9656 2.16 223 18:59 07.07.2020
355 Haze 24 1012 64 9656 2.16 223 18:40 07.07.2020
356 Haze 23 1012 64 9656 1.61 210 18:22 07.07.2020
357 Haze 22 1012 73 9656 1.61 210 17:58 07.07.2020
358 Haze 21 1012 73 9656 1.61 210 17:39 07.07.2020
359 Haze 21 1012 73 9656 1.21 183 17:21 07.07.2020
360 Haze 20 1012 82 8047 1.21 183 16:58 07.07.2020
361 Haze 19 1012 82 8047 1.21 183 16:40 07.07.2020
362 Haze 19 1012 82 8047 1.44 168 16:20 07.07.2020
363 Clouds 19 1012 82 11265 1.44 168 15:42 07.07.2020
364 Clouds 18 1012 82 11265 0.95 183 15:21 07.07.2020
365 Clouds 18 1011 77 16093 0.95 183 14:56 07.07.2020
366 Clouds 18 1011 77 16093 0.95 183 14:38 07.07.2020
367 Clear 18 1011 72 16093 1.15 205 14:19 07.07.2020
368 Clear 18 1011 72 16093 1.15 205 13:40 07.07.2020
369 Clear 19 1011 72 16093 1.22 189 13:19 07.07.2020
370 Clear 18 1011 72 16093 1.22 189 12:41 07.07.2020
371 Clear 19 1011 72 16093 1.42 169 12:22 07.07.2020
372 Clear 19 1011 72 16093 1.42 169 12:22 07.07.2020
373 Clear 19 1011 68 16093 1.42 169 11:58 07.07.2020
374 Clear 19 1011 68 16093 1.42 169 11:40 07.07.2020
375 Clear 19 1011 68 16093 1.75 177 11:20 07.07.2020
376 Clear 20 1011 64 16093 1.75 177 10:57 07.07.2020
377 Clear 20 1011 64 16093 1.75 177 10:37 07.07.2020
378 Clear 20 1011 64 16093 1.71 162 10:18 07.07.2020
379 Clear 20 1011 64 16093 1.71 162 09:41 07.07.2020
380 Clear 21 1011 64 16093 1.51 174 09:21 07.07.2020
381 Clear 20 1011 64 16093 1.51 174 08:42 07.07.2020
382 Clear 20 1011 64 16093 1.18 178 08:24 07.07.2020
383 Clear 21 1011 60 16093 1.18 178 07:47 07.07.2020
384 Clear 21 1011 60 16093 1.43 210 07:25 07.07.2020
385 Clear 22 1010 56 16093 1.43 210 06:50 07.07.2020
386 Clear 22 1010 56 16093 1.43 210 06:50 07.07.2020
387 Clear 22 1010 56 16093 2.35 217 06:31 07.07.2020
388 Clear 23 1010 50 16093 2.35 217 05:54 07.07.2020
389 Clear 24 1010 50 16093 2.98 216 05:23 07.07.2020
390 Clear 26 1010 44 16093 2.98 216 04:42 07.07.2020
391 Clear 28 1009 42 16093 2.94 216 03:41 07.07.2020
392 Clear 30 1010 42 16093 3.46 224 02:41 07.07.2020
393 Clear 31 1011 48 16093 2.1 260 01:28 07.07.2020
394 Clear 31 1011 48 16093 2.6 260 00:58 07.07.2020
395 Clear 30 1011 48 16093 2.6 260 00:39 07.07.2020
396 Clear 31 1011 48 16093 2.6 260 00:19 07.07.2020
397 Clear 31 1011 45 16093 4.99 235 23:42 06.07.2020
398 Clear 31 1011 45 16093 4.32 228 23:24 06.07.2020
399 Clear 30 1011 45 16093 2.6 250 22:57 06.07.2020
400 Clear 31 1011 45 16093 2.6 250 22:38 06.07.2020
401 Clear 31 1011 45 16093 2.6 250 22:18 06.07.2020
402 Clear 30 1012 45 16093 3.17 217 21:56 06.07.2020
403 Clear 30 1012 45 16093 3.17 217 21:36 06.07.2020
404 Clear 29 1012 45 16093 2.71 208 21:18 06.07.2020
405 Clear 28 1012 37 16093 2.71 208 20:40 06.07.2020
406 Clear 29 1012 37 16093 2.32 203 20:21 06.07.2020
407 Clear 28 1011 51 16093 2.32 203 19:59 06.07.2020
408 Clear 28 1011 51 16093 2.32 203 19:40 06.07.2020
409 Clear 28 1011 51 16093 2.32 203 19:40 06.07.2020
410 Clear 28 1011 51 16093 1.48 187 19:22 06.07.2020
411 Clear 26 1011 54 12874 1.48 187 18:58 06.07.2020
412 Clear 26 1011 54 12874 1.48 187 18:40 06.07.2020
413 Clear 25 1011 54 12874 0.99 177 18:22 06.07.2020
414 Haze 23 1011 73 9656 1.5 0 17:54 06.07.2020
415 Haze 23 1011 73 9656 1.5 0 17:36 06.07.2020
416 Haze 22 1011 73 9656 1.5 0 17:18 06.07.2020
417 Haze 20 1011 82 4828 0.66 147 16:42 06.07.2020
418 Mist 19 1011 88 1207 1.5 90 16:23 06.07.2020
419 Haze 19 1011 82 8047 1.5 0 15:55 06.07.2020
420 Haze 18 1011 82 8047 1.5 0 15:36 06.07.2020
421 Haze 18 1011 82 9656 0.54 174 15:18 06.07.2020
422 Clear 19 1010 77 14484 0.54 174 14:40 06.07.2020
423 Clear 18 1010 77 14484 0.94 168 14:22 06.07.2020
424 Clear 19 1010 77 14484 0.94 168 13:59 06.07.2020
425 Clear 19 1010 77 14484 0.94 168 13:40 06.07.2020
426 Clear 19 1010 77 14484 0.95 157 13:21 06.07.2020
427 Clear 19 1010 77 16093 0.95 157 12:44 06.07.2020
428 Clear 19 1010 77 16093 1.09 156 12:20 06.07.2020
429 Clear 19 1010 77 16093 1.09 156 11:59 06.07.2020
430 Clear 19 1010 77 16093 1.09 156 11:40 06.07.2020
431 Clear 19 1010 77 16093 1.45 162 11:22 06.07.2020
432 Clear 20 1010 68 16093 1.45 162 10:58 06.07.2020
433 Clear 20 1010 68 16093 1.45 162 10:58 06.07.2020
434 Clear 20 1010 68 16093 1.45 162 10:40 06.07.2020
435 Clear 20 1010 68 16093 1.53 168 10:19 06.07.2020
436 Clear 20 1011 77 14484 1.53 168 09:54 06.07.2020
437 Clear 20 1011 77 14484 1.53 168 09:36 06.07.2020
438 Clear 21 1011 77 14484 1.53 156 09:18 06.07.2020
439 Haze 21 1011 77 9656 1.58 159 08:40 06.07.2020
440 Haze 20 1011 77 9656 1.44 153 08:22 06.07.2020
441 Clear 21 1011 64 16093 1.44 153 07:50 06.07.2020
442 Clear 21 1011 64 16093 1.15 196 07:30 06.07.2020
443 Clear 21 1011 60 16093 1.15 196 06:55 06.07.2020
444 Clear 21 1011 60 16093 1.15 196 06:37 06.07.2020
445 Clear 23 1011 53 16093 1.5 270 05:55 06.07.2020
446 Clear 22 1011 53 16093 1.5 270 05:28 06.07.2020
447 Clear 27 1011 39 16093 2.6 260 03:58 06.07.2020
448 Clear 29 1011 37 16093 3.1 280 02:41 06.07.2020
449 Clear 30 1011 42 11265 2.6 0 01:59 06.07.2020
450 Clear 31 1012 45 12874 1.5 0 00:51 06.07.2020
451 Clear 30 1012 45 12874 1.5 0 00:25 06.07.2020
452 Clear 30 1012 45 11265 3.1 260 23:58 05.07.2020
453 Clear 30 1012 45 11265 3.1 260 23:39 05.07.2020
454 Clear 30 1012 45 11265 3.1 260 23:21 05.07.2020
455 Haze 31 1012 38 6437 4.02 232 22:57 05.07.2020
456 Haze 31 1012 38 6437 4.02 232 22:37 05.07.2020
457 Haze 31 1012 38 6437 2.95 222 22:18 05.07.2020
458 Clear 31 1013 29 11265 2.95 222 21:55 05.07.2020
459 Clear 31 1013 29 11265 2.95 222 21:37 05.07.2020
460 Clear 29 1013 29 11265 2.46 208 21:18 05.07.2020
461 Haze 29 1013 35 9656 2.46 208 20:41 05.07.2020
462 Haze 29 1013 35 9656 1.75 197 20:23 05.07.2020
463 Haze 28 1013 42 4828 1.5 120 19:58 05.07.2020
464 Haze 27 1013 42 4828 1.5 120 19:40 05.07.2020
465 Haze 27 1013 42 4828 1.5 120 19:20 05.07.2020
466 Haze 25 1014 47 3219 1.37 174 18:55 05.07.2020
467 Haze 24 1014 56 1609 1.37 174 18:36 05.07.2020
468 Haze 23 1014 56 1609 1.3 166 18:18 05.07.2020
469 Haze 22 1014 64 1207 1.3 166 17:42 05.07.2020
470 Haze 22 1014 64 1207 1.3 166 17:42 05.07.2020
471 Haze 20 1014 73 1609 1.06 167 17:19 05.07.2020
472 Haze 19 1014 77 4023 1.06 167 16:46 05.07.2020
473 Haze 18 1014 77 4023 0.88 178 16:26 05.07.2020
474 Haze 18 1013 77 3219 0.88 178 15:59 05.07.2020
475 Haze 18 1013 77 3219 0.92 184 15:40 05.07.2020
476 Haze 18 1013 77 3219 0.92 184 15:20 05.07.2020
477 Haze 18 1013 82 4828 0.92 184 14:55 05.07.2020
478 Haze 18 1013 82 4828 0.92 184 14:36 05.07.2020
479 Haze 18 1013 82 4828 1.12 170 14:18 05.07.2020
480 Haze 18 1013 82 4828 1.12 170 13:41 05.07.2020
481 Haze 18 1013 82 4828 1.36 177 13:23 05.07.2020
482 Haze 18 1013 82 4828 1.36 177 13:23 05.07.2020
483 Haze 19 1013 77 4828 1.36 177 12:46 05.07.2020
484 Haze 19 1013 77 4828 1.32 184 12:21 05.07.2020
485 Haze 19 1013 77 4828 1.32 184 11:56 05.07.2020
486 Haze 19 1013 77 4828 1.32 184 11:38 05.07.2020
487 Haze 18 1013 77 4023 1.46 173 11:19 05.07.2020
488 Haze 19 1014 82 3219 1.46 173 10:55 05.07.2020
489 Haze 19 1014 82 3219 1.46 173 10:37 05.07.2020
490 Haze 19 1014 82 4023 1.14 163 10:18 05.07.2020
491 Haze 19 1014 82 3219 1.14 163 09:41 05.07.2020
492 Haze 19 1014 82 2414 1.36 149 09:20 05.07.2020
493 Haze 20 1014 77 2816 1.36 149 08:57 05.07.2020
494 Haze 20 1014 77 2816 1.36 149 08:38 05.07.2020
495 Haze 20 1014 77 2816 1.32 148 08:19 05.07.2020
496 Haze 20 1014 77 1609 1.32 148 07:43 05.07.2020
497 Haze 21 1014 68 3219 1.54 183 07:22 05.07.2020
498 Haze 21 1014 68 2816 1.54 183 06:47 05.07.2020
499 Clear 25 1013 50 16093 2.6 260 04:37 05.07.2020
500 Clear 27 1013 41 16093 3.6 260 03:19 05.07.2020
501 Clear 28 1013 39 16093 2.6 260 02:41 05.07.2020
502 Clear 28 1014 44 16093 4.1 260 01:59 05.07.2020
503 Clear 28 1014 44 16093 4.1 260 01:32 05.07.2020
504 Clear 28 1014 44 16093 2.6 250 00:53 05.07.2020
505 Clear 28 1014 44 16093 2.6 250 00:31 05.07.2020
506 Clear 29 1015 47 16093 2.1 0 23:59 04.07.2020
507 Clear 29 1015 47 16093 2.1 0 23:41 04.07.2020
508 Clear 29 1015 47 16093 2.1 0 23:23 04.07.2020
509 Clear 29 1015 48 16093 4.93 240 22:43 04.07.2020
510 Clear 29 1015 48 16093 4.25 236 22:25 04.07.2020
511 Clear 29 1016 51 16093 1.5 0 21:59 04.07.2020
512 Clear 29 1016 51 16093 1.5 0 21:40 04.07.2020
513 Clear 28 1016 51 16093 1.5 0 21:22 04.07.2020
514 Clear 28 1016 45 16093 3.41 232 20:55 04.07.2020
515 Clear 27 1016 45 16093 3.41 232 20:36 04.07.2020
516 Clear 27 1016 45 16093 2.6 225 20:18 04.07.2020
517 Clear 26 1016 47 16093 2.6 225 19:42 04.07.2020
518 Clear 26 1016 47 16093 2.26 223 19:22 04.07.2020
519 Clear 26 1016 47 16093 2.26 223 19:22 04.07.2020
520 Clear 25 1016 57 16093 2.26 223 18:55 04.07.2020
521 Clear 24 1016 57 16093 2.26 223 18:37 04.07.2020
522 Clear 23 1016 57 16093 1.77 224 18:19 04.07.2020
523 Clear 22 1015 64 16093 1.77 224 17:42 04.07.2020
524 Clear 21 1015 64 16093 1.06 236 17:23 04.07.2020
525 Clear 20 1015 77 16093 1.06 236 16:57 04.07.2020
526 Clear 20 1015 77 16093 1.06 236 16:38 04.07.2020
527 Clear 19 1015 77 16093 1 241 16:19 04.07.2020
528 Clear 19 1015 77 16093 1 241 16:19 04.07.2020
529 Clear 17 1015 77 16093 1 241 15:46 04.07.2020
530 Clear 18 1015 77 16093 1.03 239 15:27 04.07.2020
531 Clear 18 1015 77 16093 1.03 239 14:59 04.07.2020
532 Clear 17 1015 77 16093 1.03 239 14:38 04.07.2020
533 Clear 17 1015 77 16093 0.83 230 14:19 04.07.2020
534 Clear 18 1015 77 16093 0.83 230 13:58 04.07.2020
535 Clear 18 1015 77 16093 0.83 230 13:40 04.07.2020
536 Clear 18 1015 77 16093 1.05 220 13:18 04.07.2020
537 Clear 18 1015 77 16093 1.05 220 12:42 04.07.2020
538 Clear 18 1015 77 16093 1.18 186 12:21 04.07.2020
539 Clear 18 1015 82 16093 1.18 186 11:56 04.07.2020
540 Clear 18 1015 82 16093 1.18 186 11:38 04.07.2020
541 Clear 18 1015 82 16093 1.23 178 11:19 04.07.2020
542 Clear 18 1015 82 16093 1.23 178 10:42 04.07.2020
543 Clear 18 1015 82 16093 1.1 176 10:22 04.07.2020
544 Clear 18 1015 77 12874 1.1 176 09:59 04.07.2020
545 Clear 18 1015 77 12874 1.09 196 09:38 04.07.2020
546 Clear 19 1015 77 12874 1.26 187 09:20 04.07.2020
547 Clear 19 1015 82 14484 1.26 187 08:48 04.07.2020
548 Clear 19 1015 82 14484 1.66 195 08:30 04.07.2020
549 Clear 19 1015 82 14484 1.66 195 08:30 04.07.2020
550 Clear 20 1014 77 16093 1.66 195 07:50 04.07.2020
551 Clear 20 1014 77 16093 1.93 206 07:31 04.07.2020
552 Clear 21 1014 64 16093 1.93 206 06:56 04.07.2020
553 Clear 21 1014 64 16093 2.3 223 06:23 04.07.2020
554 Clear 22 1014 56 16093 1.5 0 05:40 04.07.2020
555 Clear 24 1014 47 16093 2.1 260 04:55 04.07.2020
556 Clear 27 1014 47 16093 3.6 270 03:19 04.07.2020
557 Clear 28 1014 47 16093 4.25 234 02:35 04.07.2020
558 Clear 27 1015 47 16093 1.5 250 01:37 04.07.2020
559 Clear 28 1015 47 16093 2.1 0 00:47 04.07.2020
560 Clear 28 1015 47 16093 2.1 0 00:29 04.07.2020
561 Clear 28 1016 47 16093 4.41 238 23:54 03.07.2020
562 Clear 28 1016 47 16093 4.41 238 23:36 03.07.2020
563 Clear 27 1016 47 16093 4.11 238 23:18 03.07.2020
564 Clear 27 1016 47 16093 2.1 280 22:41 03.07.2020
565 Clear 27 1016 47 16093 2.1 280 22:23 03.07.2020
566 Clear 27 1016 54 16093 1.5 0 21:56 03.07.2020
567 Clear 26 1016 54 16093 1.5 0 21:37 03.07.2020
568 Clear 26 1016 54 16093 1.5 0 21:37 03.07.2020
569 Clear 24 1016 54 16093 1.5 0 21:19 03.07.2020
570 Clear 25 1016 54 16093 1.5 0 20:42 03.07.2020
571 Clear 25 1016 54 16093 1.5 0 20:24 03.07.2020
572 Clear 25 1016 53 16093 2.68 226 19:55 03.07.2020
573 Clear 25 1016 53 16093 2.68 226 19:37 03.07.2020
574 Clear 24 1016 53 16093 2.38 222 19:18 03.07.2020
575 Clear 22 1016 64 16093 2.38 222 18:42 03.07.2020
576 Clear 21 1016 64 16093 1.99 227 18:23 03.07.2020
577 Clear 20 1016 68 14484 1.5 270 17:47 03.07.2020
578 Clear 19 1016 68 14484 1.5 270 17:24 03.07.2020
579 Clear 18 1015 77 16093 1.53 233 16:59 03.07.2020
580 Clear 17 1015 77 16093 1.53 233 16:39 03.07.2020
581 Clear 17 1015 77 16093 1.21 238 16:20 03.07.2020
582 Clear 15 1015 87 14484 1.21 238 15:42 03.07.2020
583 Clear 15 1015 87 14484 1.15 231 15:23 03.07.2020
584 Clear 15 1015 82 16093 1.15 231 14:56 03.07.2020
585 Clear 15 1015 82 16093 1.11 244 14:37 03.07.2020
586 Clear 15 1015 82 16093 1.14 235 14:19 03.07.2020
587 Clear 16 1014 82 16093 1.18 243 13:43 03.07.2020
588 Clear 16 1014 82 16093 1.27 241 13:24 03.07.2020
589 Clear 16 1014 82 16093 1.27 241 12:45 03.07.2020
590 Clear 16 1014 82 16093 1.42 236 12:24 03.07.2020
591 Clear 16 1014 82 16093 1.42 236 11:58 03.07.2020
592 Clear 16 1014 82 16093 1.42 236 11:40 03.07.2020
593 Clear 16 1014 82 16093 1.36 227 11:21 03.07.2020
594 Clear 16 1014 77 16093 1.36 227 10:55 03.07.2020
595 Clear 16 1014 77 16093 1.43 224 10:37 03.07.2020
596 Clear 16 1014 77 16093 1.43 224 10:18 03.07.2020
597 Clear 16 1015 77 16093 1.5 260 09:42 03.07.2020
598 Clear 17 1015 77 16093 1.5 260 09:22 03.07.2020
599 Clear 17 1015 77 16093 1.94 223 08:59 03.07.2020
600 Clear 17 1015 77 16093 1.94 223 08:39 03.07.2020
601 Clear 17 1015 77 16093 2.32 222 08:18 03.07.2020
602 Clouds 17 1014 77 16093 1.5 250 07:47 03.07.2020
603 Clouds 17 1014 77 16093 1.5 250 07:25 03.07.2020
604 Clear 18 1014 72 16093 1.5 250 06:47 03.07.2020
605 Clear 19 1013 68 16093 1.5 250 05:59 03.07.2020
606 Clear 21 1013 60 16093 1.5 260 04:40 03.07.2020
607 Clear 23 1013 56 16093 2.1 270 03:26 03.07.2020
608 Clear 25 1013 53 16093 2.6 250 02:45 03.07.2020
609 Clear 25 1013 53 16093 2.6 250 02:23 03.07.2020
610 Clear 25 1013 53 16093 4.2 238 01:27 03.07.2020
611 Clear 25 1013 53 16093 2.6 280 00:44 03.07.2020
612 Clear 25 1013 53 16093 2.6 280 00:26 03.07.2020
613 Clear 26 1013 53 16093 3.1 270 23:44 02.07.2020
614 Clear 25 1013 53 16093 3.1 270 23:20 02.07.2020
615 Clear 25 1014 53 16093 2.6 270 22:57 02.07.2020
616 Clear 25 1014 53 16093 2.6 270 22:39 02.07.2020
617 Clear 25 1014 53 16093 2.6 270 22:20 02.07.2020
618 Clear 25 1014 47 16093 3.5 213 21:55 02.07.2020
619 Clear 24 1014 47 16093 3.86 216 21:37 02.07.2020
620 Clear 23 1014 47 16093 3.39 202 21:18 02.07.2020
621 Clouds 23 1014 53 16093 3.39 202 20:57 02.07.2020
622 Clouds 23 1014 53 16093 3.39 202 20:39 02.07.2020
623 Clouds 22 1014 53 16093 2.9 192 20:18 02.07.2020
624 Clouds 21 1014 60 16093 2.1 170 19:41 02.07.2020
625 Clouds 21 1014 60 16093 2.1 170 19:22 02.07.2020
626 Clouds 20 1014 68 16093 2.15 185 18:57 02.07.2020
627 Clouds 19 1014 68 16093 2.15 185 18:39 02.07.2020
628 Clouds 19 1014 68 16093 2 165 18:21 02.07.2020
629 Clouds 18 1014 68 16093 1.5 110 17:41 02.07.2020
630 Clouds 18 1014 68 16093 1.5 110 17:20 02.07.2020
631 Clouds 18 1013 68 16093 2.14 161 16:58 02.07.2020
632 Clouds 18 1013 68 16093 2.14 161 16:40 02.07.2020
633 Clouds 18 1013 68 16093 1.98 150 16:20 02.07.2020
634 Clouds 18 1013 68 16093 1.98 150 15:55 02.07.2020
635 Clouds 18 1013 68 16093 1.98 150 15:36 02.07.2020
636 Clouds 18 1013 68 16093 1.85 141 15:18 02.07.2020
637 Clouds 18 1012 72 16093 1.5 100 14:43 02.07.2020
638 Clouds 18 1012 72 16093 1.5 100 14:21 02.07.2020
639 Clouds 18 1012 72 16093 1.5 0 13:56 02.07.2020
640 Clouds 18 1012 72 16093 1.5 0 13:37 02.07.2020
641 Clouds 18 1012 72 16093 1.5 0 13:18 02.07.2020
642 Clouds 18 1012 72 16093 1.5 0 12:41 02.07.2020
643 Clouds 17 1012 72 16093 1.5 0 12:22 02.07.2020
644 Clouds 17 1012 77 16093 1.73 167 11:57 02.07.2020
645 Clouds 17 1012 77 16093 1.73 167 11:39 02.07.2020
646 Clouds 17 1012 77 16093 1.87 177 11:21 02.07.2020
647 Clouds 17 1013 77 16093 1.87 177 10:42 02.07.2020
648 Clouds 17 1013 77 16093 1.87 177 10:42 02.07.2020
649 Clouds 17 1013 77 16093 1.75 182 10:24 02.07.2020
650 Clouds 17 1013 82 16093 1.75 182 09:55 02.07.2020
651 Clouds 17 1013 82 16093 1.75 182 09:36 02.07.2020
652 Clouds 17 1013 82 14484 1.73 196 09:18 02.07.2020
653 Clear 16 1012 77 14484 1.71 188 08:42 02.07.2020
654 Clear 17 1012 77 14484 1.92 211 08:21 02.07.2020
655 Clear 17 1012 77 16093 1.5 0 07:43 02.07.2020
656 Clear 17 1012 77 16093 1.5 0 07:23 02.07.2020
657 Clear 17 1011 72 16093 2.1 260 06:53 02.07.2020
658 Clear 17 1011 72 16093 2.1 260 06:34 02.07.2020
659 Clear 18 1011 72 16093 2.6 270 05:50 02.07.2020
660 Clear 19 1011 72 16093 2.6 270 05:19 02.07.2020
661 Clear 22 1011 60 16093 2.6 260 03:35 02.07.2020
662 Clear 24 1011 56 16093 1.5 0 01:53 02.07.2020
663 Clear 24 1012 56 16093 4.33 229 00:46 02.07.2020
664 Clear 24 1012 56 16093 4.44 222 00:22 02.07.2020
665 Clouds 24 1012 60 16093 4.44 222 23:45 01.07.2020
666 Clouds 23 1012 60 16093 4.22 212 23:26 01.07.2020
667 Clouds 23 1013 56 16093 4.22 212 22:56 01.07.2020
668 Clouds 23 1013 56 16093 4.22 212 22:38 01.07.2020
669 Clouds 22 1013 56 16093 3.7 200 22:19 01.07.2020
670 Clouds 21 1013 60 16093 3.7 200 21:58 01.07.2020
671 Clouds 21 1013 60 16093 3.7 200 21:40 01.07.2020
672 Clouds 20 1013 60 16093 3.34 193 21:21 01.07.2020
673 Clouds 20 1013 64 16093 3.34 193 20:54 01.07.2020
674 Clouds 20 1013 64 16093 3.34 193 20:36 01.07.2020
675 Clouds 20 1013 64 16093 2.96 181 20:18 01.07.2020
676 Clouds 19 1013 68 16093 2.96 181 19:42 01.07.2020
677 Clouds 19 1013 68 16093 2.43 175 19:23 01.07.2020
678 Clouds 19 1013 72 16093 2.43 175 18:59 01.07.2020
679 Clouds 19 1013 72 16093 2.43 175 18:40 01.07.2020
680 Clouds 18 1013 72 16093 2.14 158 18:21 01.07.2020
681 Clouds 18 1012 72 16093 2.14 158 17:55 01.07.2020
682 Clouds 18 1012 72 16093 2.14 158 17:37 01.07.2020
683 Clouds 18 1012 72 16093 2.03 157 17:18 01.07.2020
684 Clouds 18 1012 72 16093 2.03 157 16:43 01.07.2020
685 Clouds 18 1012 72 16093 1.98 152 16:24 01.07.2020
686 Clouds 18 1012 68 16093 1.98 152 15:43 01.07.2020
687 Clouds 18 1012 68 16093 1.93 152 15:25 01.07.2020
688 Clouds 18 1012 68 16093 1.5 0 14:59 01.07.2020
689 Clouds 18 1012 68 16093 1.5 0 14:41 01.07.2020
690 Clouds 18 1012 68 16093 1.5 0 14:20 01.07.2020
691 Clouds 17 1012 68 16093 1.81 163 13:56 01.07.2020
692 Clouds 17 1012 68 16093 1.81 163 13:37 01.07.2020
693 Clouds 17 1012 68 16093 1.92 167 13:19 01.07.2020
694 Clouds 17 1012 68 16093 1.92 167 12:54 01.07.2020
695 Clouds 17 1012 68 16093 1.92 167 12:36 01.07.2020
696 Clouds 17 1012 68 16093 1.98 159 12:18 01.07.2020
697 Clouds 17 1012 68 16093 1.98 159 11:40 01.07.2020
698 Clouds 17 1012 68 16093 2.1 164 11:21 01.07.2020
699 Clouds 17 1012 77 16093 2.1 164 10:57 01.07.2020
700 Clouds 17 1012 77 16093 2.1 164 10:39 01.07.2020
701 Clouds 17 1012 77 16093 2.37 168 10:20 01.07.2020
702 Clouds 17 1013 77 16093 2.37 168 09:40 01.07.2020
703 Clouds 17 1013 72 16093 2.55 166 09:20 01.07.2020
704 Clouds 17 1013 72 16093 2.55 166 08:59 01.07.2020
705 Clouds 17 1013 72 16093 2.55 166 08:40 01.07.2020
706 Clouds 17 1013 72 16093 2.36 176 08:20 01.07.2020
707 Clouds 17 1013 77 16093 2.36 176 07:43 01.07.2020
708 Clouds 17 1013 77 16093 1.94 186 07:25 01.07.2020
709 Clouds 17 1012 77 16093 1.94 186 06:59 01.07.2020
710 Clouds 17 1012 77 16093 1.94 186 06:40 01.07.2020
711 Clouds 17 1012 77 16093 2.18 208 06:20 01.07.2020
712 Clouds 19 1012 72 16093 1.5 240 04:30 01.07.2020
713 Clear 20 1011 64 16093 2.1 260 03:44 01.07.2020
714 Clear 21 1011 64 16093 2.1 260 03:26 01.07.2020
715 Rain 23 1011 60 16093 4.09 235 02:33 01.07.2020
716 Clear 24 1012 60 16093 2.1 250 01:26 01.07.2020
717 Clear 24 1012 60 16093 3.1 260 00:40 01.07.2020
718 Clear 24 1012 60 16093 3.1 260 00:21 01.07.2020
719 Clear 24 1013 56 16093 2.1 0 23:40 30.06.2020
720 Clear 24 1013 56 16093 2.1 0 23:21 30.06.2020
721 Clear 24 1013 53 16093 5.25 243 22:43 30.06.2020
722 Clear 24 1013 53 16093 4.78 238 22:20 30.06.2020
723 Clouds 24 1014 53 16093 1.5 0 21:59 30.06.2020
724 Clouds 24 1014 53 16093 1.5 0 21:40 30.06.2020
725 Clouds 23 1014 53 16093 1.5 0 21:19 30.06.2020
726 Clouds 22 1014 53 16093 4.22 238 20:43 30.06.2020
727 Clouds 22 1014 53 16093 3.46 240 20:21 30.06.2020
728 Clouds 21 1014 64 16093 4.1 250 19:55 30.06.2020
729 Clouds 21 1014 56 16093 3.46 240 19:36 30.06.2020
730 Clouds 21 1014 56 16093 2.98 238 19:18 30.06.2020
731 Clouds 20 1015 64 16093 2.98 238 18:42 30.06.2020
732 Clouds 19 1014 60 16093 2.47 241 18:20 30.06.2020
733 Clear 18 1014 68 16093 1.5 0 17:57 30.06.2020
734 Clear 18 1014 68 16093 1.5 0 17:37 30.06.2020
735 Clear 18 1014 68 16093 1.5 0 17:18 30.06.2020
736 Clouds 17 1014 68 16093 1.5 270 16:41 30.06.2020
737 Clouds 16 1014 77 16093 1.4 225 16:23 30.06.2020
738 Clouds 15 1014 77 16093 1.4 225 15:57 30.06.2020
739 Clouds 15 1014 77 16093 1.4 225 15:39 30.06.2020
740 Clear 15 1013 77 16093 1.17 226 15:20 30.06.2020
741 Clear 15 1013 77 16093 1.17 226 14:47 30.06.2020
742 Clear 15 1013 77 16093 1.52 190 14:22 30.06.2020
743 Clear 15 1013 72 16093 1.52 190 13:59 30.06.2020
744 Clear 15 1013 72 16093 1.52 190 13:39 30.06.2020
745 Clear 15 1013 72 16093 1.67 192 13:20 30.06.2020
746 Clear 15 1013 72 16093 1.67 192 12:57 30.06.2020
747 Clear 15 1013 72 16093 1.67 192 12:39 30.06.2020
748 Clear 15 1013 72 16093 1.79 191 12:20 30.06.2020
749 Clear 15 1013 72 16093 1.79 191 11:57 30.06.2020
750 Clear 15 1013 72 16093 1.79 191 11:38 30.06.2020
751 Clear 15 1013 72 16093 1.79 191 11:38 30.06.2020
752 Clear 15 1013 72 16093 1.82 189 11:19 30.06.2020
753 Clear 15 1014 72 16093 1.82 189 10:56 30.06.2020
754 Clouds 19 1011 72 16093 1.5 0 16:38 28.06.2020
755 Clouds 19 1011 72 16093 1.5 0 16:19 28.06.2020
756 Clouds 19 1011 72 16093 1.5 0 15:56 28.06.2020
757 Clouds 18 1011 72 16093 1.5 0 15:37 28.06.2020
758 Clouds 18 1011 72 16093 1.5 0 15:18 28.06.2020
759 Clouds 18 1011 72 16093 2.95 138 14:43 28.06.2020
760 Clouds 18 1011 72 16093 2.14 154 14:24 28.06.2020
761 Clouds 18 1011 72 16093 2.14 154 13:55 28.06.2020
762 Clouds 18 1011 72 16093 2.14 154 13:36 28.06.2020
763 Clouds 18 1011 72 16093 2.13 153 13:18 28.06.2020
764 Clouds 18 1011 72 16093 2.13 153 12:55 28.06.2020
765 Clouds 18 1011 72 16093 2.13 153 12:36 28.06.2020
766 Clouds 18 1011 72 16093 2.11 157 12:18 28.06.2020
767 Clouds 18 1011 72 16093 2.11 157 11:43 28.06.2020
768 Clouds 18 1011 72 16093 2.14 160 11:21 28.06.2020
769 Clouds 18 1011 72 16093 2.14 160 10:59 28.06.2020
770 Clouds 18 1011 72 16093 2.14 160 10:41 28.06.2020
771 Clouds 18 1011 72 16093 2.14 160 10:41 28.06.2020
772 Clouds 18 1011 72 16093 2.19 159 10:22 28.06.2020
773 Clouds 18 1011 72 16093 1.5 270 09:43 28.06.2020
774 Clouds 18 1011 72 16093 1.5 270 09:23 28.06.2020
775 Clouds 18 1012 72 16093 1.89 176 08:58 28.06.2020
776 Clouds 18 1012 72 16093 1.89 176 08:40 28.06.2020
777 Clouds 18 1012 72 16093 2.08 185 08:21 28.06.2020
778 Clouds 18 1012 72 16093 2.08 185 07:39 28.06.2020
779 Clear 18 1011 72 16093 1.5 270 06:58 28.06.2020
780 Clear 18 1011 72 16093 1.5 270 06:32 28.06.2020
781 Clear 19 1011 68 16093 1.5 0 05:54 28.06.2020
782 Clear 20 1011 68 16093 1.5 0 05:24 28.06.2020
783 Clear 23 1011 60 16093 2.1 260 03:18 28.06.2020
784 Clear 24 1011 60 16093 2.1 0 02:23 28.06.2020
785 Clear 25 1011 57 16093 2.1 0 01:46 28.06.2020
786 Clear 25 1011 57 16093 2.1 0 01:22 28.06.2020
787 Clear 25 1012 57 16093 2.6 260 00:43 28.06.2020
788 Clear 26 1012 57 16093 2.6 260 00:22 28.06.2020
789 Clear 25 1012 57 16093 2.1 250 23:40 27.06.2020
790 Clear 25 1012 57 16093 2.1 250 23:22 27.06.2020
791 Clear 26 1012 53 12874 4.12 231 22:58 27.06.2020
792 Clear 25 1012 53 12874 4.12 231 22:39 27.06.2020
793 Clear 25 1012 53 12874 3.53 232 22:19 27.06.2020
794 Clear 25 1013 60 12874 1.5 0 21:42 27.06.2020
795 Clear 24 1013 60 12874 1.5 0 21:21 27.06.2020
796 Clouds 23 1014 72 11265 2.6 220 20:57 27.06.2020
797 Clouds 23 1014 72 11265 2.6 220 20:57 27.06.2020
798 Clouds 23 1014 72 11265 2.6 220 20:37 27.06.2020
799 Haze 22 1013 72 9656 1.5 250 20:18 27.06.2020
800 Haze 22 1013 68 8047 3.1 233 19:54 27.06.2020
801 Haze 21 1013 72 8047 3.1 233 19:36 27.06.2020
802 Haze 20 1013 72 8047 2.76 229 19:18 27.06.2020
803 Haze 19 1013 77 8047 2.76 229 18:43 27.06.2020
804 Haze 19 1013 77 8047 2.38 226 18:22 27.06.2020
805 Haze 18 1013 77 8047 2.38 226 17:55 27.06.2020
806 Haze 18 1013 77 8047 2.38 226 17:37 27.06.2020
807 Haze 18 1013 77 8047 1.78 217 17:19 27.06.2020
808 Haze 17 1013 77 8047 1.5 270 16:43 27.06.2020
809 Haze 17 1013 77 8047 1.5 260 16:24 27.06.2020
810 Clouds 17 1012 82 11265 1.42 226 15:55 27.06.2020
811 Clouds 17 1012 82 11265 1.42 226 15:37 27.06.2020
812 Clouds 17 1012 82 11265 1.52 224 15:18 27.06.2020
813 Clouds 17 1012 82 11265 1.37 228 14:41 27.06.2020
814 Clouds 17 1012 82 11265 1.41 232 14:23 27.06.2020
815 Clouds 17 1012 82 11265 1.41 232 13:57 27.06.2020
816 Clouds 17 1012 82 11265 1.41 232 13:37 27.06.2020
817 Clouds 17 1012 82 11265 1.62 235 13:19 27.06.2020
818 Clouds 17 1012 82 11265 1.62 235 13:19 27.06.2020
819 Clouds 16 1012 82 11265 1.5 260 12:56 27.06.2020
820 Clouds 16 1012 82 11265 1.5 260 12:37 27.06.2020
821 Clouds 17 1012 82 11265 1.5 260 12:19 27.06.2020
822 Clouds 16 1012 82 14484 1.56 230 11:42 27.06.2020
823 Clouds 16 1012 82 14484 1.79 221 11:23 27.06.2020
824 Clouds 17 1012 82 16093 1.79 221 10:59 27.06.2020
825 Clouds 17 1012 82 16093 1.79 221 10:38 27.06.2020
826 Clouds 17 1012 82 16093 1.8 218 10:18 27.06.2020
827 Haze 17 1013 82 9656 1.8 218 09:41 27.06.2020
828 Haze 17 1013 82 9656 1.9 222 09:21 27.06.2020
829 Clouds 17 1013 77 14484 2.1 0 08:56 27.06.2020
830 Clouds 17 1013 77 14484 2.1 0 08:38 27.06.2020
831 Clouds 18 1013 77 14484 2.1 0 08:19 27.06.2020
832 Clouds 18 1013 77 16093 1.5 280 07:38 27.06.2020
833 Clouds 18 1013 77 16093 1.5 280 07:19 27.06.2020
834 Clouds 18 1012 77 16093 2.1 270 06:38 27.06.2020
835 Clouds 19 1012 77 16093 2.1 270 06:19 27.06.2020
836 Clear 21 1012 68 16093 2.1 250 04:22 27.06.2020
837 Clear 22 1011 64 16093 3.6 270 03:51 27.06.2020
838 Clear 24 1011 60 16093 1.5 0 02:49 27.06.2020
839 Clear 24 1011 60 16093 1.5 0 02:29 27.06.2020
840 Clear 26 1012 60 16093 2.1 250 01:42 27.06.2020
841 Clear 26 1012 60 16093 2.6 250 00:56 27.06.2020
842 Clear 26 1012 60 16093 2.6 250 00:28 27.06.2020
843 Clear 26 1012 57 16093 4.6 240 23:44 26.06.2020
844 Clear 25 1012 57 16093 4.2 243 23:25 26.06.2020
845 Clear 26 1012 57 16093 2.6 260 22:56 26.06.2020
846 Clear 26 1012 57 16093 2.6 260 22:38 26.06.2020
847 Clear 26 1012 57 16093 2.6 260 22:19 26.06.2020
848 Clear 25 1013 60 16093 3.79 238 21:57 26.06.2020
849 Clear 25 1013 60 16093 3.79 238 21:37 26.06.2020
850 Clear 24 1013 60 16093 3.72 236 21:19 26.06.2020
851 Clouds 23 1013 60 14484 3.72 236 20:43 26.06.2020
852 Clouds 23 1013 60 14484 3.44 233 20:21 26.06.2020
853 Clouds 22 1013 68 12874 3.44 233 19:47 26.06.2020
854 Clouds 21 1013 68 12874 2.93 227 19:23 26.06.2020
855 Clouds 20 1013 72 12874 2.93 227 18:57 26.06.2020
856 Clouds 20 1013 72 12874 2.93 227 18:37 26.06.2020
857 Clouds 19 1013 72 12874 2.42 224 18:19 26.06.2020
858 Clouds 18 1013 77 12874 2.42 224 17:44 26.06.2020
859 Clouds 18 1013 77 12874 1.99 235 17:24 26.06.2020
860 Haze 18 1013 77 9656 2.1 260 16:49 26.06.2020
861 Clouds 17 1013 77 16093 1.64 241 16:27 26.06.2020
862 Clouds 17 1012 77 16093 1.64 241 15:55 26.06.2020
863 Clouds 17 1012 77 16093 1.64 241 15:37 26.06.2020
864 Clouds 17 1012 77 16093 1.68 242 15:19 26.06.2020
865 Clouds 17 1012 77 16093 1.68 242 14:57 26.06.2020
866 Clouds 17 1012 77 16093 1.46 231 14:38 26.06.2020
867 Clouds 17 1012 77 16093 1.46 233 14:20 26.06.2020
868 Clouds 17 1012 77 16093 1.46 233 13:44 26.06.2020
869 Clouds 17 1012 77 16093 1.61 241 13:23 26.06.2020
870 Clouds 17 1011 77 16093 1.61 241 12:56 26.06.2020
871 Clouds 17 1012 82 16093 2.1 230 12:37 26.06.2020
872 Clouds 17 1011 77 16093 1.64 227 12:18 26.06.2020
873 Clouds 17 1012 77 16093 1.64 227 11:55 26.06.2020
874 Clouds 17 1012 77 16093 1.64 227 11:36 26.06.2020
875 Clouds 17 1012 82 16093 2.1 260 11:18 26.06.2020
876 Clouds 17 1012 77 16093 1.85 235 10:55 26.06.2020
877 Clouds 17 1012 77 16093 1.85 235 10:37 26.06.2020
878 Clouds 17 1012 77 16093 1.75 220 10:18 26.06.2020
879 Clear 17 1012 77 16093 1.75 220 09:41 26.06.2020
880 Clear 17 1012 77 16093 1.62 222 09:20 26.06.2020
881 Clear 17 1012 77 16093 1.62 222 08:45 26.06.2020
882 Clear 17 1012 77 16093 1.86 225 08:27 26.06.2020
883 Clear 17 1012 77 16093 1.5 0 07:48 26.06.2020
884 Clear 17 1012 77 16093 1.5 0 07:23 26.06.2020
885 Clear 18 1011 72 16093 2.6 260 06:52 26.06.2020
886 Clear 18 1011 72 16093 2.6 260 06:30 26.06.2020
887 Clear 19 1010 68 16093 2.1 260 05:55 26.06.2020
888 Clear 19 1010 68 16093 2.1 260 05:29 26.06.2020
889 Clear 24 1010 60 16093 2.1 260 02:40 26.06.2020
890 Clear 24 1010 60 16093 2.1 260 02:21 26.06.2020
891 Clear 25 1010 60 16093 2.6 250 00:55 26.06.2020
892 Clear 25 1010 60 16093 2.6 250 00:32 26.06.2020
893 Clear 25 1010 60 12874 4.23 228 23:48 25.06.2020
894 Clear 25 1010 60 12874 4.05 224 23:23 25.06.2020
895 Clear 25 1011 64 12874 2.6 270 22:59 25.06.2020
896 Clear 25 1011 64 12874 2.6 270 22:40 25.06.2020
897 Clear 24 1011 64 12874 2.6 270 22:21 25.06.2020
898 Clear 24 1011 64 12874 2.6 270 22:21 25.06.2020
899 Clouds 24 1011 68 14484 3.67 219 21:58 25.06.2020
900 Clouds 23 1011 68 14484 3.67 219 21:40 25.06.2020
901 Clouds 23 1011 68 14484 3.67 219 21:40 25.06.2020
902 Clouds 23 1011 68 14484 3.2 212 21:21 25.06.2020
903 Clouds 22 1011 68 16093 3.32 219 20:59 25.06.2020
904 Clouds 21 1011 68 16093 3.32 219 20:41 25.06.2020
905 Clouds 21 1011 68 16093 2.59 209 20:23 25.06.2020
906 Clouds 20 1011 72 16093 2.59 209 19:56 25.06.2020
907 Clouds 20 1011 72 16093 2.59 209 19:37 25.06.2020
908 Clouds 19 1012 72 11265 2.34 205 19:18 25.06.2020
909 Clouds 19 1012 72 11265 2.34 205 18:55 25.06.2020
910 Clouds 19 1012 72 11265 2.34 205 18:36 25.06.2020
911 Clouds 19 1012 72 11265 2.24 212 18:18 25.06.2020
912 Clouds 18 1011 72 11265 2.24 212 17:39 25.06.2020
913 Clouds 18 1011 72 11265 1.78 218 17:19 25.06.2020
914 Clouds 18 1011 72 12874 1.78 218 16:41 25.06.2020
915 Clouds 18 1011 72 12874 1.4 234 16:22 25.06.2020
916 Clouds 18 1010 72 12874 1.4 234 15:59 25.06.2020
917 Clouds 18 1010 72 12874 1.4 234 15:40 25.06.2020
918 Clouds 17 1010 72 12874 1.52 225 15:19 25.06.2020
919 Clouds 17 1010 77 12874 1.52 225 14:43 25.06.2020
920 Clouds 17 1010 77 12874 1.4 209 14:23 25.06.2020
921 Clouds 17 1009 77 12874 1.4 209 13:56 25.06.2020
922 Clouds 17 1009 77 12874 1.69 207 13:37 25.06.2020
923 Clouds 17 1009 77 12874 1.69 207 13:19 25.06.2020
924 Clouds 17 1009 77 14484 1.69 207 12:44 25.06.2020
925 Clouds 17 1009 77 14484 1.9 210 12:20 25.06.2020
926 Clouds 17 1010 77 16093 1.5 270 11:58 25.06.2020
927 Clouds 18 1010 77 16093 1.5 270 11:38 25.06.2020
928 Clouds 18 1010 77 16093 1.5 270 11:20 25.06.2020
929 Clouds 18 1010 77 16093 1.5 270 11:20 25.06.2020
930 Clouds 17 1010 77 16093 1.82 218 10:42 25.06.2020
931 Clouds 17 1010 77 16093 1.76 215 10:23 25.06.2020
932 Clouds 18 1011 77 16093 1.76 215 09:41 25.06.2020
933 Clouds 18 1011 77 16093 1.93 227 09:23 25.06.2020
934 Clouds 18 1011 82 14484 1.93 227 08:56 25.06.2020
935 Clouds 18 1011 82 14484 1.93 227 08:38 25.06.2020
936 Clouds 17 1011 82 14484 1.88 204 08:18 25.06.2020
937 Clouds 17 1011 77 16093 3.1 240 07:41 25.06.2020
938 Clouds 18 1011 82 16093 3.1 250 07:21 25.06.2020
939 Clouds 18 1010 77 16093 2.55 229 06:31 25.06.2020
940 Clouds 18 1009 72 16093 1.5 250 05:55 25.06.2020
941 Clouds 18 1009 72 16093 1.5 250 05:29 25.06.2020
942 Clear 21 1009 68 16093 2.1 0 03:39 25.06.2020
943 Clear 23 1009 64 16093 3.6 260 02:46 25.06.2020
944 Clear 24 1009 64 16093 3.6 260 02:25 25.06.2020
945 Clear 24 1009 60 16093 2.1 250 01:41 25.06.2020
946 Clear 25 1009 60 16093 3.6 270 00:50 25.06.2020
947 Clear 26 1009 60 16093 3.6 270 00:22 25.06.2020
948 Clear 25 1010 60 16093 5.11 239 23:58 24.06.2020
949 Clear 25 1010 60 16093 5.11 239 23:38 24.06.2020
950 Clear 26 1010 60 16093 3.92 234 23:19 24.06.2020
951 Clear 25 1010 60 11265 2.1 0 22:42 24.06.2020
952 Clear 26 1010 60 11265 2.1 0 22:42 24.06.2020
953 Clear 25 1010 60 11265 2.1 0 22:21 24.06.2020
954 Haze 25 1010 60 8047 3.08 230 21:57 24.06.2020
955 Haze 25 1010 60 8047 3.08 230 21:37 24.06.2020
956 Haze 24 1010 60 8047 2.99 231 21:19 24.06.2020
957 Haze 24 1011 64 8047 3.27 231 20:59 24.06.2020
958 Haze 24 1011 64 8047 3.27 231 20:40 24.06.2020
959 Haze 23 1011 64 8047 2.98 230 20:22 24.06.2020
960 Haze 22 1011 68 6437 2.98 230 19:59 24.06.2020
961 Haze 22 1011 68 6437 2.98 230 19:39 24.06.2020
962 Haze 21 1011 68 6437 2.75 229 19:21 24.06.2020
963 Haze 20 1012 77 6437 2.75 229 18:58 24.06.2020
964 Haze 20 1012 77 6437 2.75 229 18:58 24.06.2020
965 Haze 20 1012 77 6437 2.75 229 18:40 24.06.2020
966 Haze 19 1012 77 6437 2.28 232 18:22 24.06.2020
967 Haze 18 1012 77 6437 1.5 260 17:56 24.06.2020
968 Haze 18 1012 77 6437 1.5 260 17:38 24.06.2020
969 Haze 18 1012 77 6437 1.5 260 17:19 24.06.2020
970 Haze 18 1011 77 8047 1.55 223 16:56 24.06.2020
971 Haze 17 1011 77 8047 1.55 223 16:38 24.06.2020
972 Haze 17 1011 77 8047 1.23 204 16:20 24.06.2020
973 Haze 17 1012 77 9656 1.23 204 15:56 24.06.2020
974 Haze 17 1012 77 9656 1.23 204 15:37 24.06.2020
975 Haze 17 1012 77 9656 1.33 199 15:19 24.06.2020
976 Clouds 17 1011 82 11265 1.33 199 14:43 24.06.2020
977 Clouds 17 1011 82 11265 1.63 206 14:24 24.06.2020
978 Clouds 17 1011 82 11265 1.7 220 13:43 24.06.2020
979 Clouds 17 1011 82 11265 1.73 221 13:22 24.06.2020
980 Clouds 17 1012 82 12874 1.73 221 12:59 24.06.2020
981 Clouds 17 1012 82 12874 1.73 221 12:41 24.06.2020
982 Clouds 17 1012 82 12874 1.27 229 12:20 24.06.2020
983 Clouds 17 1012 82 16093 1.5 270 11:56 24.06.2020
984 Clouds 17 1012 82 16093 1.5 270 11:38 24.06.2020
985 Clouds 17 1012 82 16093 1.5 270 11:18 24.06.2020
986 Clouds 17 1012 82 16093 1.5 280 10:43 24.06.2020
987 Clouds 17 1012 82 16093 1.5 280 10:19 24.06.2020
988 Clouds 17 1012 77 16093 1.81 207 09:43 24.06.2020
989 Clouds 17 1012 77 16093 2.18 221 09:22 24.06.2020
990 Clouds 17 1012 77 16093 2.18 221 08:45 24.06.2020
991 Clouds 17 1012 77 16093 2.36 210 08:26 24.06.2020
992 Clouds 17 1012 77 16093 2.36 210 07:58 24.06.2020
993 Clouds 18 1012 77 16093 2.36 210 07:40 24.06.2020
994 Clouds 18 1012 77 16093 1.83 213 07:18 24.06.2020
995 Clouds 18 1012 77 16093 1.83 213 06:40 24.06.2020
996 Clouds 18 1012 77 16093 2.22 225 06:21 24.06.2020
997 Clouds 19 1012 82 16093 2.1 270 05:38 24.06.2020
998 Clear 21 1011 68 16093 2.6 260 04:38 24.06.2020
999 Clear 23 1011 64 16093 2.6 260 03:37 24.06.2020
1000 Clear 24 1012 64 16093 3.1 250 02:53 24.06.2020
1001 Clear 25 1012 64 16093 3.1 250 02:18 24.06.2020
1002 Clear 25 1013 64 14484 1.5 0 00:51 24.06.2020
1003 Clear 25 1013 64 14484 1.5 0 00:33 24.06.2020
1004 Clear 26 1013 60 16093 4.5 236 23:48 23.06.2020
1005 Clear 25 1013 60 16093 4.04 232 23:21 23.06.2020
1006 Haze 25 1013 57 9656 4.04 232 22:59 23.06.2020
1007 Haze 25 1013 57 9656 4.04 232 22:41 23.06.2020
1008 Haze 25 1013 57 9656 3.5 215 22:18 23.06.2020
1009 Haze 25 1014 64 8047 3.5 215 21:56 23.06.2020
1010 Haze 25 1014 64 8047 3.5 215 21:37 23.06.2020
1011 Haze 24 1014 64 8047 2.97 206 21:18 23.06.2020
1012 Haze 23 1014 64 6437 1.5 0 20:54 23.06.2020
1013 Haze 22 1014 68 6437 2.58 213 20:36 23.06.2020
1014 Haze 22 1014 68 6437 2.58 213 20:18 23.06.2020
1015 Haze 21 1014 73 6437 2.58 213 19:41 23.06.2020
1016 Haze 21 1014 73 6437 2.58 213 19:41 23.06.2020
1017 Haze 21 1014 73 6437 1.87 193 19:23 23.06.2020
1018 Haze 19 1014 77 8047 1.87 193 18:39 23.06.2020
1019 Haze 19 1014 77 8047 1.9 194 18:19 23.06.2020
1020 Haze 18 1014 77 8047 1.9 194 17:44 23.06.2020
1021 Haze 18 1014 77 8047 1.92 198 17:25 23.06.2020
1022 Haze 18 1014 82 8047 1.92 198 16:57 23.06.2020
1023 Haze 18 1014 82 8047 1.92 198 16:38 23.06.2020
1024 Haze 17 1014 82 9656 1.38 179 16:20 23.06.2020
1025 Clouds 17 1014 82 12874 1.38 179 15:59 23.06.2020
1026 Clouds 17 1014 82 12874 1.38 179 15:41 23.06.2020
1027 Clouds 17 1014 82 12874 0.9 163 15:22 23.06.2020
1028 Clouds 17 1014 82 12874 0.9 163 14:54 23.06.2020
1029 Clouds 17 1014 82 12874 1.9 205 14:36 23.06.2020
1030 Clouds 17 1014 82 12874 1.9 205 14:18 23.06.2020
1031 Clouds 17 1013 82 16093 1.9 205 13:42 23.06.2020
1032 Clouds 17 1013 82 16093 1.88 226 13:23 23.06.2020
1033 Clouds 17 1013 82 16093 1.88 226 13:23 23.06.2020
1034 Clouds 17 1013 82 12874 1.88 226 12:46 23.06.2020
1035 Clouds 17 1013 82 12874 2.1 229 12:23 23.06.2020
1036 Clouds 17 1013 77 16093 2.1 229 11:59 23.06.2020
1037 Clouds 17 1013 77 16093 2.1 229 11:40 23.06.2020
1038 Clouds 17 1013 77 16093 1.93 211 11:20 23.06.2020
1039 Clouds 17 1014 88 16093 2.6 210 10:58 23.06.2020
1040 Clouds 17 1014 88 16093 2.6 210 10:39 23.06.2020
1041 Clouds 17 1014 88 16093 2.6 210 10:21 23.06.2020
1042 Clouds 17 1014 82 16093 1.69 189 09:55 23.06.2020
1043 Clouds 17 1014 82 16093 1.69 189 09:37 23.06.2020
1044 Clouds 17 1014 82 16093 1.59 211 09:18 23.06.2020
1045 Clouds 17 1014 82 12874 1.59 211 08:42 23.06.2020
1046 Clouds 18 1014 82 12874 1.93 217 08:22 23.06.2020
1047 Clouds 18 1014 82 11265 1.93 217 07:45 23.06.2020
1048 Clouds 18 1014 82 16093 2.11 213 07:24 23.06.2020
1049 Clouds 18 1013 82 16093 2.11 213 06:52 23.06.2020
1050 Clouds 19 1013 77 16093 2.23 221 06:32 23.06.2020
1051 Clear 19 1013 77 16093 2.1 260 05:54 23.06.2020
1052 Clear 21 1013 68 16093 2.1 250 04:42 23.06.2020
1053 Clear 23 1013 68 16093 2.6 250 03:21 23.06.2020
1054 Clear 24 1014 64 16093 3.1 250 02:48 23.06.2020
1055 Clear 24 1014 64 16093 3.1 250 02:29 23.06.2020
1056 Clear 25 1014 60 16093 2.1 240 01:46 23.06.2020
1057 Clear 25 1014 60 16093 2.1 240 01:22 23.06.2020
1058 Clear 26 1014 57 16093 1.5 0 00:41 23.06.2020
1059 Clear 26 1014 57 16093 1.5 0 00:20 23.06.2020
1060 Clear 26 1014 54 12874 3.6 260 23:54 22.06.2020
1061 Clear 26 1014 54 12874 3.6 260 23:36 22.06.2020
1062 Clear 26 1014 54 12874 3.6 260 23:18 22.06.2020
1063 Clear 26 1015 50 12874 1.5 250 22:54 22.06.2020
1064 Clear 26 1015 50 12874 1.5 250 22:36 22.06.2020
1065 Clear 26 1015 50 12874 1.5 250 22:18 22.06.2020
1066 Clear 26 1015 50 12874 1.5 250 22:18 22.06.2020
1067 Clear 25 1015 50 11265 3.66 234 21:40 22.06.2020
1068 Clear 24 1015 50 11265 3.38 220 21:22 22.06.2020
1069 Haze 24 1015 57 9656 1.5 20 20:59 22.06.2020
1070 Haze 23 1015 57 9656 1.5 20 20:40 22.06.2020
1071 Haze 23 1015 57 9656 1.5 20 20:20 22.06.2020
1072 Haze 21 1015 60 9656 1.5 0 19:44 22.06.2020
1073 Haze 20 1016 72 9656 2.48 198 19:19 22.06.2020
1074 Haze 20 1016 72 9656 2.48 198 18:57 22.06.2020
1075 Haze 20 1016 72 9656 2.48 198 18:38 22.06.2020
1076 Haze 19 1016 72 9656 2.07 181 18:19 22.06.2020
1077 Haze 19 1015 72 8047 2.07 181 17:56 22.06.2020
1078 Haze 19 1015 72 8047 1.88 171 17:37 22.06.2020
1079 Haze 19 1015 72 8047 1.88 171 17:19 22.06.2020
1080 Haze 18 1015 72 9656 1.88 171 16:43 22.06.2020
1081 Haze 18 1015 72 9656 1.72 172 16:20 22.06.2020
1082 Clouds 18 1014 77 11265 1.5 0 15:59 22.06.2020
1083 Clouds 18 1014 77 11265 1.5 0 15:39 22.06.2020
1084 Clouds 17 1014 77 11265 1.5 0 15:21 22.06.2020
1085 Clouds 17 1013 77 14484 1.76 180 14:40 22.06.2020
1086 Clouds 18 1013 77 14484 1.45 183 14:21 22.06.2020
1087 Clouds 18 1013 77 14484 1.36 182 13:58 22.06.2020
1088 Clouds 17 1013 77 14484 1.36 182 13:39 22.06.2020
1089 Clouds 17 1013 77 14484 1.36 183 13:21 22.06.2020
1090 Clouds 17 1013 77 16093 1.36 183 12:44 22.06.2020
1091 Clouds 17 1013 77 16093 1.68 188 12:24 22.06.2020
1092 Clouds 17 1014 77 16093 1.68 188 11:59 22.06.2020
1093 Clouds 17 1014 77 16093 1.68 188 11:37 22.06.2020
1094 Clouds 18 1014 77 16093 1.68 199 11:19 22.06.2020
1095 Clouds 17 1014 77 16093 1.68 199 10:55 22.06.2020
1096 Clouds 17 1014 77 16093 1.68 199 10:37 22.06.2020
1097 Clouds 18 1014 77 16093 1.52 207 10:18 22.06.2020
1098 Clouds 17 1014 77 16093 1.52 207 09:56 22.06.2020
1099 Haze 17 1014 82 9656 1.25 197 09:37 22.06.2020
1100 Clouds 17 1014 82 16093 1.5 260 09:18 22.06.2020
1101 Clouds 17 1014 82 16093 1.5 260 08:54 22.06.2020
1102 Clouds 17 1014 82 16093 1.5 260 08:36 22.06.2020
1103 Clouds 17 1014 82 16093 1.5 260 08:18 22.06.2020
1104 Clouds 17 1014 77 16093 2.1 260 07:44 22.06.2020
1105 Clouds 17 1014 77 16093 2.1 260 07:23 22.06.2020
1106 Clouds 18 1013 72 16093 1.5 0 06:38 22.06.2020
1107 Clouds 18 1013 72 16093 1.5 0 06:19 22.06.2020
1108 Clear 19 1013 72 16093 1.5 250 05:41 22.06.2020
1109 Clear 22 1012 60 16093 2.1 250 03:22 22.06.2020
1110 Clear 24 1013 60 16093 3.6 260 01:39 22.06.2020
1111 Clear 24 1014 60 16093 1.5 0 00:44 22.06.2020
1112 Clear 24 1014 60 16093 1.5 0 00:25 22.06.2020
1113 Clear 25 1014 56 16093 1.5 0 23:56 21.06.2020
1114 Clear 24 1014 56 16093 1.5 0 23:37 21.06.2020
1115 Clear 24 1015 53 16093 2.1 0 23:19 21.06.2020
1116 Clear 24 1015 53 16093 2.1 0 22:55 21.06.2020
1117 Clear 24 1015 53 16093 2.1 0 22:36 21.06.2020
1118 Clear 24 1015 53 16093 2.1 0 22:18 21.06.2020
1119 Clear 24 1015 53 16093 2.1 0 21:55 21.06.2020
1120 Clear 23 1015 53 16093 2.1 0 21:37 21.06.2020
1121 Clear 23 1015 53 16093 2.1 0 21:18 21.06.2020
1122 Clouds 21 1015 64 16093 2.83 232 20:40 21.06.2020
1123 Clouds 21 1015 64 16093 2.83 232 20:40 21.06.2020
1124 Clouds 21 1015 64 16093 2.54 239 20:21 21.06.2020
1125 Clouds 20 1015 64 16093 2.54 239 19:59 21.06.2020
1126 Clouds 19 1015 64 16093 2.54 239 19:40 21.06.2020
1127 Clouds 19 1015 64 16093 2.44 232 19:20 21.06.2020
1128 Clouds 19 1015 68 16093 2.44 232 18:56 21.06.2020
1129 Clouds 19 1015 68 16093 2.44 232 18:38 21.06.2020
1130 Clouds 18 1015 68 16093 1.5 250 18:19 21.06.2020
1131 Clouds 18 1015 68 16093 1.5 250 17:55 21.06.2020
1132 Clouds 18 1015 68 16093 1.5 250 17:36 21.06.2020
1133 Clouds 18 1015 72 16093 2.06 225 17:18 21.06.2020
1134 Clouds 18 1015 72 16093 2.06 225 16:40 21.06.2020
1135 Clouds 17 1015 72 16093 1.82 220 16:22 21.06.2020
1136 Clouds 17 1015 72 16093 1.82 220 15:42 21.06.2020
1137 Clouds 17 1015 72 16093 1.54 225 15:24 21.06.2020
1138 Clouds 17 1014 72 16093 1.54 225 14:59 21.06.2020
1139 Clouds 17 1014 72 16093 1.31 219 14:38 21.06.2020
1140 Clouds 17 1014 72 16093 1.34 240 14:19 21.06.2020
1141 Clouds 17 1014 72 16093 1.34 240 13:56 21.06.2020
1142 Clouds 17 1014 72 16093 1.34 240 13:56 21.06.2020
1143 Clouds 17 1014 72 16093 1.34 240 13:38 21.06.2020
1144 Clouds 17 1014 72 16093 1.78 234 13:19 21.06.2020
1145 Clouds 17 1014 72 16093 1.78 234 12:44 21.06.2020
1146 Clouds 17 1014 72 16093 1.84 228 12:25 21.06.2020
1147 Clouds 17 1015 72 16093 1.84 228 11:55 21.06.2020
1148 Clouds 17 1015 72 16093 1.84 228 11:36 21.06.2020
1149 Clouds 17 1015 77 16093 1.6 240 11:18 21.06.2020
1150 Clouds 17 1015 77 16093 1.6 240 10:55 21.06.2020
1151 Clouds 17 1015 77 16093 1.6 240 10:36 21.06.2020
1152 Clouds 17 1015 77 16093 1.37 223 10:18 21.06.2020
1153 Clouds 17 1016 77 16093 1.37 223 09:41 21.06.2020
1154 Clouds 17 1016 77 16093 1.43 213 09:19 21.06.2020
1155 Clouds 17 1016 77 16093 1.43 220 08:56 21.06.2020
1156 Clouds 17 1016 77 16093 1.43 220 08:37 21.06.2020
1157 Clouds 17 1016 77 16093 2.09 229 08:19 21.06.2020
1158 Clouds 17 1016 77 16093 2.09 229 07:41 21.06.2020
1159 Clouds 17 1016 77 16093 2.65 228 07:22 21.06.2020
1160 Clouds 17 1016 77 16093 2.1 270 06:49 21.06.2020
1161 Clouds 18 1015 72 16093 2.6 260 06:18 21.06.2020
1162 Clouds 18 1015 72 16093 2.6 260 05:54 21.06.2020
1163 Clear 20 1014 64 16093 2.6 250 03:40 21.06.2020
1164 Clear 21 1014 60 16093 2.6 0 03:18 21.06.2020
1165 Clear 23 1014 60 16093 2.6 0 02:20 21.06.2020
1166 Clear 23 1014 60 16093 2.6 0 01:34 21.06.2020
1167 Clear 23 1015 60 16093 1.5 250 00:57 21.06.2020
1168 Clear 23 1015 60 16093 1.5 250 00:38 21.06.2020
1169 Clear 23 1015 60 16093 1.5 250 00:19 21.06.2020
1170 Clouds 22 1016 64 16093 3.1 0 23:45 20.06.2020
1171 Clouds 22 1016 64 16093 3.1 0 23:22 20.06.2020
1172 Clouds 21 1016 64 16093 4.17 241 22:56 20.06.2020
1173 Clouds 21 1016 64 16093 4.17 241 22:38 20.06.2020
1174 Clouds 20 1017 72 16093 1.5 250 22:19 20.06.2020
1175 Clouds 20 1017 72 16093 1.5 250 21:57 20.06.2020
1176 Clouds 19 1017 72 16093 1.5 250 21:38 20.06.2020
1177 Clouds 19 1017 72 16093 1.5 250 21:20 20.06.2020
1178 Clouds 18 1017 77 16093 2.1 270 20:57 20.06.2020
1179 Clouds 18 1017 77 16093 2.1 270 20:39 20.06.2020
1180 Clouds 18 1017 77 16093 3.46 233 20:20 20.06.2020
1181 Clouds 18 1017 77 16093 3.46 233 19:44 20.06.2020
1182 Clouds 18 1017 77 16093 2.64 233 19:25 20.06.2020
1183 Clouds 18 1017 72 16093 2.64 233 18:59 20.06.2020
1184 Clouds 18 1017 72 16093 2.64 233 18:40 20.06.2020
1185 Clouds 17 1016 72 16093 2.2 233 18:20 20.06.2020
1186 Clouds 17 1016 72 16093 2.2 233 17:57 20.06.2020
1187 Clouds 17 1016 72 16093 1.5 260 17:39 20.06.2020
1188 Clouds 17 1016 72 16093 1.5 260 17:20 20.06.2020
1189 Clouds 17 1015 72 16093 1.96 234 16:42 20.06.2020
1190 Clouds 17 1015 72 16093 1.75 231 16:19 20.06.2020
1191 Clouds 17 1015 72 16093 1.75 231 15:57 20.06.2020
1192 Clouds 17 1015 72 16093 1.75 231 15:39 20.06.2020
1193 Clouds 17 1015 72 16093 1.82 235 15:18 20.06.2020
1194 Clouds 17 1015 72 16093 1.82 235 14:43 20.06.2020
1195 Clouds 17 1015 72 16093 2.2 232 14:21 20.06.2020
1196 Clouds 17 1015 72 16093 2.23 237 13:42 20.06.2020
1197 Clouds 17 1015 72 16093 2.23 237 13:24 20.06.2020
1198 Clouds 17 1015 72 16093 1.5 0 12:57 20.06.2020
1199 Clouds 17 1015 72 16093 1.5 0 12:38 20.06.2020
1200 Clouds 17 1015 72 16093 1.5 0 12:19 20.06.2020
1201 Clouds 17 1015 72 16093 2.29 243 11:55 20.06.2020
1202 Clouds 17 1015 72 16093 2.29 243 11:36 20.06.2020
1203 Clouds 17 1015 72 16093 2.06 237 11:18 20.06.2020
1204 Clouds 17 1015 72 16093 1.5 0 10:44 20.06.2020
1205 Clouds 17 1015 72 16093 1.5 0 10:22 20.06.2020
1206 Clouds 17 1015 72 16093 2.6 260 09:55 20.06.2020
1207 Clouds 17 1015 72 16093 2.6 260 09:36 20.06.2020
1208 Clouds 17 1015 77 14484 2.13 241 09:18 20.06.2020
1209 Clouds 16 1015 77 14484 2.13 241 08:45 20.06.2020
1210 Clouds 17 1015 77 14484 2.43 237 08:27 20.06.2020
1211 Clouds 17 1015 72 16093 1.5 260 07:51 20.06.2020
1212 Clouds 17 1015 72 16093 1.5 260 07:27 20.06.2020
1213 Clouds 17 1015 72 16093 1.5 0 06:55 20.06.2020
1214 Clear 17 1014 72 16093 1.5 250 06:23 20.06.2020
1215 Clear 17 1014 72 16093 1.5 250 06:23 20.06.2020
1216 Clear 18 1014 68 16093 2.6 260 05:52 20.06.2020
1217 Clear 19 1013 64 16093 3.31 236 04:58 20.06.2020
1218 Clear 22 1013 60 16093 1.5 0 02:50 20.06.2020
1219 Clear 23 1013 56 16093 2.6 260 01:48 20.06.2020
1220 Clear 23 1013 60 16093 2.6 250 00:57 20.06.2020
1221 Clear 24 1013 60 16093 2.6 250 00:21 20.06.2020
1222 Clouds 23 1013 60 16093 2.1 250 23:58 19.06.2020
1223 Clouds 24 1013 60 16093 2.1 0 23:38 19.06.2020
1224 Clouds 24 1013 60 16093 4.9 238 23:18 19.06.2020
1225 Clouds 23 1013 60 16093 4.9 238 22:41 19.06.2020
1226 Clouds 23 1013 60 16093 4.33 232 22:23 19.06.2020
1227 Clouds 23 1014 56 16093 4.33 232 21:59 19.06.2020
1228 Clouds 22 1014 56 16093 4.35 231 21:39 19.06.2020
1229 Clouds 22 1014 53 16093 2.1 0 21:18 19.06.2020
1230 Clouds 22 1014 53 16093 2.1 0 20:59 19.06.2020
1231 Clouds 21 1014 53 16093 2.1 0 20:40 19.06.2020
1232 Clouds 21 1014 53 16093 2.1 0 20:21 19.06.2020
1233 Clouds 21 1014 53 16093 2.1 0 20:21 19.06.2020
1234 Clouds 20 1014 60 16093 1.5 140 19:58 19.06.2020
1235 Clouds 20 1014 60 16093 1.5 140 19:40 19.06.2020
1236 Clouds 19 1014 60 16093 1.5 140 19:21 19.06.2020
1237 Clouds 19 1014 64 16093 3.28 232 18:56 19.06.2020
1238 Clouds 19 1014 64 16093 3.28 232 18:38 19.06.2020
1239 Clouds 19 1014 64 16093 2.72 233 18:20 19.06.2020
1240 Clouds 18 1013 68 16093 2.72 233 17:41 19.06.2020
1241 Clouds 18 1013 68 16093 2.28 235 17:23 19.06.2020
1242 Clouds 17 1013 68 16093 2.28 235 16:57 19.06.2020
1243 Clouds 18 1013 68 16093 1.97 230 16:38 19.06.2020
1244 Clouds 18 1013 68 16093 1.97 230 16:20 19.06.2020
1245 Clouds 17 1013 68 16093 1.97 230 15:44 19.06.2020
1246 Clouds 17 1013 68 16093 1.89 234 15:25 19.06.2020
1247 Clouds 17 1013 72 16093 1.89 234 14:57 19.06.2020
1248 Clouds 17 1013 72 16093 1.89 234 14:39 19.06.2020
1249 Clouds 17 1013 72 16093 1.8 253 14:20 19.06.2020
1250 Clouds 17 1013 72 16093 1.8 253 13:55 19.06.2020
1251 Clouds 17 1013 72 16093 1.8 253 13:37 19.06.2020
1252 Clouds 17 1013 72 16093 1.75 252 13:18 19.06.2020
1253 Clouds 17 1013 72 16093 1.75 252 12:40 19.06.2020
1254 Clouds 17 1013 72 16093 1.74 244 12:18 19.06.2020
1255 Clouds 17 1014 82 16093 1.74 244 11:40 19.06.2020
1256 Clouds 16 1014 82 16093 1.79 228 11:19 19.06.2020
1257 Clear 16 1014 82 16093 1.79 228 10:59 19.06.2020
1258 Clear 17 1014 82 16093 1.79 228 10:41 19.06.2020
1259 Clear 17 1014 82 16093 1.79 228 10:41 19.06.2020
1260 Clear 16 1014 82 16093 2 224 10:20 19.06.2020
1261 Clear 16 1014 77 16093 2 224 09:44 19.06.2020
1262 Clear 16 1014 77 16093 2.12 211 09:25 19.06.2020
1263 Clear 16 1014 72 16093 1.71 215 08:59 19.06.2020
1264 Clear 16 1014 72 16093 1.71 215 08:39 19.06.2020
1265 Clear 17 1014 72 16093 1.92 217 08:20 19.06.2020
1266 Clear 17 1014 72 16093 1.92 217 07:41 19.06.2020
1267 Clear 17 1014 72 16093 1.98 219 07:21 19.06.2020
1268 Clear 17 1013 68 16093 1.5 0 06:47 19.06.2020
1269 Clear 17 1013 68 16093 1.5 0 06:21 19.06.2020
1270 Clear 19 1013 68 16093 2.1 260 05:28 19.06.2020
1271 Clear 21 1012 56 16093 3.48 236 03:45 19.06.2020
1272 Clear 23 1012 56 16093 2.6 260 02:20 19.06.2020
1273 Clouds 22 1013 56 16093 4.43 227 00:45 19.06.2020
1274 Clouds 22 1013 56 16093 4.23 219 00:22 19.06.2020
1275 Clouds 22 1014 56 16093 2.1 250 23:58 18.06.2020
1276 Clouds 22 1014 56 16093 2.1 250 23:39 18.06.2020
1277 Clouds 22 1014 56 16093 2.1 250 23:21 18.06.2020
1278 Clouds 21 1014 60 16093 1.5 240 22:41 18.06.2020
1279 Clouds 20 1014 60 16093 1.5 240 22:20 18.06.2020
1280 Clouds 20 1014 60 16093 3.8 214 21:57 18.06.2020
1281 Clouds 20 1014 60 16093 3.88 201 21:38 18.06.2020
1282 Clouds 20 1014 60 16093 3.52 197 21:19 18.06.2020
1283 Clouds 19 1014 68 16093 3.52 197 20:41 18.06.2020
1284 Clouds 19 1014 68 16093 3.34 190 20:22 18.06.2020
1285 Clouds 18 1015 72 16093 3.34 190 19:58 18.06.2020
1286 Clouds 18 1015 72 16093 3.34 190 19:40 18.06.2020
1287 Clouds 18 1015 72 16093 3.14 185 19:20 18.06.2020
1288 Clouds 18 1015 72 16093 3.14 185 18:42 18.06.2020
1289 Clouds 17 1015 72 16093 2.59 180 18:23 18.06.2020
1290 Clouds 17 1015 72 16093 2.59 180 17:57 18.06.2020
1291 Clouds 17 1015 77 16093 1.5 150 17:39 18.06.2020
1292 Clouds 17 1015 77 16093 1.5 150 17:21 18.06.2020
1293 Haze 17 1015 72 8047 1.5 110 16:44 18.06.2020
1294 Haze 17 1015 72 8047 1.5 110 16:25 18.06.2020
1295 Clouds 17 1015 72 16093 1.5 0 15:59 18.06.2020
1296 Clouds 17 1015 72 16093 1.5 0 15:40 18.06.2020
1297 Clouds 17 1015 72 16093 1.5 0 15:20 18.06.2020
1298 Clouds 17 1014 72 16093 1.82 165 14:57 18.06.2020
1299 Clouds 17 1014 72 16093 1.82 165 14:39 18.06.2020
1300 Clouds 17 1014 72 16093 1.9 171 14:20 18.06.2020
1301 Clouds 17 1014 72 16093 1.9 171 13:48 18.06.2020
1302 Clouds 17 1014 72 16093 2.12 173 13:29 18.06.2020
1303 Clouds 17 1014 72 16093 2.12 173 12:58 18.06.2020
1304 Clouds 17 1014 72 16093 2.12 173 12:40 18.06.2020
1305 Clouds 17 1014 72 16093 2.14 177 12:20 18.06.2020
1306 Clouds 17 1014 72 16093 2.14 177 11:59 18.06.2020
1307 Clouds 17 1014 72 16093 2.14 177 11:40 18.06.2020
1308 Clouds 17 1014 72 16093 2.15 177 11:19 18.06.2020
1309 Clouds 17 1014 72 16093 2.09 182 10:41 18.06.2020
1310 Clouds 17 1014 72 16093 2.09 182 10:19 18.06.2020
1311 Clouds 17 1014 77 11265 2.09 182 09:56 18.06.2020
1312 Clouds 17 1014 77 11265 2.11 172 09:38 18.06.2020
1313 Clouds 17 1014 77 11265 2.07 184 09:19 18.06.2020
1314 Clouds 17 1014 77 16093 2.07 184 08:40 18.06.2020
1315 Clear 17 1014 72 16093 2.22 193 08:21 18.06.2020
1316 Clear 17 1014 72 16093 2.22 193 07:46 18.06.2020
1317 Clear 17 1014 72 16093 2.3 197 07:27 18.06.2020
1318 Clear 18 1013 68 16093 1.5 260 06:55 18.06.2020
1319 Clear 18 1013 68 16093 1.5 260 06:20 18.06.2020
1320 Clear 21 1013 60 16093 2.6 260 04:25 18.06.2020
1321 Clouds 23 1013 56 16093 2.1 260 02:51 18.06.2020
1322 Clouds 23 1013 56 16093 1.5 260 01:30 18.06.2020
1323 Clouds 23 1013 56 16093 4.16 199 00:58 18.06.2020
1324 Clouds 23 1013 56 16093 4.16 199 00:38 18.06.2020
1325 Clouds 23 1013 56 16093 4.18 194 00:20 18.06.2020
1326 Clouds 23 1014 60 16093 1.5 0 23:44 17.06.2020
1327 Clouds 23 1014 60 16093 2.1 250 23:21 17.06.2020
1328 Clouds 23 1014 60 16093 2.1 250 22:57 17.06.2020
1329 Clouds 23 1014 60 16093 2.1 250 22:57 17.06.2020
1330 Clouds 22 1014 60 16093 2.1 250 22:39 17.06.2020
1331 Clouds 22 1014 60 16093 2.1 250 22:20 17.06.2020
1332 Clouds 22 1014 53 16093 3.97 183 21:55 17.06.2020
1333 Clouds 22 1014 53 16093 4.26 175 21:37 17.06.2020
1334 Clouds 22 1014 53 16093 1.5 0 21:18 17.06.2020
1335 Clouds 22 1014 53 16093 1.5 0 20:38 17.06.2020
1336 Clouds 22 1014 56 16093 3.79 174 20:20 17.06.2020
1337 Clouds 21 1014 56 16093 3.79 174 19:57 17.06.2020
1338 Clouds 21 1014 56 16093 3.79 174 19:38 17.06.2020
1339 Clouds 21 1014 56 16093 3.24 166 19:19 17.06.2020
1340 Clouds 20 1014 56 16093 3.24 166 18:45 17.06.2020
1341 Clouds 20 1014 56 16093 2.74 153 18:27 17.06.2020
1342 Clouds 19 1014 60 16093 2.6 150 17:46 17.06.2020
1343 Clouds 19 1014 60 16093 2.6 150 17:23 17.06.2020
1344 Clouds 18 1014 68 16093 2.6 0 16:58 17.06.2020
1345 Clouds 18 1014 68 16093 2.6 0 16:39 17.06.2020
1346 Clouds 18 1014 68 16093 2.6 0 16:21 17.06.2020
1347 Clouds 18 1013 68 16093 1.5 0 15:58 17.06.2020
1348 Clouds 18 1013 68 16093 1.5 0 15:39 17.06.2020
1349 Clouds 18 1013 68 16093 1.5 0 15:20 17.06.2020
1350 Clouds 18 1013 68 16093 1.5 0 14:58 17.06.2020
1351 Clouds 18 1013 68 16093 1.5 0 14:39 17.06.2020
1352 Clouds 18 1013 68 16093 1.5 0 14:19 17.06.2020
1353 Clouds 18 1012 68 16093 2.79 144 13:56 17.06.2020
1354 Clouds 18 1012 68 16093 2.79 144 13:38 17.06.2020
1355 Clouds 18 1012 68 16093 2.77 148 13:19 17.06.2020
1356 Clouds 18 1013 72 16093 2.77 148 12:42 17.06.2020
1357 Clouds 18 1013 72 16093 2.73 152 12:23 17.06.2020
1358 Clouds 18 1013 72 16093 2.73 152 11:57 17.06.2020
1359 Clouds 18 1013 72 16093 2.73 152 11:57 17.06.2020
1360 Clouds 18 1013 72 16093 2.73 152 11:38 17.06.2020
1361 Clouds 18 1013 72 16093 2.64 155 11:20 17.06.2020
1362 Clouds 17 1013 72 16093 2.64 155 10:38 17.06.2020
1363 Clouds 17 1013 72 16093 2.31 154 10:19 17.06.2020
1364 Clouds 17 1013 77 16093 2.31 154 09:58 17.06.2020
1365 Clouds 17 1013 77 16093 2.31 154 09:40 17.06.2020
1366 Clouds 17 1013 77 16093 2.8 159 09:20 17.06.2020
1367 Clear 16 1013 77 16093 2.8 159 08:46 17.06.2020
1368 Clear 17 1013 77 16093 1.5 280 08:21 17.06.2020
1369 Clear 17 1013 77 16093 1.5 280 07:57 17.06.2020
1370 Clear 17 1013 77 16093 1.5 280 07:39 17.06.2020
1371 Clear 17 1013 77 16093 1.5 280 07:21 17.06.2020
1372 Clear 17 1013 77 16093 2.02 195 06:55 17.06.2020
1373 Clear 17 1013 77 16093 2.02 195 06:37 17.06.2020
1374 Clear 18 1013 77 16093 2.44 221 06:19 17.06.2020
1375 Clear 20 1012 64 16093 2.1 260 04:56 17.06.2020
1376 Clear 23 1012 60 16093 2.1 0 02:59 17.06.2020
1377 Clear 23 1013 56 16093 4.1 270 01:43 17.06.2020
1378 Clear 23 1013 56 16093 2.1 250 00:41 17.06.2020
1379 Clear 24 1013 56 16093 2.1 250 00:23 17.06.2020
1380 Clouds 24 1014 56 16093 1.5 0 23:56 16.06.2020
1381 Clouds 24 1014 56 16093 1.5 0 23:56 16.06.2020
1382 Clouds 23 1014 56 16093 1.5 0 23:37 16.06.2020
1383 Clouds 23 1014 56 16093 1.5 0 23:19 16.06.2020
1384 Clouds 23 1014 56 16093 4.53 219 22:55 16.06.2020
1385 Clouds 23 1014 56 16093 3.89 209 22:36 16.06.2020
1386 Clouds 23 1014 56 16093 3.89 209 22:36 16.06.2020
1387 Clouds 23 1014 56 16093 3.89 209 22:18 16.06.2020
1388 Clouds 22 1014 60 16093 3.89 209 21:47 16.06.2020
1389 Clouds 21 1014 60 16093 3.74 198 21:23 16.06.2020
1390 Clouds 21 1015 64 16093 3.74 198 20:57 16.06.2020
1391 Clouds 20 1015 64 16093 3.74 198 20:39 16.06.2020
1392 Clouds 20 1015 64 16093 3.27 192 20:19 16.06.2020
1393 Clouds 20 1015 64 16093 3.27 192 20:19 16.06.2020
1394 Clouds 20 1015 68 16093 3.27 192 19:57 16.06.2020
1395 Clouds 19 1015 68 16093 3.27 192 19:39 16.06.2020
1396 Clouds 19 1015 68 16093 2.8 193 19:21 16.06.2020
1397 Clouds 19 1015 68 16093 2.8 193 18:55 16.06.2020
1398 Clouds 18 1015 68 16093 2.8 193 18:36 16.06.2020
1399 Clouds 18 1015 68 16093 2.25 195 18:18 16.06.2020
1400 Clouds 18 1015 68 16093 2.25 195 17:54 16.06.2020
1401 Clouds 18 1015 68 16093 2.25 195 17:36 16.06.2020
1402 Clouds 18 1014 72 16093 1.88 185 17:18 16.06.2020
1403 Clouds 18 1014 72 16093 1.88 185 16:42 16.06.2020
1404 Clouds 18 1014 72 16093 1.65 161 16:20 16.06.2020
1405 Clouds 18 1014 72 16093 1.5 140 15:58 16.06.2020
1406 Clouds 18 1014 72 16093 1.5 140 15:40 16.06.2020
1407 Clouds 17 1013 72 16093 1.5 0 15:21 16.06.2020
1408 Clouds 17 1013 72 16093 1.5 0 14:57 16.06.2020
1409 Clouds 17 1013 72 16093 1.5 0 14:57 16.06.2020
1410 Clouds 17 1013 72 16093 1.5 0 14:38 16.06.2020
1411 Clouds 18 1013 72 16093 1.5 0 14:20 16.06.2020
1412 Clouds 18 1013 72 16093 2.1 0 13:48 16.06.2020
1413 Clouds 18 1013 72 16093 2.1 0 13:26 16.06.2020
1414 Clouds 18 1013 72 16093 1.5 0 12:57 16.06.2020
1415 Clouds 18 1013 72 16093 1.5 0 12:38 16.06.2020
1416 Clouds 18 1013 72 16093 1.5 0 12:19 16.06.2020
1417 Clouds 18 1013 72 16093 2.1 149 11:54 16.06.2020
1418 Clouds 18 1013 72 16093 2.1 149 11:36 16.06.2020
1419 Clouds 18 1013 77 16093 2.46 162 11:18 16.06.2020
1420 Clouds 17 1013 77 16093 2.46 162 10:42 16.06.2020
1421 Clouds 17 1014 77 16093 1.5 280 10:20 16.06.2020
1422 Clouds 17 1014 77 16093 1.5 280 09:57 16.06.2020
1423 Clouds 17 1014 77 16093 1.5 280 09:38 16.06.2020
1424 Clouds 17 1014 77 16093 1.5 280 09:20 16.06.2020
1425 Clouds 17 1014 77 16093 2.64 163 08:41 16.06.2020
1426 Clouds 17 1014 77 16093 2.41 175 08:22 16.06.2020
1427 Clear 17 1014 72 16093 2.41 175 07:46 16.06.2020
1428 Clear 18 1014 72 16093 2.41 185 07:26 16.06.2020
1429 Clouds 18 1013 72 16093 2.41 185 06:48 16.06.2020
1430 Clouds 18 1013 72 16093 2.33 191 06:26 16.06.2020
1431 Clouds 19 1013 72 16093 2.51 197 05:32 16.06.2020
1432 Clear 21 1013 64 16093 3.43 222 04:28 16.06.2020
1433 Clear 23 1013 56 16093 1.5 0 02:58 16.06.2020
1434 Clear 25 1013 53 16093 1.5 0 01:58 16.06.2020
1435 Clear 25 1013 53 16093 1.5 0 01:23 16.06.2020
1436 Clear 25 1013 56 16093 2.6 0 00:43 16.06.2020
1437 Clear 25 1014 53 16093 1.5 0 00:19 16.06.2020
1438 Clear 25 1014 53 16093 1.5 0 23:41 15.06.2020
1439 Clear 24 1014 53 16093 1.5 0 23:22 15.06.2020
1440 Clear 25 1014 50 16093 1.5 0 22:55 15.06.2020
1441 Clear 25 1014 50 16093 1.5 0 22:37 15.06.2020
1442 Clear 25 1014 50 16093 1.5 0 22:18 15.06.2020
1443 Clear 25 1014 44 16093 1.5 0 21:55 15.06.2020
1444 Clear 25 1014 44 16093 1.5 0 21:36 15.06.2020
1445 Clear 25 1014 44 16093 1.5 0 21:18 15.06.2020
1446 Clear 24 1014 53 16093 3.66 194 20:55 15.06.2020
1447 Clear 24 1014 53 16093 3.66 194 20:37 15.06.2020
1448 Clear 24 1014 56 16093 3.27 196 20:18 15.06.2020
1449 Clear 23 1014 56 16093 3.27 196 19:54 15.06.2020
1450 Clear 23 1014 56 16093 3.27 196 19:36 15.06.2020
1451 Clear 22 1014 60 16093 1.5 70 19:18 15.06.2020
1452 Clear 21 1014 60 16093 1.5 70 18:43 15.06.2020
1453 Clear 20 1014 60 16093 1.5 70 18:22 15.06.2020
1454 Clouds 20 1014 72 16093 2.23 186 17:59 15.06.2020
1455 Clouds 19 1014 72 16093 2.23 186 17:41 15.06.2020
1456 Clouds 19 1014 72 16093 1.8 178 17:20 15.06.2020
1457 Clouds 18 1014 72 16093 1.5 0 16:57 15.06.2020
1458 Clouds 18 1014 77 16093 1.5 0 16:39 15.06.2020
1459 Clouds 17 1014 77 16093 1.5 0 16:18 15.06.2020
1460 Clouds 16 1014 77 16093 1.5 0 15:55 15.06.2020
1461 Clear 16 1013 77 16093 1.72 163 15:36 15.06.2020
1462 Clear 16 1012 77 16093 1.6 166 15:18 15.06.2020
1463 Clear 16 1012 77 16093 1.6 166 14:41 15.06.2020
1464 Clear 16 1012 77 16093 1.43 165 14:20 15.06.2020
1465 Clear 16 1012 77 16093 1.43 165 13:58 15.06.2020
1466 Clear 16 1012 77 16093 1.43 165 13:38 15.06.2020
1467 Clear 16 1012 77 16093 1.62 156 13:19 15.06.2020
1468 Clear 16 1012 77 16093 1.62 156 12:55 15.06.2020
1469 Clear 16 1012 77 16093 1.62 156 12:36 15.06.2020
1470 Clear 16 1012 77 16093 1.89 158 12:18 15.06.2020
1471 Clear 16 1012 82 16093 1.89 158 11:41 15.06.2020
1472 Clear 17 1012 82 16093 1.72 160 11:23 15.06.2020
1473 Clear 17 1012 77 16093 1.72 160 10:44 15.06.2020
1474 Clear 17 1012 77 16093 1.61 166 10:22 15.06.2020
1475 Clear 17 1012 77 16093 1.61 166 09:45 15.06.2020
1476 Clear 17 1012 72 16093 1.5 270 09:25 15.06.2020
1477 Clear 17 1012 72 16093 1.5 270 08:57 15.06.2020
1478 Clear 17 1012 72 16093 1.5 270 08:39 15.06.2020
1479 Clear 17 1012 63 16093 1.5 270 08:20 15.06.2020
1480 Clear 18 1012 63 16093 1.5 270 07:45 15.06.2020
1481 Clear 18 1012 63 16093 1.5 270 07:22 15.06.2020
1482 Clear 18 1012 60 16093 2.6 270 06:42 15.06.2020
1483 Clear 19 1012 60 16093 2.6 270 06:20 15.06.2020
1484 Clear 19 1012 52 16093 1.5 250 05:43 15.06.2020
1485 Clear 20 1012 52 16093 1.5 250 05:24 15.06.2020
1486 Clear 22 1011 47 16093 3.1 250 04:19 15.06.2020
1487 Clear 23 1011 47 16093 3.1 250 03:40 15.06.2020
1488 Clear 25 1011 47 16093 2.6 250 02:34 15.06.2020
1489 Clear 25 1012 50 16093 3.1 270 01:53 15.06.2020
1490 Clear 25 1012 50 16093 3.1 270 01:31 15.06.2020
1491 Clear 25 1012 50 16093 3.1 250 00:58 15.06.2020
1492 Clear 25 1012 50 16093 3.1 250 00:39 15.06.2020
1493 Clear 25 1012 47 16093 1.5 0 00:19 15.06.2020
1494 Clear 25 1012 47 16093 1.5 0 23:46 14.06.2020
1495 Clear 24 1012 47 16093 1.5 0 23:24 14.06.2020
1496 Clear 25 1012 47 16093 3.1 260 22:58 14.06.2020
1497 Clear 24 1012 47 16093 3.1 260 22:39 14.06.2020
1498 Clear 24 1012 47 16093 3.1 260 22:19 14.06.2020
1499 Clear 24 1013 41 16093 2.1 0 21:57 14.06.2020
1500 Clear 24 1013 41 16093 2.1 0 21:57 14.06.2020
1501 Clear 24 1013 41 16093 2.1 0 21:38 14.06.2020
1502 Clear 24 1013 41 16093 2.1 0 21:19 14.06.2020
1503 Clear 24 1013 41 16093 2.1 0 21:19 14.06.2020
1504 Clear 24 1013 41 16093 2.1 0 21:19 14.06.2020
1505 Clear 23 1013 47 16093 3.44 207 20:58 14.06.2020
1506 Clear 23 1013 47 16093 3.44 207 20:38 14.06.2020
1507 Clouds 22 1013 53 16093 2.97 206 20:20 14.06.2020
1508 Clouds 22 1013 53 16093 2.97 206 19:59 14.06.2020
1509 Clouds 22 1013 53 16093 2.97 206 19:38 14.06.2020
1510 Clouds 21 1013 56 16093 2.6 90 19:19 14.06.2020
1511 Clouds 21 1013 53 16093 2.51 191 19:19 14.06.2020
1512 Clouds 20 1013 56 16093 2.6 90 18:57 14.06.2020
1513 Clouds 20 1013 56 16093 2.6 90 18:39 14.06.2020
1514 Clouds 20 1013 56 16093 2.6 90 18:20 14.06.2020
1515 Clouds 19 1013 68 16093 1.5 0 17:58 14.06.2020
1516 Clouds 19 1013 68 16093 1.5 0 17:39 14.06.2020
1517 Clouds 18 1013 68 16093 1.5 0 17:20 14.06.2020
1518 Clear 17 1013 72 16093 2.1 120 16:41 14.06.2020
1519 Clear 17 1013 72 16093 2.1 120 16:22 14.06.2020
1520 Clear 15 1012 72 16093 2.1 90 15:59 14.06.2020
1521 Clear 15 1012 72 16093 2.1 90 15:41 14.06.2020
1522 Clear 15 1012 72 16093 1.71 149 15:19 14.06.2020
1523 Clear 15 1012 72 16093 1.71 149 14:59 14.06.2020
1524 Clear 15 1012 72 16093 1.71 149 14:40 14.06.2020
1525 Clear 15 1012 72 16093 1.82 148 14:21 14.06.2020
1526 Clear 15 1011 67 16093 1.66 168 13:58 14.06.2020
1527 Clear 15 1011 67 16093 1.66 168 13:39 14.06.2020
1528 Clear 15 1011 67 16093 1.71 171 13:21 14.06.2020
1529 Clear 15 1011 72 16093 1.71 171 12:56 14.06.2020
1530 Clear 15 1011 72 16093 1.71 171 12:38 14.06.2020
1531 Clear 16 1011 72 16093 1.77 167 12:18 14.06.2020
1532 Clear 15 1011 72 16093 1.77 167 11:56 14.06.2020
1533 Clear 15 1011 72 16093 1.77 167 11:37 14.06.2020
1534 Clear 16 1011 67 16093 2.16 155 11:18 14.06.2020
1535 Clear 15 1011 67 16093 2.16 155 10:42 14.06.2020
1536 Clear 16 1012 63 16093 2.61 138 10:19 14.06.2020
1537 Clear 16 1012 63 16093 2.61 138 09:48 14.06.2020
1538 Clear 16 1012 63 16093 2.78 125 09:25 14.06.2020
1539 Clear 17 1012 63 16093 2.78 125 08:57 14.06.2020
1540 Clear 17 1012 63 16093 2.78 125 08:39 14.06.2020
1541 Clear 17 1012 68 16093 1.5 0 08:18 14.06.2020
1542 Clear 17 1012 68 16093 1.5 0 07:50 14.06.2020
1543 Clear 17 1012 68 16093 1.5 0 07:32 14.06.2020
1544 Clear 17 1012 63 16093 1.65 196 06:31 14.06.2020
1545 Clear 18 1012 55 16093 2.41 227 05:43 14.06.2020
1546 Clear 19 1012 46 16093 3.1 260 04:58 14.06.2020
1547 Clear 20 1012 46 16093 3.1 260 04:31 14.06.2020
1548 Clear 22 1012 46 16093 3.6 260 03:23 14.06.2020
1549 Clear 23 1012 43 16093 4.6 250 02:30 14.06.2020
1550 Clear 24 1013 40 16093 4.1 260 01:45 14.06.2020
1551 Clear 23 1013 40 16093 4.1 260 01:23 14.06.2020
1552 Clear 24 1013 40 16093 5.63 236 00:39 14.06.2020
1553 Clear 24 1014 49 16093 3.1 270 00:19 14.06.2020
1554 Clear 24 1014 49 16093 3.1 270 23:43 13.06.2020
1555 Clear 24 1014 49 16093 3.1 270 23:24 13.06.2020
1556 Clear 24 1014 53 16093 2.6 0 22:57 13.06.2020
1557 Clear 24 1014 53 16093 2.6 0 22:37 13.06.2020
1558 Clear 24 1015 56 16093 3.1 270 22:18 13.06.2020
1559 Clear 23 1015 56 16093 3.1 270 21:56 13.06.2020
1560 Clear 24 1015 56 16093 3.1 270 21:37 13.06.2020
1561 Clear 23 1015 50 16093 1.5 240 21:19 13.06.2020
1562 Clear 23 1015 50 16093 1.5 240 20:43 13.06.2020
1563 Clouds 22 1015 53 16093 2.83 208 20:19 13.06.2020
1564 Clouds 22 1015 53 16093 2.83 208 19:57 13.06.2020
1565 Clouds 22 1015 53 16093 2.83 208 19:36 13.06.2020
1566 Clouds 21 1015 60 16093 2.38 192 19:18 13.06.2020
1567 Clouds 20 1015 60 16093 2.38 192 18:55 13.06.2020
1568 Clouds 20 1015 60 16093 2.38 192 18:37 13.06.2020
1569 Clouds 19 1015 68 16093 1.89 181 18:18 13.06.2020
1570 Clouds 19 1015 68 16093 1.89 181 17:42 13.06.2020
1571 Clear 18 1015 77 16093 1.66 153 17:23 13.06.2020
1572 Clear 17 1015 77 16093 1.66 153 16:58 13.06.2020
1573 Clear 17 1015 77 16093 1.66 153 16:40 13.06.2020
1574 Clear 16 1014 77 16093 1.5 0 16:19 13.06.2020
1575 Clear 15 1014 77 16093 1.5 0 15:58 13.06.2020
1576 Clear 15 1014 77 16093 1.5 0 15:39 13.06.2020
1577 Clear 15 1014 77 16093 1.5 0 15:20 13.06.2020
1578 Clear 15 1014 77 16093 1.5 0 15:20 13.06.2020
1579 Clear 15 1014 77 16093 1.57 144 14:43 13.06.2020
1580 Clear 15 1014 77 16093 2.11 138 14:22 13.06.2020
1581 Clear 15 1014 77 16093 2.11 138 13:56 13.06.2020
1582 Clear 15 1014 77 16093 2.11 138 13:37 13.06.2020
1583 Clear 15 1014 77 16093 2.05 138 13:18 13.06.2020
1584 Clear 15 1014 72 16093 2.1 120 12:42 13.06.2020
1585 Clear 16 1014 72 16093 2.1 120 12:24 13.06.2020
1586 Clear 16 1015 77 16093 2.32 146 11:55 13.06.2020
1587 Clear 15 1015 77 16093 2.32 146 11:37 13.06.2020
1588 Clear 16 1015 77 16093 2.4 154 11:18 13.06.2020
1589 Clear 16 1015 77 16093 2.4 154 10:42 13.06.2020
1590 Clear 16 1015 77 16093 2.49 159 10:23 13.06.2020
1591 Clear 16 1015 77 16093 2.49 159 09:55 13.06.2020
1592 Clear 16 1015 77 16093 2.43 164 09:36 13.06.2020
1593 Clear 16 1015 72 16093 2.18 178 09:18 13.06.2020
1594 Clear 16 1015 72 16093 2.18 178 08:44 13.06.2020
1595 Clear 17 1015 72 16093 2.08 199 08:26 13.06.2020
1596 Clear 17 1016 72 16093 2.08 199 07:44 13.06.2020
1597 Clear 17 1016 72 16093 2.07 197 07:25 13.06.2020
1598 Clear 17 1015 72 16093 2.07 197 06:44 13.06.2020
1599 Clear 18 1015 72 16093 2.56 205 06:25 13.06.2020
1600 Clear 18 1015 63 16093 2.1 260 05:30 13.06.2020
1601 Clear 18 1015 63 16093 2.1 260 05:30 13.06.2020
1602 Clear 20 1015 60 16093 2.1 260 04:38 13.06.2020
1603 Clear 21 1015 60 16093 1.5 0 03:43 13.06.2020
1604 Clear 23 1015 56 16093 1.5 250 02:52 13.06.2020
1605 Clear 24 1016 56 16093 1.5 0 01:50 13.06.2020
1606 Clear 23 1016 56 16093 1.5 0 01:24 13.06.2020
1607 Clear 24 1016 53 16093 1.5 240 00:56 13.06.2020
1608 Clear 24 1016 53 16093 1.5 240 00:37 13.06.2020
1609 Clear 24 1016 53 16093 1.5 240 00:19 13.06.2020
1610 Clear 25 1017 53 16093 4.58 221 23:39 12.06.2020
1611 Clear 24 1017 53 16093 4.51 212 23:18 12.06.2020
1612 Clear 24 1017 53 16093 4.51 212 22:55 12.06.2020
1613 Clear 24 1017 53 16093 4.51 212 22:36 12.06.2020
1614 Clear 24 1017 50 16093 4.37 198 22:18 12.06.2020
1615 Clear 24 1017 50 16093 4.37 198 21:42 12.06.2020
1616 Clear 24 1017 50 16093 3.44 178 21:23 12.06.2020
1617 Clear 24 1017 50 16093 3.44 178 21:23 12.06.2020
1618 Clear 24 1017 50 16093 3.44 178 20:57 12.06.2020
1619 Clear 24 1017 50 16093 3.44 178 20:38 12.06.2020
1620 Clear 23 1017 56 16093 3.02 198 20:19 12.06.2020
1621 Clear 22 1017 56 16093 3.02 198 19:44 12.06.2020
1622 Clear 22 1017 56 16093 3.21 206 19:22 12.06.2020
1623 Clear 21 1018 64 16093 3.21 206 18:58 12.06.2020
1624 Clear 20 1018 64 16093 2.73 184 18:37 12.06.2020
1625 Clouds 20 1018 64 16093 2.73 184 18:18 12.06.2020
1626 Clouds 19 1017 68 16093 1.5 0 17:44 12.06.2020
1627 Clouds 19 1017 68 16093 1.5 0 17:26 12.06.2020
1628 Clouds 18 1017 77 12874 2.27 171 16:47 12.06.2020
1629 Clouds 18 1017 77 12874 1.77 161 16:24 12.06.2020
1630 Clouds 18 1017 77 16093 1.77 161 15:59 12.06.2020
1631 Clouds 17 1017 77 16093 1.77 161 15:41 12.06.2020
1632 Clouds 17 1017 77 16093 1.4 160 15:19 12.06.2020
1633 Clouds 17 1017 77 16093 1.5 0 14:42 12.06.2020
1634 Clouds 17 1017 77 16093 1.5 0 14:22 12.06.2020
1635 Clouds 17 1016 77 12874 1.5 0 13:57 12.06.2020
1636 Clouds 17 1016 77 12874 1.5 0 13:39 12.06.2020
1637 Clouds 17 1016 77 12874 1.5 0 13:18 12.06.2020
1638 Clouds 16 1016 77 11265 1.66 207 12:40 12.06.2020
1639 Clouds 16 1016 77 11265 1.66 207 12:40 12.06.2020
1640 Clouds 16 1017 82 16093 2.1 280 12:19 12.06.2020
1641 Clouds 16 1017 82 16093 2.1 280 11:56 12.06.2020
1642 Clouds 16 1017 82 16093 2.1 280 11:36 12.06.2020
1643 Clouds 16 1017 77 16093 1.42 206 11:18 12.06.2020
1644 Clear 16 1017 82 16093 1.42 206 10:42 12.06.2020
1645 Clear 16 1017 82 16093 1.73 192 10:23 12.06.2020
1646 Clear 17 1017 77 16093 1.73 192 09:44 12.06.2020
1647 Clear 17 1017 77 16093 1.73 201 09:21 12.06.2020
1648 Clear 17 1017 77 16093 2.1 260 08:43 12.06.2020
1649 Clear 17 1017 77 16093 2.1 260 08:24 12.06.2020
1650 Clear 18 1016 77 16093 1.5 0 07:44 12.06.2020
1651 Clear 18 1016 77 16093 1.5 0 07:25 12.06.2020
1652 Clear 19 1016 64 16093 2.62 235 06:55 12.06.2020
1653 Clear 20 1015 60 16093 2.1 260 06:25 12.06.2020
1654 Clear 21 1015 60 16093 2.1 260 05:50 12.06.2020
1655 Clear 21 1015 60 16093 2.1 260 05:28 12.06.2020
1656 Clear 23 1015 53 16093 2.6 260 04:50 12.06.2020
1657 Clear 29 1015 30 16093 2.1 260 02:55 12.06.2020
1658 Clear 30 1015 28 16093 3.83 232 01:52 12.06.2020
1659 Clear 30 1015 28 16093 4.65 235 01:26 12.06.2020
1660 Clear 30 1015 28 16093 2.6 260 00:42 12.06.2020
1661 Clear 30 1015 28 16093 2.6 260 00:24 12.06.2020
1662 Clear 30 1015 28 16093 2.6 260 00:24 12.06.2020
1663 Clear 31 1015 27 16093 1.5 0 23:59 11.06.2020
1664 Clear 31 1015 27 16093 1.5 0 23:40 11.06.2020
1665 Clear 30 1015 27 16093 1.5 0 23:21 11.06.2020
1666 Clear 31 1015 33 16093 2.1 250 22:57 11.06.2020
1667 Clear 31 1015 33 16093 2.1 250 22:38 11.06.2020
1668 Clear 31 1015 33 16093 2.1 250 22:19 11.06.2020
1669 Clear 31 1015 29 16093 2.1 0 21:55 11.06.2020
1670 Clear 31 1015 29 16093 2.1 0 21:37 11.06.2020
1671 Clear 30 1015 25 16093 3.54 214 21:19 11.06.2020
1672 Clear 30 1015 25 16093 3.54 214 20:43 11.06.2020
1673 Clear 29 1015 25 16093 2.95 206 20:21 11.06.2020
1674 Clear 28 1015 30 16093 2.95 206 19:55 11.06.2020
1675 Clear 28 1015 30 16093 2.95 206 19:36 11.06.2020
1676 Clear 28 1015 30 16093 2.51 203 19:18 11.06.2020
1677 Clear 27 1015 36 16093 2.51 203 18:41 11.06.2020
1678 Clear 26 1015 36 16093 1.56 203 18:20 11.06.2020
1679 Clear 24 1015 53 12874 1.56 203 17:56 11.06.2020
1680 Clear 24 1015 53 12874 1.56 203 17:38 11.06.2020
1681 Clear 23 1015 53 12874 1.48 195 17:19 11.06.2020
1682 Clear 22 1015 64 16093 1.48 195 16:56 11.06.2020
1683 Clear 21 1015 64 16093 1.48 195 16:38 11.06.2020
1684 Clear 20 1015 64 16093 1.12 164 16:20 11.06.2020
1685 Clear 18 1014 77 16093 1.12 164 15:42 11.06.2020
1686 Clear 18 1014 77 16093 0.79 143 15:24 11.06.2020
1687 Clear 18 1014 68 16093 0.79 143 14:58 11.06.2020
1688 Clear 18 1014 68 16093 0.79 143 14:38 11.06.2020
1689 Clear 19 1014 68 16093 0.81 162 14:20 11.06.2020
1690 Clear 19 1014 68 16093 0.81 162 13:55 11.06.2020
1691 Clear 19 1014 68 16093 0.81 162 13:37 11.06.2020
1692 Clear 19 1014 68 16093 0.87 181 13:18 11.06.2020
1693 Clear 19 1014 68 16093 0.87 181 12:54 11.06.2020
1694 Clear 19 1014 68 16093 0.87 181 12:36 11.06.2020
1695 Clear 20 1014 68 16093 1.23 186 12:18 11.06.2020
1696 Clear 20 1014 52 16093 1.23 186 11:56 11.06.2020
1697 Clear 20 1014 52 16093 1.23 186 11:37 11.06.2020
1698 Clear 20 1014 52 16093 1.45 164 11:18 11.06.2020
1699 Clear 20 1014 52 16093 1.45 164 10:42 11.06.2020
1700 Clear 21 1014 52 16093 1.77 154 10:20 11.06.2020
1701 Clear 21 1014 46 16093 1.77 154 09:56 11.06.2020
1702 Clear 21 1014 46 16093 1.57 156 09:38 11.06.2020
1703 Clear 22 1014 46 16093 2 159 09:20 11.06.2020
1704 Clear 22 1014 53 16093 2 159 08:39 11.06.2020
1705 Clear 22 1014 53 16093 2.54 157 08:19 11.06.2020
1706 Clear 22 1014 40 16093 2.54 157 07:42 11.06.2020
1707 Clear 23 1014 40 16093 2.35 165 07:24 11.06.2020
1708 Clear 23 1013 38 16093 2.35 165 06:37 11.06.2020
1709 Clear 24 1013 27 16093 2.43 208 05:58 11.06.2020
1710 Clear 28 1012 19 16093 1.5 0 04:49 11.06.2020
1711 Clear 31 1012 15 16093 3.6 270 03:25 11.06.2020
1712 Clear 31 1012 18 16093 3.1 250 02:49 11.06.2020
1713 Clear 33 1012 14 16093 3.6 270 01:57 11.06.2020
1714 Clear 33 1012 14 16093 3.6 270 01:39 11.06.2020
1715 Clear 33 1012 14 16093 3.6 270 01:19 11.06.2020
1716 Clear 33 1013 15 16093 1.5 240 00:43 11.06.2020
1717 Clear 34 1013 15 16093 1.5 240 00:24 11.06.2020
1718 Clear 34 1013 18 16093 2.1 0 23:43 10.06.2020
1719 Clear 34 1013 18 16093 2.1 0 23:24 10.06.2020
1720 Clear 34 1013 16 16093 2.6 260 22:56 10.06.2020
1721 Clear 34 1013 16 16093 2.6 260 22:37 10.06.2020
1722 Clear 34 1013 16 16093 2.6 260 22:18 10.06.2020
1723 Clear 34 1013 8 16093 2.1 100 21:55 10.06.2020
1724 Clear 33 1013 8 16093 2.1 100 21:37 10.06.2020
1725 Clear 33 1013 8 16093 2.1 100 21:18 10.06.2020
1726 Clear 33 1014 10 16093 2.1 0 20:56 10.06.2020
1727 Clear 33 1014 10 16093 2.1 0 20:37 10.06.2020
1728 Clear 32 1014 10 16093 2.1 0 20:19 10.06.2020
1729 Clear 32 1014 10 16093 1.5 0 19:40 10.06.2020
1730 Clear 31 1014 10 16093 1.5 0 19:19 10.06.2020
1731 Clear 30 1014 11 16093 1.5 100 18:58 10.06.2020
1732 Clear 29 1014 11 16093 1.5 100 18:40 10.06.2020
1733 Clear 28 1014 15 16093 2.1 120 18:19 10.06.2020
1734 Clear 27 1014 18 16093 0.96 145 17:55 10.06.2020
1735 Clear 27 1014 18 16093 0.96 145 17:37 10.06.2020
1736 Clear 26 1014 18 16093 0.68 92 17:18 10.06.2020
1737 Clear 24 1014 14 16093 0.68 92 16:56 10.06.2020
1738 Clear 24 1014 14 16093 0.68 92 16:38 10.06.2020
1739 Clear 23 1014 16 16093 1.08 46 16:18 10.06.2020
1740 Clear 20 1013 19 16093 1.08 46 15:40 10.06.2020
1741 Clear 20 1013 19 16093 1.25 36 15:21 10.06.2020
1742 Clear 20 1013 21 16093 1.25 36 14:56 10.06.2020
1743 Clear 20 1013 21 16093 1.17 32 14:38 10.06.2020
1744 Clear 21 1013 21 16093 1.52 38 14:20 10.06.2020
1745 Clear 21 1013 18 16093 1.5 360 13:41 10.06.2020
1746 Clear 21 1013 18 16093 1.5 360 13:21 10.06.2020
1747 Clear 21 1014 21 16093 1.61 44 12:45 10.06.2020
1748 Clear 22 1014 21 16093 1.64 38 12:23 10.06.2020
1749 Clear 21 1014 17 16093 1.64 38 11:59 10.06.2020
1750 Clear 22 1014 17 16093 1.64 38 11:40 10.06.2020
1751 Clear 21 1014 17 16093 1.5 19 11:19 10.06.2020
1752 Clear 21 1015 37 16093 1.5 19 10:57 10.06.2020
1753 Clear 21 1015 37 16093 1.22 342 10:39 10.06.2020
1754 Clear 21 1015 37 16093 1.22 342 10:21 10.06.2020
1755 Clear 23 1014 16 16093 1.13 1 09:42 10.06.2020
1756 Clear 23 1014 16 16093 1.75 322 09:23 10.06.2020
1757 Clear 24 1015 13 16093 1.44 319 08:57 10.06.2020
1758 Clear 24 1015 13 16093 1.44 319 08:38 10.06.2020
1759 Clear 25 1015 13 16093 2.3 320 08:20 10.06.2020
1760 Clear 25 1015 12 16093 2.3 320 07:39 10.06.2020
1761 Clear 25 1015 12 16093 2.91 324 07:21 10.06.2020
1762 Clear 25 1015 27 16093 1.5 290 06:46 10.06.2020
1763 Clear 26 1015 12 16093 3.32 307 06:24 10.06.2020
1764 Clear 27 1014 12 16093 2.1 250 05:58 10.06.2020
1765 Clear 27 1014 12 16093 2.1 250 05:26 10.06.2020
1766 Clear 30 1014 7 16093 3.1 0 04:36 10.06.2020
1767 Clear 32 1014 6 16093 2.6 260 02:57 10.06.2020
1768 Clear 32 1014 6 16093 2.6 260 02:23 10.06.2020
1769 Clear 33 1015 8 16093 4.1 250 01:38 10.06.2020
1770 Clear 33 1015 7 16093 3.1 250 00:40 10.06.2020
1771 Clear 33 1015 7 16093 3.1 250 00:22 10.06.2020
1772 Clear 34 1016 8 16093 5.49 241 23:57 09.06.2020
1773 Clear 34 1016 8 16093 5.49 241 23:39 09.06.2020
1774 Clear 34 1016 8 16093 4.06 227 23:20 09.06.2020
1775 Clear 34 1016 6 16093 4.06 227 22:56 09.06.2020
1776 Clear 33 1016 6 16093 4.06 227 22:38 09.06.2020
1777 Clear 34 1016 6 16093 2.43 210 22:19 09.06.2020
1778 Clear 34 1017 6 16093 2.43 210 21:56 09.06.2020
1779 Clear 34 1017 6 16093 2.43 210 21:38 09.06.2020
1780 Clear 34 1017 6 16093 2.43 210 21:38 09.06.2020
1781 Clear 33 1017 6 16093 1.65 212 21:20 09.06.2020
1782 Clear 32 1017 9 16093 2.79 229 20:56 09.06.2020
1783 Clear 32 1017 9 16093 2.79 229 20:38 09.06.2020
1784 Clear 31 1017 9 16093 1.5 0 20:18 09.06.2020
1785 Clear 31 1017 10 16093 1.89 236 19:57 09.06.2020
1786 Clear 30 1017 10 16093 1.89 236 19:38 09.06.2020
1787 Clear 30 1017 10 16093 0.86 269 19:20 09.06.2020
1788 Clear 28 1017 13 16093 0.86 269 18:46 09.06.2020
1789 Clear 27 1017 13 16093 1.22 334 18:28 09.06.2020
1790 Clear 25 1017 20 16093 1.22 334 17:59 09.06.2020
1791 Clear 25 1017 20 16093 1.22 334 17:41 09.06.2020
1792 Clear 24 1017 20 16093 1.7 352 17:22 09.06.2020
1793 Clear 22 1016 21 16093 1.7 352 17:00 09.06.2020
1794 Clear 22 1016 21 16093 1.7 352 16:40 09.06.2020
1795 Clear 21 1016 21 16093 1.84 14 16:21 09.06.2020
1796 Clear 18 1016 18 16093 1.77 36 15:41 09.06.2020
1797 Clear 18 1016 18 16093 1.77 36 15:23 09.06.2020
1798 Clear 19 1016 22 16093 1.77 36 14:59 09.06.2020
1799 Clear 19 1016 22 16093 1.77 36 14:40 09.06.2020
1800 Clear 19 1016 22 16093 1.93 16 14:20 09.06.2020
1801 Clear 20 1016 18 16093 1.93 16 13:57 09.06.2020
1802 Clear 20 1016 18 16093 1.93 16 13:38 09.06.2020
1803 Clear 20 1016 22 16093 1.5 360 13:20 09.06.2020
1804 Clear 20 1016 22 16093 1.5 360 12:42 09.06.2020
1805 Clear 20 1016 22 16093 1.5 360 12:21 09.06.2020
1806 Clear 20 1016 22 16093 1.5 360 12:21 09.06.2020
1807 Clear 20 1016 26 16093 2.55 2 11:58 09.06.2020
1808 Clear 20 1016 26 16093 2.55 2 11:40 09.06.2020
1809 Clear 21 1016 26 16093 2.17 14 11:20 09.06.2020
1810 Clear 21 1016 21 16093 2.17 14 10:58 09.06.2020
1811 Clear 21 1016 21 16093 2.17 14 10:40 09.06.2020
1812 Clear 22 1016 21 16093 2.33 17 10:21 09.06.2020
1813 Clear 22 1016 17 16093 2.33 17 09:43 09.06.2020
1814 Clear 23 1016 17 16093 2.32 12 09:24 09.06.2020
1815 Clear 24 1016 17 16093 1.5 0 08:56 09.06.2020
1816 Clear 23 1016 17 16093 1.5 0 08:38 09.06.2020
1817 Clear 24 1016 17 16093 1.5 0 08:19 09.06.2020
1818 Clear 25 1015 14 16093 1.91 12 07:38 09.06.2020
1819 Clear 25 1015 14 16093 1.38 4 07:19 09.06.2020
1820 Clear 25 1015 14 16093 1.38 4 06:53 09.06.2020
1821 Clear 25 1015 14 16093 1.38 4 06:53 09.06.2020
1822 Clear 25 1015 14 16093 1.38 4 06:33 09.06.2020
1823 Clear 25 1015 15 16093 1.04 312 05:34 09.06.2020
1824 Clear 28 1014 14 16093 2.6 260 03:21 09.06.2020
1825 Clear 28 1014 14 16093 2.6 270 01:43 09.06.2020
1826 Clear 28 1014 14 16093 2.6 270 01:19 09.06.2020
1827 Clear 28 1015 12 16093 5.31 263 00:50 09.06.2020
1828 Clear 29 1015 12 16093 4.17 262 00:21 09.06.2020
1829 Clear 29 1015 8 16093 2.1 0 23:59 08.06.2020
1830 Clear 29 1015 8 16093 2.1 0 23:39 08.06.2020
1831 Clear 29 1015 8 16093 2.1 0 23:19 08.06.2020
1832 Clear 29 1016 8 16093 2.86 239 22:42 08.06.2020
1833 Clear 28 1016 8 16093 1.9 236 22:23 08.06.2020
1834 Clear 28 1016 13 16093 1.9 236 21:59 08.06.2020
1835 Clear 28 1016 13 16093 1.9 236 21:41 08.06.2020
1836 Clear 27 1016 13 16093 1.37 227 21:22 08.06.2020
1837 Clear 26 1016 13 16093 1.37 227 20:57 08.06.2020
1838 Clear 26 1016 13 16093 1.37 227 20:39 08.06.2020
1839 Clear 25 1016 13 16093 0.51 169 20:20 08.06.2020
1840 Clear 25 1015 16 16093 1.5 0 19:59 08.06.2020
1841 Clear 25 1015 16 16093 1.5 0 19:41 08.06.2020
1842 Clear 25 1015 16 16093 1.5 0 19:20 08.06.2020
1843 Clear 23 1014 14 16093 0.12 139 18:41 08.06.2020
1844 Clear 22 1014 14 16093 0.72 72 18:19 08.06.2020
1845 Clear 21 1014 21 16093 1.5 0 17:57 08.06.2020
1846 Clear 21 1014 21 16093 1.5 0 17:39 08.06.2020
1847 Clear 20 1014 21 16093 1.5 0 17:19 08.06.2020
1848 Clear 19 1014 32 16093 1.85 44 16:46 08.06.2020
1849 Clear 19 1014 32 16093 2.62 9 16:25 08.06.2020
1850 Clear 19 1014 24 16093 2.62 9 15:59 08.06.2020
1851 Clear 18 1014 24 16093 2.62 9 15:41 08.06.2020
1852 Clear 18 1014 24 16093 2.99 18 15:21 08.06.2020
1853 Clear 18 1014 24 16093 2.99 18 15:21 08.06.2020
1854 Clear 18 1013 24 16093 1.5 0 14:56 08.06.2020
1855 Clear 18 1013 24 16093 1.5 0 14:56 08.06.2020
1856 Clear 18 1013 24 16093 1.5 0 14:38 08.06.2020
1857 Clear 18 1013 24 16093 1.5 0 14:38 08.06.2020
1858 Clear 18 1013 24 16093 1.5 0 14:18 08.06.2020
1859 Clear 18 1013 24 16093 1.5 0 14:18 08.06.2020
1860 Clear 18 1013 24 16093 1.5 300 13:42 08.06.2020
1861 Clear 19 1013 24 16093 1.5 300 13:21 08.06.2020
1862 Clear 19 1013 20 16093 3.1 0 12:42 08.06.2020
1863 Clear 19 1013 20 16093 3.1 0 12:20 08.06.2020
1864 Clear 19 1013 20 16093 3.1 0 12:20 08.06.2020
1865 Clear 19 1013 18 16093 4.1 350 11:59 08.06.2020
1866 Clear 19 1013 18 16093 4.1 350 11:40 08.06.2020
1867 Clear 20 1013 18 16093 4.1 350 11:21 08.06.2020
1868 Clear 20 1013 18 16093 4.1 340 10:57 08.06.2020
1869 Clear 20 1013 18 16093 4.1 340 10:37 08.06.2020
1870 Clear 20 1013 18 16093 4.1 340 10:19 08.06.2020
1871 Clear 20 1013 18 16093 3.1 0 09:48 08.06.2020
1872 Clear 20 1013 18 16093 3.1 0 09:23 08.06.2020
1873 Clear 20 1013 18 16093 2.6 0 08:57 08.06.2020
1874 Clear 21 1013 18 16093 2.6 0 08:39 08.06.2020
1875 Clear 21 1013 18 16093 2.6 0 08:19 08.06.2020
1876 Clear 22 1013 16 16093 3.1 0 07:40 08.06.2020
1877 Clear 22 1013 16 16093 3.1 0 07:21 08.06.2020
1878 Clear 22 1013 16 16093 3.1 0 07:21 08.06.2020
1879 Clear 22 1012 13 16093 1.5 0 06:43 08.06.2020
1880 Clear 21 1012 13 16093 1.5 0 06:25 08.06.2020
1881 Clear 21 1012 43 16093 1.5 0 05:42 08.06.2020
1882 Clear 23 1011 36 16093 2.6 250 03:29 08.06.2020
1883 Clear 23 1012 35 16093 4.6 270 02:27 08.06.2020
1884 Clear 23 1012 38 16093 1.5 240 01:45 08.06.2020
1885 Clear 23 1012 38 16093 1.5 240 01:20 08.06.2020
1886 Clear 23 1013 43 16093 2.6 0 00:28 08.06.2020
1887 Clear 22 1013 53 16093 4.1 260 23:40 07.06.2020
1888 Clear 23 1013 53 16093 4.1 260 23:19 07.06.2020
1889 Clear 23 1013 50 16093 2.1 230 22:59 07.06.2020
1890 Clear 23 1013 50 16093 2.1 230 22:59 07.06.2020
1891 Clear 23 1013 50 16093 2.1 230 22:39 07.06.2020
1892 Clear 23 1013 50 16093 2.1 230 22:19 07.06.2020
1893 Clear 23 1013 47 16093 1.5 0 21:58 07.06.2020
1894 Clear 23 1013 47 16093 1.5 0 21:37 07.06.2020
1895 Clear 23 1013 47 16093 1.5 0 21:37 07.06.2020
1896 Clear 22 1013 47 16093 1.5 0 21:19 07.06.2020
1897 Clear 23 1014 38 16093 4.24 232 20:54 07.06.2020
1898 Clear 22 1014 38 16093 4.41 234 20:36 07.06.2020
1899 Clear 22 1014 38 16093 3.18 231 20:18 07.06.2020
1900 Clouds 21 1014 49 16093 2.1 90 19:54 07.06.2020
1901 Clouds 21 1014 49 16093 2.1 90 19:54 07.06.2020
1902 Clouds 21 1014 49 16093 2.1 90 19:36 07.06.2020
1903 Clouds 20 1014 49 16093 2.1 90 19:18 07.06.2020
1904 Clouds 20 1014 56 16093 2.33 225 18:40 07.06.2020
1905 Clouds 19 1014 56 16093 1.58 213 18:22 07.06.2020
1906 Clouds 18 1013 72 16093 1.58 213 17:59 07.06.2020
1907 Clouds 18 1013 72 16093 1.58 213 17:40 07.06.2020
1908 Clouds 18 1013 72 16093 1.02 197 17:22 07.06.2020
1909 Clear 17 1013 72 16093 1.02 197 16:44 07.06.2020
1910 Clear 17 1013 72 16093 0.96 162 16:22 07.06.2020
1911 Clear 15 1013 72 16093 0.96 162 15:45 07.06.2020
1912 Clear 14 1013 72 16093 0.94 138 15:24 07.06.2020
1913 Clear 14 1012 72 16093 2.1 90 15:00 07.06.2020
1914 Clear 14 1012 72 16093 2.1 90 14:38 07.06.2020
1915 Clear 14 1012 72 16093 2.1 90 14:19 07.06.2020
1916 Clouds 15 1012 72 16093 2.1 100 13:45 07.06.2020
1917 Clouds 15 1012 72 16093 2.1 100 13:45 07.06.2020
1918 Clouds 15 1012 72 16093 2.1 100 13:45 07.06.2020
1919 Clouds 15 1012 72 16093 2.1 100 13:45 07.06.2020
1920 Clouds 15 1012 72 16093 1.52 137 13:20 07.06.2020
1921 Clouds 15 1012 77 16093 1.52 137 12:44 07.06.2020
1922 Clouds 15 1012 77 16093 2.06 129 12:26 07.06.2020
1923 Clouds 15 1012 77 16093 2.06 129 12:26 07.06.2020
1924 Clouds 15 1012 77 16093 2.06 129 11:56 07.06.2020
1925 Clouds 15 1012 77 16093 2.06 129 11:56 07.06.2020
1926 Clouds 15 1012 77 16093 2.06 129 11:38 07.06.2020
1927 Clouds 16 1013 77 16093 1.94 127 11:20 07.06.2020
1928 Clouds 16 1013 72 16093 1.94 127 10:59 07.06.2020
1929 Clouds 15 1013 72 16093 1.94 127 10:40 07.06.2020
1930 Clear 16 1013 77 16093 1.71 126 10:19 07.06.2020
1931 Clear 16 1013 77 16093 1.71 126 09:57 07.06.2020
1932 Clear 16 1013 77 16093 1.71 126 09:38 07.06.2020
1933 Clear 16 1013 77 16093 1.06 153 09:20 07.06.2020
1934 Clear 15 1013 77 16093 2.17 117 08:48 07.06.2020
1935 Clear 15 1013 77 16093 2.17 117 08:48 07.06.2020
1936 Clear 16 1013 77 16093 1.45 142 08:23 07.06.2020
1937 Clear 16 1013 68 16093 1.45 142 07:50 07.06.2020
1938 Clear 16 1013 68 16093 1.46 204 07:29 07.06.2020
1939 Clear 16 1013 68 16093 1.5 0 06:48 07.06.2020
1940 Clear 17 1013 63 16093 1.5 240 05:50 07.06.2020
1941 Clear 19 1013 56 16093 2.1 250 04:20 07.06.2020
1942 Clear 21 1013 56 16093 4.27 241 02:36 07.06.2020
1943 Clear 21 1013 53 16093 2.1 250 01:58 07.06.2020
1944 Clear 21 1013 53 16093 2.1 250 01:25 07.06.2020
1945 Clear 21 1013 53 16093 3.88 222 00:47 07.06.2020
1946 Clear 21 1013 53 16093 3.57 182 00:20 07.06.2020
1947 Clouds 21 1014 53 16093 1.5 0 23:58 06.06.2020
1948 Clouds 20 1014 53 16093 1.5 0 23:37 06.06.2020
1949 Clouds 21 1014 53 16093 1.5 0 23:19 06.06.2020
1950 Clouds 20 1014 49 16093 2.1 250 22:56 06.06.2020
1951 Clouds 20 1014 49 16093 2.1 250 22:38 06.06.2020
1952 Clouds 20 1014 49 16093 2.1 250 22:19 06.06.2020
1953 Clouds 20 1014 49 16093 4.2 153 21:46 06.06.2020
1954 Clouds 20 1014 56 16093 4.53 146 21:22 06.06.2020
1955 Clouds 20 1014 56 16093 4.53 146 21:22 06.06.2020
1956 Clouds 19 1014 60 16093 4.53 146 20:58 06.06.2020
1957 Clouds 19 1014 60 16093 4.53 146 20:40 06.06.2020
1958 Clouds 19 1014 60 16093 2.1 250 20:19 06.06.2020
1959 Clouds 19 1014 60 16093 1.5 0 19:57 06.06.2020
1960 Clouds 19 1014 60 16093 1.5 0 19:38 06.06.2020
1961 Clouds 18 1014 60 16093 1.5 0 19:20 06.06.2020
1962 Clouds 18 1014 72 16093 2.1 260 18:55 06.06.2020
1963 Clouds 17 1014 72 16093 2.1 260 18:36 06.06.2020
1964 Clouds 17 1014 72 16093 2.1 260 18:18 06.06.2020
1965 Clouds 17 1014 72 16093 1.5 250 17:41 06.06.2020
1966 Clouds 17 1013 72 16093 2.35 177 17:20 06.06.2020
1967 Clouds 17 1013 72 16093 1.5 260 16:56 06.06.2020
1968 Clouds 17 1013 72 16093 1.5 260 16:38 06.06.2020
1969 Clouds 17 1013 72 16093 1.5 260 16:19 06.06.2020
1970 Clouds 17 1012 72 16093 2.1 260 15:44 06.06.2020
1971 Clouds 17 1012 72 16093 2.1 260 15:20 06.06.2020
1972 Clouds 17 1012 72 16093 2.1 260 15:20 06.06.2020
1973 Rain 17 1012 72 16093 2.1 260 14:57 06.06.2020
1974 Rain 17 1012 72 16093 2.1 260 14:37 06.06.2020
1975 Rain 17 1012 72 16093 2.1 260 14:19 06.06.2020
1976 Clouds 17 1011 77 16093 2.1 250 13:47 06.06.2020
1977 Clouds 17 1011 72 16093 3.12 226 13:19 06.06.2020
1978 Clouds 17 1011 72 16093 3.12 226 12:57 06.06.2020
1979 Clouds 17 1011 72 16093 3.12 226 12:38 06.06.2020
1980 Clouds 17 1011 72 16093 3.58 232 12:18 06.06.2020
1981 Clouds 17 1011 77 16093 3.58 232 11:54 06.06.2020
1982 Clouds 17 1011 77 16093 3.58 232 11:36 06.06.2020
1983 Clouds 17 1011 77 16093 3.11 232 11:18 06.06.2020
1984 Clouds 17 1011 77 16093 1.5 250 10:55 06.06.2020
1985 Clouds 17 1011 77 16093 1.5 250 10:36 06.06.2020
1986 Clouds 17 1011 77 16093 1.5 250 10:18 06.06.2020
1987 Clouds 17 1011 77 16093 1.5 260 09:41 06.06.2020
1988 Clouds 17 1011 77 16093 1.5 260 09:23 06.06.2020
1989 Clouds 17 1011 77 16093 2.1 260 08:48 06.06.2020
1990 Clouds 18 1011 77 16093 2.1 260 08:24 06.06.2020
1991 Clouds 18 1011 68 16093 1.5 250 07:57 06.06.2020
1992 Clouds 18 1011 68 16093 1.5 250 07:38 06.06.2020
1993 Clouds 18 1010 63 16093 1.5 250 07:20 06.06.2020
1994 Clouds 18 1010 63 16093 1.5 250 06:44 06.06.2020
1995 Clouds 18 1010 63 16093 1.5 250 06:26 06.06.2020
1996 Clouds 18 1010 63 16093 3.9 239 05:41 06.06.2020
1997 Clouds 19 1010 56 16093 1.5 260 04:51 06.06.2020
1998 Clouds 19 1010 56 16093 1.5 250 03:46 06.06.2020
1999 Clouds 19 1011 60 16093 3.6 290 02:36 06.06.2020
2000 Clouds 20 1010 56 16093 4.43 212 01:23 06.06.2020
2001 Clouds 20 1010 56 16093 4.43 212 00:59 06.06.2020
2002 Clouds 20 1010 56 16093 4.43 212 00:40 06.06.2020
2003 Clouds 20 1010 56 16093 4.32 199 00:22 06.06.2020
2004 Clouds 20 1011 53 16093 4.32 199 23:40 05.06.2020
2005 Clouds 20 1011 53 16093 4.04 181 23:20 05.06.2020
2006 Clouds 20 1011 56 16093 2.1 0 22:58 05.06.2020
2007 Clouds 20 1011 56 16093 2.1 0 22:39 05.06.2020
2008 Clouds 20 1011 56 16093 2.1 0 22:21 05.06.2020
2009 Clouds 20 1011 60 16093 3.37 153 21:55 05.06.2020
2010 Clouds 20 1011 60 16093 3.88 154 21:37 05.06.2020
2011 Clouds 20 1011 60 16093 3.97 160 21:18 05.06.2020
2012 Clouds 19 1011 68 16093 3.97 160 20:45 05.06.2020
2013 Clouds 19 1011 68 16093 3.9 156 20:23 05.06.2020
2014 Clouds 19 1011 64 16093 3.9 156 19:59 05.06.2020
2015 Clouds 19 1011 64 16093 3.9 156 19:39 05.06.2020
2016 Clouds 19 1011 64 16093 3.5 155 19:21 05.06.2020
2017 Clouds 18 1010 68 16093 3.5 155 18:40 05.06.2020
2018 Clouds 18 1010 68 16093 3.54 162 18:21 05.06.2020
2019 Clouds 17 1011 68 16093 3.54 162 17:59 05.06.2020
2020 Clouds 18 1011 68 16093 3.54 162 17:41 05.06.2020
2021 Clouds 18 1010 68 16093 2.78 147 17:21 05.06.2020
2022 Clouds 17 1010 68 16093 2.78 147 16:58 05.06.2020
2023 Clouds 17 1010 68 16093 2.78 147 16:37 05.06.2020
2024 Rain 17 1010 68 16093 2.93 154 16:19 05.06.2020
2025 Rain 17 1010 63 16093 2.93 154 15:40 05.06.2020
2026 Rain 17 1010 63 16093 2.86 150 15:21 05.06.2020
2027 Clouds 17 1010 68 16093 2.86 150 14:58 05.06.2020
2028 Clouds 17 1010 68 16093 2.86 150 14:40 05.06.2020
2029 Clouds 17 1010 68 16093 2.7 143 14:22 05.06.2020
2030 Clouds 17 1009 72 16093 1.5 0 13:57 05.06.2020
2031 Clouds 17 1009 72 16093 1.5 0 13:37 05.06.2020
2032 Clouds 18 1009 72 16093 1.5 0 13:18 05.06.2020
2033 Clouds 18 1009 68 16093 2.63 165 12:40 05.06.2020
2034 Clouds 18 1009 68 16093 2.79 166 12:19 05.06.2020
2035 Clouds 18 1009 72 16093 2.79 166 11:55 05.06.2020
2036 Clouds 18 1009 72 16093 2.79 166 11:37 05.06.2020
2037 Clouds 18 1009 72 16093 2.49 153 11:18 05.06.2020
2038 Clouds 18 1010 72 16093 2.49 153 10:41 05.06.2020
2039 Clouds 18 1010 72 16093 2.39 168 10:21 05.06.2020
2040 Clouds 18 1011 72 16093 2.39 168 09:57 05.06.2020
2041 Clouds 18 1011 72 16093 2.39 168 09:39 05.06.2020
2042 Clouds 18 1011 72 16093 2.27 155 09:21 05.06.2020
2043 Clouds 18 1011 72 16093 1.5 0 08:58 05.06.2020
2044 Clouds 18 1011 72 16093 1.5 0 08:40 05.06.2020
2045 Clouds 18 1011 72 16093 1.5 0 08:19 05.06.2020
2046 Clouds 18 1010 72 16093 3.05 163 07:53 05.06.2020
2047 Clouds 18 1010 72 16093 3.05 163 07:33 05.06.2020
2048 Clouds 18 1010 68 16093 2.79 153 06:50 05.06.2020
2049 Clouds 19 1009 64 16093 1.5 0 05:23 05.06.2020
2050 Clear 21 1009 60 16093 1.5 0 04:31 05.06.2020
2051 Clear 22 1009 60 16093 1.5 0 03:38 05.06.2020
2052 Clear 24 1009 57 16093 3.98 187 02:37 05.06.2020
2053 Clear 25 1009 57 16093 4.2 184 02:18 05.06.2020
2054 Clear 25 1010 53 16093 4.2 184 01:34 05.06.2020
2055 Clear 25 1010 60 16093 4.32 181 00:56 05.06.2020
2056 Clear 25 1010 60 16093 4.32 181 00:37 05.06.2020
2057 Clear 26 1010 60 16093 4.34 180 00:18 05.06.2020
2058 Clear 25 1011 57 14484 4.34 180 23:42 04.06.2020
2059 Clear 25 1011 57 14484 4.52 181 23:24 04.06.2020
2060 Clear 25 1011 53 16093 4.52 181 22:44 04.06.2020
2061 Clear 25 1011 53 16093 4 173 22:22 04.06.2020
2062 Clear 25 1012 57 16093 1.5 0 21:58 04.06.2020
2063 Clear 25 1012 57 16093 1.5 0 21:40 04.06.2020
2064 Clear 25 1012 57 16093 1.5 0 21:21 04.06.2020
2065 Clear 24 1012 53 16093 3.54 182 20:57 04.06.2020
2066 Clear 24 1012 53 16093 3.54 182 20:39 04.06.2020
2067 Clear 24 1012 53 16093 3.24 178 20:20 04.06.2020
2068 Clear 23 1012 56 14484 1.5 0 19:57 04.06.2020
2069 Clear 23 1012 56 14484 1.5 0 19:38 04.06.2020
2070 Clear 22 1012 56 14484 1.5 0 19:19 04.06.2020
2071 Clouds 21 1012 64 12874 1.5 0 18:40 04.06.2020
2072 Clouds 20 1012 64 12874 1.5 0 18:21 04.06.2020
2073 Haze 19 1012 72 9656 1.5 40 17:59 04.06.2020
2074 Haze 19 1012 72 9656 1.5 40 17:41 04.06.2020
2075 Haze 18 1012 72 9656 1.5 40 17:20 04.06.2020
2076 Haze 18 1011 77 4828 1.5 0 16:41 04.06.2020
2077 Clouds 18 1011 77 11265 2.1 0 16:21 04.06.2020
2078 Clouds 18 1011 77 11265 1.5 0 15:56 04.06.2020
2079 Clouds 18 1011 77 11265 1.5 0 15:37 04.06.2020
2080 Clouds 17 1011 77 11265 1.5 0 15:19 04.06.2020
2081 Clouds 17 1010 77 11265 1.28 176 14:39 04.06.2020
2082 Clouds 17 1010 77 11265 1.38 187 14:19 04.06.2020
2083 Clouds 17 1010 77 11265 1.38 187 13:56 04.06.2020
2084 Clouds 17 1010 77 11265 1.38 187 13:37 04.06.2020
2085 Clouds 17 1010 77 11265 1.22 169 13:19 04.06.2020
2086 Clouds 17 1010 77 12874 1.22 169 12:55 04.06.2020
2087 Clear 17 1010 77 12874 1.22 169 12:36 04.06.2020
2088 Clear 18 1010 77 12874 1.8 154 12:18 04.06.2020
2089 Clouds 18 1010 82 11265 1.8 154 11:40 04.06.2020
2090 Clouds 18 1011 82 12874 2.32 146 11:20 04.06.2020
2091 Clouds 18 1011 82 12874 2.32 146 10:59 04.06.2020
2092 Clouds 18 1011 82 12874 2.32 146 10:38 04.06.2020
2093 Clouds 18 1011 82 12874 2.32 146 10:38 04.06.2020
2094 Clear 18 1011 82 12874 1.5 0 10:20 04.06.2020
2095 Clouds 18 1012 82 14484 3.6 110 09:46 04.06.2020
2096 Clear 19 1012 77 14484 1.5 0 09:28 04.06.2020
2097 Clouds 19 1012 82 12874 4.1 120 08:51 04.06.2020
2098 Clear 19 1012 73 16093 2.41 144 08:31 04.06.2020
2099 Clear 19 1012 73 16093 2.1 0 07:59 04.06.2020
2100 Clear 20 1012 73 16093 2.1 0 07:31 04.06.2020
2101 Clear 20 1011 68 16093 3.39 163 06:45 04.06.2020
2102 Clear 21 1011 68 16093 3.21 167 06:27 04.06.2020
2103 Clear 21 1010 56 16093 3.21 167 05:52 04.06.2020
2104 Clear 22 1010 56 16093 3.21 167 05:32 04.06.2020
2105 Clear 26 1009 44 16093 1.5 0 03:37 04.06.2020
2106 Clear 30 1009 47 16093 2.1 250 02:21 04.06.2020
2107 Clear 31 1010 42 16093 4.74 243 01:22 04.06.2020
2108 Clear 31 1010 42 16093 4.74 243 01:00 04.06.2020
2109 Clear 31 1010 42 16093 5.06 239 00:19 04.06.2020
2110 Clear 31 1011 44 16093 5.06 239 23:38 03.06.2020
2111 Clear 32 1011 44 16093 4.99 236 23:19 03.06.2020
2112 Clear 32 1012 39 16093 2.1 250 22:56 03.06.2020
2113 Clear 33 1012 39 16093 2.1 250 22:38 03.06.2020
2114 Clear 32 1012 39 16093 2.1 250 22:18 03.06.2020
2115 Clear 32 1012 33 16093 4.34 237 21:55 03.06.2020
2116 Clear 32 1012 33 16093 4.75 238 21:36 03.06.2020
2117 Clear 28 1012 33 16093 3.27 239 21:18 03.06.2020
2118 Clear 29 1012 33 16093 3.27 239 20:42 03.06.2020
2119 Clear 29 1012 33 16093 2.76 243 20:21 03.06.2020
2120 Clear 28 1012 42 16093 2.76 243 19:57 03.06.2020
2121 Clear 28 1012 42 16093 2.76 243 19:39 03.06.2020
2122 Clear 27 1012 42 16093 2.2 226 19:20 03.06.2020
2123 Clear 26 1013 47 16093 2.2 226 18:58 03.06.2020
2124 Clear 26 1013 47 16093 2.2 226 18:40 03.06.2020
2125 Clear 24 1013 47 16093 1.69 214 18:19 03.06.2020
2126 Clear 23 1013 56 16093 1.69 214 17:45 03.06.2020
2127 Clear 22 1013 56 16093 0.36 275 17:23 03.06.2020
2128 Clear 20 1013 68 16093 0.36 275 16:59 03.06.2020
2129 Clear 20 1013 68 16093 0.36 275 16:41 03.06.2020
2130 Clear 18 1013 68 16093 1.46 281 16:19 03.06.2020
2131 Clear 17 1013 72 16093 1.46 281 15:55 03.06.2020
2132 Clear 18 1013 72 16093 1.46 281 15:37 03.06.2020
2133 Clear 18 1013 72 16093 2.53 238 15:18 03.06.2020
2134 Clear 18 1012 68 16093 2.53 238 14:44 03.06.2020
2135 Clear 18 1012 68 16093 1.52 203 14:24 03.06.2020
2136 Clear 18 1013 72 16093 0.24 265 13:40 03.06.2020
2137 Clear 18 1013 72 16093 0.5 198 13:22 03.06.2020
2138 Clear 19 1013 68 16093 2.1 0 12:57 03.06.2020
2139 Clear 19 1013 68 16093 2.1 0 12:39 03.06.2020
2140 Clear 19 1013 68 16093 2.1 0 12:19 03.06.2020
2141 Clear 19 1013 68 16093 2.1 0 12:19 03.06.2020
2142 Clear 20 1013 60 16093 1.5 110 11:44 03.06.2020
2143 Clear 20 1013 60 16093 1.5 110 11:25 03.06.2020
2144 Clear 20 1014 56 16093 1.32 206 10:55 03.06.2020
2145 Clear 20 1014 56 16093 1.32 206 10:36 03.06.2020
2146 Clear 20 1014 56 16093 0.35 173 10:18 03.06.2020
2147 Clear 19 1014 64 16093 0.35 173 09:41 03.06.2020
2148 Clear 19 1014 64 16093 1 179 09:19 03.06.2020
2149 Clear 19 1015 63 16093 1 179 08:47 03.06.2020
2150 Clear 19 1015 63 16093 0.66 174 08:22 03.06.2020
2151 Clear 19 1015 63 16093 0.66 174 07:58 03.06.2020
2152 Clear 19 1015 63 16093 0.66 174 07:37 03.06.2020
2153 Clear 19 1015 60 16093 1.5 280 07:18 03.06.2020
2154 Clear 19 1015 60 16093 1.5 280 06:45 03.06.2020
2155 Clear 19 1015 60 16093 1.5 280 06:22 03.06.2020
2156 Clear 20 1015 56 16093 1.5 250 05:45 03.06.2020
2157 Clear 23 1014 53 16093 2.72 223 04:26 03.06.2020
2158 Clear 24 1013 50 16093 1.5 250 03:42 03.06.2020
2159 Clear 26 1014 50 16093 2.1 250 02:42 03.06.2020
2160 Clear 26 1014 44 16093 3.99 219 01:46 03.06.2020
2161 Clear 27 1014 44 16093 2.1 0 00:39 03.06.2020
2162 Clear 28 1014 44 16093 2.1 0 00:21 03.06.2020
2163 Clear 27 1014 44 16093 3.49 212 23:46 02.06.2020
2164 Clear 27 1014 44 16093 4.02 203 23:27 02.06.2020
2165 Clear 27 1014 42 16093 4.02 203 22:56 02.06.2020
2166 Clear 27 1014 42 16093 4.02 203 22:37 02.06.2020
2167 Clear 27 1014 42 16093 3.62 178 22:18 02.06.2020
2168 Clear 26 1014 44 16093 3.62 178 21:55 02.06.2020
2169 Clear 26 1014 44 16093 3.62 178 21:36 02.06.2020
2170 Clear 25 1014 44 16093 2.62 170 21:18 02.06.2020
2171 Clear 25 1014 50 16093 1.5 0 20:42 02.06.2020
2172 Clear 24 1014 50 16093 1.5 0 20:24 02.06.2020
2173 Clear 23 1014 56 16093 2.24 175 19:59 02.06.2020
2174 Clear 23 1014 56 16093 2.24 175 19:40 02.06.2020
2175 Clear 22 1014 56 16093 2.34 199 19:22 02.06.2020
2176 Clear 21 1014 60 16093 2.34 199 18:56 02.06.2020
2177 Clear 21 1014 60 16093 2.34 199 18:37 02.06.2020
2178 Clear 20 1014 60 16093 2.01 185 18:19 02.06.2020
2179 Clear 20 1013 64 14484 2.01 185 17:42 02.06.2020
2180 Clear 20 1013 64 14484 1.7 142 17:23 02.06.2020
2181 Clear 20 1013 64 14484 1.7 142 17:23 02.06.2020
2182 Clear 19 1013 72 14484 1.7 142 16:57 02.06.2020
2183 Clear 19 1013 72 14484 1.7 142 16:38 02.06.2020
2184 Clear 18 1013 72 14484 2.05 138 16:20 02.06.2020
2185 Clear 18 1012 77 14484 2.05 138 15:54 02.06.2020
2186 Clear 17 1012 77 14484 2.05 138 15:36 02.06.2020
2187 Clear 17 1012 77 14484 1.64 135 15:18 02.06.2020
2188 Clear 17 1012 77 16093 1.64 135 14:42 02.06.2020
2189 Clear 17 1012 77 16093 2.26 113 14:22 02.06.2020
2190 Clear 17 1012 77 16093 2.26 113 13:39 02.06.2020
2191 Clear 17 1012 77 16093 1.93 123 13:19 02.06.2020
2192 Clear 17 1012 72 16093 1.93 123 12:59 02.06.2020
2193 Clear 18 1012 72 16093 1.93 123 12:40 02.06.2020
2194 Clear 17 1012 72 16093 1.77 151 12:21 02.06.2020
2195 Clear 18 1012 72 16093 1.77 151 11:59 02.06.2020
2196 Clear 17 1012 72 16093 1.77 151 11:39 02.06.2020
2197 Clear 18 1012 72 16093 1.87 174 11:20 02.06.2020
2198 Clear 18 1012 63 16093 1.87 174 10:47 02.06.2020
2199 Clear 18 1012 63 16093 1.54 134 10:28 02.06.2020
2200 Clear 18 1012 63 16093 1.54 134 09:58 02.06.2020
2201 Clear 19 1012 63 16093 1.54 134 09:39 02.06.2020
2202 Clear 18 1012 63 16093 1.96 137 09:20 02.06.2020
2203 Clear 19 1012 56 16093 1.96 137 08:48 02.06.2020
2204 Clear 20 1012 56 16093 2.29 152 08:22 02.06.2020
2205 Clear 20 1012 56 16093 2.29 152 07:53 02.06.2020
2206 Clear 20 1012 56 16093 1.55 182 07:28 02.06.2020
2207 Clear 21 1011 53 16093 1.55 182 06:51 02.06.2020
2208 Clear 21 1011 53 16093 1.55 182 06:30 02.06.2020
2209 Clear 23 1011 46 16093 4.61 258 05:27 02.06.2020
2210 Clear 26 1010 39 16093 5.01 271 03:29 02.06.2020
2211 Clear 27 1011 39 16093 2.1 260 02:30 02.06.2020
2212 Clear 28 1011 39 16093 1.5 0 01:34 02.06.2020
2213 Clear 27 1012 41 16093 2.1 250 00:26 02.06.2020
2214 Clear 27 1013 47 16093 3.6 260 23:59 01.06.2020
2215 Clear 26 1013 47 16093 3.6 260 23:38 01.06.2020
2216 Clear 26 1013 47 16093 3.6 260 23:18 01.06.2020
2217 Clear 26 1013 44 16093 1.5 250 22:56 01.06.2020
2218 Clear 27 1013 44 16093 1.5 250 22:37 01.06.2020
2219 Clear 26 1013 44 16093 1.5 250 22:18 01.06.2020
2220 Clear 26 1014 44 16093 4.56 244 21:41 01.06.2020
2221 Clear 25 1014 44 16093 4.23 243 21:20 01.06.2020
2222 Clear 25 1014 50 16093 2.6 260 20:58 01.06.2020
2223 Clear 24 1014 50 16093 2.6 260 20:40 01.06.2020
2224 Clear 25 1013 53 16093 3.37 243 20:20 01.06.2020
2225 Clear 25 1013 53 16093 3.37 243 20:20 01.06.2020
2226 Clear 24 1013 53 16093 3.37 243 19:58 01.06.2020
2227 Clear 24 1013 53 16093 3.37 243 19:39 01.06.2020
2228 Clear 23 1013 53 16093 2.74 238 19:20 01.06.2020
2229 Clear 22 1014 60 16093 2.74 238 18:57 01.06.2020
2230 Clear 22 1014 60 16093 2.74 238 18:38 01.06.2020
2231 Clear 21 1014 60 16093 1.9 253 18:18 01.06.2020
2232 Clear 20 1013 68 16093 1.9 253 17:41 01.06.2020
2233 Clear 19 1013 68 16093 1.6 234 17:20 01.06.2020
2234 Clear 18 1013 77 16093 1.6 234 16:58 01.06.2020
2235 Clear 18 1013 77 16093 1.6 234 16:39 01.06.2020
2236 Clear 17 1013 77 16093 0.84 230 16:18 01.06.2020
2237 Clear 16 1013 82 16093 0.84 230 15:45 01.06.2020
2238 Clear 16 1013 82 16093 0.29 207 15:21 01.06.2020
2239 Clear 16 1013 77 16093 0.29 207 14:59 01.06.2020
2240 Clear 16 1013 77 16093 0.29 207 14:41 01.06.2020
2241 Clear 16 1013 77 16093 1.06 188 14:21 01.06.2020
2242 Clear 16 1013 77 16093 1.06 188 13:58 01.06.2020
2243 Clear 16 1013 77 16093 1.06 188 13:39 01.06.2020
2244 Clear 16 1013 77 16093 1.22 207 13:20 01.06.2020
2245 Clear 16 1013 77 16093 1.22 207 12:57 01.06.2020
2246 Clear 16 1013 77 16093 1.22 207 12:39 01.06.2020
2247 Clear 16 1013 77 16093 1.22 207 12:39 01.06.2020
2248 Clear 16 1013 77 16093 1.75 206 12:20 01.06.2020
2249 Clear 16 1013 77 16093 1.75 206 11:41 01.06.2020
2250 Clear 16 1013 77 16093 1.77 190 11:23 01.06.2020
2251 Clear 16 1013 77 16093 1.77 190 10:59 01.06.2020
2252 Clear 16 1013 77 16093 1.77 190 10:39 01.06.2020
2253 Clear 16 1013 77 16093 1.08 157 10:20 01.06.2020
2254 Clear 16 1013 77 16093 1.08 157 09:57 01.06.2020
2255 Clear 16 1013 77 16093 1.08 157 09:39 01.06.2020
2256 Clear 16 1013 77 16093 1.38 187 09:20 01.06.2020
2257 Clear 16 1013 77 14484 1.86 185 08:51 01.06.2020
2258 Clear 17 1013 77 14484 1.55 156 08:28 01.06.2020
2259 Clear 17 1013 68 16093 1.55 156 07:46 01.06.2020
2260 Clear 17 1013 68 16093 1.38 159 07:28 01.06.2020
2261 Clear 17 1013 68 16093 1.38 159 06:59 01.06.2020
2262 Clear 17 1013 68 16093 1.38 159 06:33 01.06.2020
2263 Clear 17 1013 68 16093 1.5 250 05:53 01.06.2020
2264 Clear 19 1012 56 16093 2.1 250 04:46 01.06.2020
2265 Clear 21 1012 56 16093 3.1 250 03:49 01.06.2020
2266 Clear 21 1012 56 16093 3.1 250 03:27 01.06.2020
2267 Clear 22 1012 53 16093 3.1 260 02:32 01.06.2020
2268 Clear 23 1012 53 16093 2.1 250 01:35 01.06.2020
2269 Clear 24 1012 53 16093 1.5 0 00:58 01.06.2020
2270 Clear 24 1012 53 16093 1.5 0 00:40 01.06.2020
2271 Clear 24 1012 53 16093 1.5 0 00:21 01.06.2020
2272 Clear 24 1013 53 16093 1.5 260 23:58 31.05.2020
2273 Clear 24 1013 53 16093 1.5 260 23:39 31.05.2020
2274 Clear 24 1013 53 16093 1.5 260 23:21 31.05.2020
2275 Clear 24 1013 56 16093 1.5 0 22:57 31.05.2020
2276 Clear 24 1013 56 16093 1.5 0 22:38 31.05.2020
2277 Clear 24 1013 56 16093 1.5 0 22:20 31.05.2020
2278 Clear 23 1014 60 16093 2.88 252 21:42 31.05.2020
2279 Clear 22 1014 60 16093 4.58 236 21:24 31.05.2020
2280 Clear 22 1014 53 16093 4.58 236 20:58 31.05.2020
2281 Clear 22 1014 53 16093 4.58 236 20:40 31.05.2020
2282 Clear 22 1014 53 16093 3.96 221 20:21 31.05.2020
2283 Clouds 21 1014 60 16093 1.5 0 19:56 31.05.2020
2284 Clouds 21 1014 60 16093 1.5 0 19:37 31.05.2020
2285 Clouds 20 1014 60 16093 1.5 0 19:19 31.05.2020
2286 Clouds 20 1014 60 16093 1.5 0 19:19 31.05.2020
2287 Clouds 19 1014 68 16093 2.28 175 18:44 31.05.2020
2288 Clouds 19 1014 68 16093 2.28 175 18:44 31.05.2020
2289 Clouds 19 1014 68 16093 2.27 129 18:25 31.05.2020
2290 Clear 18 1014 72 16093 2.27 129 17:57 31.05.2020
2291 Clear 18 1014 72 16093 2.27 129 17:39 31.05.2020
2292 Clear 18 1014 72 16093 1.65 111 17:19 31.05.2020
2293 Clear 16 1014 77 16093 1.65 111 16:41 31.05.2020
2294 Clear 16 1014 77 16093 0.7 189 16:21 31.05.2020
2295 Clear 16 1014 77 16093 0.7 189 16:21 31.05.2020
2296 Clouds 15 1013 82 16093 0.7 189 15:41 31.05.2020
2297 Clouds 15 1013 82 16093 0.97 207 15:23 31.05.2020
2298 Clear 15 1013 82 16093 0.97 207 14:58 31.05.2020
2299 Clear 15 1013 82 16093 0.97 207 14:40 31.05.2020
2300 Clear 15 1013 82 16093 1.34 188 14:19 31.05.2020
2301 Clear 15 1013 77 16093 1.34 188 13:55 31.05.2020
2302 Clear 15 1013 77 16093 1.34 188 13:36 31.05.2020
2303 Clear 15 1013 77 16093 1.85 204 13:18 31.05.2020
2304 Clear 15 1013 77 16093 1.85 204 12:42 31.05.2020
2305 Clear 15 1013 77 16093 1.79 199 12:23 31.05.2020
2306 Clear 15 1013 77 16093 1.79 199 12:23 31.05.2020
2307 Clear 15 1013 77 16093 1.79 199 11:55 31.05.2020
2308 Clear 15 1013 77 16093 1.79 199 11:36 31.05.2020
2309 Clear 15 1013 77 16093 1.85 225 11:18 31.05.2020
2310 Clear 15 1013 77 16093 1.85 225 10:43 31.05.2020
2311 Clear 15 1013 77 16093 2.55 250 10:25 31.05.2020
2312 Clear 15 1013 77 16093 2.55 250 10:25 31.05.2020
2313 Clear 15 1014 77 16093 2.55 250 09:58 31.05.2020
2314 Clear 15 1014 77 16093 2.55 250 09:40 31.05.2020
2315 Clear 15 1014 77 16093 2.56 257 09:20 31.05.2020
2316 Clear 15 1014 77 16093 2.3 245 08:42 31.05.2020
2317 Clear 16 1014 77 16093 3.06 271 08:24 31.05.2020
2318 Clear 16 1014 77 16093 1.5 0 07:50 31.05.2020
2319 Clear 16 1014 77 16093 1.5 0 07:22 31.05.2020
2320 Clear 16 1014 77 16093 2.6 260 06:57 31.05.2020
2321 Clear 17 1014 77 16093 2.6 260 06:35 31.05.2020
2322 Clear 17 1013 68 16093 3.1 0 05:51 31.05.2020
2323 Clear 18 1013 68 16093 3.1 0 05:32 31.05.2020
2324 Clear 19 1014 68 16093 3.1 250 04:18 31.05.2020
2325 Clear 19 1014 68 16093 3.1 250 03:44 31.05.2020
2326 Clear 21 1014 56 16093 4.6 250 02:49 31.05.2020
2327 Clear 21 1014 53 16093 5.7 260 01:46 31.05.2020
2328 Clear 22 1015 53 16093 4.6 260 00:42 31.05.2020
2329 Clear 22 1015 53 16093 4.6 260 00:24 31.05.2020
2330 Clear 23 1014 49 16093 2.1 250 23:42 30.05.2020
2331 Clear 24 1014 49 16093 2.1 250 23:24 30.05.2020
2332 Clear 23 1015 49 16093 2.6 250 22:57 30.05.2020
2333 Clear 23 1015 49 16093 2.6 250 22:39 30.05.2020
2334 Clear 23 1015 49 16093 4.27 234 22:21 30.05.2020
2335 Clear 23 1015 49 16093 4.27 234 21:43 30.05.2020
2336 Clear 22 1015 49 16093 3.31 226 21:22 30.05.2020
2337 Clouds 22 1016 60 16093 3.31 226 20:58 30.05.2020
2338 Clouds 21 1016 60 16093 3.31 226 20:40 30.05.2020
2339 Clouds 21 1016 60 16093 3.24 226 20:21 30.05.2020
2340 Clouds 20 1016 60 16093 1.5 0 19:58 30.05.2020
2341 Clouds 20 1016 60 16093 1.5 0 19:40 30.05.2020
2342 Clouds 19 1016 60 16093 1.5 0 19:20 30.05.2020
2343 Clouds 19 1016 68 16093 3.02 224 18:43 30.05.2020
2344 Clouds 18 1016 68 16093 2.24 220 18:20 30.05.2020
2345 Clouds 18 1016 68 16093 2.24 220 17:43 30.05.2020
2346 Clouds 18 1016 68 16093 1.59 217 17:25 30.05.2020
2347 Clouds 17 1015 72 16093 1.59 217 16:59 30.05.2020
2348 Clouds 17 1015 72 16093 1.59 217 16:41 30.05.2020
2349 Clouds 16 1015 72 16093 0.75 223 16:21 30.05.2020
2350 Clouds 15 1015 82 16093 0.75 223 15:45 30.05.2020
2351 Clouds 15 1015 82 16093 0.69 220 15:26 30.05.2020
2352 Clouds 15 1015 77 16093 0.69 220 14:46 30.05.2020
2353 Clouds 16 1015 77 16093 1.06 205 14:27 30.05.2020
2354 Clouds 16 1015 77 16093 2.1 260 13:44 30.05.2020
2355 Clouds 16 1015 77 16093 2.1 260 13:26 30.05.2020
2356 Clouds 16 1015 77 16093 1.64 213 12:55 30.05.2020
2357 Clouds 16 1015 77 16093 1.64 213 12:36 30.05.2020
2358 Clouds 16 1015 68 16093 1.61 197 12:18 30.05.2020
2359 Clouds 17 1015 68 16093 1.61 197 11:41 30.05.2020
2360 Clouds 17 1015 68 16093 1.46 202 11:23 30.05.2020
2361 Clouds 16 1016 77 16093 1.46 202 10:58 30.05.2020
2362 Clouds 17 1016 77 16093 1.46 202 10:38 30.05.2020
2363 Clouds 17 1016 77 16093 1.4 195 10:20 30.05.2020
2364 Clouds 16 1016 77 16093 1.4 195 09:44 30.05.2020
2365 Clouds 16 1016 77 16093 2.55 205 09:25 30.05.2020
2366 Clouds 17 1016 77 16093 2.66 217 08:44 30.05.2020
2367 Clouds 17 1016 77 16093 2.03 194 08:26 30.05.2020
2368 Clouds 17 1016 72 16093 1.5 0 07:40 30.05.2020
2369 Clouds 17 1016 72 16093 2.33 209 07:19 30.05.2020
2370 Clouds 17 1016 72 16093 2.33 209 06:30 30.05.2020
2371 Clouds 17 1016 72 16093 5.1 260 05:52 30.05.2020
2372 Clouds 18 1015 68 16093 2.1 260 05:19 30.05.2020
2373 Clouds 21 1015 64 16093 2.6 250 02:56 30.05.2020
2374 Clouds 21 1015 60 16093 1.5 0 02:23 30.05.2020
2375 Clouds 23 1015 60 16093 1.5 0 01:30 30.05.2020
2376 Clouds 23 1015 60 16093 4.17 199 00:36 30.05.2020
2377 Clouds 22 1015 64 16093 3.64 186 00:18 30.05.2020
2378 Clouds 22 1015 64 16093 3.64 186 23:41 29.05.2020
2379 Clouds 21 1015 64 16093 3.54 198 23:20 29.05.2020
2380 Clouds 21 1015 68 16093 3.54 198 22:56 29.05.2020
2381 Clouds 21 1015 68 16093 3.54 198 22:38 29.05.2020
2382 Clouds 20 1015 68 16093 3.59 200 22:18 29.05.2020
2383 Clouds 20 1016 68 16093 3.59 200 21:41 29.05.2020
2384 Clouds 19 1016 68 16093 3.24 207 21:21 29.05.2020
2385 Clouds 19 1016 72 11265 3.24 207 20:59 29.05.2020
2386 Clouds 19 1016 72 11265 3.24 207 20:40 29.05.2020
2387 Clouds 19 1016 72 11265 2.56 200 20:19 29.05.2020
2388 Clouds 18 1016 72 12874 2.56 200 19:56 29.05.2020
2389 Clouds 18 1016 77 11265 2.56 200 19:37 29.05.2020
2390 Clouds 18 1016 77 11265 1.85 204 19:19 29.05.2020
2391 Haze 18 1016 77 8047 1.85 204 18:44 29.05.2020
2392 Haze 17 1016 77 8047 1.78 209 18:19 29.05.2020
2393 Haze 17 1015 77 9656 1.78 209 17:56 29.05.2020
2394 Haze 17 1015 77 9656 1.78 209 17:37 29.05.2020
2395 Haze 17 1015 77 9656 1.51 191 17:19 29.05.2020
2396 Haze 17 1014 77 9656 1.51 191 16:42 29.05.2020
2397 Haze 17 1014 77 9656 1.61 214 16:23 29.05.2020
2398 Clouds 17 1014 77 11265 1.61 214 15:55 29.05.2020
2399 Clouds 16 1014 77 11265 1.61 214 15:37 29.05.2020
2400 Clouds 16 1014 77 11265 2.45 232 15:18 29.05.2020
2401 Clouds 17 1013 77 11265 2.42 226 14:40 29.05.2020
2402 Clouds 17 1013 77 11265 1.6 200 14:22 29.05.2020
2403 Clouds 16 1014 82 12874 1.6 200 13:44 29.05.2020
2404 Clouds 16 1014 82 12874 1.2 193 13:25 29.05.2020
2405 Clouds 16 1014 77 14484 2.1 260 12:59 29.05.2020
2406 Clouds 16 1014 77 14484 2.1 260 12:41 29.05.2020
2407 Clouds 16 1014 77 14484 2.1 260 12:22 29.05.2020
2408 Clouds 16 1014 72 14484 0.96 207 11:45 29.05.2020
2409 Clouds 17 1014 72 14484 1.07 252 11:26 29.05.2020
2410 Clouds 17 1014 77 16093 1.07 252 10:57 29.05.2020
2411 Clouds 16 1014 77 16093 1.07 252 10:37 29.05.2020
2412 Clouds 16 1014 77 16093 2.35 219 10:18 29.05.2020
2413 Clouds 16 1015 77 16093 2.35 219 09:43 29.05.2020
2414 Clouds 16 1015 77 16093 2.47 220 09:20 29.05.2020
2415 Clouds 16 1015 82 16093 2.47 220 08:56 29.05.2020
2416 Clouds 16 1015 82 16093 2.47 220 08:37 29.05.2020
2417 Clouds 16 1015 82 16093 1.88 213 08:19 29.05.2020
2418 Clouds 16 1016 82 16093 1.5 280 07:40 29.05.2020
2419 Clouds 16 1016 82 16093 1.5 280 07:21 29.05.2020
2420 Clouds 16 1015 77 16093 1.81 219 06:48 29.05.2020
2421 Clouds 17 1015 77 16093 2.2 229 06:27 29.05.2020
2422 Clouds 17 1014 77 16093 1.5 250 05:51 29.05.2020
2423 Clear 21 1013 60 16093 3.1 280 02:39 29.05.2020
2424 Clear 24 1014 60 16093 2.6 250 01:42 29.05.2020
2425 Clear 24 1014 60 16093 2.6 250 01:23 29.05.2020
2426 Clear 24 1014 60 16093 3.1 250 00:46 29.05.2020
2427 Clear 25 1014 60 16093 3.1 250 00:21 29.05.2020
2428 Clear 25 1014 57 14484 4.33 234 23:40 28.05.2020
2429 Clear 25 1014 57 14484 4.16 226 23:19 28.05.2020
2430 Clear 25 1014 56 11265 2.6 260 22:45 28.05.2020
2431 Clear 25 1014 56 11265 2.6 260 22:45 28.05.2020
2432 Clear 25 1014 56 11265 2.6 260 22:27 28.05.2020
2433 Clear 24 1014 60 11265 3.75 220 21:59 28.05.2020
2434 Clear 24 1014 60 11265 3.51 220 21:40 28.05.2020
2435 Clear 24 1014 60 11265 3.51 220 21:20 28.05.2020
2436 Clear 23 1014 60 11265 2.1 270 20:58 28.05.2020
2437 Clear 23 1014 60 11265 2.1 270 20:40 28.05.2020
2438 Clear 22 1014 60 11265 2.1 270 20:19 28.05.2020
2439 Clear 22 1014 60 11265 3.09 221 19:57 28.05.2020
2440 Clear 21 1014 60 11265 3.09 221 19:39 28.05.2020
2441 Clear 21 1014 60 11265 2.56 214 19:20 28.05.2020
2442 Haze 20 1014 68 9656 2.56 214 18:46 28.05.2020
2443 Haze 20 1014 68 9656 1.71 207 18:27 28.05.2020
2444 Haze 19 1014 64 9656 1.71 207 17:59 28.05.2020
2445 Haze 18 1014 72 8047 1.71 207 17:39 28.05.2020
2446 Haze 18 1014 72 8047 1.72 207 17:20 28.05.2020
2447 Haze 17 1014 77 6437 1.72 207 16:46 28.05.2020
2448 Haze 17 1014 77 6437 1.54 187 16:21 28.05.2020
2449 Haze 17 1013 77 8047 1.54 187 15:55 28.05.2020
2450 Haze 17 1013 77 8047 1.54 187 15:36 28.05.2020
2451 Clouds 16 1014 77 11265 1.5 200 15:18 28.05.2020
2452 Haze 16 1013 82 9656 1.39 195 14:42 28.05.2020
2453 Haze 16 1013 82 9656 1.53 220 14:22 28.05.2020
2454 Haze 16 1013 82 9656 1.53 220 14:22 28.05.2020
2455 Haze 16 1013 82 9656 1.53 220 13:46 28.05.2020
2456 Haze 16 1013 82 9656 1.51 216 13:27 28.05.2020
2457 Clouds 16 1014 77 12874 1.51 216 12:56 28.05.2020
2458 Haze 17 1013 77 9656 1.51 216 12:37 28.05.2020
2459 Clouds 16 1014 82 11265 1.98 197 12:18 28.05.2020
2460 Clouds 16 1014 82 11265 1.98 197 11:40 28.05.2020
2461 Clouds 16 1014 82 11265 1.49 171 11:22 28.05.2020
2462 Clouds 16 1015 82 16093 1.5 220 10:50 28.05.2020
2463 Clouds 16 1015 82 16093 1.5 220 10:28 28.05.2020
2464 Clouds 16 1015 82 16093 1.5 220 10:28 28.05.2020
2465 Haze 16 1015 82 9656 1.62 174 09:59 28.05.2020
2466 Haze 16 1015 82 9656 1.75 173 09:38 28.05.2020
2467 Haze 16 1015 82 9656 1.98 179 09:19 28.05.2020
2468 Haze 16 1015 82 9656 1.98 179 08:44 28.05.2020
2469 Haze 17 1015 82 9656 2.09 187 08:25 28.05.2020
2470 Clouds 17 1014 82 11265 2.1 270 07:45 28.05.2020
2471 Clouds 17 1014 82 11265 2.1 270 07:24 28.05.2020
2472 Clouds 17 1014 82 16093 1.94 189 06:51 28.05.2020
2473 Clouds 17 1014 82 16093 1.94 189 06:31 28.05.2020
2474 Clear 19 1013 77 16093 1.5 250 05:40 28.05.2020
2475 Clear 21 1012 68 16093 2.1 260 04:46 28.05.2020
2476 Clear 22 1012 68 16093 2.1 260 04:24 28.05.2020
2477 Clear 22 1012 60 16093 1.5 250 03:45 28.05.2020
2478 Clear 24 1012 60 16093 2.6 260 02:45 28.05.2020
2479 Clear 25 1012 56 16093 1.5 240 01:49 28.05.2020
2480 Clear 25 1012 56 16093 4.23 236 00:54 28.05.2020
2481 Clear 26 1012 56 16093 4.65 241 00:23 28.05.2020
2482 Clear 27 1012 50 12874 1.5 240 23:57 27.05.2020
2483 Clear 28 1012 50 12874 1.5 240 23:38 27.05.2020
2484 Clear 27 1012 50 12874 4.88 233 23:20 27.05.2020
2485 Clear 27 1012 50 12874 4.88 233 22:54 27.05.2020
2486 Clear 27 1012 50 12874 4.88 233 22:36 27.05.2020
2487 Clear 26 1012 50 12874 3.86 214 22:18 27.05.2020
2488 Clear 26 1013 47 11265 3.86 214 21:40 27.05.2020
2489 Clear 25 1013 47 11265 2.61 198 21:21 27.05.2020
2490 Haze 25 1013 57 9656 1.5 250 20:58 27.05.2020
2491 Haze 25 1013 57 9656 1.5 250 20:40 27.05.2020
2492 Haze 24 1013 64 8047 2.13 184 20:20 27.05.2020
2493 Haze 22 1013 64 8047 2.13 184 19:47 27.05.2020
2494 Haze 22 1014 68 6437 2.13 167 19:21 27.05.2020
2495 Haze 21 1014 68 6437 2.13 167 18:58 27.05.2020
2496 Haze 20 1014 72 6437 1.5 250 18:39 27.05.2020
2497 Haze 20 1013 82 4828 1.9 155 18:19 27.05.2020
2498 Haze 19 1013 82 4828 1.9 155 17:43 27.05.2020
2499 Haze 19 1013 82 4828 1.51 155 17:25 27.05.2020
2500 Mist 18 1013 87 4828 1.51 155 16:57 27.05.2020
2501 Mist 17 1013 87 4828 1.51 155 16:38 27.05.2020
2502 Mist 17 1013 87 4828 1.29 164 16:20 27.05.2020
2503 Mist 15 1013 87 4828 1.29 164 15:59 27.05.2020
2504 Mist 15 1013 87 4828 1.29 164 15:37 27.05.2020
2505 Mist 15 1013 87 3219 1.32 168 15:18 27.05.2020
2506 Mist 16 1013 87 4023 1.32 168 14:42 27.05.2020
2507 Mist 15 1013 87 4023 1 171 14:21 27.05.2020
2508 Mist 16 1012 87 6437 1 171 13:44 27.05.2020
2509 Mist 16 1012 87 6437 1.4 178 13:26 27.05.2020
2510 Clear 16 1012 77 12874 1.4 178 12:57 27.05.2020
2511 Clear 16 1012 77 12874 1.4 178 12:57 27.05.2020
2512 Clear 16 1012 77 12874 1.4 178 12:39 27.05.2020
2513 Clear 16 1012 77 12874 1.41 174 12:21 27.05.2020
2514 Clear 17 1013 82 12874 1.41 174 11:39 27.05.2020
2515 Clear 17 1013 82 12874 1.13 149 11:21 27.05.2020
2516 Clear 17 1013 82 12874 1.13 149 10:58 27.05.2020
2517 Clear 17 1013 82 12874 1.13 149 10:39 27.05.2020
2518 Clear 17 1013 82 12874 1.8 162 10:20 27.05.2020
2519 Clear 17 1013 82 14484 1.8 162 09:41 27.05.2020
2520 Clear 16 1013 82 14484 2.32 151 09:22 27.05.2020
2521 Clear 17 1013 82 14484 2.32 151 08:56 27.05.2020
2522 Clear 16 1013 82 14484 2.32 151 08:36 27.05.2020
2523 Clear 17 1013 82 14484 2.24 143 08:18 27.05.2020
2524 Clear 17 1013 82 12874 2.24 143 07:49 27.05.2020
2525 Clear 17 1013 82 12874 2.24 143 07:30 27.05.2020
2526 Clear 17 1012 82 14484 1.89 167 06:49 27.05.2020
2527 Clouds 17 1011 77 12874 2.11 195 06:21 27.05.2020
2528 Clouds 18 1011 77 12874 2.11 195 05:49 27.05.2020
2529 Clear 19 1011 68 16093 1.5 0 05:22 27.05.2020
2530 Clear 26 1011 60 16093 2.6 250 02:34 27.05.2020
2531 Clear 26 1011 56 16093 2.6 0 01:55 27.05.2020
2532 Clear 27 1011 56 16093 2.6 0 01:30 27.05.2020
2533 Clear 29 1011 42 16093 4.1 260 00:46 27.05.2020
2534 Clear 29 1011 42 16093 4.1 260 00:20 27.05.2020
2535 Clear 29 1011 44 16093 5.19 240 23:57 26.05.2020
2536 Clear 29 1011 44 16093 5.19 240 23:38 26.05.2020
2537 Clear 28 1012 47 16093 1.5 0 23:19 26.05.2020
2538 Clear 27 1012 47 16093 1.5 0 22:41 26.05.2020
2539 Clear 27 1012 47 16093 1.5 0 22:22 26.05.2020
2540 Clear 28 1012 50 16093 4.16 236 21:59 26.05.2020
2541 Clear 28 1012 50 16093 4.16 236 21:40 26.05.2020
2542 Clear 28 1012 50 16093 4.16 236 21:40 26.05.2020
2543 Clear 26 1012 47 14484 3.14 237 21:21 26.05.2020
2544 Clear 27 1012 47 14484 3.14 237 20:57 26.05.2020
2545 Clear 26 1012 47 14484 3.14 237 20:39 26.05.2020
2546 Clear 26 1013 56 11265 1.5 260 20:19 26.05.2020
2547 Clear 24 1013 56 11265 1.5 260 19:40 26.05.2020
2548 Clear 23 1013 56 11265 1.5 260 19:20 26.05.2020
2549 Haze 22 1013 68 8047 2.03 229 18:57 26.05.2020
2550 Haze 22 1013 68 8047 2.03 229 18:39 26.05.2020
2551 Haze 21 1013 68 8047 1.37 213 18:20 26.05.2020
2552 Haze 19 1012 77 6437 1.37 213 17:39 26.05.2020
2553 Haze 19 1012 77 6437 0.81 199 17:21 26.05.2020
2554 Haze 17 1012 82 4828 0.81 199 16:48 26.05.2020
2555 Haze 17 1012 82 4828 0.64 213 16:23 26.05.2020
2556 Haze 16 1012 82 6437 0.64 213 15:58 26.05.2020
2557 Haze 16 1012 82 8047 0.64 213 15:39 26.05.2020
2558 Haze 16 1012 82 8047 1 220 15:19 26.05.2020
2559 Mist 16 1012 87 6437 1 220 14:45 26.05.2020
2560 Mist 16 1012 87 6437 1 226 14:27 26.05.2020
2561 Mist 16 1012 87 4828 1 226 13:58 26.05.2020
2562 Mist 16 1012 87 4828 1 226 13:40 26.05.2020
2563 Mist 16 1012 87 4828 1.1 220 13:21 26.05.2020
2564 Mist 16 1012 87 4828 1.5 290 12:44 26.05.2020
2565 Mist 16 1012 87 4828 1.5 290 12:22 26.05.2020
2566 Clear 17 1012 82 12874 1.3 216 11:59 26.05.2020
2567 Clear 16 1012 82 12874 1.3 216 11:40 26.05.2020
2568 Clear 16 1012 82 12874 1.42 209 11:19 26.05.2020
2569 Clear 17 1012 82 14484 1.42 209 10:47 26.05.2020
2570 Clear 17 1012 82 14484 1.65 194 10:19 26.05.2020
2571 Clear 17 1012 77 14484 1.65 194 09:57 26.05.2020
2572 Clear 17 1012 77 14484 1.65 194 09:37 26.05.2020
2573 Clear 17 1012 77 12874 1.85 166 09:18 26.05.2020
2574 Clear 18 1012 77 12874 2.03 174 08:40 26.05.2020
2575 Clear 18 1012 77 14484 2.03 152 08:21 26.05.2020
2576 Clear 18 1012 77 12874 2.03 152 08:21 26.05.2020
2577 Clear 19 1012 77 14484 2.03 152 07:42 26.05.2020
2578 Clear 19 1012 77 14484 1.72 151 07:23 26.05.2020
2579 Clear 20 1011 72 16093 1.72 151 06:53 26.05.2020
2580 Clear 20 1011 72 16093 1.75 199 06:28 26.05.2020
2581 Clear 21 1011 64 16093 1.75 199 05:43 26.05.2020
2582 Clear 22 1011 64 16093 2.79 227 05:20 26.05.2020
2583 Clear 24 1010 53 16093 2.79 227 04:48 26.05.2020
2584 Clear 24 1010 53 16093 3.11 234 04:29 26.05.2020
2585 Clear 24 1010 53 16093 3.11 234 04:29 26.05.2020
2586 Clear 25 1010 56 16093 2.6 260 03:46 26.05.2020
2587 Clear 26 1011 47 16093 2.1 250 02:36 26.05.2020
2588 Clear 26 1011 50 16093 2.1 280 01:47 26.05.2020
2589 Clear 26 1012 56 16093 4.16 239 00:44 26.05.2020
2590 Clear 26 1012 56 16093 4.37 243 00:26 26.05.2020
2591 Clear 26 1012 50 16093 2.6 0 23:59 25.05.2020
2592 Clear 26 1012 50 16093 2.6 0 23:39 25.05.2020
2593 Clear 26 1012 53 16093 2.1 250 23:20 25.05.2020
2594 Clear 26 1012 53 16093 2.1 250 22:56 25.05.2020
2595 Clear 26 1012 53 16093 2.1 250 22:38 25.05.2020
2596 Clear 26 1012 53 16093 2.1 250 22:20 25.05.2020
2597 Clear 25 1013 53 16093 2.1 250 21:59 25.05.2020
2598 Clear 25 1013 53 16093 2.1 250 21:39 25.05.2020
2599 Clear 25 1013 53 16093 2.1 250 21:20 25.05.2020
2600 Clear 24 1013 56 16093 3.9 237 20:59 25.05.2020
2601 Clear 24 1013 56 16093 3.9 237 20:41 25.05.2020
2602 Clear 24 1013 56 16093 3.23 234 20:20 25.05.2020
2603 Clear 23 1013 56 14484 3.23 234 19:58 25.05.2020
2604 Clear 22 1013 56 14484 3.23 234 19:39 25.05.2020
2605 Clear 21 1013 64 12874 2.51 218 19:18 25.05.2020
2606 Clear 20 1013 64 12874 2.51 218 18:45 25.05.2020
2607 Clear 20 1013 64 12874 1.93 180 18:22 25.05.2020
2608 Clear 19 1013 72 12874 1.5 260 17:59 25.05.2020
2609 Clear 19 1013 72 12874 1.5 260 17:40 25.05.2020
2610 Clear 18 1013 77 12874 0.58 229 17:22 25.05.2020
2611 Clear 17 1013 77 12874 0.58 229 16:56 25.05.2020
2612 Clear 17 1013 77 12874 0.58 229 16:38 25.05.2020
2613 Clear 16 1013 77 12874 1.02 316 16:19 25.05.2020
2614 Clear 15 1013 77 12874 1.02 316 15:42 25.05.2020
2615 Clear 15 1012 82 12874 1.25 259 15:19 25.05.2020
2616 Clear 15 1013 77 12874 1.25 259 15:19 25.05.2020
2617 Clear 15 1012 82 12874 1.25 259 14:57 25.05.2020
2618 Clear 16 1012 82 12874 1.25 259 14:38 25.05.2020
2619 Clear 16 1012 82 12874 1.19 198 14:19 25.05.2020
2620 Clear 16 1012 77 14484 1.19 198 13:39 25.05.2020
2621 Clear 16 1012 77 14484 0.47 153 13:21 25.05.2020
2622 Clear 16 1012 82 14484 0.47 153 12:57 25.05.2020
2623 Clear 16 1012 82 14484 0.47 153 12:38 25.05.2020
2624 Clear 16 1012 82 14484 1.36 218 12:20 25.05.2020
2625 Clear 16 1012 77 14484 1.36 218 11:39 25.05.2020
2626 Clear 16 1012 72 14484 1.11 218 11:20 25.05.2020
2627 Clear 16 1012 72 14484 1.11 218 10:57 25.05.2020
2628 Clear 16 1012 72 14484 1.11 218 10:39 25.05.2020
2629 Clear 16 1013 82 12874 0.94 203 10:20 25.05.2020
2630 Clear 16 1013 82 12874 0.94 203 09:54 25.05.2020
2631 Clear 16 1013 82 12874 0.94 203 09:36 25.05.2020
2632 Clear 17 1013 77 11265 2.07 197 09:18 25.05.2020
2633 Clear 17 1013 77 11265 1.77 179 08:40 25.05.2020
2634 Clear 17 1012 72 12874 1.9 172 08:21 25.05.2020
2635 Clear 17 1012 72 12874 1.9 172 07:56 25.05.2020
2636 Clear 17 1012 72 12874 1.9 172 07:38 25.05.2020
2637 Clear 17 1012 72 14484 1.36 184 07:18 25.05.2020
2638 Clear 17 1012 72 14484 1.36 184 06:38 25.05.2020
2639 Clear 17 1012 72 14484 1.5 260 05:27 25.05.2020
2640 Clear 21 1011 60 16093 2.1 260 03:30 25.05.2020
2641 Clear 22 1012 60 16093 3.54 236 02:52 25.05.2020
2642 Clear 23 1012 60 16093 3.54 236 02:34 25.05.2020
2643 Clear 24 1012 53 16093 3.6 260 01:42 25.05.2020
2644 Clear 25 1012 53 16093 2.1 0 00:47 25.05.2020
2645 Clear 25 1012 53 16093 2.1 0 00:26 25.05.2020
2646 Clear 25 1013 56 16093 2.1 0 23:58 24.05.2020
2647 Clear 25 1013 56 16093 2.1 0 23:39 24.05.2020
2648 Clear 25 1013 56 16093 2.1 0 23:20 24.05.2020
2649 Clear 24 1013 53 16093 3.6 260 22:56 24.05.2020
2650 Clear 24 1013 53 16093 3.6 260 22:37 24.05.2020
2651 Clear 24 1013 53 16093 3.6 260 22:18 24.05.2020
2652 Clear 24 1013 44 16093 3.67 220 21:55 24.05.2020
2653 Clear 24 1013 44 16093 3.67 220 21:36 24.05.2020
2654 Clear 24 1014 53 16093 3.23 214 21:18 24.05.2020
2655 Clear 23 1014 53 16093 3.23 214 20:43 24.05.2020
2656 Clear 23 1014 53 16093 2.94 210 20:21 24.05.2020
2657 Clear 22 1014 56 14484 2.94 210 19:56 24.05.2020
2658 Clear 21 1014 56 14484 2.94 210 19:38 24.05.2020
2659 Clear 20 1014 56 14484 2.32 207 19:19 24.05.2020
2660 Clouds 19 1015 64 12874 2.32 207 18:43 24.05.2020
2661 Clouds 19 1015 64 12874 1.76 196 18:24 24.05.2020
2662 Clouds 18 1015 72 11265 1.76 196 17:59 24.05.2020
2663 Clouds 17 1015 72 12874 1.76 196 17:40 24.05.2020
2664 Clouds 17 1014 77 11265 1.54 178 17:21 24.05.2020
2665 Clouds 17 1014 77 11265 1.54 178 17:21 24.05.2020
2666 Clouds 16 1014 77 11265 1.54 178 16:56 24.05.2020
2667 Clouds 16 1014 77 12874 1.54 178 16:38 24.05.2020
2668 Clouds 15 1014 77 12874 1.41 164 16:20 24.05.2020
2669 Clouds 14 1014 82 12874 1.41 164 15:56 24.05.2020
2670 Clear 14 1014 82 14484 1.41 164 15:38 24.05.2020
2671 Clear 14 1014 82 14484 1.24 160 15:19 24.05.2020
2672 Clear 14 1014 82 14484 1.24 160 14:45 24.05.2020
2673 Clear 14 1014 82 14484 1.18 160 14:24 24.05.2020
2674 Clear 14 1013 77 14484 1.22 159 13:59 24.05.2020
2675 Clear 14 1013 77 14484 1.22 159 13:41 24.05.2020
2676 Clear 14 1013 77 14484 1.26 182 13:21 24.05.2020
2677 Clear 14 1013 77 16093 1.26 182 12:59 24.05.2020
2678 Clear 14 1013 77 16093 1.26 182 12:40 24.05.2020
2679 Clear 14 1013 77 16093 1.2 194 12:22 24.05.2020
2680 Clear 14 1013 77 16093 1.2 194 11:59 24.05.2020
2681 Clear 14 1013 77 16093 1.2 194 11:41 24.05.2020
2682 Clear 14 1013 77 16093 1.2 194 11:41 24.05.2020
2683 Clear 14 1013 77 16093 1.34 191 11:22 24.05.2020
2684 Clear 15 1013 77 16093 1.34 191 10:57 24.05.2020
2685 Clear 15 1013 77 16093 1.34 191 10:39 24.05.2020
2686 Clear 15 1014 77 16093 1.36 188 10:21 24.05.2020
2687 Clear 15 1014 77 16093 1.36 188 09:41 24.05.2020
2688 Clear 15 1014 77 16093 1.48 191 09:19 24.05.2020
2689 Clear 15 1014 72 16093 1.29 180 08:57 24.05.2020
2690 Clear 15 1014 72 16093 1.29 180 08:39 24.05.2020
2691 Clear 16 1014 72 16093 1.56 188 08:21 24.05.2020
2692 Clear 16 1014 72 16093 1.56 188 07:51 24.05.2020
2693 Clear 16 1014 72 16093 2.01 207 07:26 24.05.2020
2694 Clear 16 1013 72 16093 1.5 260 06:57 24.05.2020
2695 Clear 16 1013 72 16093 1.5 260 06:36 24.05.2020
2696 Clear 17 1013 68 16093 2.6 270 05:20 24.05.2020
2697 Clear 20 1012 52 16093 2.1 0 03:42 24.05.2020
2698 Clear 21 1012 56 16093 2.6 0 02:46 24.05.2020
2699 Clear 22 1012 53 16093 1.5 0 01:54 24.05.2020
2700 Clear 22 1013 53 16093 2.1 250 00:42 24.05.2020
2701 Clear 22 1013 53 16093 4.98 233 00:22 24.05.2020
2702 Clear 22 1013 53 16093 4.98 233 23:46 23.05.2020
2703 Clear 22 1013 53 16093 4.68 217 23:26 23.05.2020
2704 Clouds 22 1013 49 16093 2.6 0 22:59 23.05.2020
2705 Clouds 22 1013 49 16093 2.6 0 22:39 23.05.2020
2706 Clouds 22 1013 49 16093 2.6 0 22:21 23.05.2020
2707 Clouds 22 1013 53 16093 2.1 0 21:59 23.05.2020
2708 Clouds 22 1013 53 16093 2.1 0 21:41 23.05.2020
2709 Clouds 21 1013 53 16093 2.1 0 21:20 23.05.2020
2710 Clouds 21 1013 49 16093 2.1 0 20:59 23.05.2020
2711 Clouds 21 1013 49 16093 2.1 0 20:39 23.05.2020
2712 Clouds 21 1013 49 16093 2.1 0 20:19 23.05.2020
2713 Clouds 20 1013 52 16093 3.24 201 19:55 23.05.2020
2714 Clouds 20 1013 52 16093 3.24 201 19:37 23.05.2020
2715 Clouds 20 1013 56 16093 2.63 194 19:18 23.05.2020
2716 Clouds 19 1013 56 16093 2.63 194 18:41 23.05.2020
2717 Clouds 18 1013 56 16093 2.38 172 18:22 23.05.2020
2718 Clear 18 1013 59 16093 2.1 0 17:58 23.05.2020
2719 Clear 18 1013 59 16093 2.1 0 17:40 23.05.2020
2720 Clear 17 1013 63 16093 1.5 100 17:20 23.05.2020
2721 Clear 17 1013 63 16093 1.5 100 16:58 23.05.2020
2722 Clear 16 1013 63 16093 1.5 100 16:40 23.05.2020
2723 Clear 16 1013 63 16093 1.5 100 16:20 23.05.2020
2724 Clear 16 1012 63 16093 1.5 100 15:55 23.05.2020
2725 Clear 15 1012 63 16093 1.5 100 15:37 23.05.2020
2726 Clear 15 1012 63 16093 1.5 100 15:19 23.05.2020
2727 Clouds 15 1012 63 16093 2.1 0 14:41 23.05.2020
2728 Clouds 16 1012 63 16093 2.1 0 14:23 23.05.2020
2729 Clouds 16 1013 63 16093 1.5 0 13:42 23.05.2020
2730 Clouds 16 1013 63 16093 1.5 0 13:19 23.05.2020
2731 Clouds 16 1013 63 16093 2.84 135 12:59 23.05.2020
2732 Clouds 16 1013 63 16093 2.84 135 12:40 23.05.2020
2733 Clouds 16 1013 63 16093 3.37 134 12:19 23.05.2020
2734 Clouds 16 1013 63 16093 2.1 0 11:54 23.05.2020
2735 Clouds 16 1013 63 16093 2.1 0 11:36 23.05.2020
2736 Clouds 16 1013 67 16093 2.6 100 11:18 23.05.2020
2737 Clouds 16 1013 67 16093 2.6 100 10:54 23.05.2020
2738 Clouds 16 1013 67 16093 2.6 100 10:36 23.05.2020
2739 Clouds 16 1013 67 16093 2.6 100 10:18 23.05.2020
2740 Clouds 16 1013 68 16093 2.1 0 09:41 23.05.2020
2741 Clouds 16 1013 68 16093 2.1 0 09:23 23.05.2020
2742 Clouds 16 1013 72 16093 3.53 132 08:54 23.05.2020
2743 Clouds 16 1013 72 16093 3.53 132 08:36 23.05.2020
2744 Clouds 16 1012 72 16093 1.5 0 08:18 23.05.2020
2745 Clouds 16 1012 72 16093 1.5 0 07:41 23.05.2020
2746 Clouds 16 1012 77 16093 3.12 148 07:21 23.05.2020
2747 Clear 16 1012 68 16093 3.12 148 06:42 23.05.2020
2748 Clear 17 1011 63 16093 1.5 270 05:51 23.05.2020
2749 Clear 20 1011 60 16093 1.5 0 03:52 23.05.2020
2750 Clear 21 1011 60 16093 1.5 0 03:23 23.05.2020
2751 Clear 22 1011 56 16093 2.6 260 02:28 23.05.2020
2752 Clear 22 1011 56 16093 4.84 190 01:28 23.05.2020
2753 Clear 23 1012 56 16093 2.6 250 00:49 23.05.2020
2754 Clear 23 1012 56 16093 2.6 250 00:30 23.05.2020
2755 Clear 24 1011 41 16093 4.86 183 23:59 22.05.2020
2756 Clear 24 1011 41 16093 4.86 183 23:40 22.05.2020
2757 Clear 24 1011 41 16093 4.86 183 23:40 22.05.2020
2758 Clear 23 1011 41 16093 4.86 178 23:20 22.05.2020
2759 Clear 24 1012 47 16093 4.86 178 22:57 22.05.2020
2760 Clear 24 1012 47 16093 4.86 178 22:39 22.05.2020
2761 Clear 24 1012 44 16093 4.4 177 22:19 22.05.2020
2762 Clear 24 1012 44 16093 4.4 177 21:46 22.05.2020
2763 Clear 23 1012 53 16093 2.6 0 21:22 22.05.2020
2764 Clear 23 1012 53 16093 2.6 0 20:56 22.05.2020
2765 Clear 23 1012 53 16093 2.6 0 20:38 22.05.2020
2766 Clear 22 1012 60 16093 2.6 0 20:19 22.05.2020
2767 Clear 21 1012 60 16093 2.6 0 19:44 22.05.2020
2768 Clear 20 1012 60 16093 2.6 0 19:25 22.05.2020
2769 Clouds 19 1013 60 16093 2.1 0 18:54 22.05.2020
2770 Clouds 19 1013 68 16093 2.1 0 18:36 22.05.2020
2771 Clouds 18 1013 68 16093 2.1 0 18:18 22.05.2020
2772 Haze 18 1012 72 9656 1.5 0 17:39 22.05.2020
2773 Haze 18 1012 72 9656 1.5 0 17:39 22.05.2020
2774 Haze 17 1012 72 9656 1.5 0 17:19 22.05.2020
2775 Clouds 17 1012 77 16093 2.1 90 16:56 22.05.2020
2776 Clouds 17 1012 77 16093 2.1 90 16:37 22.05.2020
2777 Clouds 16 1012 77 16093 2.1 90 16:19 22.05.2020
2778 Clear 16 1011 77 16093 1.75 150 15:42 22.05.2020
2779 Clouds 16 1011 77 16093 1.5 120 15:22 22.05.2020
2780 Clouds 15 1011 77 16093 1.5 120 14:56 22.05.2020
2781 Clouds 15 1011 77 16093 1.5 120 14:38 22.05.2020
2782 Clouds 16 1011 77 16093 1.5 120 14:20 22.05.2020
2783 Clouds 16 1011 82 16093 2.2 117 13:41 22.05.2020
2784 Clear 16 1012 77 16093 2.28 145 13:19 22.05.2020
2785 Clear 16 1012 77 16093 2.28 145 12:43 22.05.2020
2786 Clear 16 1012 77 16093 2.42 144 12:24 22.05.2020
2787 Clear 16 1012 68 16093 2.42 144 11:47 22.05.2020
2788 Clear 17 1012 68 16093 2.33 142 11:22 22.05.2020
2789 Clear 17 1012 68 16093 2.33 142 10:59 22.05.2020
2790 Clear 17 1012 68 16093 2.33 142 10:39 22.05.2020
2791 Clear 17 1012 68 16093 2.48 142 10:20 22.05.2020
2792 Clear 17 1012 68 16093 2.48 142 09:55 22.05.2020
2793 Clear 17 1012 68 16093 2.48 142 09:36 22.05.2020
2794 Clear 18 1012 59 16093 1.5 0 09:18 22.05.2020
2795 Clear 18 1012 59 16093 1.5 0 08:42 22.05.2020
2796 Clear 18 1011 59 16093 2.89 155 08:19 22.05.2020
2797 Clear 19 1011 59 16093 2.89 155 07:52 22.05.2020
2798 Clear 20 1011 59 16093 1.73 186 07:23 22.05.2020
2799 Clear 20 1011 56 16093 1.73 186 06:53 22.05.2020
2800 Clear 20 1011 56 16093 1.73 186 06:31 22.05.2020
2801 Clear 20 1011 52 16093 2.01 224 05:38 22.05.2020
2802 Clear 23 1011 40 16093 2.1 260 04:50 22.05.2020
2803 Clear 24 1011 40 16093 2.1 260 04:19 22.05.2020
2804 Clear 24 1011 43 16093 3.6 260 03:41 22.05.2020
2805 Clear 25 1011 44 16093 2.1 250 02:59 22.05.2020
2806 Clear 27 1012 38 16093 3.6 260 01:52 22.05.2020
2807 Clear 26 1012 38 16093 3.6 260 01:24 22.05.2020
2808 Clear 27 1012 38 16093 5.05 240 00:34 22.05.2020
2809 Clear 27 1013 36 16093 2.6 250 23:59 21.05.2020
2810 Clear 27 1013 36 16093 2.6 250 23:41 21.05.2020
2811 Clear 27 1013 36 16093 2.6 250 23:23 21.05.2020
2812 Clear 27 1013 39 16093 1.5 0 22:57 21.05.2020
2813 Clear 27 1013 39 16093 1.5 0 22:57 21.05.2020
2814 Clear 27 1013 39 16093 1.5 0 22:37 21.05.2020
2815 Clear 27 1013 39 16093 1.5 0 22:19 21.05.2020
2816 Clear 26 1013 39 16093 4.1 239 21:55 21.05.2020
2817 Clear 26 1013 39 16093 4.1 239 21:37 21.05.2020
2818 Clear 26 1013 39 16093 3.43 242 21:18 21.05.2020
2819 Clear 24 1014 41 16093 3.43 242 20:42 21.05.2020
2820 Clear 23 1014 41 16093 2.89 248 20:22 21.05.2020
2821 Clear 22 1014 44 16093 2.89 248 19:40 21.05.2020
2822 Clear 22 1014 44 16093 2.17 249 19:20 21.05.2020
2823 Clear 21 1015 49 16093 2.1 260 18:59 21.05.2020
2824 Clear 20 1015 49 16093 2.1 260 18:39 21.05.2020
2825 Clear 19 1015 59 16093 1.64 246 18:19 21.05.2020
2826 Clear 19 1014 60 16093 1.64 246 17:56 21.05.2020
2827 Clear 18 1014 60 16093 1.64 246 17:38 21.05.2020
2828 Clear 17 1014 67 16093 1 241 17:19 21.05.2020
2829 Clear 16 1014 67 16093 1 241 16:44 21.05.2020
2830 Clear 15 1014 67 16093 0.44 207 16:22 21.05.2020
2831 Clear 14 1014 67 16093 0.44 207 15:44 21.05.2020
2832 Clear 14 1014 67 16093 0.41 126 15:24 21.05.2020
2833 Clear 13 1014 82 16093 0.41 126 14:56 21.05.2020
2834 Clear 14 1014 72 16093 0.41 126 14:36 21.05.2020
2835 Clear 13 1014 72 16093 0.66 145 14:18 21.05.2020
2836 Clear 14 1014 72 16093 0.66 145 13:39 21.05.2020
2837 Clear 14 1014 72 16093 0.74 160 13:21 21.05.2020
2838 Clear 14 1014 72 16093 0.74 160 12:55 21.05.2020
2839 Clear 14 1014 72 16093 0.74 160 12:36 21.05.2020
2840 Clear 14 1015 67 16093 1.01 141 12:18 21.05.2020
2841 Clear 15 1015 67 16093 1.01 141 11:40 21.05.2020
2842 Clear 14 1015 67 16093 1.31 145 11:22 21.05.2020
2843 Clear 15 1015 67 16093 1.31 145 10:55 21.05.2020
2844 Clear 15 1015 67 16093 1.31 145 10:37 21.05.2020
2845 Clear 16 1015 63 16093 0.97 141 10:18 21.05.2020
2846 Clear 16 1015 63 16093 0.97 141 09:42 21.05.2020
2847 Clear 16 1015 63 16093 1.01 148 09:24 21.05.2020
2848 Clear 16 1015 63 16093 2.1 90 08:58 21.05.2020
2849 Clear 16 1015 63 16093 2.1 90 08:40 21.05.2020
2850 Clear 16 1015 63 16093 2.1 90 08:22 21.05.2020
2851 Clear 16 1015 63 16093 1.18 158 07:43 21.05.2020
2852 Clear 16 1015 63 16093 1.45 190 07:24 21.05.2020
2853 Clear 17 1014 63 16093 1.45 190 06:45 21.05.2020
2854 Clear 17 1014 55 16093 1.94 219 05:53 21.05.2020
2855 Clear 19 1014 52 16093 3.05 229 04:53 21.05.2020
2856 Clear 21 1014 46 16093 3.1 0 03:21 21.05.2020
2857 Clear 21 1015 43 16093 3.1 260 02:37 21.05.2020
2858 Clear 22 1015 46 16093 4.1 270 02:18 21.05.2020
2859 Clear 22 1015 46 16093 4.1 270 01:42 21.05.2020
2860 Clear 22 1016 43 16093 3.6 260 01:18 21.05.2020
2861 Clear 22 1016 43 16093 3.6 260 00:44 21.05.2020
2862 Clear 22 1016 43 16093 3.6 260 00:21 21.05.2020
2863 Clear 22 1017 43 16093 3.1 250 23:41 20.05.2020
2864 Clear 22 1017 43 16093 3.1 250 23:20 20.05.2020
2865 Clear 22 1017 40 16093 5.53 239 22:57 20.05.2020
2866 Clear 22 1017 40 16093 5.53 239 22:38 20.05.2020
2867 Clear 22 1017 40 16093 5.2 238 22:20 20.05.2020
2868 Clear 21 1017 43 16093 3.6 260 21:40 20.05.2020
2869 Clear 21 1017 43 16093 3.6 260 21:21 20.05.2020
2870 Clear 21 1018 46 16093 4.1 260 20:44 20.05.2020
2871 Clear 20 1018 46 16093 4.1 260 20:24 20.05.2020
2872 Clear 20 1018 46 16093 4.1 260 20:24 20.05.2020
2873 Clear 19 1018 55 16093 2.1 0 19:57 20.05.2020
2874 Clear 19 1018 46 16093 3.1 270 19:38 20.05.2020
2875 Clear 19 1018 52 16093 2.53 235 19:19 20.05.2020
2876 Clear 18 1019 67 16093 1.5 0 18:43 20.05.2020
2877 Clear 17 1019 67 16093 1.5 0 18:24 20.05.2020
2878 Clear 16 1018 63 16093 1.94 233 17:43 20.05.2020
2879 Clear 16 1018 63 16093 0.99 208 17:24 20.05.2020
2880 Clear 16 1018 63 16093 0.99 208 17:24 20.05.2020
2881 Clouds 15 1018 67 16093 1.5 90 16:58 20.05.2020
2882 Clouds 15 1018 67 16093 1.5 90 16:39 20.05.2020
2883 Clouds 15 1018 67 16093 1.5 90 16:39 20.05.2020
2884 Clouds 14 1018 67 16093 1.5 90 16:21 20.05.2020
2885 Clouds 13 1018 67 16093 1.05 152 15:55 20.05.2020
2886 Clouds 13 1018 67 16093 1.05 152 15:36 20.05.2020
2887 Clouds 13 1017 67 16093 1.5 90 15:18 20.05.2020
2888 Clouds 12 1018 77 16093 1.5 0 14:41 20.05.2020
2889 Clouds 12 1018 77 16093 1.5 0 14:20 20.05.2020
2890 Clouds 13 1017 67 16093 1.77 143 13:40 20.05.2020
2891 Clear 13 1017 67 16093 1.5 90 13:19 20.05.2020
2892 Clear 13 1017 67 16093 1.5 90 12:43 20.05.2020
2893 Clear 13 1017 67 16093 1.5 90 12:21 20.05.2020
2894 Clear 13 1017 67 16093 1.74 144 11:57 20.05.2020
2895 Clear 13 1017 67 16093 1.74 144 11:36 20.05.2020
2896 Clear 13 1017 72 16093 1.43 144 11:18 20.05.2020
2897 Clear 13 1017 72 16093 1.43 144 11:18 20.05.2020
2898 Clear 13 1017 72 16093 1.43 144 10:42 20.05.2020
2899 Clear 14 1017 67 16093 1.44 151 10:19 20.05.2020
2900 Clear 14 1017 67 16093 1.44 151 09:44 20.05.2020
2901 Clear 14 1017 67 16093 1.3 157 09:21 20.05.2020
2902 Clear 14 1017 67 16093 1.3 157 08:54 20.05.2020
2903 Clear 14 1017 67 16093 1.3 157 08:36 20.05.2020
2904 Clear 15 1016 67 16093 1.63 223 08:18 20.05.2020
2905 Clear 15 1016 67 16093 1.63 223 07:41 20.05.2020
2906 Clear 15 1017 72 16093 3.6 270 07:19 20.05.2020
2907 Clear 15 1017 67 16093 3.6 280 06:35 20.05.2020
2908 Clear 16 1016 52 16093 2.1 250 05:23 20.05.2020
2909 Rain 18 1016 52 16093 5.7 280 04:26 20.05.2020
2910 Clear 19 1015 40 16093 5.7 265 03:38 20.05.2020
2911 Clear 20 1016 55 16093 7.7 270 02:24 20.05.2020
2912 Clear 20 1015 43 16093 5.1 260 01:28 20.05.2020
2913 Clear 20 1016 40 16093 5.7 270 00:44 20.05.2020
2914 Clear 20 1016 40 16093 5.7 270 00:23 20.05.2020
2915 Clear 20 1016 30 16093 3.6 250 23:42 19.05.2020
2916 Clear 20 1016 30 16093 3.6 250 23:19 19.05.2020
2917 Clear 20 1016 37 16093 2.6 250 22:56 19.05.2020
2918 Clear 20 1016 37 16093 2.6 250 22:38 19.05.2020
2919 Clear 20 1016 46 16093 1.5 250 22:19 19.05.2020
2920 Clear 20 1016 46 16093 1.5 250 21:57 19.05.2020
2921 Clear 20 1016 46 16093 1.5 250 21:37 19.05.2020
2922 Clouds 19 1016 40 16093 4.42 238 21:19 19.05.2020
2923 Clouds 19 1016 40 16093 4.42 238 20:57 19.05.2020
2924 Clouds 19 1016 40 16093 4.42 238 20:39 19.05.2020
2925 Clouds 19 1015 49 16093 2.48 213 20:20 19.05.2020
2926 Clouds 18 1015 49 16093 2.48 213 19:55 19.05.2020
2927 Clouds 18 1015 49 16093 2.48 213 19:36 19.05.2020
2928 Clouds 17 1015 52 16093 1.98 144 19:18 19.05.2020
2929 Clouds 17 1015 52 16093 2.1 0 18:40 19.05.2020
2930 Clouds 16 1015 52 16093 2.1 0 18:20 19.05.2020
2931 Clouds 16 1015 52 16093 2.1 0 18:20 19.05.2020
2932 Clear 16 1015 63 16093 2.1 0 17:43 19.05.2020
2933 Clear 15 1015 63 16093 2.1 0 17:21 19.05.2020
2934 Clear 14 1014 67 16093 2.6 0 16:59 19.05.2020
2935 Clear 14 1014 67 16093 2.6 0 16:38 19.05.2020
2936 Clouds 14 1014 67 16093 1.5 0 16:20 19.05.2020
2937 Clouds 12 1014 67 16093 1.5 0 15:47 19.05.2020
2938 Clouds 13 1014 72 16093 0.61 224 15:23 19.05.2020
2939 Clouds 13 1014 76 16093 0.61 224 14:58 19.05.2020
2940 Clouds 13 1014 76 16093 0.61 224 14:40 19.05.2020
2941 Clouds 13 1014 76 16093 2.05 232 14:21 19.05.2020
2942 Clear 12 1014 77 16093 2.05 232 13:58 19.05.2020
2943 Clear 12 1014 77 16093 2.05 232 13:39 19.05.2020
2944 Clear 12 1014 77 16093 2.79 240 13:21 19.05.2020
2945 Clear 13 1014 72 16093 2.79 240 12:57 19.05.2020
2946 Clear 12 1014 72 16093 2.79 240 12:38 19.05.2020
2947 Clear 13 1014 72 16093 2.89 241 12:20 19.05.2020
2948 Clear 13 1014 72 16093 2.89 241 11:55 19.05.2020
2949 Clear 13 1014 72 16093 2.89 241 11:37 19.05.2020
2950 Clear 13 1014 72 16093 3.19 244 11:19 19.05.2020
2951 Clear 13 1014 72 16093 3.19 244 10:45 19.05.2020
2952 Clear 14 1014 72 16093 3.39 245 10:27 19.05.2020
2953 Clouds 14 1015 67 16093 2.1 250 09:58 19.05.2020
2954 Clouds 14 1015 67 16093 2.1 250 09:40 19.05.2020
2955 Clouds 15 1015 67 16093 1.5 260 09:20 19.05.2020
2956 Clouds 14 1015 67 16093 1.5 260 08:43 19.05.2020
2957 Clouds 15 1015 67 16093 1.5 260 08:23 19.05.2020
2958 Clouds 15 1015 52 16093 3.1 260 07:44 19.05.2020
2959 Clouds 15 1015 52 16093 3.1 260 07:26 19.05.2020
2960 Clouds 16 1014 48 16093 2.6 260 06:50 19.05.2020
2961 Clouds 16 1014 48 16093 2.6 260 06:25 19.05.2020
2962 Clear 16 1014 48 16093 1.5 250 05:41 19.05.2020
2963 Clouds 17 1014 60 16093 2.6 260 04:56 19.05.2020
2964 Clouds 17 1014 60 16093 2.6 260 04:32 19.05.2020
2965 Clouds 21 1014 49 16093 3.6 260 01:31 19.05.2020
2966 Clouds 21 1014 56 16093 4.18 224 00:44 19.05.2020
2967 Rain 21 1014 56 16093 3.9 220 00:24 19.05.2020
2968 Rain 20 1014 49 16093 3.9 220 23:58 18.05.2020
2969 Rain 20 1015 60 16093 5.7 250 23:39 18.05.2020
2970 Clouds 20 1015 60 16093 5.7 250 23:19 18.05.2020
2971 Clouds 20 1015 60 16093 1.5 250 22:41 18.05.2020
2972 Clouds 19 1015 60 16093 5.1 260 22:22 18.05.2020
2973 Rain 18 1016 77 16093 4.1 240 21:56 18.05.2020
2974 Rain 18 1015 77 16093 1.5 0 21:38 18.05.2020
2975 Rain 18 1015 77 14484 1.5 250 21:19 18.05.2020
2976 Rain 17 1015 88 14484 4.1 280 20:43 18.05.2020
2977 Rain 18 1015 82 16093 1.5 250 20:22 18.05.2020
2978 Rain 18 1015 82 16093 1.5 250 19:59 18.05.2020
2979 Rain 17 1015 82 16093 1.5 250 19:41 18.05.2020
2980 Rain 17 1015 82 3219 1.5 250 19:19 18.05.2020
2981 Rain 17 1015 82 4023 1.5 0 18:46 18.05.2020
2982 Rain 17 1015 82 4023 1.5 0 18:25 18.05.2020
2983 Rain 17 1014 82 4828 1.5 0 17:55 18.05.2020
2984 Rain 17 1014 82 3219 1.5 250 17:37 18.05.2020
2985 Rain 17 1014 82 2012 1.5 0 17:18 18.05.2020
2986 Rain 17 1014 77 12874 2.84 226 16:44 18.05.2020
2987 Rain 17 1014 77 12874 3.25 226 16:22 18.05.2020
2988 Clouds 17 1013 77 16093 1.5 0 15:59 18.05.2020
2989 Clouds 17 1013 77 16093 1.5 0 15:41 18.05.2020
2990 Clouds 17 1013 77 16093 1.5 0 15:22 18.05.2020
2991 Clouds 17 1013 72 16093 2.1 110 14:58 18.05.2020
2992 Clouds 18 1013 72 16093 2.1 110 14:39 18.05.2020
2993 Clouds 18 1013 72 16093 2.1 110 14:20 18.05.2020
2994 Clouds 18 1013 72 16093 1.69 219 13:42 18.05.2020
2995 Clouds 18 1013 72 16093 2.41 249 13:21 18.05.2020
2996 Clouds 17 1013 82 16093 1.5 220 12:58 18.05.2020
2997 Clouds 17 1013 82 16093 1.5 220 12:40 18.05.2020
2998 Clouds 17 1013 82 16093 1.5 220 12:20 18.05.2020
2999 Clouds 17 1013 77 16093 2.6 240 11:59 18.05.2020
3000 Clouds 17 1014 82 16093 2.1 280 11:41 18.05.2020
3001 Clouds 17 1014 82 16093 2.1 280 11:22 18.05.2020
3002 Clouds 17 1013 72 16093 1.5 90 10:46 18.05.2020
3003 Clouds 17 1013 72 16093 1.5 90 10:25 18.05.2020
3004 Clouds 17 1013 72 16093 1.5 70 09:46 18.05.2020
3005 Clouds 17 1013 72 16093 1.5 70 09:28 18.05.2020
3006 Clouds 17 1013 72 16093 2.1 100 08:59 18.05.2020
3007 Clear 17 1013 72 16093 1.5 130 08:40 18.05.2020
3008 Clear 17 1013 72 16093 1.5 130 08:21 18.05.2020
3009 Clouds 17 1013 72 16093 3.22 243 07:45 18.05.2020
3010 Clouds 17 1013 72 16093 3.62 247 07:24 18.05.2020
3011 Clouds 17 1012 72 16093 3.62 247 06:48 18.05.2020
3012 Clouds 18 1012 72 16093 3.35 250 06:23 18.05.2020
3013 Clouds 18 1012 72 16093 3.35 250 05:44 18.05.2020
3014 Clear 21 1012 53 16093 4.58 234 03:53 18.05.2020
3015 Clear 22 1012 53 16093 4.42 232 03:22 18.05.2020
3016 Clear 24 1012 53 16093 3.1 270 01:46 18.05.2020
3017 Haze 24 1013 53 6437 1.5 0 00:49 18.05.2020
3018 Clear 24 1013 53 16093 3.6 260 00:19 18.05.2020
3019 Clear 23 1013 53 16093 3.6 260 23:55 17.05.2020
3020 Clear 23 1013 53 16093 3.6 260 23:37 17.05.2020
3021 Clear 25 1013 42 16093 1.5 0 23:18 17.05.2020
3022 Clear 25 1013 42 16093 1.5 0 22:40 17.05.2020
3023 Clear 24 1013 42 16093 1.5 0 22:22 17.05.2020
3024 Clear 25 1013 42 16093 4.32 203 21:59 17.05.2020
3025 Clear 25 1013 42 16093 4.32 203 21:41 17.05.2020
3026 Clear 24 1013 47 16093 4.02 174 21:20 17.05.2020
3027 Clear 24 1013 47 16093 4.02 174 20:56 17.05.2020
3028 Clear 24 1013 47 16093 4.02 174 20:38 17.05.2020
3029 Clear 22 1013 53 16093 3.35 167 20:19 17.05.2020
3030 Clear 22 1013 53 16093 3.35 167 19:47 17.05.2020
3031 Clouds 22 1013 64 16093 2.1 210 19:28 17.05.2020
3032 Clouds 21 1013 56 16093 1.5 260 18:58 17.05.2020
3033 Clouds 20 1013 60 16093 2.23 177 18:38 17.05.2020
3034 Clouds 20 1013 68 16093 3.1 100 18:20 17.05.2020
3035 Clouds 19 1013 72 16093 2.1 110 17:41 17.05.2020
3036 Clouds 18 1013 72 16093 2.1 110 17:23 17.05.2020
3037 Clouds 18 1012 72 16093 1.91 189 16:59 17.05.2020
3038 Clouds 18 1012 77 16093 2.1 100 16:39 17.05.2020
3039 Clouds 17 1012 72 16093 1.67 190 16:20 17.05.2020
3040 Clouds 17 1011 72 16093 1.67 190 15:54 17.05.2020
3041 Clouds 17 1011 72 16093 1.67 190 15:36 17.05.2020
3042 Clouds 17 1011 77 16093 2.6 90 15:18 17.05.2020
3043 Clouds 15 1011 72 16093 1.4 192 14:42 17.05.2020
3044 Clear 16 1011 67 16093 1.66 169 14:24 17.05.2020
3045 Clear 15 1011 77 16093 1.66 169 13:57 17.05.2020
3046 Clear 15 1011 77 16093 1.66 169 13:37 17.05.2020
3047 Clear 15 1011 77 16093 1.61 163 13:18 17.05.2020
3048 Clear 21 1010 46 16093 1.5 250 04:21 17.05.2020
3049 Clear 25 1010 41 16093 2.6 250 02:29 17.05.2020
3050 Clear 25 1010 41 16093 2.6 250 02:29 17.05.2020
3051 Clear 25 1010 39 16093 3.1 260 01:56 17.05.2020
3052 Clear 26 1010 39 16093 3.1 260 01:38 17.05.2020
3053 Clear 26 1010 39 16093 2.1 0 00:40 17.05.2020
3054 Clear 26 1011 39 16093 3.1 0 23:57 16.05.2020
3055 Clear 26 1011 39 16093 3.1 0 23:39 16.05.2020
3056 Clear 26 1011 39 16093 3.1 0 23:20 16.05.2020
3057 Clear 27 1011 39 16093 1.5 250 22:58 16.05.2020
3058 Clear 26 1011 39 16093 1.5 250 22:40 16.05.2020
3059 Clear 26 1011 39 16093 1.5 250 22:20 16.05.2020
3060 Clear 25 1011 42 16093 2.1 0 21:46 16.05.2020
3061 Clear 26 1011 42 16093 2.1 0 21:46 16.05.2020
3062 Clear 26 1011 42 16093 2.1 0 21:27 16.05.2020
3063 Clear 25 1012 42 16093 3.94 235 20:59 16.05.2020
3064 Clear 25 1012 42 16093 3.94 235 20:41 16.05.2020
3065 Clear 25 1012 42 16093 3.94 235 20:41 16.05.2020
3066 Clear 24 1012 49 16093 2.6 0 20:22 16.05.2020
3067 Clear 24 1012 47 16093 3.64 242 19:58 16.05.2020
3068 Clear 23 1012 47 16093 3.64 242 19:40 16.05.2020
3069 Clear 23 1012 56 16093 3.15 243 19:22 16.05.2020
3070 Clear 22 1012 53 16093 3.15 243 18:43 16.05.2020
3071 Clear 22 1012 53 16093 2.65 245 18:25 16.05.2020
3072 Clear 20 1012 56 16093 2.65 245 17:57 16.05.2020
3073 Clear 20 1012 56 16093 2.65 245 17:39 16.05.2020
3074 Clear 19 1012 72 16093 1.72 246 17:20 16.05.2020
3075 Clear 18 1011 68 16093 1.72 246 16:42 16.05.2020
3076 Clear 17 1011 68 16093 0.89 215 16:23 16.05.2020
3077 Clear 16 1011 72 16093 0.89 215 15:58 16.05.2020
3078 Clear 16 1011 72 16093 0.89 215 15:40 16.05.2020
3079 Clear 16 1011 72 16093 0.62 183 15:19 16.05.2020
3080 Clear 16 1011 67 16093 0.62 183 14:48 16.05.2020
3081 Clear 15 1011 72 16093 0.91 203 14:21 16.05.2020
3082 Clear 15 1011 67 16093 0.91 203 14:21 16.05.2020
3083 Clear 16 1011 63 16093 0.91 203 13:59 16.05.2020
3084 Clear 15 1011 72 16093 0.91 203 13:41 16.05.2020
3085 Clear 15 1011 72 16093 0.97 185 13:22 16.05.2020
3086 Clear 15 1011 72 16093 0.97 185 12:55 16.05.2020
3087 Clear 15 1011 72 16093 0.86 197 12:37 16.05.2020
3088 Clear 16 1011 72 16093 0.86 197 12:18 16.05.2020
3089 Clear 16 1012 72 16093 1.5 140 11:39 16.05.2020
3090 Clear 16 1012 72 16093 1.5 140 11:20 16.05.2020
3091 Clear 17 1012 59 16093 1.03 183 10:56 16.05.2020
3092 Clear 17 1012 59 16093 1.03 183 10:37 16.05.2020
3093 Clear 17 1012 59 16093 1.46 155 10:19 16.05.2020
3094 Clear 17 1012 63 16093 1.46 155 09:45 16.05.2020
3095 Clear 17 1012 63 16093 1.97 148 09:27 16.05.2020
3096 Clear 17 1012 68 16093 1.79 153 08:46 16.05.2020
3097 Clear 17 1012 68 16093 1.83 150 08:24 16.05.2020
3098 Clear 17 1012 59 16093 1.83 150 07:58 16.05.2020
3099 Clear 17 1012 59 16093 1.83 150 07:40 16.05.2020
3100 Clear 17 1012 63 16093 2.1 210 07:21 16.05.2020
3101 Clear 18 1012 56 16093 1.44 158 06:46 16.05.2020
3102 Clear 18 1012 68 16093 3.1 230 06:19 16.05.2020
3103 Clear 18 1011 63 16093 2.6 230 05:41 16.05.2020
3104 Clear 20 1011 53 16093 3.1 260 04:53 16.05.2020
3105 Clear 23 1011 44 16093 3.81 232 03:27 16.05.2020
3106 Clear 24 1011 39 16093 3.81 232 02:42 16.05.2020
3107 Clear 25 1011 39 16093 4.2 229 02:18 16.05.2020
3108 Clear 25 1011 39 16093 4.2 229 01:40 16.05.2020
3109 Clear 25 1012 44 16093 2.6 250 00:57 16.05.2020
3110 Clear 24 1012 44 16093 2.6 250 00:39 16.05.2020
3111 Clear 24 1012 44 16093 2.6 250 00:19 16.05.2020
3112 Clear 24 1013 50 16093 1.5 240 23:39 15.05.2020
3113 Clear 24 1013 50 16093 1.5 240 23:19 15.05.2020
3114 Clear 24 1013 50 16093 1.5 250 22:42 15.05.2020
3115 Clear 24 1013 50 16093 3.1 250 22:21 15.05.2020
3116 Clear 23 1013 50 16093 3.1 250 21:57 15.05.2020
3117 Clear 24 1013 50 16093 3.1 250 21:39 15.05.2020
3118 Clear 23 1013 50 16093 3.1 250 21:20 15.05.2020
3119 Clear 23 1013 44 16093 4.13 212 20:56 15.05.2020
3120 Clear 23 1013 44 16093 4.13 212 20:37 15.05.2020
3121 Clear 22 1014 49 16093 3.37 228 20:19 15.05.2020
3122 Clear 22 1014 49 16093 3.64 224 19:43 15.05.2020
3123 Clear 21 1014 49 16093 2.87 243 19:24 15.05.2020
3124 Clouds 20 1014 56 16093 2.87 243 18:54 15.05.2020
3125 Clouds 19 1014 56 16093 1.89 246 18:36 15.05.2020
3126 Clear 19 1015 68 16093 2.14 251 18:18 15.05.2020
3127 Clouds 18 1014 60 16093 2.14 251 17:38 15.05.2020
3128 Clouds 17 1015 72 16093 2.6 100 17:19 15.05.2020
3129 Clouds 17 1014 68 16093 1.47 246 16:56 15.05.2020
3130 Clouds 17 1014 68 16093 1.66 247 16:38 15.05.2020
3131 Clouds 16 1014 68 16093 1.21 217 16:18 15.05.2020
3132 Clouds 16 1014 72 16093 1.5 100 15:41 15.05.2020
3133 Clouds 15 1014 72 16093 1.5 100 15:21 15.05.2020
3134 Clouds 16 1013 72 16093 1.5 100 14:58 15.05.2020
3135 Clouds 16 1013 72 16093 1.5 100 14:58 15.05.2020
3136 Clouds 16 1014 72 16093 1.05 216 14:40 15.05.2020
3137 Clouds 16 1014 72 16093 0.91 189 14:22 15.05.2020
3138 Clear 16 1013 72 16093 2.1 0 13:43 15.05.2020
3139 Clear 16 1013 72 16093 2.1 0 13:22 15.05.2020
3140 Clear 15 1014 77 16093 1.5 0 12:59 15.05.2020
3141 Clear 15 1014 77 16093 1.5 0 12:39 15.05.2020
3142 Clear 16 1014 68 16093 1.49 166 12:18 15.05.2020
3143 Clear 16 1014 68 16093 1.49 166 11:56 15.05.2020
3144 Clear 16 1014 68 16093 1.49 166 11:38 15.05.2020
3145 Clear 16 1014 68 16093 1.5 0 11:19 15.05.2020
3146 Clear 16 1014 68 16093 1.5 0 10:56 15.05.2020
3147 Clear 17 1014 68 16093 1.5 0 10:38 15.05.2020
3148 Clear 17 1014 60 16093 1.5 0 10:20 15.05.2020
3149 Clear 17 1014 72 16093 2.6 110 09:40 15.05.2020
3150 Clear 18 1014 60 16093 1.5 0 09:20 15.05.2020
3151 Clear 18 1014 60 16093 2.1 100 08:59 15.05.2020
3152 Clear 18 1014 60 16093 2.1 100 08:38 15.05.2020
3153 Clear 19 1014 60 16093 2.1 100 08:20 15.05.2020
3154 Clear 18 1014 63 16093 2.6 90 07:46 15.05.2020
3155 Clear 18 1014 63 16093 2.6 90 07:46 15.05.2020
3156 Clear 18 1014 63 16093 2.6 90 07:28 15.05.2020
3157 Clear 18 1014 68 16093 3.1 140 06:59 15.05.2020
3158 Clear 19 1013 52 16093 1.5 0 05:56 15.05.2020
3159 Clear 20 1013 49 16093 2.69 100 04:38 15.05.2020
3160 Clear 21 1013 46 16093 2.6 260 03:50 15.05.2020
3161 Clear 23 1013 44 16093 1.5 0 02:49 15.05.2020
3162 Clear 23 1013 47 16093 3.1 260 01:37 15.05.2020
3163 Clear 23 1014 38 16093 4.6 270 01:18 15.05.2020
3164 Clear 23 1014 38 16093 4.6 270 00:40 15.05.2020
3165 Clear 23 1015 47 16093 4.6 260 00:21 15.05.2020
3166 Clear 23 1015 47 16093 4.6 260 23:41 14.05.2020
3167 Clear 23 1015 50 16093 2.6 250 23:19 14.05.2020
3168 Clear 23 1015 50 16093 2.6 250 22:42 14.05.2020
3169 Clear 23 1015 50 16093 2.6 250 22:24 14.05.2020
3170 Clear 23 1015 50 16093 2.6 250 22:24 14.05.2020
3171 Clear 23 1015 50 16093 2.1 0 21:59 14.05.2020
3172 Clear 22 1015 50 16093 2.1 0 21:41 14.05.2020
3173 Clear 22 1015 50 16093 2.1 0 21:20 14.05.2020
3174 Clear 22 1016 44 16093 3.55 229 20:57 14.05.2020
3175 Clear 21 1016 44 16093 3.55 229 20:39 14.05.2020
3176 Clear 21 1016 46 16093 1.5 0 20:20 14.05.2020
3177 Clear 21 1016 49 16093 2.66 227 19:57 14.05.2020
3178 Clear 20 1016 49 16093 2.66 227 19:39 14.05.2020
3179 Clear 20 1016 60 16093 2.13 214 19:20 14.05.2020
3180 Clear 19 1016 60 16093 2.13 214 18:57 14.05.2020
3181 Clear 19 1016 60 16093 1.82 191 18:38 14.05.2020
3182 Clear 18 1016 60 16093 1.82 191 18:19 14.05.2020
3183 Clear 18 1017 63 16093 1.5 100 17:57 14.05.2020
3184 Clear 17 1017 63 16093 1.5 100 17:37 14.05.2020
3185 Clear 17 1016 59 16093 2.1 80 17:18 14.05.2020
3186 Clear 16 1016 59 16093 2.1 80 16:56 14.05.2020
3187 Clear 16 1016 59 16093 2.1 80 16:37 14.05.2020
3188 Clear 15 1016 59 16093 2.1 80 16:18 14.05.2020
3189 Clear 14 1015 63 16093 1.5 110 15:41 14.05.2020
3190 Clear 13 1015 63 16093 1.5 110 15:21 14.05.2020
3191 Clear 13 1015 67 16093 2.11 137 14:57 14.05.2020
3192 Clear 14 1015 67 16093 2.11 137 14:39 14.05.2020
3193 Clear 14 1015 67 16093 1.45 129 14:20 14.05.2020
3194 Clear 14 1015 63 16093 1.45 129 13:57 14.05.2020
3195 Clear 14 1015 63 16093 1.45 129 13:38 14.05.2020
3196 Clear 14 1015 63 16093 1.7 123 13:20 14.05.2020
3197 Clear 14 1015 67 16093 1.7 123 12:58 14.05.2020
3198 Clear 14 1015 67 16093 1.7 123 12:38 14.05.2020
3199 Clear 14 1015 67 16093 1.7 123 12:38 14.05.2020
3200 Clear 14 1015 67 16093 1.93 137 12:19 14.05.2020
3201 Clear 14 1016 67 16093 1.93 137 11:57 14.05.2020
3202 Clear 14 1016 67 16093 1.93 137 11:38 14.05.2020
3203 Clear 16 1016 72 16093 2.08 131 11:19 14.05.2020
3204 Clear 16 1016 72 16093 2.08 131 10:45 14.05.2020
3205 Clear 15 1016 72 16093 2.45 134 10:26 14.05.2020
3206 Clear 16 1016 72 16093 2.45 134 09:57 14.05.2020
3207 Clear 16 1016 72 16093 2.45 134 09:39 14.05.2020
3208 Clear 16 1016 68 16093 2.36 128 09:19 14.05.2020
3209 Clear 16 1016 68 16093 3.16 131 08:41 14.05.2020
3210 Clear 16 1016 63 16093 1.5 260 08:20 14.05.2020
3211 Clear 16 1016 63 16093 1.5 260 07:45 14.05.2020
3212 Clear 16 1016 63 16093 1.5 260 07:24 14.05.2020
3213 Clear 16 1015 59 16093 1.5 0 06:54 14.05.2020
3214 Clear 16 1015 59 16093 1.5 0 06:29 14.05.2020
3215 Clear 17 1015 52 16093 1.74 217 05:55 14.05.2020
3216 Clear 18 1015 52 16093 3.26 231 05:29 14.05.2020
3217 Clear 19 1014 46 16093 4.24 232 04:25 14.05.2020
3218 Clear 20 1015 38 16093 2.1 0 03:23 14.05.2020
3219 Clear 21 1015 38 16093 2.1 0 02:41 14.05.2020
3220 Clear 21 1015 43 16093 3.1 250 01:56 14.05.2020
3221 Clear 21 1015 43 16093 3.1 250 01:23 14.05.2020
3222 Clear 21 1015 40 16093 2.6 0 00:44 14.05.2020
3223 Clear 21 1015 40 16093 2.6 0 00:23 14.05.2020
3224 Clear 21 1015 40 16093 5.43 223 23:42 13.05.2020
3225 Clear 22 1015 40 16093 4.57 210 23:21 13.05.2020
3226 Clear 22 1016 43 16093 1.5 0 22:54 13.05.2020
3227 Clear 22 1016 43 16093 1.5 0 22:54 13.05.2020
3228 Clear 22 1016 43 16093 1.5 0 22:36 13.05.2020
3229 Clear 21 1016 43 16093 1.5 0 22:18 13.05.2020
3230 Clouds 21 1016 46 16093 2.6 0 21:55 13.05.2020
3231 Clouds 21 1016 46 16093 2.6 0 21:37 13.05.2020
3232 Clouds 21 1016 46 16093 2.6 0 21:18 13.05.2020
3233 Clouds 20 1016 43 16093 3.48 174 20:41 13.05.2020
3234 Clouds 20 1016 59 16093 2.6 230 20:23 13.05.2020
3235 Clouds 19 1016 55 16093 3.02 156 19:43 13.05.2020
3236 Clouds 18 1016 55 16093 2.99 138 19:24 13.05.2020
3237 Clouds 18 1016 52 16093 2.99 138 18:58 13.05.2020
3238 Clear 17 1016 63 16093 2.1 220 18:39 13.05.2020
3239 Clear 17 1016 63 16093 2.1 220 18:21 13.05.2020
3240 Clear 17 1016 63 16093 2.1 220 18:20 13.05.2020
3241 Clear 16 1016 63 16093 2.48 136 17:39 13.05.2020
3242 Clear 16 1016 63 16093 2.17 130 17:20 13.05.2020
3243 Clear 16 1015 67 16093 2.17 130 16:56 13.05.2020
3244 Clear 15 1015 67 16093 2.17 130 16:38 13.05.2020
3245 Clear 14 1015 72 16093 1.82 141 16:18 13.05.2020
3246 Clear 13 1015 72 16093 1.82 141 15:42 13.05.2020
3247 Clear 12 1015 72 16093 1.82 141 15:42 13.05.2020
3248 Clear 12 1015 72 16093 1.56 154 15:20 13.05.2020
3249 Clear 12 1014 63 16093 1.56 154 14:57 13.05.2020
3250 Clear 12 1014 63 16093 1.56 154 14:39 13.05.2020
3251 Clear 12 1014 63 16093 1.23 151 14:21 13.05.2020
3252 Clear 13 1015 72 16093 1.23 151 13:57 13.05.2020
3253 Clear 13 1015 72 16093 1.23 151 13:39 13.05.2020
3254 Clear 13 1015 72 16093 1.36 205 13:20 13.05.2020
3255 Clouds 13 1015 72 16093 1.36 205 12:54 13.05.2020
3256 Clouds 13 1015 72 16093 1.36 205 12:36 13.05.2020
3257 Clear 13 1015 63 16093 2.01 231 12:18 13.05.2020
3258 Clear 13 1015 63 16093 2.01 231 11:54 13.05.2020
3259 Clear 13 1015 63 16093 2.01 231 11:36 13.05.2020
3260 Clear 14 1015 59 16093 2.54 240 11:18 13.05.2020
3261 Clear 13 1015 59 16093 2.54 240 10:54 13.05.2020
3262 Clear 14 1015 59 16093 2.54 240 10:36 13.05.2020
3263 Clear 14 1016 59 16093 1.5 280 10:18 13.05.2020
3264 Clear 14 1016 59 16093 1.5 280 09:40 13.05.2020
3265 Clear 15 1016 59 16093 1.5 280 09:22 13.05.2020
3266 Clear 15 1016 59 16093 2.97 247 08:43 13.05.2020
3267 Clear 15 1016 59 16093 3.68 256 08:22 13.05.2020
3268 Clear 15 1016 59 16093 3.68 256 07:59 13.05.2020
3269 Clear 15 1016 59 16093 3.68 256 07:37 13.05.2020
3270 Clear 16 1015 59 16093 4.07 261 06:59 13.05.2020
3271 Clear 16 1015 59 16093 4.07 261 06:41 13.05.2020
3272 Clear 16 1015 59 16093 2.1 250 05:51 13.05.2020
3273 Clouds 17 1015 63 16093 4.1 280 04:48 13.05.2020
3274 Clouds 20 1015 53 16093 3.1 250 02:59 13.05.2020
3275 Clouds 20 1015 60 16093 2.1 0 02:26 13.05.2020
3276 Clouds 21 1015 60 16093 1.5 0 01:26 13.05.2020
3277 Clouds 21 1016 53 16093 1.5 0 00:45 13.05.2020
3278 Clouds 21 1016 53 16093 6.71 241 00:20 13.05.2020
3279 Clouds 21 1016 53 16093 5.5 239 23:40 12.05.2020
3280 Clouds 21 1016 53 16093 5.5 239 23:21 12.05.2020
3281 Clouds 21 1016 53 16093 1.5 0 22:57 12.05.2020
3282 Clouds 21 1016 56 16093 1.5 230 22:39 12.05.2020
3283 Clouds 21 1016 56 16093 1.5 230 22:20 12.05.2020
3284 Clouds 20 1016 56 16093 4.55 244 21:55 12.05.2020
3285 Clouds 20 1016 56 16093 6.07 240 21:37 12.05.2020
3286 Clouds 20 1016 56 16093 4.82 243 21:18 12.05.2020
3287 Clouds 20 1016 53 16093 2.1 260 20:56 12.05.2020
3288 Clouds 19 1016 56 16093 1.5 270 20:38 12.05.2020
3289 Clouds 19 1016 56 16093 1.5 270 20:38 12.05.2020
3290 Clouds 19 1016 56 16093 1.5 270 20:20 12.05.2020
3291 Clouds 19 1016 56 16093 3.37 222 19:56 12.05.2020
3292 Clouds 18 1016 56 16093 3.37 222 19:37 12.05.2020
3293 Clouds 18 1016 56 16093 2.72 197 19:19 12.05.2020
3294 Clouds 17 1016 59 16093 2.72 197 18:42 12.05.2020
3295 Clouds 17 1016 59 16093 2.25 172 18:24 12.05.2020
3296 Clouds 17 1016 59 14484 2.25 172 17:58 12.05.2020
3297 Haze 16 1016 68 3219 2.25 172 17:39 12.05.2020
3298 Haze 16 1016 68 3219 1.95 153 17:21 12.05.2020
3299 Clouds 15 1016 67 16093 1.95 153 16:43 12.05.2020
3300 Clouds 14 1016 67 16093 1.84 141 16:23 12.05.2020
3301 Clouds 13 1016 67 16093 1.5 110 15:56 12.05.2020
3302 Clouds 13 1016 63 16093 1.84 141 15:37 12.05.2020
3303 Clear 13 1015 72 16093 1.5 0 15:18 12.05.2020
3304 Clear 13 1015 72 16093 1.5 0 15:18 12.05.2020
3305 Clear 13 1015 72 16093 1.5 0 14:55 12.05.2020
3306 Clear 13 1015 72 16093 1.5 0 14:36 12.05.2020
3307 Clear 13 1015 72 16093 1.5 0 14:18 12.05.2020
3308 Clear 13 1015 72 16093 1.72 141 13:55 12.05.2020
3309 Clear 13 1015 72 16093 1.72 141 13:37 12.05.2020
3310 Clear 14 1015 72 16093 1.26 183 13:18 12.05.2020
3311 Clear 13 1015 67 16093 1.26 183 12:57 12.05.2020
3312 Clear 15 1015 67 16093 1.26 183 12:38 12.05.2020
3313 Clear 15 1015 67 16093 1.26 183 12:38 12.05.2020
3314 Clear 14 1015 67 16093 1.56 215 12:20 12.05.2020
3315 Clear 13 1015 67 16093 1.56 215 11:57 12.05.2020
3316 Clear 14 1015 67 16093 2 226 11:37 12.05.2020
3317 Clear 14 1015 67 16093 2 226 11:19 12.05.2020
3318 Clear 14 1015 72 16093 2 226 10:56 12.05.2020
3319 Clear 15 1015 72 16093 2 226 10:37 12.05.2020
3320 Clear 14 1016 67 16093 2.28 225 10:18 12.05.2020
3321 Clear 15 1016 67 16093 2.28 225 09:57 12.05.2020
3322 Clear 15 1016 67 16093 2.28 225 09:38 12.05.2020
3323 Clear 16 1016 67 16093 2.58 223 09:19 12.05.2020
3324 Clear 15 1016 67 16093 2.58 223 08:41 12.05.2020
3325 Clear 16 1016 67 16093 2.69 215 08:21 12.05.2020
3326 Clear 16 1016 63 16093 2.69 215 07:55 12.05.2020
3327 Clear 16 1016 63 16093 2.69 215 07:37 12.05.2020
3328 Clear 16 1015 63 16093 1.5 250 07:18 12.05.2020
3329 Clear 16 1015 63 16093 1.5 250 06:37 12.05.2020
3330 Clear 17 1015 63 16093 1.5 250 06:19 12.05.2020
3331 Clear 17 1015 68 16093 2.6 260 05:45 12.05.2020
3332 Clear 18 1015 60 16093 2.6 250 03:55 12.05.2020
3333 Clear 19 1015 60 16093 2.6 250 03:19 12.05.2020
3334 Clear 20 1015 56 16093 1.5 0 02:27 12.05.2020
3335 Clear 21 1015 53 16093 3.6 270 01:40 12.05.2020
3336 Clear 21 1015 53 16093 1.5 240 00:58 12.05.2020
3337 Clear 22 1015 53 16093 1.5 240 00:24 12.05.2020
3338 Clear 23 1015 49 16093 2.6 250 23:57 11.05.2020
3339 Clear 23 1015 49 16093 2.6 250 23:37 11.05.2020
3340 Clear 22 1015 49 16093 5.42 236 23:19 11.05.2020
3341 Clear 23 1015 49 16093 5.42 236 22:56 11.05.2020
3342 Clear 23 1015 49 16093 5.42 236 22:56 11.05.2020
3343 Clear 23 1015 49 16093 5.42 236 22:38 11.05.2020
3344 Clear 22 1016 49 16093 2.1 0 22:19 11.05.2020
3345 Clear 22 1016 49 16093 2.1 0 21:55 11.05.2020
3346 Clear 21 1016 49 16093 2.1 0 21:36 11.05.2020
3347 Clear 21 1016 49 16093 2.1 0 21:18 11.05.2020
3348 Clouds 20 1016 53 16093 3.1 250 20:54 11.05.2020
3349 Clouds 20 1016 53 16093 3.1 250 20:36 11.05.2020
3350 Clouds 20 1016 53 16093 3.1 250 20:18 11.05.2020
3351 Clouds 19 1016 56 0 3.2 207 19:41 11.05.2020
3352 Clouds 19 1016 56 0 2.65 193 19:22 11.05.2020
3353 Haze 19 1016 64 4023 2.65 193 18:57 11.05.2020
3354 Haze 19 1016 60 4023 2.65 193 18:38 11.05.2020
3355 Haze 18 1016 68 3219 1.77 174 18:19 11.05.2020
3356 Haze 18 1016 68 3219 1.77 174 17:57 11.05.2020
3357 Haze 18 1016 68 3219 1.77 174 17:39 11.05.2020
3358 Haze 17 1016 68 3219 1.62 192 17:21 11.05.2020
3359 Clouds 17 1016 72 12874 4.1 260 16:56 11.05.2020
3360 Haze 17 1015 72 3219 1.5 250 16:37 11.05.2020
3361 Haze 16 1015 72 4023 1.84 188 16:19 11.05.2020
3362 Haze 16 1015 72 4828 1.84 188 15:42 11.05.2020
3363 Haze 16 1015 72 4828 2.1 260 15:20 11.05.2020
3364 Haze 16 1015 72 4828 2.1 260 14:59 11.05.2020
3365 Haze 16 1015 72 4828 1.5 270 14:41 11.05.2020
3366 Haze 16 1015 72 4828 1.5 270 14:22 11.05.2020
3367 Haze 16 1015 68 4828 1.5 280 13:55 11.05.2020
3368 Haze 16 1015 68 4828 1.5 280 13:55 11.05.2020
3369 Haze 16 1015 68 4828 1.5 280 13:37 11.05.2020
3370 Haze 16 1015 68 4828 2.3 132 13:18 11.05.2020
3371 Haze 16 1015 68 4828 2.3 132 12:55 11.05.2020
3372 Haze 16 1015 68 4828 2.3 132 12:37 11.05.2020
3373 Haze 16 1015 68 4828 1.79 143 12:19 11.05.2020
3374 Haze 16 1015 68 4828 1.79 143 11:41 11.05.2020
3375 Haze 16 1015 68 4828 1.74 167 11:22 11.05.2020
3376 Haze 16 1015 72 4828 1.5 270 10:58 11.05.2020
3377 Haze 16 1015 72 4828 1.5 270 10:40 11.05.2020
3378 Haze 16 1015 72 4828 1.5 270 10:21 11.05.2020
3379 Haze 16 1016 77 4828 1.91 167 09:58 11.05.2020
3380 Haze 16 1016 77 4828 1.91 167 09:39 11.05.2020
3381 Haze 16 1016 72 4828 2.1 260 09:19 11.05.2020
3382 Haze 16 1016 72 4828 2.1 260 08:56 11.05.2020
3383 Haze 16 1016 72 4828 1.5 250 08:37 11.05.2020
3384 Haze 16 1016 68 4828 2.1 0 08:18 11.05.2020
3385 Haze 16 1015 68 4828 2.1 250 07:42 11.05.2020
3386 Haze 16 1015 68 4828 2.1 250 07:23 11.05.2020
3387 Haze 16 1015 68 4828 1.5 260 06:43 11.05.2020
3388 Haze 16 1014 68 4828 2.1 260 05:58 11.05.2020
3389 Haze 17 1014 72 4828 3.1 260 05:25 11.05.2020
3390 Haze 18 1014 64 4023 2.6 250 04:31 11.05.2020
3391 Haze 20 1014 56 4023 3.71 221 03:29 11.05.2020
3392 Haze 22 1014 56 4023 1.5 240 02:29 11.05.2020
3393 Haze 23 1014 56 4023 2.1 240 01:40 11.05.2020
3394 Haze 23 1014 56 4023 3.1 0 00:53 11.05.2020
3395 Haze 24 1014 53 4023 4.8 238 00:20 11.05.2020
3396 Haze 24 1014 53 4023 4.8 238 23:44 10.05.2020
3397 Haze 23 1014 53 4023 4.83 225 23:24 10.05.2020
3398 Haze 24 1015 57 4023 4.83 225 22:57 10.05.2020
3399 Haze 23 1015 57 4023 4.83 225 22:38 10.05.2020
3400 Haze 23 1015 57 4023 3.79 205 22:20 10.05.2020
3401 Haze 21 1015 64 3219 3.79 205 21:44 10.05.2020
3402 Haze 20 1016 64 3219 3.58 214 21:20 10.05.2020
3403 Haze 20 1016 64 3219 3.58 214 20:55 10.05.2020
3404 Haze 19 1016 64 3219 3.51 211 20:37 10.05.2020
3405 Haze 19 1016 64 3219 3.51 211 20:19 10.05.2020
3406 Haze 19 1016 68 3219 3.51 211 19:41 10.05.2020
3407 Haze 18 1016 68 3219 2.68 199 19:22 10.05.2020
3408 Haze 18 1015 72 3219 2.68 199 18:57 10.05.2020
3409 Haze 18 1015 72 3219 2.68 199 18:37 10.05.2020
3410 Haze 18 1015 72 3219 2.28 201 18:19 10.05.2020
3411 Clouds 18 1015 82 12874 2.1 240 17:59 10.05.2020
3412 Haze 17 1015 77 2816 2.28 201 17:40 10.05.2020
3413 Haze 17 1015 77 2816 1.76 190 17:22 10.05.2020
3414 Haze 17 1015 77 2414 1.76 190 16:58 10.05.2020
3415 Haze 17 1015 77 2414 1.76 190 16:40 10.05.2020
3416 Haze 16 1015 77 2414 1.43 202 16:19 10.05.2020
3417 Haze 16 1014 77 2816 1.43 202 16:19 10.05.2020
3418 Haze 16 1014 77 3219 1.43 202 15:55 10.05.2020
3419 Haze 16 1014 77 3219 1.43 202 15:36 10.05.2020
3420 Haze 16 1014 77 3219 1.43 202 15:36 10.05.2020
3421 Rain 16 1014 77 2816 1.47 224 15:18 10.05.2020
3422 Rain 16 1014 77 4023 1.47 224 14:39 10.05.2020
3423 Rain 16 1014 77 4023 1.47 224 14:39 10.05.2020
3424 Rain 16 1014 77 4023 1.07 245 14:20 10.05.2020
3425 Haze 16 1014 77 4023 1.07 245 13:59 10.05.2020
3426 Haze 16 1014 77 4023 1.07 245 13:59 10.05.2020
3427 Haze 17 1014 77 4023 1.07 245 13:39 10.05.2020
3428 Haze 17 1014 77 4023 1.44 225 13:21 10.05.2020
3429 Clouds 16 1014 82 16093 2.6 240 12:58 10.05.2020
3430 Clouds 16 1014 82 16093 2.6 240 12:40 10.05.2020
3431 Clouds 16 1014 82 16093 2.6 240 12:21 10.05.2020
3432 Haze 16 1013 77 4023 1.88 187 11:58 10.05.2020
3433 Haze 16 1013 77 4023 1.88 187 11:58 10.05.2020
3434 Clouds 16 1014 82 14484 3.6 250 11:39 10.05.2020
3435 Haze 16 1013 77 4023 1.88 187 11:39 10.05.2020
3436 Clouds 16 1014 82 14484 3.6 250 11:20 10.05.2020
3437 Clouds 16 1014 82 12874 1.5 0 10:48 10.05.2020
3438 Clouds 16 1014 82 12874 1.5 0 10:29 10.05.2020
3439 Haze 16 1013 77 4828 1.76 239 09:59 10.05.2020
3440 Haze 17 1013 77 4828 1.76 239 09:41 10.05.2020
3441 Haze 17 1013 77 4828 2.25 236 09:21 10.05.2020
3442 Clouds 17 1014 77 16093 2.1 280 08:53 10.05.2020
3443 Clouds 17 1014 77 16093 2.1 280 08:24 10.05.2020
3444 Clear 17 1014 72 16093 3.1 280 07:57 10.05.2020
3445 Clear 17 1014 72 16093 3.1 280 07:38 10.05.2020
3446 Haze 18 1014 72 4828 1.5 290 07:19 10.05.2020
3447 Haze 18 1014 72 4828 1.5 260 06:50 10.05.2020
3448 Haze 18 1014 72 4828 1.5 260 06:22 10.05.2020
3449 Haze 18 1013 68 4828 2.6 260 05:43 10.05.2020
3450 Haze 20 1013 60 3219 2.1 250 04:41 10.05.2020
3451 Haze 20 1013 60 3219 2.1 250 04:22 10.05.2020
3452 Haze 22 1012 56 4023 2.1 0 03:43 10.05.2020
3453 Haze 23 1013 57 4023 2.1 250 02:55 10.05.2020
3454 Haze 24 1013 57 4023 2.1 250 02:24 10.05.2020
3455 Haze 24 1013 50 4023 3.69 219 01:57 10.05.2020
3456 Haze 25 1013 50 4023 3.69 219 01:39 10.05.2020
3457 Haze 26 1013 50 4023 3.83 223 01:18 10.05.2020
3458 Haze 26 1013 47 4023 2.1 250 00:42 10.05.2020
3459 Haze 26 1013 47 4023 2.1 250 00:20 10.05.2020
3460 Haze 25 1014 53 4023 4.4 214 23:40 09.05.2020
3461 Haze 25 1014 53 4023 3.4 210 23:21 09.05.2020
3462 Haze 25 1014 53 4023 2.6 250 22:57 09.05.2020
3463 Haze 25 1014 53 4023 2.6 250 22:39 09.05.2020
3464 Haze 24 1014 53 4023 2.6 250 22:21 09.05.2020
3465 Haze 24 1014 53 4023 3.83 209 21:55 09.05.2020
3466 Haze 24 1014 53 4023 3.83 209 21:37 09.05.2020
3467 Haze 24 1014 50 4023 3.65 202 21:19 09.05.2020
3468 Haze 24 1014 50 4023 3.65 202 20:56 09.05.2020
3469 Haze 23 1014 50 4023 3.65 202 20:37 09.05.2020
3470 Haze 23 1014 60 3219 1.5 0 20:18 09.05.2020
3471 Haze 22 1014 60 3219 1.5 0 19:40 09.05.2020
3472 Haze 22 1014 60 3219 1.5 0 19:20 09.05.2020
3473 Haze 21 1014 64 3219 2.61 199 18:58 09.05.2020
3474 Haze 21 1014 64 3219 2.61 199 18:40 09.05.2020
3475 Haze 19 1013 68 2816 2.13 183 18:21 09.05.2020
3476 Haze 19 1013 68 2816 2.13 183 17:44 09.05.2020
3477 Haze 19 1013 68 2816 1.78 163 17:23 09.05.2020
3478 Haze 18 1013 77 2816 1.78 163 16:55 09.05.2020
3479 Haze 18 1013 77 2816 1.78 163 16:37 09.05.2020
3480 Haze 18 1013 77 2816 1.57 174 16:18 09.05.2020
3481 Haze 18 1013 77 4023 1.57 174 15:41 09.05.2020
3482 Haze 18 1013 77 4023 1.3 212 15:22 09.05.2020
3483 Haze 18 1013 77 4023 1.3 212 14:54 09.05.2020
3484 Haze 18 1013 77 4023 1.3 212 14:36 09.05.2020
3485 Haze 17 1013 82 4023 1.5 260 14:18 09.05.2020
3486 Haze 18 1013 82 4023 1.5 260 13:41 09.05.2020
3487 Haze 17 1013 82 4023 1.5 260 13:22 09.05.2020
3488 Haze 17 1013 82 4023 1.53 244 12:58 09.05.2020
3489 Haze 17 1013 82 4023 1.53 244 12:39 09.05.2020
3490 Haze 17 1013 82 4023 1.14 219 12:21 09.05.2020
3491 Clouds 17 1013 88 11265 2.1 260 11:45 09.05.2020
3492 Clouds 17 1013 82 11265 1.29 214 11:20 09.05.2020
3493 Clouds 17 1013 82 11265 1.29 214 11:20 09.05.2020
3494 Haze 17 1013 82 4828 1.29 214 10:54 09.05.2020
3495 Clear 17 1013 82 12874 1.29 214 10:36 09.05.2020
3496 Haze 18 1013 82 4828 1.45 215 10:18 09.05.2020
3497 Haze 18 1013 82 4828 1.45 215 09:43 09.05.2020
3498 Haze 18 1013 82 4828 1.44 219 09:20 09.05.2020
3499 Haze 18 1013 82 4828 1.5 260 08:55 09.05.2020
3500 Haze 18 1013 82 4828 1.5 260 08:36 09.05.2020
3501 Haze 18 1013 77 4828 1.89 219 07:56 09.05.2020
3502 Haze 18 1013 77 4828 1.89 219 07:38 09.05.2020
3503 Clear 18 1013 77 16093 2.1 290 07:20 09.05.2020
3504 Clear 18 1013 77 16093 2.1 290 06:40 09.05.2020
3505 Clear 18 1012 72 14484 3.1 270 06:18 09.05.2020
3506 Haze 19 1012 68 4828 2.1 260 05:39 09.05.2020
3507 Haze 24 1012 51 4023 1.5 250 03:40 09.05.2020
3508 Haze 25 1012 54 4023 3.24 206 02:54 09.05.2020
3509 Haze 26 1012 54 4023 3.61 213 02:30 09.05.2020
3510 Haze 27 1012 51 4023 4.13 212 01:50 09.05.2020
3511 Haze 27 1012 51 4023 3.62 213 01:22 09.05.2020
3512 Haze 27 1013 51 4023 3.62 213 00:43 09.05.2020
3513 Haze 27 1013 51 4023 4.3 221 00:20 09.05.2020
3514 Haze 27 1013 54 4023 2.1 0 23:45 08.05.2020
3515 Haze 27 1013 54 4023 2.1 0 23:27 08.05.2020
3516 Haze 27 1012 48 4023 4.26 214 22:56 08.05.2020
3517 Haze 27 1012 48 4023 4.26 214 22:38 08.05.2020
3518 Haze 27 1012 42 4023 3.69 208 22:19 08.05.2020
3519 Haze 28 1012 42 4023 3.69 208 21:55 08.05.2020
3520 Haze 28 1012 42 4023 3.69 208 21:37 08.05.2020
3521 Haze 27 1012 42 4023 2.99 198 21:18 08.05.2020
3522 Haze 27 1012 39 4023 2.99 198 20:56 08.05.2020
3523 Haze 27 1012 39 4023 2.99 198 20:38 08.05.2020
3524 Haze 26 1012 54 4023 2.26 215 20:19 08.05.2020
3525 Haze 25 1012 54 4023 2.33 212 19:42 08.05.2020
3526 Haze 25 1012 54 4023 2.33 212 19:22 08.05.2020
3527 Haze 23 1012 73 3219 2.33 212 18:50 08.05.2020
3528 Haze 22 1012 73 3219 2.11 207 18:31 08.05.2020
3529 Haze 21 1012 73 2816 2.11 207 17:55 08.05.2020
3530 Haze 20 1012 73 2816 2.11 207 17:37 08.05.2020
3531 Haze 19 1012 72 4023 1.66 191 17:18 08.05.2020
3532 Haze 19 1012 72 4023 1.66 191 16:42 08.05.2020
3533 Haze 18 1012 72 4023 1.05 223 16:24 08.05.2020
3534 Haze 18 1011 68 4023 1.05 223 15:55 08.05.2020
3535 Haze 18 1011 68 4023 1.05 223 15:36 08.05.2020
3536 Haze 17 1011 72 6437 0.86 234 15:18 08.05.2020
3537 Haze 18 1011 72 6437 0.86 234 14:41 08.05.2020
3538 Haze 18 1011 72 6437 1.15 186 14:20 08.05.2020
3539 Haze 18 1011 77 6437 1.15 186 13:58 08.05.2020
3540 Haze 18 1011 77 6437 1.15 186 13:39 08.05.2020
3541 Haze 18 1011 77 6437 1.15 186 13:39 08.05.2020
3542 Haze 18 1011 77 6437 1.33 216 13:19 08.05.2020
3543 Haze 19 1011 68 6437 1.33 216 12:45 08.05.2020
3544 Haze 19 1011 68 6437 1.5 225 12:25 08.05.2020
3545 Haze 19 1010 68 6437 1.5 225 11:57 08.05.2020
3546 Haze 19 1010 68 6437 1.5 225 11:39 08.05.2020
3547 Haze 19 1010 68 6437 1.66 223 11:20 08.05.2020
3548 Haze 20 1011 64 6437 1.66 223 10:55 08.05.2020
3549 Haze 20 1011 64 6437 1.66 223 10:37 08.05.2020
3550 Haze 20 1011 60 6437 1.16 228 10:18 08.05.2020
3551 Haze 20 1011 60 6437 1.16 228 09:41 08.05.2020
3552 Haze 21 1011 60 6437 0.83 240 09:19 08.05.2020
3553 Haze 21 1011 49 8047 0.83 240 08:55 08.05.2020
3554 Haze 21 1011 49 8047 0.83 240 08:36 08.05.2020
3555 Haze 21 1012 56 8047 0.96 244 08:18 08.05.2020
3556 Haze 20 1012 56 8047 0.96 244 07:37 08.05.2020
3557 Haze 21 1012 56 8047 1.26 217 07:19 08.05.2020
3558 Clear 21 1011 53 16093 1.5 240 06:42 08.05.2020
3559 Clear 21 1010 49 16093 2.6 250 06:20 08.05.2020
3560 Haze 22 1010 38 6437 2.1 270 05:32 08.05.2020
3561 Haze 26 1009 28 6437 3.1 270 03:50 08.05.2020
3562 Haze 30 1009 27 6437 4.12 233 02:30 08.05.2020
3563 Haze 30 1010 25 6437 2.1 0 01:41 08.05.2020
3564 Haze 30 1010 25 6437 2.1 0 01:21 08.05.2020
3565 Haze 31 1010 29 6437 2.1 0 00:48 08.05.2020
3566 Haze 31 1010 29 6437 2.1 0 00:27 08.05.2020
3567 Haze 30 1010 33 6437 2.1 250 23:57 07.05.2020
3568 Haze 31 1010 33 6437 2.1 250 23:39 07.05.2020
3569 Haze 31 1010 40 6437 4.03 217 23:20 07.05.2020
3570 Haze 30 1010 40 6437 4.03 217 22:42 07.05.2020
3571 Haze 30 1010 40 6437 3.46 221 22:21 07.05.2020
3572 Haze 31 1010 21 6437 3.46 221 21:58 07.05.2020
3573 Haze 31 1010 21 6437 3.46 221 21:39 07.05.2020
3574 Haze 29 1010 21 6437 2.93 228 21:20 07.05.2020
3575 Haze 30 1010 22 6437 1.5 0 20:59 07.05.2020
3576 Haze 30 1010 22 6437 1.5 0 20:41 07.05.2020
3577 Haze 30 1010 27 6437 2.23 228 20:20 07.05.2020
3578 Haze 30 1010 22 6437 1.5 0 20:20 07.05.2020
3579 Haze 29 1010 27 6437 2.23 228 19:50 07.05.2020
3580 Haze 28 1010 27 6437 1.54 229 19:24 07.05.2020
3581 Haze 27 1011 36 6437 1.54 229 18:59 07.05.2020
3582 Haze 26 1011 36 6437 1.54 229 18:40 07.05.2020
3583 Haze 25 1011 36 6437 1.1 200 18:21 07.05.2020
3584 Haze 23 1011 53 4828 1.1 200 17:43 07.05.2020
3585 Haze 23 1011 53 4828 1.01 173 17:21 07.05.2020
3586 Haze 21 1011 56 4828 1.5 100 16:56 07.05.2020
3587 Haze 21 1011 56 4828 1.5 100 16:38 07.05.2020
3588 Haze 20 1011 56 4828 1.5 100 16:18 07.05.2020
3589 Haze 19 1010 56 6437 1.16 150 15:55 07.05.2020
3590 Haze 19 1010 56 6437 1.16 150 15:36 07.05.2020
3591 Haze 19 1010 60 8047 1.12 140 15:18 07.05.2020
3592 Haze 19 1010 60 8047 1.12 140 14:41 07.05.2020
3593 Haze 20 1010 60 8047 0.71 162 14:19 07.05.2020
3594 Haze 20 1010 60 8047 0.71 162 13:44 07.05.2020
3595 Haze 20 1010 60 8047 0.43 170 13:25 07.05.2020
3596 Haze 20 1010 60 8047 0.43 170 12:45 07.05.2020
3597 Haze 20 1010 60 8047 0.43 170 12:45 07.05.2020
3598 Haze 20 1010 60 8047 0.35 168 12:20 07.05.2020
3599 Haze 21 1010 60 9656 0.35 168 11:59 07.05.2020
3600 Haze 20 1010 60 9656 0.35 168 11:59 07.05.2020
3601 Haze 21 1010 60 9656 0.35 168 11:39 07.05.2020
3602 Haze 21 1011 56 9656 0.5 140 11:21 07.05.2020
3603 Haze 21 1011 56 9656 0.5 140 10:43 07.05.2020
3604 Haze 21 1011 56 9656 0.7 136 10:24 07.05.2020
3605 Haze 22 1011 53 9656 0.7 136 09:41 07.05.2020
3606 Haze 22 1011 53 9656 0.65 157 09:21 07.05.2020
3607 Haze 22 1011 53 9656 0.65 157 08:59 07.05.2020
3608 Haze 22 1011 53 9656 0.65 157 08:41 07.05.2020
3609 Haze 22 1011 53 9656 0.76 174 08:21 07.05.2020
3610 Haze 23 1011 47 9656 0.76 174 07:57 07.05.2020
3611 Haze 23 1011 47 9656 0.76 174 07:39 07.05.2020
3612 Haze 24 1011 44 9656 1.05 199 07:18 07.05.2020
3613 Haze 24 1011 44 9656 1.05 199 06:36 07.05.2020
3614 Haze 24 1010 34 8047 1.5 217 05:47 07.05.2020
3615 Haze 26 1010 24 8047 2.6 270 04:27 07.05.2020
3616 Haze 28 1010 23 8047 2.1 270 03:29 07.05.2020
3617 Haze 30 1011 19 9656 2.6 270 02:59 07.05.2020
3618 Haze 30 1011 19 9656 2.6 270 02:24 07.05.2020
3619 Haze 31 1011 18 9656 2.6 250 01:25 07.05.2020
3620 Haze 33 1011 19 8047 2.6 250 00:51 07.05.2020
3621 Haze 32 1011 19 8047 2.6 250 00:31 07.05.2020
3622 Haze 33 1012 19 8047 3.1 260 23:58 06.05.2020
3623 Haze 32 1012 19 8047 3.1 260 23:39 06.05.2020
3624 Haze 32 1012 19 8047 3.1 260 23:21 06.05.2020
3625 Haze 32 1012 22 8047 3.84 240 22:55 06.05.2020
3626 Haze 32 1012 22 8047 3.84 240 22:37 06.05.2020
3627 Haze 31 1012 22 8047 3.09 233 22:18 06.05.2020
3628 Haze 30 1012 25 8047 3.09 233 21:42 06.05.2020
3629 Haze 30 1012 25 8047 2.41 236 21:23 06.05.2020
3630 Haze 29 1013 24 8047 2.41 236 20:58 06.05.2020
3631 Haze 29 1013 24 8047 2.41 236 20:39 06.05.2020
3632 Haze 29 1013 24 8047 1.67 232 20:21 06.05.2020
3633 Haze 28 1013 30 8047 1.67 232 19:56 06.05.2020
3634 Haze 28 1013 30 8047 1.67 232 19:38 06.05.2020
3635 Haze 27 1013 36 6437 1.06 239 19:18 06.05.2020
3636 Haze 28 1013 30 8047 1.06 239 19:18 06.05.2020
3637 Haze 26 1013 36 6437 1.06 239 18:58 06.05.2020
3638 Haze 26 1013 36 6437 1.06 239 18:58 06.05.2020
3639 Haze 26 1013 36 6437 1.06 239 18:38 06.05.2020
3640 Haze 23 1013 41 8047 1.04 259 18:20 06.05.2020
3641 Haze 23 1013 41 8047 1.04 259 17:55 06.05.2020
3642 Haze 22 1013 41 8047 1.04 259 17:37 06.05.2020
3643 Haze 22 1013 41 8047 1.04 259 17:37 06.05.2020
3644 Haze 21 1012 63 6437 0.7 249 17:18 06.05.2020
3645 Haze 20 1012 63 6437 0.7 249 16:58 06.05.2020
3646 Haze 20 1012 63 6437 0.7 249 16:40 06.05.2020
3647 Haze 18 1012 68 9656 0.65 300 16:20 06.05.2020
3648 Haze 18 1012 68 9656 0.65 300 15:56 06.05.2020
3649 Haze 18 1012 68 9656 0.65 300 15:38 06.05.2020
3650 Haze 18 1012 68 9656 0.48 327 15:18 06.05.2020
3651 Haze 18 1012 68 9656 0.48 327 14:40 06.05.2020
3652 Haze 18 1012 68 9656 0.18 347 14:19 06.05.2020
3653 Haze 18 1012 63 9656 0.32 299 13:59 06.05.2020
3654 Haze 19 1012 63 9656 0.32 299 13:39 06.05.2020
3655 Haze 19 1012 60 9656 0.44 190 13:19 06.05.2020
3656 Haze 19 1012 60 9656 0.44 190 12:43 06.05.2020
3657 Haze 19 1012 60 9656 0.73 154 12:25 06.05.2020
3658 Clear 19 1013 56 11265 0.73 154 11:55 06.05.2020
3659 Clear 19 1013 56 11265 0.73 154 11:36 06.05.2020
3660 Clear 19 1013 56 11265 0.9 124 11:18 06.05.2020
3661 Clear 20 1014 53 11265 0.9 124 10:55 06.05.2020
3662 Clear 20 1014 53 11265 0.9 124 10:36 06.05.2020
3663 Clear 20 1014 53 14484 1.5 130 10:18 06.05.2020
3664 Clear 20 1014 53 14484 1.5 130 09:39 06.05.2020
3665 Clear 20 1014 53 14484 1.5 130 09:20 06.05.2020
3666 Clear 21 1014 53 14484 0.94 166 08:44 06.05.2020
3667 Clear 21 1014 53 14484 1.2 165 08:21 06.05.2020
3668 Clear 21 1014 53 14484 1.2 165 07:58 06.05.2020
3669 Clear 22 1014 53 14484 1.2 165 07:39 06.05.2020
3670 Clear 22 1014 53 14484 1.56 176 07:20 06.05.2020
3671 Clear 23 1013 49 14484 1.56 176 06:49 06.05.2020
3672 Clear 23 1013 44 14484 1.5 260 06:21 06.05.2020
3673 Clear 24 1013 44 14484 1.5 260 05:50 06.05.2020
3674 Clear 23 1013 44 14484 1.5 260 05:32 06.05.2020
3675 Clear 26 1012 34 14484 2.7 223 04:22 06.05.2020
3676 Clear 27 1012 30 14484 2.7 223 03:36 06.05.2020
3677 Clear 29 1013 20 16093 2.1 250 02:58 06.05.2020
3678 Clear 29 1013 20 16093 2.1 250 02:29 06.05.2020
3679 Clear 30 1013 25 16093 2.1 0 01:53 06.05.2020
3680 Clear 30 1013 25 16093 2.1 0 01:28 06.05.2020
3681 Clear 30 1013 27 16093 3.1 260 00:46 06.05.2020
3682 Clear 30 1013 27 16093 3.1 260 00:23 06.05.2020
3683 Clear 30 1014 29 14484 3.1 260 23:55 05.05.2020
3684 Clear 30 1014 29 14484 3.1 260 23:37 05.05.2020
3685 Clear 30 1014 29 14484 3.1 260 23:18 05.05.2020
3686 Clear 31 1014 25 16093 2.6 0 22:41 05.05.2020
3687 Clear 30 1014 25 16093 2.6 0 22:19 05.05.2020
3688 Clear 30 1014 29 14484 2.1 250 21:57 05.05.2020
3689 Clear 30 1014 29 14484 2.1 250 21:38 05.05.2020
3690 Clear 29 1014 29 14484 2.1 250 21:19 05.05.2020
3691 Clear 28 1014 31 14484 2.1 250 20:56 05.05.2020
3692 Clear 28 1014 31 14484 2.1 250 20:38 05.05.2020
3693 Clear 28 1014 31 14484 2.1 250 20:18 05.05.2020
3694 Clear 28 1014 35 14484 2.6 249 19:43 05.05.2020
3695 Clear 27 1014 35 14484 1.69 252 19:25 05.05.2020
3696 Clear 26 1014 39 12874 1.69 252 18:58 05.05.2020
3697 Clear 25 1014 39 12874 1.69 252 18:40 05.05.2020
3698 Clear 24 1014 39 12874 0.97 261 18:20 05.05.2020
3699 Clear 22 1014 56 11265 0.97 261 17:58 05.05.2020
3700 Clear 22 1014 56 11265 0.97 261 17:40 05.05.2020
3701 Clear 20 1014 68 11265 0.41 255 17:21 05.05.2020
3702 Clear 20 1014 68 11265 0.41 255 16:56 05.05.2020
3703 Clear 19 1014 68 11265 0.41 255 16:36 05.05.2020
3704 Clear 20 1013 72 12874 0.18 307 16:18 05.05.2020
3705 Clear 18 1014 68 11265 0.18 307 16:18 05.05.2020
3706 Clear 18 1013 72 12874 0.18 307 15:41 05.05.2020
3707 Clear 17 1013 72 12874 0.14 232 15:22 05.05.2020
3708 Clear 17 1013 72 12874 0.14 232 14:58 05.05.2020
3709 Clear 17 1013 72 12874 0.27 291 14:39 05.05.2020
3710 Clear 17 1013 72 12874 0.2 191 14:20 05.05.2020
3711 Clear 18 1013 68 12874 0.2 191 13:58 05.05.2020
3712 Clear 18 1013 68 12874 0.2 191 13:39 05.05.2020
3713 Clear 18 1013 68 12874 0.41 156 13:21 05.05.2020
3714 Clear 18 1013 68 12874 0.41 156 12:58 05.05.2020
3715 Clear 18 1013 68 12874 0.41 156 12:39 05.05.2020
3716 Clear 17 1021 30 1200 7.7 320 12:20 05.05.2020
3717 Clear 17 1021 30 1200 7.7 320 11:42 05.05.2020
3718 Clear 17 1021 30 1200 7.7 320 11:21 05.05.2020
3719 Clear 19 1014 64 12874 0.57 127 10:59 05.05.2020
3720 Clear 19 1014 64 12874 0.57 127 10:39 05.05.2020
3721 Clear 19 1014 60 14484 0.83 132 10:19 05.05.2020
3722 Clear 19 1014 60 14484 0.83 132 09:58 05.05.2020
3723 Clear 19 1014 60 14484 1.23 112 09:40 05.05.2020
3724 Clear 19 1014 60 14484 1.76 128 09:22 05.05.2020
3725 Clear 20 1014 56 14484 1.99 118 08:41 05.05.2020
3726 Clear 20 1014 64 14484 1.3 123 08:20 05.05.2020
3727 Clear 20 1014 64 14484 1.3 123 07:58 05.05.2020
3728 Clear 20 1014 64 14484 1.3 123 07:38 05.05.2020
3729 Clear 21 1014 60 14484 1.2 124 07:19 05.05.2020
3730 Clear 20 1014 60 14484 1.2 124 06:49 05.05.2020
3731 Clear 21 1014 60 14484 0.79 150 06:22 05.05.2020
3732 Clear 21 1013 56 12874 0.79 150 05:37 05.05.2020
3733 Clear 25 1013 47 14484 2.1 250 03:35 05.05.2020
3734 Clear 27 1014 39 14484 2.6 260 01:42 05.05.2020
3735 Clear 27 1015 44 12874 3.6 260 00:52 05.05.2020
3736 Clear 27 1015 44 12874 3.6 260 00:22 05.05.2020
3737 Clear 26 1015 47 12874 2.1 0 23:45 04.05.2020
3738 Clear 26 1015 47 12874 2.1 0 23:23 04.05.2020
3739 Clear 26 1015 44 12874 2.6 260 22:56 04.05.2020
3740 Clear 26 1015 44 12874 2.6 260 22:38 04.05.2020
3741 Clear 26 1015 44 12874 2.6 260 22:19 04.05.2020
3742 Clear 25 1016 39 12874 3.35 234 21:54 04.05.2020
3743 Clear 25 1016 39 12874 3.69 233 21:34 04.05.2020
3744 Clear 24 1016 44 12874 2.85 229 20:58 04.05.2020
3745 Clear 24 1016 44 12874 2.85 229 20:58 04.05.2020
3746 Clear 24 1016 44 12874 2.85 229 20:58 04.05.2020
3747 Clear 24 1016 44 12874 2.85 229 20:38 04.05.2020
3748 Clear 24 1016 44 12874 2.85 229 20:38 04.05.2020
3749 Clear 23 1016 53 12874 2.13 229 20:18 04.05.2020
3750 Clear 22 1016 53 12874 2.13 229 19:43 04.05.2020
3751 Clear 22 1016 53 12874 1.28 222 19:21 04.05.2020
3752 Clear 21 1016 60 11265 1.5 80 18:57 04.05.2020
3753 Clear 20 1016 60 11265 1.5 80 18:38 04.05.2020
3754 Clear 20 1016 60 11265 1.5 80 18:38 04.05.2020
3755 Clear 20 1016 60 11265 1.5 80 18:38 04.05.2020
3756 Clear 19 1016 68 11265 2.6 90 18:19 04.05.2020
3757 Clear 18 1016 68 11265 2.6 90 17:56 04.05.2020
3758 Clear 18 1016 68 11265 2.6 90 17:37 04.05.2020
3759 Clear 17 1016 77 12874 3.1 90 17:18 04.05.2020
3760 Clear 16 1016 77 14484 1.5 80 16:43 04.05.2020
3761 Clear 16 1016 77 14484 1.5 80 16:22 04.05.2020
3762 Clear 15 1015 72 12874 1.05 162 15:57 04.05.2020
3763 Clear 14 1015 72 12874 1.05 162 15:38 04.05.2020
3764 Clear 14 1015 77 12874 1.02 160 15:19 04.05.2020
3765 Clear 14 1015 77 12874 1.02 160 14:48 04.05.2020
3766 Clear 14 1015 77 12874 1.02 160 14:48 04.05.2020
3767 Clear 14 1015 77 12874 1.02 160 14:48 04.05.2020
3768 Clear 15 1015 77 12874 0.98 192 14:20 04.05.2020
3769 Clear 15 1015 72 12874 1 199 13:20 04.05.2020
3770 Clear 15 1015 72 12874 1 199 13:20 04.05.2020
3771 Clear 16 1015 72 12874 1 199 13:20 04.05.2020
3772 Clear 16 1015 72 12874 1 199 13:20 04.05.2020
3773 Clear 15 1015 72 12874 1 199 13:20 04.05.2020
3774 Clear 15 1015 72 12874 1 199 12:42 04.05.2020
3775 Clear 15 1015 72 12874 1 199 12:41 04.05.2020
3776 Clear 15 1015 72 12874 1 199 12:40 04.05.2020
3777 Clear 15 1015 72 12874 1 199 12:40 04.05.2020
3778 Clear 15 1015 72 12874 1 199 12:39 04.05.2020
3779 Clear 17 1016 68 14484 0.97 155 10:38 04.05.2020
3780 Clear 17 1016 72 14484 1.48 147 09:26 04.05.2020
3781 Clear 17 1016 72 14484 1.66 135 09:26 04.05.2020
3782 Clear 17 1016 72 14484 1.66 135 09:26 04.05.2020
3783 Clear 17 1016 72 14484 1.66 135 09:26 04.05.2020
3784 Clear 17 1016 72 14484 1.66 135 09:26 04.05.2020
3785 Clear 17 1017 68 14484 1.81 134 07:53 04.05.2020
3786 Clear 17 1017 68 14484 1.81 134 07:33 04.05.2020
3787 Clear 17 1017 68 14484 1.81 134 07:33 04.05.2020
3788 Clear 17 1017 68 14484 1.81 134 07:33 04.05.2020
3789 Clear 17 1017 68 14484 1.81 138 07:33 04.05.2020
3790 Clear 17 1017 68 14484 1.81 134 07:33 04.05.2020
3791 Clear 19 1016 59 16093 1.92 217 05:18 04.05.2020
3792 Clear 20 1015 56 16093 1.5 250 04:48 04.05.2020
3793 Clear 23 1015 49 16093 2.1 0 02:38 04.05.2020
3794 Clear 23 1016 49 16093 3.1 260 01:20 04.05.2020
3795 Clear 24 1016 50 16093 1.5 0 23:59 03.05.2020
3796 Clear 24 1016 50 16093 1.5 0 23:41 03.05.2020
3797 Clear 24 1016 50 16093 1.5 0 23:23 03.05.2020
3798 Clear 24 1017 53 16093 5.15 238 22:43 03.05.2020
3799 Clear 24 1017 53 16093 4.52 234 22:24 03.05.2020
3800 Clear 23 1017 53 16093 4.52 234 21:42 03.05.2020
3801 Clear 23 1017 53 14484 3.81 230 21:22 03.05.2020
3802 Clear 22 1017 53 14484 3.81 230 20:58 03.05.2020
3803 Clear 22 1017 53 14484 3.81 230 20:58 03.05.2020
3804 Clear 22 1017 53 14484 3.81 230 20:58 03.05.2020
3805 Clear 22 1017 53 14484 3.81 230 20:58 03.05.2020
3806 Clear 22 1017 53 14484 3.81 230 20:58 03.05.2020
3807 Clear 22 1017 53 14484 3.81 230 20:39 03.05.2020
3808 Clear 22 1017 53 14484 3.4 240 20:20 03.05.2020
3809 Clear 22 1017 56 14484 3.4 240 20:20 03.05.2020
3810 Clouds 21 1018 64 16093 3.1 0 19:47 03.05.2020
3811 Clouds 20 1018 64 16093 3.1 0 19:27 03.05.2020
3812 Clouds 20 1018 64 16093 3.1 0 19:27 03.05.2020
3813 Clouds 19 1017 60 12874 1.5 0 18:41 03.05.2020
3814 Clouds 19 1017 60 12874 1.5 0 18:41 03.05.2020
3815 Clouds 19 1017 60 12874 1.5 0 18:41 03.05.2020
3816 Clouds 19 1017 60 12874 1.5 0 18:41 03.05.2020
3817 Clouds 19 1017 60 12874 1.5 0 18:41 03.05.2020
3818 Clouds 19 1018 72 16093 2.1 220 18:21 03.05.2020
3819 Clouds 18 1018 77 16093 2.13 214 17:59 03.05.2020
3820 Clouds 18 1017 68 12874 2.13 214 17:40 03.05.2020
3821 Clouds 17 1017 68 12874 1.64 211 17:21 03.05.2020
3822 Clear 17 1017 68 14484 1.64 211 16:45 03.05.2020
3823 Clear 15 1017 77 16093 1.14 181 16:20 03.05.2020
3824 Clear 16 1017 72 16093 1.14 181 15:58 03.05.2020
3825 Clear 15 1017 72 16093 1.14 181 15:39 03.05.2020
3826 Clear 16 1016 72 16093 1.23 164 15:20 03.05.2020
3827 Clear 15 1017 72 16093 1.23 164 15:20 03.05.2020
3828 Clear 16 1016 72 16093 1.23 164 14:58 03.05.2020
3829 Clear 16 1016 72 16093 1.19 195 14:40 03.05.2020
3830 Clear 16 1016 72 16093 1.05 180 14:21 03.05.2020
3831 Clear 16 1016 72 16093 1.05 180 13:51 03.05.2020
3832 Clear 16 1016 72 16093 1.05 180 13:51 03.05.2020
3833 Clear 16 1016 72 16093 1.05 180 13:51 03.05.2020
3834 Clear 16 1016 72 16093 1.05 180 13:51 03.05.2020
3835 Clear 16 1016 72 16093 1.4 162 13:18 03.05.2020
3836 Clear 16 1016 72 16093 1.4 162 13:18 03.05.2020
3837 Clear 16 1016 72 16093 1.4 162 12:43 03.05.2020
3838 Clear 16 1016 72 16093 1.45 160 12:18 03.05.2020
3839 Clear 16 1016 68 16093 1.45 160 11:55 03.05.2020
3840 Clear 16 1016 68 16093 1.45 160 11:55 03.05.2020
3841 Clear 16 1016 68 16093 1.45 160 11:37 03.05.2020
3842 Clear 16 1016 68 16093 1.53 157 11:18 03.05.2020
3843 Clear 17 1017 68 16093 1.53 157 10:46 03.05.2020
3844 Clear 17 1017 68 16093 1.53 157 10:46 03.05.2020
3845 Clear 17 1017 68 16093 1.53 157 10:46 03.05.2020
3846 Clear 17 1017 68 16093 1.53 157 10:46 03.05.2020
3847 Clear 17 1017 68 16093 1.53 157 10:46 03.05.2020
3848 Clear 16 1017 77 16093 2.1 220 09:57 03.05.2020
3849 Clear 16 1017 77 16093 2.1 220 09:34 03.05.2020
3850 Clear 16 1017 77 16093 2.1 220 09:34 03.05.2020
3851 Clear 16 1017 77 16093 2.1 220 09:34 03.05.2020
3852 Clear 16 1017 77 16093 2.1 220 09:34 03.05.2020
3853 Clear 16 1017 77 16093 2.1 220 09:34 03.05.2020
3854 Clear 17 1017 63 16093 2.16 141 08:55 03.05.2020
3855 Clear 17 1017 63 16093 2.16 141 08:55 03.05.2020
3856 Clear 17 1017 63 16093 2.89 137 08:26 03.05.2020
3857 Clear 17 1017 63 16093 2.89 137 08:26 03.05.2020
3858 Clear 17 1017 63 16093 2.89 137 08:26 03.05.2020
3859 Clear 17 1017 63 16093 2.86 143 07:39 03.05.2020
3860 Clear 17 1017 63 16093 2.86 143 07:39 03.05.2020
3861 Clear 17 1017 63 16093 2.86 143 07:39 03.05.2020
3862 Clear 18 1016 56 16093 2.1 260 06:20 03.05.2020
3863 Clear 19 1016 56 16093 2.1 260 05:47 03.05.2020
3864 Clear 20 1015 53 16093 1.5 0 04:54 03.05.2020
3865 Clear 20 1015 53 16093 1.5 0 04:26 03.05.2020
3866 Clear 22 1015 46 16093 1.5 0 02:59 03.05.2020
3867 Clear 23 1015 46 16093 1.5 0 02:24 03.05.2020
3868 Clear 24 1015 38 16093 3.1 260 01:45 03.05.2020
3869 Clear 24 1015 38 16093 3.1 260 01:27 03.05.2020
3870 Clear 24 1016 40 16093 2.1 0 00:55 03.05.2020
3871 Clear 24 1016 40 16093 2.1 0 00:37 03.05.2020
3872 Clear 24 1016 40 16093 2.1 0 00:37 03.05.2020
3873 Clear 24 1016 53 16093 4.6 260 00:18 03.05.2020
3874 Clear 24 1016 53 16093 4.6 260 23:43 02.05.2020
3875 Clear 23 1016 53 16093 4.6 260 23:24 02.05.2020
3876 Clear 24 1016 47 16093 3.1 260 22:43 02.05.2020
3877 Clear 24 1016 47 16093 3.1 260 22:24 02.05.2020
3878 Clear 24 1016 47 16093 3.1 260 22:24 02.05.2020
3879 Clear 24 1016 47 14484 4.32 223 21:57 02.05.2020
3880 Clear 24 1016 47 14484 3.95 217 21:39 02.05.2020
3881 Clear 24 1016 47 14484 3.53 219 21:19 02.05.2020
3882 Clear 23 1016 50 12874 3.13 212 20:57 02.05.2020
3883 Clear 23 1016 50 12874 3.13 212 20:37 02.05.2020
3884 Clear 22 1016 64 16093 4.1 240 20:19 02.05.2020
3885 Clear 22 1016 53 12874 2.64 204 19:57 02.05.2020
3886 Clear 22 1016 53 12874 2.64 204 19:57 02.05.2020
3887 Clear 22 1016 53 12874 2.64 204 19:38 02.05.2020
3888 Clear 22 1016 53 12874 2.64 204 19:38 02.05.2020
3889 Clear 22 1016 53 12874 2.64 204 19:38 02.05.2020
3890 Clouds 21 1016 64 12874 2.47 192 19:19 02.05.2020
3891 Clouds 20 1016 64 12874 2.47 192 18:55 02.05.2020
3892 Clouds 20 1016 64 12874 2.47 192 18:37 02.05.2020
3893 Clouds 20 1016 64 12874 1.95 191 18:18 02.05.2020
3894 Clouds 19 1016 68 11265 1.95 191 17:54 02.05.2020
3895 Clouds 18 1016 68 11265 1.95 191 17:36 02.05.2020
3896 Clouds 18 1016 68 11265 1.82 202 17:18 02.05.2020
3897 Clear 16 1015 77 11265 1.82 202 16:41 02.05.2020
3898 Clear 16 1015 77 11265 1.36 180 16:23 02.05.2020
3899 Clear 16 1015 82 12874 1.36 180 15:44 02.05.2020
3900 Clear 16 1015 82 12874 1.17 186 15:21 02.05.2020
3901 Clouds 16 1014 77 12874 1.17 186 14:59 02.05.2020
3902 Clouds 16 1014 77 12874 1.17 186 14:40 02.05.2020
3903 Clouds 16 1014 77 12874 1.28 215 14:22 02.05.2020
3904 Clear 15 1014 82 16093 2.1 90 13:41 02.05.2020
3905 Clear 15 1014 82 16093 2.1 90 13:23 02.05.2020
3906 Clouds 17 1014 72 14484 1.15 209 12:56 02.05.2020
3907 Clouds 17 1014 72 14484 1.15 209 12:38 02.05.2020
3908 Clouds 17 1014 72 14484 1.26 170 12:20 02.05.2020
3909 Clouds 17 1014 72 12874 2.1 120 11:54 02.05.2020
3910 Clear 17 1015 72 14484 1.5 130 11:36 02.05.2020
3911 Clear 17 1015 63 16093 1.5 130 11:18 02.05.2020
3912 Clear 17 1015 63 16093 1.5 130 10:40 02.05.2020
3913 Clear 17 1014 59 16093 1.64 154 10:22 02.05.2020
3914 Clear 17 1014 59 16093 1.64 154 09:58 02.05.2020
3915 Clear 17 1014 59 16093 1.64 154 09:39 02.05.2020
3916 Clear 18 1014 59 16093 1.65 155 09:21 02.05.2020
3917 Clear 18 1014 59 16093 1.48 151 08:51 02.05.2020
3918 Clear 18 1014 59 16093 1.98 134 08:31 02.05.2020
3919 Clear 18 1014 59 16093 1.98 134 07:50 02.05.2020
3920 Clear 18 1014 59 16093 1.98 142 07:30 02.05.2020
3921 Clear 18 1013 59 16093 1.98 142 06:56 02.05.2020
3922 Clear 19 1013 56 16093 2.65 150 06:28 02.05.2020
3923 Clear 20 1013 56 16093 1.5 260 05:27 02.05.2020
3924 Clear 21 1012 56 16093 2.74 191 04:27 02.05.2020
3925 Clear 22 1012 50 16093 2.74 191 03:40 02.05.2020
3926 Clear 24 1012 47 16093 3.09 210 02:41 02.05.2020
3927 Clear 24 1013 50 16093 1.5 260 01:56 02.05.2020
3928 Clear 24 1013 50 16093 1.5 260 01:26 02.05.2020
3929 Clear 24 1013 53 16093 2.6 250 00:43 02.05.2020
3930 Clear 24 1013 53 16093 2.6 250 00:21 02.05.2020
3931 Clear 24 1014 50 16093 1.5 0 23:55 01.05.2020
3932 Clear 24 1014 50 16093 1.5 0 23:37 01.05.2020
3933 Clear 23 1018 24 1200 4.51 233 23:18 01.05.2020
3934 Clear 24 1018 24 1200 4.51 233 22:39 01.05.2020
3935 Clear 24 1018 24 1200 4.63 237 22:20 01.05.2020
3936 Clear 23 1014 50 14484 4.63 237 21:57 01.05.2020
3937 Clear 23 1014 50 14484 4.63 237 21:39 01.05.2020
3938 Clear 23 1014 50 14484 3.76 230 21:20 01.05.2020
3939 Clear 23 1014 50 12874 3.76 230 20:57 01.05.2020
3940 Clear 23 1014 50 12874 3.76 230 20:39 01.05.2020
3941 Clear 22 1014 50 12874 3.12 228 20:20 01.05.2020
3942 Haze 22 1014 53 9656 3.12 228 19:56 01.05.2020
3943 Haze 22 1014 53 9656 3.12 228 19:38 01.05.2020
3944 Haze 21 1014 68 8047 2.17 218 19:19 01.05.2020
3945 Haze 20 1014 68 8047 2.17 218 18:55 01.05.2020
3946 Haze 20 1014 68 8047 2.17 218 18:37 01.05.2020
3947 Haze 19 1014 72 8047 1.59 222 18:18 01.05.2020
3948 Haze 18 1014 72 8047 1.59 222 17:40 01.05.2020
3949 Haze 17 1014 72 8047 1.07 191 17:22 01.05.2020
3950 Haze 17 1014 72 6437 1.07 191 16:57 01.05.2020
3951 Haze 16 1013 77 4828 1.5 260 16:39 01.05.2020
3952 Haze 16 1013 77 4828 1.5 260 16:20 01.05.2020
3953 Haze 16 1013 82 4828 0.66 163 15:57 01.05.2020
3954 Haze 16 1013 77 8047 0.66 163 15:39 01.05.2020
3955 Haze 16 1012 77 8047 0.59 199 15:19 01.05.2020
3956 Haze 16 1012 77 8047 0.59 199 14:44 01.05.2020
3957 Haze 16 1012 77 8047 0.68 219 14:25 01.05.2020
3958 Haze 16 1012 77 8047 1.06 170 13:56 01.05.2020
3959 Haze 17 1012 77 8047 0.93 166 13:38 01.05.2020
3960 Haze 17 1012 77 8047 0.93 166 13:19 01.05.2020
3961 Haze 17 1012 77 9656 0.93 166 12:55 01.05.2020
3962 Haze 17 1013 82 9656 0.93 166 12:37 01.05.2020
3963 Haze 16 1013 82 9656 0.99 183 12:18 01.05.2020
3964 Clouds 16 1013 82 11265 0.99 183 11:41 01.05.2020
3965 Clouds 16 1013 82 11265 1.15 206 11:23 01.05.2020
3966 Clouds 17 1013 82 11265 1.15 206 10:57 01.05.2020
3967 Clouds 17 1013 82 11265 1.15 206 10:38 01.05.2020
3968 Clouds 16 1013 82 11265 1.48 215 10:19 01.05.2020
3969 Clouds 17 1013 82 12874 1.48 215 09:44 01.05.2020
3970 Clouds 17 1013 77 11265 1.39 229 09:19 01.05.2020
3971 Clouds 17 1013 77 11265 1.39 229 08:57 01.05.2020
3972 Clear 17 1019 77 11265 14.4 320 08:39 01.05.2020
3973 Clear 17 1019 77 11265 14.4 320 08:21 01.05.2020
3974 Clouds 17 1013 77 11265 1.02 201 07:44 01.05.2020
3975 Clouds 17 1013 77 11265 0.92 207 07:22 01.05.2020
3976 Clouds 17 1012 77 11265 0.92 207 06:42 01.05.2020
3977 Clouds 17 1012 72 11265 1.5 280 05:35 01.05.2020
3978 Clouds 18 1011 72 12874 1.53 245 04:39 01.05.2020
3979 Clear 21 1012 60 12874 2.1 270 03:24 01.05.2020
3980 Clear 22 1012 60 12874 4.1 270 02:43 01.05.2020
3981 Clear 23 1012 57 14484 2.6 0 02:19 01.05.2020
3982 Clear 24 1012 57 14484 2.6 0 01:28 01.05.2020
3983 Clear 25 1012 57 12874 3.96 244 00:59 01.05.2020
3984 Clear 25 1012 57 12874 4 238 00:37 01.05.2020
3985 Clear 25 1013 60 11265 2.1 0 00:18 01.05.2020
3986 Clear 25 1013 60 11265 2.1 0 23:54 30.04.2020
3987 Clear 25 1013 60 11265 2.1 0 23:36 30.04.2020
3988 Clear 24 1013 60 11265 2.1 0 23:18 30.04.2020
3989 Haze 23 1013 60 9656 2.6 280 22:41 30.04.2020
3990 Haze 23 1013 60 9656 2.6 280 22:20 30.04.2020
3991 Haze 23 1014 60 9656 1.5 0 21:55 30.04.2020
3992 Haze 23 1014 60 9656 1.5 0 21:37 30.04.2020
3993 Haze 22 1014 64 8047 2.1 250 21:19 30.04.2020
3994 Haze 21 1014 64 6437 3.61 230 20:43 30.04.2020
3995 Haze 21 1014 64 6437 3.31 239 20:19 30.04.2020
3996 Haze 20 1014 64 6437 3.31 239 19:58 30.04.2020
3997 Haze 20 1014 64 6437 3.31 239 19:40 30.04.2020
3998 Haze 19 1014 72 4828 2.41 212 19:22 30.04.2020
3999 Haze 19 1014 72 4828 2.41 212 18:56 30.04.2020
4000 Haze 19 1014 72 4828 2.41 212 18:37 30.04.2020
4001 Haze 18 1015 82 6437 1.5 210 18:19 30.04.2020
4002 Haze 18 1014 72 6437 2.19 224 17:55 30.04.2020
4003 Haze 17 1014 77 6437 2.19 224 17:37 30.04.2020
4004 Haze 17 1014 77 6437 1.53 213 17:18 30.04.2020
4005 Haze 17 1014 77 6437 1.53 213 16:54 30.04.2020
4006 Haze 17 1014 77 6437 1.53 213 16:36 30.04.2020
4007 Haze 17 1014 77 8047 1.44 200 16:18 30.04.2020
4008 Haze 16 1014 82 9656 1.44 200 15:43 30.04.2020
4009 Haze 16 1014 82 9656 2.1 0 15:21 30.04.2020
4010 Haze 17 1014 77 8047 0.86 218 14:42 30.04.2020
4011 Haze 17 1014 77 9656 1.6 184 14:21 30.04.2020
4012 Haze 17 1014 77 9656 1.6 184 13:58 30.04.2020
4013 Haze 17 1014 77 9656 1.6 184 13:40 30.04.2020
4014 Mist 16 1014 87 9656 2.1 220 13:21 30.04.2020
4015 Haze 16 1013 77 9656 1.76 185 12:58 30.04.2020
4016 Haze 16 1013 77 9656 1.76 185 12:40 30.04.2020
4017 Haze 16 1013 77 9656 1.51 248 12:18 30.04.2020
4018 Haze 16 1014 77 9656 1.51 248 11:38 30.04.2020
4019 Haze 17 1015 77 8047 2.2 223 11:19 30.04.2020
4020 Haze 17 1015 77 8047 2.2 223 10:58 30.04.2020
4021 Clouds 16 1015 82 14484 1.5 290 10:38 30.04.2020
4022 Clouds 16 1015 82 14484 1.5 290 10:19 30.04.2020
4023 Clouds 16 1016 82 14484 1.5 220 09:55 30.04.2020
4024 Clouds 16 1015 77 11265 1.5 280 09:37 30.04.2020
4025 Clouds 16 1015 77 11265 1.5 280 09:18 30.04.2020
4026 Clear 16 1015 77 12874 2.47 247 08:44 30.04.2020
4027 Clear 16 1015 77 12874 2.17 221 08:23 30.04.2020
4028 Clear 17 1015 77 14484 2.17 221 07:43 30.04.2020
4029 Clear 17 1015 77 14484 1.85 207 07:25 30.04.2020
4030 Clouds 17 1015 77 16093 2.1 280 06:51 30.04.2020
4031 Clear 17 1015 68 16093 2.35 199 06:18 30.04.2020
4032 Clear 17 1015 68 16093 2.35 199 05:44 30.04.2020
4033 Clear 18 1014 68 12874 1.72 204 04:36 30.04.2020
4034 Clouds 18 1014 68 12874 2.92 222 03:58 30.04.2020
4035 Clouds 19 1015 68 12874 2.1 270 02:47 30.04.2020
4036 Clouds 19 1015 68 11265 2.1 250 02:25 30.04.2020
4037 Haze 19 1015 64 9656 3.6 260 01:36 30.04.2020
4038 Haze 24 1015 60 9656 3.6 250 00:42 30.04.2020
4039 Haze 24 1014 60 8047 4.3 219 00:20 30.04.2020
4040 Haze 24 1014 60 8047 4.3 219 23:57 29.04.2020
4041 Haze 25 1014 60 8047 4.3 219 23:37 29.04.2020
4042 Haze 24 1015 54 8047 3.52 201 23:19 29.04.2020
4043 Haze 25 1015 54 8047 3.52 201 22:54 29.04.2020
4044 Haze 24 1015 54 8047 3.52 201 22:36 29.04.2020
4045 Haze 24 1016 60 6437 1.5 0 22:18 29.04.2020
4046 Haze 23 1016 60 6437 1.5 0 21:38 29.04.2020
4047 Haze 23 1016 60 6437 1.5 0 21:19 29.04.2020
4048 Haze 22 1016 64 6437 2.67 203 20:58 29.04.2020
4049 Haze 22 1016 64 6437 2.67 203 20:38 29.04.2020
4050 Haze 22 1016 64 4828 2.31 218 20:19 29.04.2020
4051 Haze 21 1016 73 4828 2.31 218 19:43 29.04.2020
4052 Haze 20 1016 73 4828 2.75 235 19:22 29.04.2020
4053 Haze 20 1016 73 4828 2.75 235 18:58 29.04.2020
4054 Haze 18 1017 77 4023 2.75 235 18:40 29.04.2020
4055 Haze 18 1017 77 4023 2.36 231 18:19 29.04.2020
4056 Haze 17 1016 77 4023 2.36 231 17:44 29.04.2020
4057 Haze 17 1016 82 4023 1.87 224 17:22 29.04.2020
4058 Haze 17 1016 82 4023 1.87 224 16:59 29.04.2020
4059 Haze 17 1016 82 3219 1.87 224 16:37 29.04.2020
4060 Haze 16 1015 82 4023 1.61 225 16:18 29.04.2020
4061 Haze 16 1015 82 4023 1.61 225 15:55 29.04.2020
4062 Haze 16 1015 82 4023 1.61 225 15:37 29.04.2020
4063 Haze 16 1015 82 4023 2.65 253 15:19 29.04.2020
4064 Haze 16 1015 82 4023 2.65 253 14:44 29.04.2020
4065 Haze 16 1015 82 4023 1.7 234 14:26 29.04.2020
4066 Haze 16 1015 77 6437 1.7 234 13:58 29.04.2020
4067 Haze 16 1015 77 9656 1.7 234 13:38 29.04.2020
4068 Haze 16 1015 77 9656 1.07 198 13:19 29.04.2020
4069 Clouds 16 1014 77 11265 1.07 198 12:55 29.04.2020
4070 Clear 16 1014 77 11265 1.07 198 12:37 29.04.2020
4071 Clear 17 1014 77 11265 1.13 207 12:18 29.04.2020
4072 Clear 17 1014 77 11265 1.13 207 11:39 29.04.2020
4073 Clear 17 1014 77 11265 1.14 213 11:20 29.04.2020
4074 Clear 17 1014 77 11265 1.14 213 11:20 29.04.2020
4075 Clear 17 1016 72 12874 1.14 213 10:55 29.04.2020
4076 Clear 17 1016 82 12874 1.14 213 10:37 29.04.2020
4077 Clear 17 1016 82 14484 1.5 310 10:18 29.04.2020
4078 Clear 17 1016 72 12874 1.3 211 09:41 29.04.2020
4079 Clear 17 1016 72 12874 1.18 235 09:22 29.04.2020
4080 Clear 18 1016 72 12874 1.18 235 08:45 29.04.2020
4081 Clear 17 1016 72 12874 1.7 236 08:26 29.04.2020
4082 Clear 17 1016 77 12874 1.7 236 07:57 29.04.2020
4083 Clear 17 1016 77 12874 1.7 236 07:38 29.04.2020
4084 Clouds 17 1015 77 11265 1.85 222 07:18 29.04.2020
4085 Clouds 17 1015 77 11265 1.85 222 06:48 29.04.2020
4086 Clouds 18 1015 77 11265 2.44 214 06:29 29.04.2020
4087 Clouds 18 1015 77 11265 2.44 214 06:29 29.04.2020
4088 Clear 19 1015 72 11265 2.6 260 05:21 29.04.2020
4089 Clear 19 1015 72 11265 2.6 260 05:21 29.04.2020
4090 Clear 21 1014 60 12874 1.5 0 04:21 29.04.2020
4091 Clear 22 1014 47 14484 2.83 224 03:55 29.04.2020
4092 Clear 26 1014 50 14484 2.1 250 02:32 29.04.2020
4093 Clear 26 1014 47 14484 2.6 250 01:44 29.04.2020
4094 Clear 26 1014 47 14484 2.6 250 01:20 29.04.2020
4095 Clear 26 1014 50 14484 1.5 0 00:39 29.04.2020
4096 Clear 26 1015 53 12874 4.68 241 00:19 29.04.2020
4097 Clear 26 1015 53 12874 4.68 241 23:48 28.04.2020
4098 Clear 26 1015 53 12874 4.25 240 23:23 28.04.2020
4099 Clear 27 1014 48 12874 4.25 240 22:55 28.04.2020
4100 Clear 27 1014 48 12874 4.25 240 22:37 28.04.2020
4101 Clear 27 1015 45 12874 3.84 237 22:18 28.04.2020
4102 Clear 27 1015 45 12874 3.84 237 21:54 28.04.2020
4103 Clear 26 1015 45 12874 4.12 237 21:36 28.04.2020
4104 Clear 26 1015 45 12874 3.34 237 21:18 28.04.2020
4105 Clear 26 1015 47 11265 3.34 237 20:40 28.04.2020
4106 Clear 25 1015 47 11265 2.31 235 20:21 28.04.2020
4107 Clear 24 1015 57 11265 2.31 235 19:59 28.04.2020
4108 Clear 24 1015 57 11265 2.31 235 19:41 28.04.2020
4109 Clear 23 1015 57 11265 1.48 227 19:22 28.04.2020
4110 Haze 22 1015 68 8047 1.48 227 18:58 28.04.2020
4111 Haze 21 1015 68 8047 1.48 227 18:38 28.04.2020
4112 Haze 20 1015 73 8047 0.88 216 18:19 28.04.2020
4113 Haze 20 1015 73 8047 0.88 216 17:57 28.04.2020
4114 Haze 19 1015 73 8047 0.88 216 17:36 28.04.2020
4115 Haze 19 1015 73 8047 0.79 195 17:18 28.04.2020
4116 Haze 18 1015 72 9656 0.79 195 16:42 28.04.2020
4117 Mist 17 1015 88 6437 2.1 140 16:23 28.04.2020
4118 Clear 16 1021 29 1200 9.3 340 15:57 28.04.2020
4119 Clear 16 1021 29 1200 9.3 340 15:39 28.04.2020
4120 Clear 16 1021 29 1200 9.3 340 15:21 28.04.2020
4121 Clear 17 1015 77 11265 0.62 208 14:58 28.04.2020
4122 Clear 17 1015 77 11265 0.62 208 14:40 28.04.2020
4123 Clear 17 1015 77 11265 0.96 189 14:20 28.04.2020
4124 Clear 17 1014 77 12874 0.96 189 13:57 28.04.2020
4125 Clear 17 1014 77 12874 0.96 189 13:37 28.04.2020
4126 Clear 17 1014 77 12874 1.02 200 13:19 28.04.2020
4127 Clear 17 1015 72 12874 1.02 200 12:44 28.04.2020
4128 Clear 18 1015 72 12874 1.3 189 12:24 28.04.2020
4129 Clear 18 1015 72 12874 1.3 189 11:45 28.04.2020
4130 Clear 18 1015 72 12874 1.4 182 11:26 28.04.2020
4131 Clear 18 1015 64 11265 1.4 182 10:59 28.04.2020
4132 Clear 18 1015 64 11265 1.4 182 10:39 28.04.2020
4133 Clear 18 1015 64 11265 1.4 182 10:39 28.04.2020
4134 Clear 17 1015 77 16093 1.5 140 10:19 28.04.2020
4135 Clear 18 1015 68 12874 1.31 181 09:57 28.04.2020
4136 Clear 18 1015 68 12874 1.26 188 09:39 28.04.2020
4137 Clear 19 1015 68 12874 1.22 176 09:20 28.04.2020
4138 Clear 19 1015 64 14484 1.22 176 08:45 28.04.2020
4139 Clear 19 1015 64 14484 1.41 167 08:26 28.04.2020
4140 Clear 19 1015 64 12874 1.41 167 07:45 28.04.2020
4141 Clear 18 1015 72 16093 1.57 173 07:20 28.04.2020
4142 Clear 19 1015 72 16093 1.5 240 06:54 28.04.2020
4143 Clear 19 1015 72 16093 1.5 240 06:22 28.04.2020
4144 Clear 19 1014 68 16093 2.6 240 05:41 28.04.2020
4145 Clear 20 1014 53 16093 1.85 216 05:20 28.04.2020
4146 Clear 22 1014 47 16093 1.5 260 04:27 28.04.2020
4147 Clear 26 1014 42 14484 3.6 270 02:34 28.04.2020
4148 Clear 26 1014 47 14484 4.26 236 01:23 28.04.2020
4149 Clear 26 1014 47 14484 4.26 236 01:23 28.04.2020
4150 Clear 26 1015 47 12874 1.5 0 00:56 28.04.2020
4151 Clear 26 1015 47 12874 1.5 0 00:23 28.04.2020
4152 Clear 25 1015 50 11265 2.1 250 23:47 27.04.2020
4153 Clear 25 1015 50 11265 2.1 250 23:24 27.04.2020
4154 Haze 25 1015 47 9656 1.5 0 22:56 27.04.2020
4155 Haze 24 1015 47 9656 1.5 0 22:38 27.04.2020
4156 Haze 25 1015 47 9656 1.5 0 22:19 27.04.2020
4157 Haze 25 1015 47 9656 3.47 212 21:56 27.04.2020
4158 Haze 25 1015 47 9656 3.47 212 21:38 27.04.2020
4159 Clear 25 1015 47 11265 3.24 209 21:18 27.04.2020
4160 Clear 24 1015 47 11265 3.24 209 20:44 27.04.2020
4161 Clear 24 1015 47 11265 2.85 207 20:22 27.04.2020
4162 Clear 24 1015 47 11265 2.85 207 20:22 27.04.2020
4163 Clear 24 1015 47 11265 2.85 207 20:22 27.04.2020
4164 Clear 23 1015 60 16093 2.85 207 19:59 27.04.2020
4165 Clear 23 1015 60 16093 2.85 207 19:40 27.04.2020
4166 Haze 23 1015 60 6437 2.44 211 19:21 27.04.2020
4167 Haze 22 1015 60 6437 2.44 211 18:58 27.04.2020
4168 Haze 21 1015 60 6437 2.44 211 18:40 27.04.2020
4169 Haze 20 1015 60 6437 1.74 195 18:19 27.04.2020
4170 Haze 19 1015 68 4828 1.74 195 17:57 27.04.2020
4171 Haze 19 1015 68 4828 1.74 195 17:38 27.04.2020
4172 Clear 18 1015 82 1200 3.6 250 17:18 27.04.2020
4173 Haze 17 1015 82 8047 2.6 110 16:40 27.04.2020
4174 Haze 16 1015 82 8047 2.6 110 16:22 27.04.2020
4175 Haze 16 1014 82 4023 0.82 186 15:57 27.04.2020
4176 Haze 16 1014 82 4023 0.82 186 15:57 27.04.2020
4177 Haze 16 1014 82 6437 0.82 186 15:38 27.04.2020
4178 Haze 16 1014 82 6437 0.64 209 15:19 27.04.2020
4179 Haze 16 1014 82 6437 0.64 209 14:58 27.04.2020
4180 Haze 16 1014 77 8047 1.04 218 14:39 27.04.2020
4181 Haze 17 1014 77 8047 1.04 218 14:18 27.04.2020
4182 Haze 17 1014 77 8047 1.04 218 13:55 27.04.2020
4183 Haze 17 1014 77 8047 1.04 218 13:36 27.04.2020
4184 Haze 17 1014 77 9656 1.04 218 13:18 27.04.2020
4185 Haze 17 1014 77 9656 1.04 218 12:42 27.04.2020
4186 Haze 17 1014 77 9656 1.17 218 12:21 27.04.2020
4187 Clear 18 1014 72 11265 1.17 218 11:42 27.04.2020
4188 Clear 17 1014 72 11265 1.17 218 11:22 27.04.2020
4189 -273 0 0 0 0 0 10:59 27.04.2020
4190 Clear 17 1014 72 11265 1.17 218 10:40 27.04.2020
4191 Clear 17 1014 72 11265 1.17 218 10:22 27.04.2020
4192 Clear 17 1014 72 11265 1.17 218 09:54 27.04.2020
4193 Clear 17 1014 72 11265 1.17 218 09:36 27.04.2020
4194 Clear 18 1014 68 11265 1.18 186 09:18 27.04.2020
4195 Clear 18 1014 68 11265 1.18 186 08:45 27.04.2020
4196 Clear 19 1014 68 11265 1.18 186 08:26 27.04.2020
4197 Clear 19 1014 68 11265 1.18 186 07:44 27.04.2020
4198 Clear 19 1014 68 11265 1.18 186 07:22 27.04.2020
4199 Clear 19 1013 64 12874 1.18 186 06:57 27.04.2020
4200 Clear 19 1013 64 12874 2.61 201 06:27 27.04.2020
4201 Clear 20 1013 60 12874 1.5 0 05:55 27.04.2020
4202 Haze 22 1013 56 9656 1.5 250 04:55 27.04.2020
4203 Haze 22 1013 56 9656 1.5 250 04:36 27.04.2020
4204 Clear 24 1013 47 11265 2.6 270 03:45 27.04.2020
4205 Clear 28 1013 42 12874 2.1 0 01:51 27.04.2020
4206 Clear 29 1013 39 12874 2.1 250 01:20 27.04.2020
4207 Clear 28 1013 39 12874 2.1 250 00:21 27.04.2020
4208 Clear 28 1013 39 11265 1.5 0 23:59 26.04.2020
4209 Clear 28 1013 39 11265 1.5 0 23:41 26.04.2020
4210 Clear 28 1013 39 11265 1.5 0 23:22 26.04.2020
4211 Clear 28 1013 39 11265 3.8 223 22:59 26.04.2020
4212 Clear 28 1013 39 11265 3.8 223 22:40 26.04.2020
4213 Clear 28 1013 39 11265 3.8 223 22:21 26.04.2020
4214 Clear 27 1014 42 11265 1.5 0 21:58 26.04.2020
4215 Clear 27 1014 42 11265 1.5 0 21:39 26.04.2020
4216 Clear 26 1014 42 11265 1.5 0 21:19 26.04.2020
4217 Haze 26 1014 37 9656 1.5 260 20:55 26.04.2020
4218 Haze 27 1014 37 9656 1.5 260 20:37 26.04.2020
4219 Haze 26 1014 37 9656 1.5 260 20:19 26.04.2020
4220 Haze 26 1014 37 9656 1.5 260 20:19 26.04.2020
4221 Haze 26 1014 44 9656 1.88 199 19:57 26.04.2020
4222 Haze 25 1014 44 9656 1.88 199 19:37 26.04.2020
4223 Clear 23 1021 55 1200 3.1 350 19:19 26.04.2020
4224 Clear 22 1021 55 1200 3.1 350 18:43 26.04.2020
4225 Clear 21 1021 55 1200 3.1 350 18:24 26.04.2020
4226 Haze 19 1014 64 8047 0.71 205 17:44 26.04.2020
4227 Haze 20 1014 64 8047 0.71 205 17:44 26.04.2020
4228 Haze 19 1014 64 8047 0.71 205 17:24 26.04.2020
4229 Haze 18 1014 77 6437 0.71 205 16:59 26.04.2020
4230 Haze 18 1014 77 6437 0.71 205 16:40 26.04.2020
4231 Haze 17 1014 77 6437 0.71 205 16:21 26.04.2020
4232 Clear 17 1013 72 11265 0.71 205 15:58 26.04.2020
4233 Clear 17 1013 72 11265 0.71 205 15:38 26.04.2020
4234 Clear 17 1013 72 11265 0.81 226 15:20 26.04.2020
4235 Clear 18 1013 72 11265 0.81 226 14:54 26.04.2020
4236 Clear 18 1013 72 11265 0.69 229 14:36 26.04.2020
4237 Clear 18 1013 72 11265 0.69 229 14:18 26.04.2020
4238 Clear 18 1013 68 11265 0.69 229 13:42 26.04.2020
4239 Clear 18 1013 68 11265 0.69 229 13:23 26.04.2020
4240 Clear 18 1013 68 11265 0.69 229 12:58 26.04.2020
4241 Clear 18 1013 68 11265 0.69 229 12:40 26.04.2020
4242 Clear 19 1013 68 11265 1.13 206 12:20 26.04.2020
4243 Clear 19 1014 60 11265 1.13 206 11:57 26.04.2020
4244 Clear 19 1014 60 11265 1.13 206 11:39 26.04.2020
4245 Clear 19 1014 60 11265 1.13 206 11:21 26.04.2020
4246 Clear 19 1014 60 11265 1.13 206 10:55 26.04.2020
4247 Clear 19 1014 60 11265 1.13 206 10:37 26.04.2020
4248 Clear 19 1014 56 12874 1.13 206 10:18 26.04.2020
4249 Clear 19 1014 56 12874 1.13 206 09:39 26.04.2020
4250 Clear 20 1014 56 12874 1.32 185 09:21 26.04.2020
4251 Clear 20 1014 60 12874 1.32 185 08:56 26.04.2020
4252 Clear 20 1014 60 12874 1.32 185 08:37 26.04.2020
4253 Clear 21 1014 53 12874 1.32 185 08:18 26.04.2020
4254 Clear 21 1014 53 12874 1.32 185 07:46 26.04.2020
4255 Clear 22 1014 53 12874 1.32 185 07:21 26.04.2020
4256 Clear 22 1013 53 14484 1.32 185 06:43 26.04.2020
4257 Clear 23 1013 56 12874 2.16 237 05:57 26.04.2020
4258 Clear 23 1013 56 12874 2.16 237 05:38 26.04.2020
4259 Clear 26 1013 42 11265 1.5 260 04:56 26.04.2020
4260 Clear 27 1013 42 11265 1.5 260 04:22 26.04.2020
4261 Clear 29 1012 33 12874 1.5 240 02:51 26.04.2020
4262 Clear 30 1012 33 12874 1.5 240 02:31 26.04.2020
4263 Clear 30 1013 31 12874 1.5 0 01:46 26.04.2020
4264 Clear 30 1013 31 12874 1.5 0 01:26 26.04.2020
4265 Clear 30 1013 35 11265 1.5 250 00:39 26.04.2020
4266 Clear 31 1013 33 11265 3.07 214 00:19 26.04.2020
4267 Clear 31 1013 33 11265 3.07 214 23:39 25.04.2020
4268 Clear 31 1013 33 11265 3.07 214 23:21 25.04.2020
4269 Clear 31 1014 33 11265 3.07 214 22:58 25.04.2020
4270 Clear 30 1014 33 11265 3.07 214 22:40 25.04.2020
4271 Clear 30 1015 35 11265 3.07 214 22:19 25.04.2020
4272 Clear 29 1015 35 11265 3.07 214 21:54 25.04.2020
4273 Clear 29 1015 35 11265 3.07 214 21:36 25.04.2020
4274 Clear 27 1015 35 11265 1.85 193 21:18 25.04.2020
4275 Clear 27 1015 42 11265 1.85 193 20:42 25.04.2020
4276 Clear 26 1015 42 11265 1.85 193 20:22 25.04.2020
4277 Clear 25 1015 44 11265 1.85 193 19:56 25.04.2020
4278 Clear 25 1015 44 11265 1.85 193 19:38 25.04.2020
4279 Clear 24 1015 44 11265 1.85 193 19:19 25.04.2020
4280 Haze 23 1014 57 9656 1.5 0 18:42 25.04.2020
4281 Haze 22 1014 57 9656 1.5 0 18:21 25.04.2020
4282 Haze 21 1014 64 8047 0.9 141 17:58 25.04.2020
4283 Haze 21 1014 64 8047 0.9 141 17:39 25.04.2020
4284 Haze 20 1014 64 9656 0.9 141 17:20 25.04.2020
4285 Haze 20 1014 64 9656 0.9 141 16:59 25.04.2020
4286 Haze 19 1014 64 9656 0.9 141 16:41 25.04.2020
4287 Haze 19 1014 64 9656 0.9 141 16:21 25.04.2020
4288 Clear 18 1013 64 12874 0.9 141 15:54 25.04.2020
4289 Clear 18 1013 64 12874 0.9 141 15:36 25.04.2020
4290 Clear 19 1013 64 12874 0.97 140 15:18 25.04.2020
4291 Clear 19 1013 64 12874 0.97 140 14:39 25.04.2020
4292 Clear 19 1013 64 12874 0.93 137 14:20 25.04.2020
4293 Clear 19 1013 68 12874 1.5 90 13:59 25.04.2020
4294 Clear 20 1013 68 12874 1.5 90 13:41 25.04.2020
4295 Clear 20 1013 64 12874 1.5 100 13:18 25.04.2020
4296 Clear 20 1013 64 12874 1.5 100 12:55 25.04.2020
4297 Clear 20 1013 64 12874 1.5 100 12:37 25.04.2020
4298 Clear 20 1013 64 12874 2.1 0 12:18 25.04.2020
4299 Clear 20 1013 64 12874 1.5 100 12:18 25.04.2020
4300 Clear 20 1013 64 12874 2.1 0 11:42 25.04.2020
4301 Clear 21 1013 64 12874 2.1 0 11:24 25.04.2020
4302 Clear 22 1013 56 12874 3.1 90 10:57 25.04.2020
4303 Clear 22 1013 56 12874 3.1 90 10:38 25.04.2020
4304 Clear 23 1013 56 12874 3.1 90 10:20 25.04.2020
4305 Clear 24 1012 23 14484 0.57 52 09:43 25.04.2020
4306 Clear 24 1012 23 14484 0.9 329 09:22 25.04.2020
4307 Clear 25 1012 34 16093 0.9 329 08:56 25.04.2020
4308 Clear 25 1012 34 16093 0.9 329 08:38 25.04.2020
4309 Clear 25 1012 34 16093 0.9 329 08:19 25.04.2020
4310 Clear 26 1012 44 16093 0.9 329 07:44 25.04.2020
4311 Clear 26 1012 44 16093 0.9 329 07:22 25.04.2020
4312 Clear 25 1012 50 16093 0.9 329 06:43 25.04.2020
4313 Clear 27 1011 39 12874 2.62 308 05:47 25.04.2020
4314 Clear 27 1011 39 12874 2.62 308 05:28 25.04.2020
4315 Clear 29 1011 35 11265 1.5 0 04:29 25.04.2020
4316 Clear 31 1011 31 12874 3.93 263 02:44 25.04.2020
4317 Clear 32 1011 27 12874 3.93 263 02:19 25.04.2020
4318 Clear 33 1011 27 12874 3.93 263 01:50 25.04.2020
4319 Clear 33 1011 27 12874 3.93 263 01:27 25.04.2020
4320 Clear 33 1012 28 12874 2.1 250 00:50 25.04.2020
4321 Clear 32 1012 28 12874 2.1 250 00:29 25.04.2020
4322 Clear 32 1012 29 11265 2.6 260 23:43 24.04.2020
4323 Clear 32 1012 33 11265 1.5 0 23:22 24.04.2020
4324 Clear 32 1012 33 11265 1.5 0 22:56 24.04.2020
4325 Clear 32 1012 33 11265 1.5 0 22:37 24.04.2020
4326 Clear 31 1013 31 11265 1.5 0 22:19 24.04.2020
4327 Clear 31 1013 31 11265 1.5 0 21:54 24.04.2020
4328 Clear 31 1013 31 11265 1.5 0 21:36 24.04.2020
4329 Clear 29 1013 29 12874 1.45 265 21:18 24.04.2020
4330 Clear 29 1013 29 12874 1.45 265 20:44 24.04.2020
4331 Clear 28 1013 29 12874 1.45 265 20:19 24.04.2020
4332 Clear 27 1013 35 12874 1.45 265 19:58 24.04.2020
4333 Clear 27 1013 35 12874 1.45 265 19:39 24.04.2020
4334 Clear 27 1013 35 12874 1.45 265 19:20 24.04.2020
4335 Clear 25 1013 36 12874 1.5 100 18:43 24.04.2020
4336 Clear 24 1014 53 16093 1.41 356 18:25 24.04.2020
4337 Haze 23 1013 56 9656 1.41 356 17:55 24.04.2020
4338 Haze 22 1013 56 9656 1.41 356 17:37 24.04.2020
4339 Haze 21 1013 56 9656 1.41 356 17:18 24.04.2020
4340 Haze 20 1013 64 9656 1.41 356 16:57 24.04.2020
4341 Haze 20 1013 64 9656 1.41 356 16:38 24.04.2020
4342 Haze 18 1013 64 9656 1.41 356 16:20 24.04.2020
4343 Clear 18 1012 68 12874 1.41 356 15:41 24.04.2020
4344 Clear 18 1012 68 12874 0.84 335 15:21 24.04.2020
4345 Clear 18 1012 68 12874 0.84 335 14:56 24.04.2020
4346 Clear 18 1012 68 12874 0.84 335 14:37 24.04.2020
4347 Clear 18 1012 68 12874 1.08 332 14:18 24.04.2020
4348 Clear 18 1012 64 12874 1.08 332 13:41 24.04.2020
4349 Clear 18 1012 60 12874 1.08 332 13:21 24.04.2020
4350 Clear 18 1012 64 12874 1.08 332 13:21 24.04.2020
4351 Clear 18 1012 60 12874 1.08 332 12:58 24.04.2020
4352 Clear 18 1012 60 12874 1.08 332 12:40 24.04.2020
4353 Clear 18 1012 60 12874 1.37 3 12:19 24.04.2020
4354 Clear 18 1013 68 12874 1.37 3 11:43 24.04.2020
4355 Clear 18 1013 68 12874 1.37 3 11:23 24.04.2020
4356 Clear 19 1013 64 12874 1.37 3 10:59 24.04.2020
4357 Clear 19 1013 64 12874 1.37 3 10:38 24.04.2020
4358 Clear 19 1013 64 12874 1.37 3 10:20 24.04.2020
4359 Clear 20 1013 60 14484 2.6 130 09:57 24.04.2020
4360 Clear 20 1013 60 14484 2.6 130 09:37 24.04.2020
4361 Clear 20 1013 60 14484 2.6 130 09:19 24.04.2020
4362 Clear 21 1012 56 14484 1.5 110 08:42 24.04.2020
4363 Clear 21 1012 53 12874 1.5 130 08:20 24.04.2020
4364 Clear 23 1012 53 12874 1.5 130 07:58 24.04.2020
4365 Clear 23 1012 53 12874 1.5 130 07:40 24.04.2020
4366 Clear 23 1012 53 12874 1.5 130 07:21 24.04.2020
4367 Clear 23 1011 50 14484 2.99 353 06:44 24.04.2020
4368 Clear 23 1011 53 14484 1.36 8 05:51 24.04.2020
4369 Clear 23 1011 53 14484 1.36 8 05:23 24.04.2020
4370 Clear 26 1011 42 12874 1.36 8 03:39 24.04.2020
4371 Clear 28 1011 32 14484 2.6 260 02:50 24.04.2020
4372 Clear 29 1011 32 14484 2.6 260 02:31 24.04.2020
4373 Clear 29 1012 27 14484 3.1 260 01:46 24.04.2020
4374 Clear 30 1012 35 12874 2.1 250 00:54 24.04.2020
4375 Clear 30 1012 35 12874 2.1 250 00:19 24.04.2020
4376 Clear 30 1012 35 12874 1.5 0 23:48 23.04.2020
4377 Clear 30 1012 35 12874 1.5 0 23:28 23.04.2020
4378 Clear 30 1013 27 12874 1.52 239 22:58 23.04.2020
4379 Clear 30 1013 27 12874 1.52 239 22:39 23.04.2020
4380 Clear 29 1013 27 12874 1.52 239 22:20 23.04.2020
4381 Clear 29 1014 33 12874 1.5 0 21:58 23.04.2020
4382 Clear 29 1014 33 12874 1.5 0 21:39 23.04.2020
4383 Clear 29 1014 33 12874 1.5 0 21:39 23.04.2020
4384 Clear 27 1015 37 11265 1.5 0 21:20 23.04.2020
4385 Clear 27 1015 37 11265 1.5 0 20:58 23.04.2020
4386 Clear 26 1015 37 11265 1.5 0 20:40 23.04.2020
4387 Clear 26 1015 41 11265 0.88 314 20:20 23.04.2020
4388 Clear 25 1015 41 11265 0.88 314 19:56 23.04.2020
4389 Clear 25 1015 41 11265 0.88 314 19:38 23.04.2020
4390 Clear 24 1015 41 11265 0.88 314 19:20 23.04.2020
4391 Haze 23 1016 53 9656 0.88 314 18:55 23.04.2020
4392 Haze 23 1016 53 9656 0.88 314 18:36 23.04.2020
4393 Haze 22 1016 64 9656 2.22 346 18:18 23.04.2020
4394 Haze 20 1016 64 9656 2.22 346 17:40 23.04.2020
4395 Haze 19 1015 68 9656 2.22 346 17:22 23.04.2020
4396 Haze 19 1015 68 9656 2.22 346 16:57 23.04.2020
4397 Haze 19 1015 68 9656 2.22 346 16:38 23.04.2020
4398 Clear 18 1015 72 11265 1.5 90 16:19 23.04.2020
4399 Clear 19 1015 72 11265 1.5 90 15:42 23.04.2020
4400 Clear 19 1015 72 11265 1.5 90 15:23 23.04.2020
4401 Clear 19 1015 68 11265 1.5 110 14:57 23.04.2020
4402 Clear 19 1015 68 11265 1.5 110 14:38 23.04.2020
4403 Clear 19 1015 68 11265 1.5 110 14:19 23.04.2020
4404 Clear 19 1015 68 11265 1.5 0 13:55 23.04.2020
4405 Clear 19 1015 68 11265 1.5 0 13:37 23.04.2020
4406 Clear 19 1015 68 11265 1.5 0 13:18 23.04.2020
4407 Haze 20 1016 68 8047 1.7 353 12:44 23.04.2020
4408 Haze 19 1016 68 8047 2.19 354 12:25 23.04.2020
4409 Haze 20 1016 64 9656 2.19 354 11:58 23.04.2020
4410 Haze 20 1016 64 9656 2.19 354 11:40 23.04.2020
4411 Haze 20 1016 64 9656 2.19 354 11:21 23.04.2020
4412 Haze 20 1017 60 9656 2.1 130 10:42 23.04.2020
4413 Haze 20 1017 60 9656 2.1 130 10:22 23.04.2020
4414 Clear 21 1017 53 11265 3.1 100 09:55 23.04.2020
4415 Clear 21 1017 53 11265 3.1 100 09:37 23.04.2020
4416 Clear 21 1016 29 11265 1.5 310 09:18 23.04.2020
4417 Clear 22 1016 29 11265 1.5 310 08:45 23.04.2020
4418 Clear 22 1016 29 11265 1.5 310 08:27 23.04.2020
4419 Clear 22 1016 24 11265 2.6 280 07:43 23.04.2020
4420 Clear 22 1017 46 16093 2.6 280 07:23 23.04.2020
4421 Clear 22 1017 63 16093 2.6 290 06:49 23.04.2020
4422 Clear 22 1016 24 11265 2.1 280 06:27 23.04.2020
4423 Haze 23 1016 36 9656 0.42 265 05:31 23.04.2020
4424 Haze 23 1016 36 9656 0.42 265 04:53 23.04.2020
4425 Haze 27 1016 39 9656 2.6 260 02:25 23.04.2020
4426 Haze 27 1017 44 9656 3.6 260 01:51 23.04.2020
4427 Haze 27 1017 44 9656 3.6 260 01:33 23.04.2020
4428 Haze 27 1017 41 9656 1.5 0 00:47 23.04.2020
4429 Haze 26 1017 41 9656 1.5 0 00:23 23.04.2020
4430 Haze 26 1018 41 9656 2.1 250 23:50 22.04.2020
4431 Haze 27 1019 39 9656 1.5 240 23:25 22.04.2020
4432 Haze 26 1019 39 9656 1.5 240 22:58 22.04.2020
4433 Haze 25 1019 39 9656 1.5 240 22:38 22.04.2020
4434 Haze 25 1019 39 9656 1.5 240 22:19 22.04.2020
4435 Haze 25 1019 41 9656 3.36 233 21:56 22.04.2020
4436 Haze 25 1019 41 9656 3.36 233 21:38 22.04.2020
4437 Haze 24 1019 36 9656 2.12 238 21:19 22.04.2020
4438 Haze 24 1019 36 9656 2.12 238 20:54 22.04.2020
4439 Haze 24 1019 36 9656 2.12 238 20:36 22.04.2020
4440 Haze 23 1020 40 9656 2.12 238 20:18 22.04.2020
4441 Haze 23 1020 40 9656 2.12 238 19:54 22.04.2020
4442 Haze 22 1020 40 9656 2.12 238 19:36 22.04.2020
4443 Haze 22 1020 40 9656 2.12 238 19:36 22.04.2020
4444 Haze 21 1020 49 9656 2.12 238 19:18 22.04.2020
4445 Haze 20 1020 49 9656 2.12 238 18:55 22.04.2020
4446 Haze 20 1020 49 9656 2.12 238 18:36 22.04.2020
4447 Haze 18 1019 59 8047 0.95 294 18:18 22.04.2020
4448 Haze 17 1019 59 8047 0.95 294 17:42 22.04.2020
4449 Haze 16 1019 72 6437 0.95 294 17:23 22.04.2020
4450 Haze 15 1019 72 6437 0.95 294 16:46 22.04.2020
4451 Haze 14 1019 72 6437 0.95 294 16:28 22.04.2020
4452 Clear 13 1019 82 16093 0.95 294 15:58 22.04.2020
4453 Haze 13 1019 72 9656 0.95 294 15:38 22.04.2020
4454 Clear 13 1019 82 16093 0.07 116 15:19 22.04.2020
4455 Haze 13 1019 77 8047 0.07 116 14:55 22.04.2020
4456 Haze 13 1019 77 8047 0.43 12 14:36 22.04.2020
4457 Clear 13 1019 82 16093 0.43 12 14:18 22.04.2020
4458 Clear 13 1020 82 16093 0.43 12 13:43 22.04.2020
4459 Haze 13 1019 72 9656 0.43 12 13:20 22.04.2020
4460 Haze 13 1019 72 9656 0.43 12 12:43 22.04.2020
4461 Haze 13 1019 72 9656 0.08 298 12:24 22.04.2020
4462 Clear 14 1020 77 16093 0.08 298 11:58 22.04.2020
4463 Clear 14 1020 77 16093 0.08 298 11:58 22.04.2020
4464 Clear 13 1020 77 16093 0.08 298 11:39 22.04.2020
4465 Clear 14 1020 77 16093 0.08 298 11:20 22.04.2020
4466 Clear 14 1020 82 16093 0.08 298 10:45 22.04.2020
4467 Clear 14 1020 82 16093 0.08 298 10:25 22.04.2020
4468 Clear 14 1020 77 16093 0.08 298 09:56 22.04.2020
4469 Clear 14 1020 77 16093 0.14 108 09:37 22.04.2020
4470 Clear 15 1020 77 16093 0.99 142 09:19 22.04.2020
4471 Haze 15 1019 68 9656 2.1 140 08:42 22.04.2020
4472 Haze 15 1019 68 9656 2.1 140 08:23 22.04.2020
4473 Haze 15 1019 68 9656 2.1 140 08:23 22.04.2020
4474 Haze 15 1019 63 9656 0.99 142 07:58 22.04.2020
4475 Haze 16 1019 63 9656 0.99 142 07:39 22.04.2020
4476 Haze 16 1019 63 9656 0.99 142 07:19 22.04.2020
4477 Clear 16 1019 67 16093 2.6 240 06:42 22.04.2020
4478 Clear 17 1018 59 11265 2.1 200 05:45 22.04.2020
4479 Clear 17 1018 48 16093 1.5 230 04:59 22.04.2020
4480 Haze 19 1018 49 9656 2.1 0 03:54 22.04.2020
4481 Haze 20 1018 49 9656 1.5 240 02:35 22.04.2020
4482 Clear 21 1018 43 11265 4.1 270 01:41 22.04.2020
4483 Clear 21 1018 43 11265 4.1 270 01:23 22.04.2020
4484 Clear 21 1018 38 11265 3.6 260 00:41 22.04.2020
4485 Clear 21 1018 38 11265 3.6 260 00:20 22.04.2020
4486 Clear 21 1019 49 16093 5.7 250 23:45 21.04.2020
4487 Clear 21 1019 49 16093 5.7 250 23:23 21.04.2020
4488 Haze 21 1019 46 9656 4.57 217 22:59 21.04.2020
4489 Haze 21 1019 46 9656 4.57 217 22:39 21.04.2020
4490 Haze 21 1019 46 9656 4.57 217 22:20 21.04.2020
4491 Haze 21 1019 46 9656 2.1 0 21:57 21.04.2020
4492 Haze 20 1019 46 9656 2.1 0 21:39 21.04.2020
4493 Haze 20 1019 46 9656 2.1 0 21:39 21.04.2020
4494 Haze 20 1019 46 9656 2.1 0 21:21 21.04.2020
4495 Haze 19 1019 52 9656 2.6 250 20:41 21.04.2020
4496 Haze 19 1019 52 9656 2.6 250 20:23 21.04.2020
4497 Clear 18 1019 59 16093 1.5 0 19:58 21.04.2020
4498 Clear 18 1019 59 16093 1.5 0 19:39 21.04.2020
4499 Haze 17 1019 59 8047 2.83 240 19:19 21.04.2020
4500 Haze 17 1019 59 8047 2.83 240 18:56 21.04.2020
4501 Clear 16 1019 72 16093 1.5 220 18:37 21.04.2020
4502 Haze 15 1019 67 8047 0.98 179 18:18 21.04.2020
4503 Haze 15 1019 67 8047 0.98 179 18:18 21.04.2020
4504 Haze 15 1019 67 8047 0.98 179 17:40 21.04.2020
4505 Haze 15 1019 67 8047 0.87 202 17:20 21.04.2020
4506 Haze 14 1018 76 6437 0.98 179 16:58 21.04.2020
4507 Haze 13 1018 76 6437 0.87 202 16:38 21.04.2020
4508 Haze 13 1018 76 6437 0.87 202 16:19 21.04.2020
4509 Haze 12 1018 82 9656 0.98 179 15:55 21.04.2020
4510 Haze 12 1018 82 9656 0.87 202 15:37 21.04.2020
4511 Haze 12 1018 82 9656 0.81 138 15:19 21.04.2020
4512 Haze 13 1018 82 9656 0.81 138 14:45 21.04.2020
4513 Haze 13 1018 82 9656 0.86 121 14:25 21.04.2020
4514 Haze 13 1018 77 9656 0.86 121 13:58 21.04.2020
4515 Haze 13 1018 77 9656 0.86 121 13:38 21.04.2020
4516 Haze 13 1019 77 9656 0.86 121 13:18 21.04.2020
4517 Haze 13 1019 77 9656 0.86 121 12:40 21.04.2020
4518 Haze 13 1018 77 9656 1.17 168 12:20 21.04.2020
4519 Haze 13 1018 77 9656 1.17 168 11:58 21.04.2020
4520 Haze 13 1018 77 9656 1.17 168 11:39 21.04.2020
4521 Haze 13 1018 77 9656 1.17 168 11:20 21.04.2020
4522 Clear 13 1019 76 16093 3.1 270 10:59 21.04.2020
4523 Clear 13 1019 76 16093 3.1 270 10:40 21.04.2020
4524 Clear 14 1019 76 16093 3.1 270 10:22 21.04.2020
4525 Clear 14 1019 76 16093 4.6 280 09:59 21.04.2020
4526 Clear 14 1019 76 16093 4.6 280 09:37 21.04.2020
4527 Haze 14 1019 72 9656 1.5 0 09:18 21.04.2020
4528 Haze 14 1019 72 9656 2.1 260 08:47 21.04.2020
4529 Haze 15 1019 72 9656 2.1 260 08:27 21.04.2020
4530 Haze 15 1019 72 9656 2.1 260 08:27 21.04.2020
4531 Haze 15 1019 67 9656 1.5 260 07:56 21.04.2020
4532 Haze 15 1019 67 9656 1.5 260 07:37 21.04.2020
4533 Clouds 15 1019 72 16093 3.6 280 07:19 21.04.2020
4534 Haze 15 1018 67 9656 2.6 260 06:43 21.04.2020
4535 Haze 15 1018 67 9656 2.6 260 06:18 21.04.2020
4536 Clouds 15 1018 63 11265 2.1 0 05:44 21.04.2020
4537 Haze 17 1018 59 9656 2.6 250 03:48 21.04.2020
4538 Haze 17 1018 59 9656 2.6 250 03:48 21.04.2020
4539 Haze 17 1017 56 9656 2.6 270 02:59 21.04.2020
4540 Haze 18 1018 59 9656 1.5 0 01:37 21.04.2020
4541 Haze 18 1018 56 9656 2.1 240 00:52 21.04.2020
4542 Haze 18 1018 56 9656 2.1 240 00:31 21.04.2020
4543 Haze 18 1018 52 9656 4.12 221 23:44 20.04.2020
4544 Clear 18 1019 55 16093 4.6 230 23:23 20.04.2020
4545 Haze 18 1018 56 9656 1.5 0 22:57 20.04.2020
4546 Haze 18 1018 56 9656 1.5 250 22:37 20.04.2020
4547 Clouds 18 1019 52 16093 4.6 260 22:19 20.04.2020
4548 Clouds 18 1019 52 16093 4.6 260 22:19 20.04.2020
4549 Clouds 18 1019 63 16093 3.6 220 21:55 20.04.2020
4550 Haze 18 1019 59 9656 4.16 222 21:37 20.04.2020
4551 Haze 17 1019 59 9656 2.25 179 21:19 20.04.2020
4552 Haze 17 1019 59 9656 1.5 0 20:56 20.04.2020
4553 Clouds 17 1020 63 16093 4.6 260 20:37 20.04.2020
4554 Haze 16 1019 63 8047 2.25 179 20:18 20.04.2020
4555 Haze 16 1019 63 8047 2.25 179 19:41 20.04.2020
4556 Haze 16 1019 63 8047 2.25 179 19:23 20.04.2020
4557 Haze 16 1019 67 8047 2.25 179 18:59 20.04.2020
4558 Haze 16 1019 67 8047 2.25 179 18:59 20.04.2020
4559 Haze 16 1018 67 8047 2.25 179 18:41 20.04.2020
4560 Haze 15 1018 67 8047 1.51 173 18:21 20.04.2020
4561 Clouds 15 1018 72 16093 3.1 250 17:55 20.04.2020
4562 Clouds 15 1018 72 16093 3.1 250 17:37 20.04.2020
4563 Haze 14 1018 67 8047 1.51 173 17:19 20.04.2020
4564 Haze 14 1018 67 8047 1.51 173 16:43 20.04.2020
4565 Clear 14 1018 76 16093 1.51 173 16:21 20.04.2020
4566 Clouds 13 1017 67 11265 1.51 173 15:58 20.04.2020
4567 Clouds 13 1017 67 11265 1.51 173 15:39 20.04.2020
4568 Clouds 13 1017 67 11265 0.58 202 15:21 20.04.2020
4569 Haze 13 1017 77 9656 0.58 202 14:55 20.04.2020
4570 Haze 13 1017 77 9656 0.58 202 14:55 20.04.2020
4571 Haze 12 1017 77 9656 0.58 202 14:36 20.04.2020
4572 Clouds 12 1017 76 16093 2.1 230 14:18 20.04.2020
4573 Haze 13 1017 72 9656 1.13 205 13:41 20.04.2020
4574 Haze 13 1017 72 9656 1.13 205 13:22 20.04.2020
4575 Clouds 13 1017 72 11265 1.13 205 12:58 20.04.2020
4576 Clouds 13 1017 72 11265 1.13 205 12:39 20.04.2020
4577 Clouds 13 1017 72 11265 1.98 251 12:18 20.04.2020
4578 Clouds 13 1017 72 11265 1.98 251 11:40 20.04.2020
4579 Clouds 13 1017 72 11265 1.98 251 11:21 20.04.2020
4580 Haze 13 1017 72 9656 1.98 251 10:57 20.04.2020
4581 Haze 14 1017 72 9656 1.98 251 10:38 20.04.2020
4582 Haze 13 1017 72 9656 1.98 251 10:19 20.04.2020
4583 Clouds 14 1017 72 11265 1.98 251 09:56 20.04.2020
4584 Clouds 13 1017 72 11265 2.01 242 09:37 20.04.2020
4585 Clouds 13 1017 72 11265 2.11 246 09:19 20.04.2020
4586 Haze 14 1017 67 9656 2.11 246 08:41 20.04.2020
4587 Clouds 14 1017 67 11265 2.11 246 08:22 20.04.2020
4588 Clouds 14 1017 67 11265 2.11 246 07:52 20.04.2020
4589 Clouds 14 1017 67 11265 2.11 246 07:29 20.04.2020
4590 Clouds 14 1017 59 11265 2.11 246 06:58 20.04.2020
4591 Clouds 14 1017 59 11265 2.11 246 06:36 20.04.2020
4592 Clouds 15 1016 63 11265 2.6 260 05:44 20.04.2020
4593 Haze 15 1016 55 9656 2.6 260 04:28 20.04.2020
4594 Clear 17 1016 48 11265 3.1 260 02:47 20.04.2020
4595 Clear 18 1016 45 11265 2.1 250 01:56 20.04.2020
4596 Clear 18 1016 45 11265 2.1 250 01:28 20.04.2020
4597 Clear 19 1016 43 11265 1.5 240 00:42 20.04.2020
4598 Clear 18 1017 55 16093 5.1 250 23:59 19.04.2020
4599 Clear 18 1017 55 16093 5.1 250 23:39 19.04.2020
4600 Clear 18 1017 55 16093 5.1 250 23:21 19.04.2020
4601 Clouds 18 1018 55 16093 5.1 270 22:55 19.04.2020
4602 Clouds 18 1018 55 16093 5.1 270 22:37 19.04.2020
4603 Clouds 18 1018 55 16093 5.1 270 22:19 19.04.2020
4604 Haze 18 1018 49 9656 2.1 250 21:42 19.04.2020
4605 Haze 17 1018 49 9656 2.1 250 21:23 19.04.2020
4606 Haze 17 1019 52 9656 2.1 0 20:56 19.04.2020
4607 Haze 16 1019 52 9656 2.1 0 20:38 19.04.2020
4608 Haze 16 1019 59 9656 2.1 250 20:20 19.04.2020
4609 Haze 16 1019 59 9656 2.1 250 19:56 19.04.2020
4610 Haze 16 1019 59 9656 2.1 250 19:38 19.04.2020
4611 Haze 15 1019 59 9656 1.5 250 19:19 19.04.2020
4612 Haze 15 1019 59 9656 1.5 250 18:55 19.04.2020
4613 Haze 15 1018 59 9656 2.84 224 18:36 19.04.2020
4614 Haze 15 1018 55 9656 2.14 230 18:18 19.04.2020
4615 Haze 15 1018 55 9656 2.14 230 17:55 19.04.2020
4616 Haze 14 1018 63 9656 2.14 230 17:37 19.04.2020
4617 Haze 14 1018 63 9656 2.14 230 17:19 19.04.2020
4618 Haze 13 1018 72 8047 2.14 230 16:40 19.04.2020
4619 Haze 13 1018 72 8047 2.14 230 16:21 19.04.2020
4620 Haze 13 1017 67 8047 2.14 230 15:58 19.04.2020
4621 Haze 13 1017 67 8047 2.14 230 15:58 19.04.2020
4622 Clouds 13 1017 67 11265 2.14 230 15:39 19.04.2020
4623 Clouds 13 1017 67 11265 1.77 236 15:19 19.04.2020
4624 Clouds 13 1017 63 11265 1.02 204 14:39 19.04.2020
4625 Clouds 13 1017 63 11265 1.02 204 14:21 19.04.2020
4626 Clouds 13 1017 63 11265 1.02 204 14:21 19.04.2020
4627 Clouds 13 1017 63 11265 1.02 204 13:57 19.04.2020
4628 Clouds 13 1017 63 11265 1.02 204 13:37 19.04.2020
4629 Clouds 13 1017 63 11265 1.02 204 13:18 19.04.2020
4630 Clouds 13 1017 63 11265 1.02 204 12:44 19.04.2020
4631 Clouds 13 1017 63 11265 1.02 204 12:44 19.04.2020
4632 Clouds 13 1017 63 11265 2.05 265 12:24 19.04.2020
4633 Clouds 13 1018 63 11265 1.5 250 11:55 19.04.2020
4634 Clouds 14 1018 63 11265 1.5 250 11:37 19.04.2020
4635 Clouds 14 1018 63 11265 1.5 250 11:18 19.04.2020
4636 Clouds 14 1019 63 11265 2.05 265 10:41 19.04.2020
4637 Clouds 14 1019 63 11265 2.05 265 10:21 19.04.2020
4638 Clouds 14 1019 63 11265 1.5 260 09:59 19.04.2020
4639 Clouds 14 1019 63 11265 1.5 260 09:59 19.04.2020
4640 Clouds 14 1019 63 11265 1.5 260 09:41 19.04.2020
4641 Clouds 14 1019 63 11265 1.5 260 09:20 19.04.2020
4642 Clouds 14 1019 63 11265 2.52 238 08:40 19.04.2020
4643 Clouds 14 1019 63 11265 2.52 238 08:21 19.04.2020
4644 Clouds 14 1018 67 11265 2.36 232 07:58 19.04.2020
4645 Clouds 14 1018 67 11265 2.52 238 07:39 19.04.2020
4646 Clouds 14 1018 67 11265 2.36 232 07:21 19.04.2020
4647 Clouds 14 1018 67 11265 1.5 260 06:27 19.04.2020
4648 Clouds 14 1017 59 11265 2.1 260 05:43 19.04.2020
4649 Haze 15 1017 52 9656 3.41 241 04:22 19.04.2020
4650 Haze 16 1017 55 9656 3.6 260 02:55 19.04.2020
4651 Clouds 16 1017 48 11265 3.1 250 02:20 19.04.2020
4652 Clouds 16 1017 48 11265 3.1 250 01:37 19.04.2020
4653 Clouds 17 1017 45 11265 4.98 238 00:42 19.04.2020
4654 Clouds 17 1017 45 11265 5.43 234 00:22 19.04.2020
4655 Clouds 17 1017 49 11265 2.6 260 23:47 18.04.2020
4656 Haze 17 1018 49 9656 1.5 0 23:22 18.04.2020
4657 Haze 17 1018 49 9656 1.5 0 22:59 18.04.2020
4658 Haze 17 1018 49 9656 1.5 0 22:40 18.04.2020
4659 Haze 17 1018 49 9656 1.5 0 22:21 18.04.2020
4660 Haze 17 1018 59 9656 1.5 240 21:56 18.04.2020
4661 Haze 17 1018 59 9656 1.5 240 21:37 18.04.2020
4662 Haze 17 1018 59 9656 2.6 0 21:19 18.04.2020
4663 Haze 17 1018 59 9656 3.99 234 20:42 18.04.2020
4664 Haze 17 1018 59 9656 3.99 234 20:22 18.04.2020
4665 Haze 17 1018 67 9656 3.99 234 19:59 18.04.2020
4666 Haze 17 1018 67 9656 3.99 234 19:38 18.04.2020
4667 Haze 16 1018 67 9656 3.99 234 19:19 18.04.2020
4668 Haze 16 1018 67 9656 3.99 234 18:38 18.04.2020
4669 Haze 15 1018 67 9656 1.47 251 18:20 18.04.2020
4670 Haze 15 1018 67 9656 1.47 251 17:55 18.04.2020
4671 Haze 15 1017 67 9656 1.47 251 17:36 18.04.2020
4672 Haze 15 1017 67 9656 1.47 251 17:18 18.04.2020
4673 Haze 14 1017 67 9656 1.47 251 16:42 18.04.2020
4674 Haze 14 1017 67 9656 1.47 251 16:22 18.04.2020
4675 Clouds 14 1016 67 11265 1.47 251 15:55 18.04.2020
4676 Clouds 14 1016 67 11265 1.47 251 15:37 18.04.2020
4677 Clouds 14 1016 67 11265 0.91 216 15:18 18.04.2020
4678 Clouds 14 1016 67 11265 0.76 239 14:41 18.04.2020
4679 Clouds 14 1016 67 11265 0.76 239 14:19 18.04.2020
4680 Clouds 14 1016 67 11265 0.76 239 13:43 18.04.2020
4681 Clouds 14 1016 67 11265 0.76 239 13:20 18.04.2020
4682 Clouds 14 1017 67 11265 0.76 239 12:43 18.04.2020
4683 Clouds 14 1017 67 11265 1.73 190 12:25 18.04.2020
4684 Clouds 14 1017 67 11265 1.73 190 11:58 18.04.2020
4685 Clouds 14 1017 67 11265 1.73 190 11:40 18.04.2020
4686 Clouds 14 1017 67 11265 1.73 190 11:21 18.04.2020
4687 Clouds 14 1017 67 11265 1.73 190 11:21 18.04.2020
4688 Clouds 14 1017 67 11265 1.73 190 11:21 18.04.2020
4689 Clouds 14 1017 67 11265 1.73 190 10:54 18.04.2020
4690 Clouds 14 1017 67 11265 1.73 190 10:36 18.04.2020
4691 Clouds 14 1017 67 11265 1.73 190 10:18 18.04.2020
4692 Clouds 14 1017 67 11265 1.93 229 09:40 18.04.2020
4693 Clouds 14 1017 67 11265 2.23 225 09:20 18.04.2020
4694 Clouds 14 1017 63 11265 2.23 225 08:43 18.04.2020
4695 Clouds 14 1017 63 11265 2.23 225 08:23 18.04.2020
4696 Clouds 14 1017 67 12874 2.23 225 07:49 18.04.2020
4697 Clouds 14 1017 67 12874 2.23 225 07:30 18.04.2020
4698 Clouds 14 1016 63 12874 2.1 260 06:50 18.04.2020
4699 Clouds 14 1016 63 16093 2.6 240 05:50 18.04.2020
4700 Clear 15 1014 55 11265 3.8 218 04:57 18.04.2020
4701 Clear 15 1014 55 11265 3.8 218 04:39 18.04.2020
4702 Clear 16 1015 59 16093 3.1 270 04:18 18.04.2020
4703 Clouds 17 1014 52 11265 2.1 0 02:44 18.04.2020
4704 Clouds 17 1014 52 11265 2.1 0 02:21 18.04.2020
4705 Clouds 17 1014 52 11265 2.1 0 02:21 18.04.2020
4706 Clouds 17 1014 52 11265 2.1 0 02:21 18.04.2020
4707 Clouds 17 1014 52 11265 2.1 0 02:21 18.04.2020
4708 Clouds 18 1015 52 11265 2.1 250 01:48 18.04.2020
4709 Clouds 18 1015 52 11265 2.1 250 01:27 18.04.2020
4710 Clouds 18 1015 55 11265 2.6 0 00:38 18.04.2020
4711 Clouds 17 1015 55 11265 2.6 0 00:20 18.04.2020
4712 Clouds 17 1015 52 11265 2.1 0 23:41 17.04.2020
4713 Clouds 17 1015 52 11265 2.1 0 23:20 17.04.2020
4714 Haze 18 1015 45 9656 4.05 201 23:00 17.04.2020
4715 Haze 18 1015 45 9656 4.05 201 22:59 17.04.2020
4716 Haze 18 1015 45 9656 4.05 201 22:40 17.04.2020
4717 Haze 18 1015 45 9656 4.05 201 22:21 17.04.2020
4718 Haze 18 1016 52 9656 1.5 0 21:59 17.04.2020
4719 Haze 17 1016 52 9656 1.5 0 21:40 17.04.2020
4720 Haze 17 1016 52 9656 1.5 0 21:20 17.04.2020
4721 Haze 16 1016 55 9656 2.68 185 20:56 17.04.2020
4722 Haze 16 1016 55 9656 2.68 185 20:37 17.04.2020
4723 Haze 16 1016 55 9656 2.68 185 20:18 17.04.2020
4724 Haze 16 1016 55 9656 2.68 185 19:55 17.04.2020
4725 Haze 15 1015 59 9656 2.68 185 19:37 17.04.2020
4726 Haze 15 1015 59 9656 2.68 185 19:18 17.04.2020
4727 Haze 15 1015 63 8047 2.1 0 18:40 17.04.2020
4728 Haze 14 1015 63 8047 2.1 0 18:21 17.04.2020
4729 Haze 13 1014 67 8047 1.76 183 17:38 17.04.2020
4730 Haze 13 1014 67 8047 1.76 183 17:20 17.04.2020
4731 Haze 13 1014 67 8047 1.76 183 16:59 17.04.2020
4732 Haze 13 1014 67 6437 2.1 0 16:41 17.04.2020
4733 Clouds 13 1014 76 16093 2.6 100 16:22 17.04.2020
4734 Clear 12 1014 76 16093 1.76 183 15:40 17.04.2020
4735 Clear 13 1014 76 16093 1.99 196 15:22 17.04.2020
4736 Clouds 13 1013 72 16093 2.6 50 14:55 17.04.2020
4737 Clouds 13 1014 76 16093 1.5 220 14:37 17.04.2020
4738 Clouds 13 1014 76 16093 1.5 220 14:19 17.04.2020
4739 Haze 13 1013 72 9656 2.22 198 13:40 17.04.2020
4740 Clouds 12 1014 72 16093 2.22 198 13:20 17.04.2020
4741 Clouds 12 1014 76 16093 2.22 198 12:57 17.04.2020
4742 Clouds 12 1014 76 16093 2.22 198 12:38 17.04.2020
4743 Clouds 12 1014 76 16093 1.72 192 12:20 17.04.2020
4744 Clouds 13 1014 76 16093 1.72 192 11:40 17.04.2020
4745 Haze 13 1014 72 9656 1.72 192 11:19 17.04.2020
4746 Haze 13 1014 72 9656 1.72 192 11:19 17.04.2020
4747 Haze 13 1014 72 9656 1.72 192 10:43 17.04.2020
4748 Haze 13 1014 72 9656 1.72 192 10:22 17.04.2020
4749 Haze 13 1014 72 9656 1.72 192 09:57 17.04.2020
4750 Haze 13 1014 72 9656 1.72 192 09:39 17.04.2020
4751 Clouds 13 1014 76 16093 1.5 250 09:19 17.04.2020
4752 Clouds 13 1014 85 0 2.19 201 08:48 17.04.2020
4753 Clear 13 1014 76 16093 1.5 250 08:28 17.04.2020
4754 Clear 13 1014 76 16093 1.5 250 07:58 17.04.2020
4755 Clear 13 1014 76 16093 1.5 250 07:40 17.04.2020
4756 Haze 13 1014 67 9656 1.5 260 07:19 17.04.2020
4757 Clear 14 1014 67 11265 2.19 201 06:45 17.04.2020
4758 Clear 14 1014 67 11265 3.29 212 06:20 17.04.2020
4759 Haze 18 1013 63 8047 3.29 212 03:36 17.04.2020
4760 Haze 18 1013 63 8047 4.53 212 03:18 17.04.2020
4761 Haze 20 1013 53 9656 2.6 250 01:55 17.04.2020
4762 Haze 21 1013 53 9656 2.6 250 01:23 17.04.2020
4763 Haze 22 1013 49 9656 2.6 0 00:28 17.04.2020
4764 Clear 22 1013 31 11265 2.1 0 23:56 16.04.2020
4765 Clear 22 1013 31 11265 2.1 0 23:38 16.04.2020
4766 Clear 22 1013 31 11265 2.1 0 23:19 16.04.2020
4767 Clear 22 1014 36 11265 4.25 213 22:55 16.04.2020
4768 Clear 22 1014 36 11265 4.25 213 22:36 16.04.2020
4769 Clear 22 1014 36 11265 4.25 213 22:18 16.04.2020
4770 Haze 22 1014 46 9656 4.25 213 21:41 16.04.2020
4771 Haze 21 1014 46 9656 3.01 180 21:20 16.04.2020
4772 Haze 21 1014 40 9656 3.01 180 20:57 16.04.2020
4773 Haze 21 1014 40 9656 3.01 180 20:38 16.04.2020
4774 Haze 20 1014 40 9656 3.01 180 20:19 16.04.2020
4775 Haze 20 1014 49 9656 3.01 180 19:54 16.04.2020
4776 Haze 19 1014 49 9656 3.01 180 19:36 16.04.2020
4777 Haze 19 1014 49 9656 3.01 180 19:18 16.04.2020
4778 Haze 18 1014 52 8047 1.5 0 18:41 16.04.2020
4779 Haze 17 1014 52 8047 1.5 0 18:21 16.04.2020
4780 Haze 16 1014 51 9656 1.52 177 17:57 16.04.2020
4781 Haze 16 1014 51 9656 1.52 177 17:38 16.04.2020
4782 Haze 15 1014 51 9656 1.52 177 17:18 16.04.2020
4783 Haze 14 1014 63 9656 1.5 100 16:42 16.04.2020
4784 Mist 12 1014 87 8047 1.52 177 16:23 16.04.2020
4785 Haze 11 1013 72 9656 1.5 80 15:45 16.04.2020
4786 Haze 12 1013 72 9656 1.5 80 15:20 16.04.2020
4787 Mist 12 1014 93 4828 1.53 177 14:59 16.04.2020
4788 Mist 12 1014 93 4023 1.5 173 14:40 16.04.2020
4789 Mist 12 1014 93 4023 1.5 173 14:21 16.04.2020
4790 Clear 12 1014 82 16093 1.5 173 13:57 16.04.2020
4791 Haze 12 1014 72 9656 1.5 173 13:38 16.04.2020
4792 Haze 13 1014 72 9656 1.5 173 13:20 16.04.2020
4793 Haze 13 1014 72 9656 1.5 173 12:57 16.04.2020
4794 Haze 13 1014 72 9656 1.5 173 12:38 16.04.2020
4795 Haze 13 1014 72 9656 1.73 169 12:19 16.04.2020
4796 Haze 13 1014 72 9656 1.73 169 11:56 16.04.2020
4797 Haze 13 1014 72 9656 1.73 169 11:37 16.04.2020
4798 Haze 13 1014 72 9656 1.73 169 11:18 16.04.2020
4799 Haze 13 1014 72 9656 1.73 169 11:18 16.04.2020
4800 Clear 13 1014 72 11265 1.73 169 10:54 16.04.2020
4801 Clear 13 1014 72 11265 1.73 169 10:36 16.04.2020
4802 Clear 14 1014 72 11265 1.73 169 10:18 16.04.2020
4803 Clear 14 1014 67 11265 1.73 169 09:38 16.04.2020
4804 Clear 14 1014 67 11265 1.73 169 09:38 16.04.2020
4805 Clear 14 1014 67 11265 1.66 222 09:20 16.04.2020
4806 Clear 15 1014 63 11265 1.67 209 08:45 16.04.2020
4807 Clear 15 1014 63 11265 1.66 222 08:26 16.04.2020
4808 Clear 15 1015 59 11265 1.66 222 07:58 16.04.2020
4809 Clear 16 1015 59 11265 1.67 209 07:39 16.04.2020
4810 Clear 16 1015 59 11265 1.66 222 07:20 16.04.2020
4811 Clear 17 1014 45 12874 1.67 209 06:41 16.04.2020
4812 Clear 17 1014 45 12874 3.56 249 06:22 16.04.2020
4813 Clear 19 1014 35 11265 2.6 250 04:52 16.04.2020
4814 Clear 23 1014 31 12874 2.6 260 03:25 16.04.2020
4815 Clear 23 1014 29 12874 2.6 0 02:59 16.04.2020
4816 Clear 24 1014 29 12874 2.6 0 02:36 16.04.2020
4817 Clear 25 1015 22 12874 3.6 250 01:28 16.04.2020
4818 Clear 25 1016 21 12874 2.6 250 00:54 16.04.2020
4819 Clear 25 1016 21 12874 2.6 250 00:21 16.04.2020
4820 Clear 25 1016 21 12874 2.6 250 00:21 16.04.2020
4821 Clear 26 1016 21 12874 1.5 250 23:54 15.04.2020
4822 Clear 26 1016 21 12874 1.5 250 23:36 15.04.2020
4823 Clear 26 1016 21 12874 1.5 250 23:18 15.04.2020
4824 Clear 26 1016 21 12874 1.5 250 23:18 15.04.2020
4825 Clear 25 1016 24 11265 1.5 250 22:38 15.04.2020
4826 Clear 25 1016 24 11265 1.5 250 22:20 15.04.2020
4827 Clear 25 1017 15 12874 3.99 230 21:56 15.04.2020
4828 Clear 25 1017 15 12874 3.99 230 21:37 15.04.2020
4829 Clear 24 1017 15 12874 0.86 170 21:19 15.04.2020
4830 Clear 24 1018 18 12874 0.86 170 20:54 15.04.2020
4831 Clear 24 1018 18 12874 0.86 170 20:54 15.04.2020
4832 Clear 24 1018 18 12874 0.86 170 20:36 15.04.2020
4833 Clear 23 1018 21 16093 0.86 170 20:18 15.04.2020
4834 Clear 23 1018 18 12874 0.86 170 19:41 15.04.2020
4835 Clear 22 1018 18 12874 0.86 170 19:20 15.04.2020
4836 Clear 20 1018 26 12874 0.86 170 18:42 15.04.2020
4837 Clear 19 1018 26 12874 1.5 23 18:23 15.04.2020
4838 Clear 18 1018 36 12874 1.5 23 17:58 15.04.2020
4839 Clear 17 1018 36 12874 1.5 23 17:39 15.04.2020
4840 Clear 16 1018 36 12874 1.5 23 17:20 15.04.2020
4841 Clear 15 1018 47 11265 1.5 23 16:57 15.04.2020
4842 Clear 13 1018 47 11265 1.5 23 16:38 15.04.2020
4843 Clear 13 1018 47 11265 1.5 23 16:19 15.04.2020
4844 Clear 13 1018 47 11265 1.5 23 16:19 15.04.2020
4845 Clear 12 1018 44 14484 1.5 23 15:57 15.04.2020
4846 Clear 12 1018 44 14484 1.5 23 15:39 15.04.2020
4847 Clear 12 1018 44 14484 1.88 10 15:19 15.04.2020
4848 Clear 12 1017 36 14484 1.88 10 14:57 15.04.2020
4849 Clear 13 1017 36 14484 1.78 12 14:39 15.04.2020
4850 Clear 13 1017 36 14484 1.78 12 14:21 15.04.2020
4851 Clear 13 1017 36 14484 1.78 12 14:21 15.04.2020
4852 Clear 13 1018 38 14484 1.78 12 13:58 15.04.2020
4853 Clear 13 1018 38 14484 1.78 12 13:38 15.04.2020
4854 Clear 13 1018 38 14484 1.78 12 13:20 15.04.2020
4855 Clear 14 1018 39 16093 1.78 12 12:54 15.04.2020
4856 Clear 14 1018 39 16093 1.78 12 12:36 15.04.2020
4857 Clear 14 1018 39 16093 2.08 3 12:18 15.04.2020
4858 Clear 14 1019 59 14484 2.08 3 11:42 15.04.2020
4859 Clear 14 1019 59 14484 2.08 3 11:24 15.04.2020
4860 Clear 15 1019 72 14484 2.08 3 10:58 15.04.2020
4861 Clear 15 1019 72 14484 2.08 3 10:36 15.04.2020
4862 Clear 15 1019 72 14484 2.08 3 10:18 15.04.2020
4863 Clear 15 1019 77 12874 2.08 3 09:55 15.04.2020
4864 Clear 15 1019 77 12874 2.08 3 09:37 15.04.2020
4865 Clear 16 1019 77 12874 1.73 17 09:18 15.04.2020
4866 Clear 16 1019 72 12874 1.73 17 08:41 15.04.2020
4867 Clear 16 1019 72 12874 1.73 17 08:20 15.04.2020
4868 Clear 17 1019 72 12874 1.73 17 07:55 15.04.2020
4869 Clear 17 1019 72 12874 1.73 17 07:34 15.04.2020
4870 Clear 17 1018 72 14484 1.73 17 06:37 15.04.2020
4871 Clear 18 1018 72 14484 1.37 286 05:57 15.04.2020
4872 Clear 19 1018 72 14484 1.37 286 05:21 15.04.2020
4873 Clear 20 1017 56 14484 1.37 286 04:45 15.04.2020
4874 Clear 22 1017 49 14484 2.6 250 03:51 15.04.2020
4875 Clear 22 1017 49 14484 2.6 250 03:20 15.04.2020
4876 Clear 23 1018 53 14484 2.1 260 02:39 15.04.2020
4877 Clear 23 1018 46 14484 2.6 0 01:48 15.04.2020
4878 Clear 23 1018 46 14484 2.6 0 01:22 15.04.2020
4879 Clear 23 1018 46 14484 3.6 270 00:37 15.04.2020
4880 Clear 23 1018 46 14484 3.6 270 00:19 15.04.2020
4881 Clear 23 1020 13 16093 6.2 340 23:55 14.04.2020
4882 Clear 23 1020 52 16093 4.6 260 23:36 14.04.2020
4883 Clear 23 1020 52 16093 4.6 260 23:18 14.04.2020
4884 Clear 22 1020 63 16093 4.6 250 22:56 14.04.2020
4885 Clear 22 1020 63 16093 4.6 250 22:37 14.04.2020
4886 Clear 21 1020 63 16093 4.6 250 22:19 14.04.2020
4887 Clear 21 1020 63 16093 4.1 250 21:55 14.04.2020
4888 Clear 21 1021 63 16093 3.1 310 21:37 14.04.2020
4889 Clear 21 1021 63 16093 3.1 310 21:37 14.04.2020
4890 Clear 20 1021 63 16093 3.1 310 21:18 14.04.2020
4891 Clear 19 1021 63 16093 2.6 0 20:41 14.04.2020
4892 Clear 19 1021 59 12874 0.68 202 20:23 14.04.2020
4893 Clear 18 1021 59 12874 0.68 202 19:59 14.04.2020
4894 Clear 18 1021 59 12874 0.68 202 19:40 14.04.2020
4895 Clear 17 1021 59 12874 0.68 242 19:21 14.04.2020
4896 Clear 16 1021 67 11265 0.68 242 18:57 14.04.2020
4897 Clear 16 1021 67 11265 0.68 242 18:39 14.04.2020
4898 Clear 15 1021 67 11265 0.25 142 18:20 14.04.2020
4899 Clear 14 1021 72 11265 0.25 142 17:56 14.04.2020
4900 Clear 14 1021 72 11265 0.25 142 17:37 14.04.2020
4901 Clear 13 1021 72 11265 0.25 142 17:19 14.04.2020
4902 Clear 12 1021 81 11265 0.4 116 16:54 14.04.2020
4903 Clear 11 1021 81 11265 0.25 142 16:36 14.04.2020
4904 Clear 10 1021 81 11265 0.25 142 16:18 14.04.2020
4905 Clear 10 1020 81 12874 0.25 142 15:41 14.04.2020
4906 Clear 10 1020 81 12874 1.22 259 15:23 14.04.2020
4907 Clear 10 1021 81 14484 1.06 244 14:59 14.04.2020
4908 Clear 10 1021 81 14484 1.06 244 14:40 14.04.2020
4909 Clear 10 1021 81 14484 1.06 244 14:22 14.04.2020
4910 Clouds 11 1020 81 12874 1.06 244 13:57 14.04.2020
4911 Clouds 10 1020 81 12874 1.06 244 13:39 14.04.2020
4912 Clouds 11 1020 81 12874 1.06 244 13:21 14.04.2020
4913 Clear 10 1020 76 12874 1.06 244 12:42 14.04.2020
4914 Clear 11 1020 76 12874 1.21 246 12:21 14.04.2020
4915 Clear 11 1020 82 12874 1.21 246 11:57 14.04.2020
4916 Clear 11 1020 82 12874 1.21 246 11:38 14.04.2020
4917 Clear 11 1020 82 12874 1.21 246 11:19 14.04.2020
4918 Clear 11 1021 82 14484 1.21 246 10:46 14.04.2020
4919 Clear 12 1021 82 14484 1.21 246 10:27 14.04.2020
4920 Clear 12 1021 82 14484 1.21 246 09:58 14.04.2020
4921 Clear 12 1021 82 14484 1.21 246 09:40 14.04.2020
4922 Clear 12 1021 82 14484 1.91 211 09:21 14.04.2020
4923 Clear 12 1021 82 16093 1.91 211 08:42 14.04.2020
4924 Clear 13 1021 82 16093 1.91 211 08:24 14.04.2020
4925 Clear 13 1021 77 16093 1.91 211 07:56 14.04.2020
4926 Clear 13 1021 77 16093 1.91 211 07:32 14.04.2020
4927 Clear 15 1020 72 0 1.91 211 06:57 14.04.2020
4928 Clear 15 1020 72 0 1.91 211 06:33 14.04.2020
4929 Clear 15 1019 59 16093 2.99 238 04:49 14.04.2020
4930 Clouds 16 1019 55 16093 2.1 0 03:22 14.04.2020
4931 Clouds 16 1019 55 16093 1.5 250 02:18 14.04.2020
4932 Clouds 17 1020 55 16093 1.5 250 01:25 14.04.2020
4933 Clouds 17 1020 55 16093 4.72 239 00:49 14.04.2020
4934 Clouds 17 1020 55 16093 4.3 229 00:23 14.04.2020
4935 Clouds 17 1020 55 16093 4.6 270 23:55 13.04.2020
4936 Clouds 17 1020 55 16093 4.6 270 23:36 13.04.2020
4937 Clouds 17 1020 55 16093 4.6 270 23:18 13.04.2020
4938 Clouds 17 1020 59 16093 3.1 270 22:42 13.04.2020
4939 Clouds 17 1020 59 16093 3.1 270 22:22 13.04.2020
4940 Clouds 17 1020 59 16093 3.1 250 21:57 13.04.2020
4941 Clouds 17 1020 59 16093 3.1 250 21:39 13.04.2020
4942 Clouds 16 1020 63 16093 2.29 232 21:20 13.04.2020
4943 Clouds 16 1020 55 16093 2.29 232 20:56 13.04.2020
4944 Clouds 16 1020 55 16093 2.29 232 20:56 13.04.2020
4945 Clouds 16 1020 55 16093 2.29 232 20:38 13.04.2020
4946 Clouds 16 1020 55 16093 2.29 232 20:19 13.04.2020
4947 Clouds 16 1020 67 16093 2.29 232 19:57 13.04.2020
4948 Clouds 16 1020 67 16093 2.29 232 19:36 13.04.2020
4949 Clouds 15 1020 67 16093 2.29 232 19:18 13.04.2020
4950 Clouds 15 1020 67 14484 2.29 232 18:54 13.04.2020
4951 Clouds 15 1020 72 14484 2.29 232 18:36 13.04.2020
4952 Clouds 14 1020 72 14484 0.11 311 18:18 13.04.2020
4953 Clouds 14 1020 77 14484 1.5 90 17:55 13.04.2020
4954 Clouds 13 1020 77 14484 1.5 90 17:36 13.04.2020
4955 Clouds 13 1020 77 14484 1.5 90 17:18 13.04.2020
4956 Clouds 13 1019 82 12874 0.11 311 16:55 13.04.2020
4957 Clouds 13 1019 82 12874 0.11 311 16:55 13.04.2020
4958 Clouds 13 1019 82 12874 0.11 311 16:55 13.04.2020
4959 Clouds 12 1019 82 12874 0.11 311 16:36 13.04.2020
4960 Clouds 12 1019 82 12874 0.11 311 16:18 13.04.2020
4961 Rain 12 1019 77 16093 1.5 50 15:45 13.04.2020
4962 Rain 12 1019 82 14484 1.5 40 15:27 13.04.2020
4963 Clouds 12 1019 77 16093 1.5 100 14:57 13.04.2020
4964 Clouds 12 1019 77 16093 1.5 100 14:39 13.04.2020
4965 Clouds 12 1019 77 16093 1.5 100 14:21 13.04.2020
4966 Rain 12 1019 87 12874 1.24 239 13:56 13.04.2020
4967 Clouds 12 1019 87 12874 1.24 239 13:38 13.04.2020
4968 Rain 12 1019 87 12874 1.24 239 13:19 13.04.2020
4969 Clouds 12 1019 87 11265 1.24 239 12:58 13.04.2020
4970 Clouds 12 1019 87 11265 1.52 228 12:39 13.04.2020
4971 Clouds 12 1019 87 11265 1.42 233 12:19 13.04.2020
4972 Clouds 13 1019 87 11265 1.42 233 12:19 13.04.2020
4973 Clouds 13 1019 87 11265 1.42 233 12:19 13.04.2020
4974 Rain 12 1019 77 14484 3.6 170 11:57 13.04.2020
4975 Rain 12 1019 77 14484 3.6 170 11:38 13.04.2020
4976 Rain 13 1019 77 14484 3.6 170 11:18 13.04.2020
4977 Rain 13 1019 87 12874 1.42 233 10:54 13.04.2020
4978 Rain 13 1019 87 12874 1.57 217 10:36 13.04.2020
4979 Rain 13 1019 87 12874 1.42 233 10:18 13.04.2020
4980 Rain 13 1019 82 8047 1.57 217 09:43 13.04.2020
4981 Rain 13 1019 82 8047 2.45 207 09:24 13.04.2020
4982 Rain 13 1019 82 6437 2.45 207 08:45 13.04.2020
4983 Rain 13 1019 87 6437 2.45 207 08:26 13.04.2020
4984 Rain 13 1019 82 4828 2.45 207 07:45 13.04.2020
4985 Rain 13 1019 82 4828 2.45 207 07:26 13.04.2020
4986 Rain 13 1018 72 16093 1.5 260 06:56 13.04.2020
4987 Rain 13 1018 72 16093 1.5 260 06:37 13.04.2020
4988 Clouds 13 1017 72 16093 1.5 270 05:51 13.04.2020
4989 Clouds 13 1017 72 16093 1.5 270 05:19 13.04.2020
4990 Rain 14 1017 72 16093 2.1 270 04:31 13.04.2020
4991 Rain 14 1017 72 16093 1.5 250 03:55 13.04.2020
4992 Rain 14 1017 72 16093 2.59 193 03:34 13.04.2020
4993 Rain 15 1018 67 16093 2.52 201 02:41 13.04.2020
4994 Clouds 15 1017 67 16093 2.49 202 01:47 13.04.2020
4995 Clouds 15 1018 67 16093 2.49 202 01:28 13.04.2020
4996 Clouds 15 1018 67 16093 2.49 202 00:50 13.04.2020
4997 Clouds 15 1018 67 16093 2.89 194 00:25 13.04.2020
4998 Clouds 15 1019 67 16093 2.89 194 23:57 12.04.2020
4999 Clouds 15 1019 67 16093 2.89 194 23:39 12.04.2020
5000 Clouds 15 1019 67 16093 2.89 194 23:20 12.04.2020
5001 Clouds 15 1018 67 14484 1.5 270 22:55 12.04.2020
5002 Clouds 15 1018 67 14484 1.5 270 22:36 12.04.2020
5003 Clouds 15 1018 67 14484 1.5 270 22:18 12.04.2020
5004 Clouds 14 1019 63 16093 2.89 194 21:38 12.04.2020
5005 Clouds 14 1019 63 16093 2.8 175 21:20 12.04.2020
5006 Clouds 14 1018 63 16093 2.8 175 20:54 12.04.2020
5007 Clouds 14 1018 63 16093 2.8 175 20:36 12.04.2020
5008 Clouds 14 1018 63 16093 2.8 175 20:18 12.04.2020
5009 Clouds 14 1018 67 16093 2.6 150 19:41 12.04.2020
5010 Clouds 14 1018 72 16093 2.6 160 19:20 12.04.2020
5011 Clouds 14 1018 72 16093 2.6 160 19:20 12.04.2020
5012 Clouds 14 1018 72 16093 2.8 175 18:59 12.04.2020
5013 Clouds 14 1018 72 16093 2.8 175 18:40 12.04.2020
5014 Clouds 14 1018 72 14484 2.59 163 18:19 12.04.2020
5015 Clouds 14 1018 76 16093 1.5 130 17:55 12.04.2020
5016 Clouds 13 1018 76 16093 1.5 130 17:37 12.04.2020
5017 Clouds 13 1018 76 16093 1.5 130 17:37 12.04.2020
5018 Clouds 13 1017 76 16093 2.59 163 17:18 12.04.2020
5019 Clouds 13 1017 76 16093 2.59 163 16:54 12.04.2020
5020 Clouds 13 1017 76 16093 2.59 163 16:36 12.04.2020
5021 -273 0 0 0 0 0 16:18 12.04.2020
5022 Clouds 13 1016 77 16093 2.59 163 15:41 12.04.2020
5023 Clouds 13 1016 77 16093 2.23 135 15:21 12.04.2020
5024 Clouds 13 1016 72 16093 2.23 135 14:39 12.04.2020
5025 Clouds 13 1017 82 16093 2.56 124 14:21 12.04.2020
5026 Clouds 13 1017 67 16093 2.56 124 13:58 12.04.2020
5027 Clouds 13 1017 67 16093 2.56 124 13:37 12.04.2020
5028 Clouds 13 1017 82 16093 2.1 260 13:19 12.04.2020
5029 Clouds 13 1016 63 16093 2.56 124 12:46 12.04.2020
5030 Clouds 13 1017 82 16093 2.1 230 12:22 12.04.2020
5031 Clouds 13 1017 76 16093 1.5 0 11:59 12.04.2020
5032 Clouds 13 1017 76 16093 1.5 0 11:38 12.04.2020
5033 Clouds 13 1017 76 16093 1.5 0 11:19 12.04.2020
5034 Clouds 13 1017 77 16093 2.19 153 10:56 12.04.2020
5035 Clouds 13 1017 77 16093 2.19 153 10:38 12.04.2020
5036 Clouds 13 1017 72 16093 2.19 153 10:20 12.04.2020
5037 Clouds 13 1017 72 16093 2.19 153 09:58 12.04.2020
5038 Clouds 13 1017 72 16093 2.19 153 09:37 12.04.2020
5039 Clouds 13 1017 77 16093 2.28 166 09:19 12.04.2020
5040 Clouds 13 1017 77 14484 2.28 166 08:50 12.04.2020
5041 Clouds 13 1017 72 14484 2.28 166 08:31 12.04.2020
5042 Clouds 14 1017 77 16093 2.1 230 07:47 12.04.2020
5043 Clear 14 1016 72 16093 2.28 166 07:20 12.04.2020
5044 Clear 14 1016 72 16093 2.28 166 06:54 12.04.2020
5045 Clear 14 1016 72 16093 2.28 166 06:30 12.04.2020
5046 Clouds 14 1016 77 16093 2.1 280 05:49 12.04.2020
5047 Clear 15 1015 63 16093 3.1 240 04:44 12.04.2020
5048 Clear 17 1014 55 16093 3.1 260 03:30 12.04.2020
5049 Clear 18 1015 55 16093 5.1 260 02:49 12.04.2020
5050 Clear 18 1015 55 16093 5.1 260 02:29 12.04.2020
5051 Clear 19 1014 49 16093 2.6 260 01:26 12.04.2020
5052 Clear 19 1015 52 16093 4.21 222 00:55 12.04.2020
5053 Clear 19 1015 52 16093 3.82 215 00:37 12.04.2020
5054 Clear 19 1015 52 16093 3.82 215 00:18 12.04.2020
5055 Clear 19 1015 52 16093 3.82 215 00:18 12.04.2020
5056 Clear 19 1015 49 16093 2.6 260 23:43 11.04.2020
5057 Clear 19 1015 49 16093 2.6 260 23:22 11.04.2020
5058 Clouds 19 1015 55 16093 3.82 215 22:39 11.04.2020
5059 Clouds 19 1015 59 16093 5.1 250 22:21 11.04.2020
5060 Clear 18 1015 52 16093 1.5 0 21:56 11.04.2020
5061 Clear 18 1015 52 16093 1.5 0 21:37 11.04.2020
5062 Clear 17 1015 55 16093 3.1 140 21:18 11.04.2020
5063 Clouds 17 1016 55 16093 2.17 193 20:56 11.04.2020
5064 Clouds 17 1016 55 16093 2.17 193 20:38 11.04.2020
5065 Clouds 16 1016 55 16093 2.17 193 20:19 11.04.2020
5066 Clouds 16 1016 59 16093 2.17 193 19:57 11.04.2020
5067 Clouds 16 1016 59 16093 2.17 193 19:57 11.04.2020
5068 Clouds 16 1016 59 16093 2.17 193 19:38 11.04.2020
5069 Clouds 16 1016 59 16093 1.5 0 19:19 11.04.2020
5070 Clouds 15 1016 63 16093 2.17 193 18:56 11.04.2020
5071 Clouds 15 1016 63 16093 2.17 193 18:37 11.04.2020
5072 Clouds 13 1016 63 16093 1.24 127 18:19 11.04.2020
5073 Clear 13 1015 67 16093 2.6 80 17:58 11.04.2020
5074 Clear 12 1015 67 16093 2.6 80 17:40 11.04.2020
5075 Clear 12 1015 67 16093 2.6 80 17:19 11.04.2020
5076 Clear 10 1014 71 16093 1.24 127 16:43 11.04.2020
5077 Clear 10 1015 81 16093 1.24 127 16:22 11.04.2020
5078 Clouds 9 1014 81 16093 1.5 90 15:59 11.04.2020
5079 Clouds 9 1014 81 16093 1.5 90 15:59 11.04.2020
5080 Clouds 9 1014 81 16093 1.5 90 15:36 11.04.2020
5081 Clouds 9 1014 81 16093 0.9 104 15:18 11.04.2020
5082 Clear 9 1014 81 16093 0.9 104 14:42 11.04.2020
5083 Clear 9 1014 81 16093 0.51 111 14:23 11.04.2020
5084 Clear 9 1014 76 16093 0.51 111 13:59 11.04.2020
5085 Clear 9 1014 76 16093 0.51 111 13:39 11.04.2020
5086 Clear 10 1014 76 16093 0.51 111 13:19 11.04.2020
5087 Clear 10 1014 81 16093 0.51 111 12:42 11.04.2020
5088 Clear 10 1014 71 16093 0.32 147 12:20 11.04.2020
5089 Clouds 10 1014 76 16093 0.32 147 11:57 11.04.2020
5090 Clouds 10 1014 76 16093 0.32 147 11:39 11.04.2020
5091 Clouds 10 1015 76 16093 0.32 147 11:19 11.04.2020
5092 Clouds 11 1015 76 16093 0.32 147 10:43 11.04.2020
5093 Clouds 11 1015 62 16093 0.32 147 10:23 11.04.2020
5094 Clouds 11 1015 62 16093 1.5 80 09:59 11.04.2020
5095 Clouds 11 1015 62 16093 1.5 80 09:40 11.04.2020
5096 Clouds 11 1015 62 16093 1.5 80 09:21 11.04.2020
5097 Clear 11 1015 67 16093 0.97 304 08:51 11.04.2020
5098 Clear 11 1015 67 16093 0.97 304 08:29 11.04.2020
5099 Clear 11 1015 62 16093 0.97 304 07:55 11.04.2020
5100 Clear 11 1015 62 16093 0.97 304 07:37 11.04.2020
5101 Clear 12 1015 62 16093 0.97 304 07:18 11.04.2020
5102 Clear 12 1014 62 16093 0.97 304 06:35 11.04.2020
5103 Clouds 12 1014 62 16093 1.5 0 05:56 11.04.2020
5104 Clouds 14 1014 59 16093 1.98 100 03:42 11.04.2020
5105 Rain 14 1014 55 16093 2.6 190 02:50 11.04.2020
5106 Clouds 15 1014 45 16093 2.1 90 01:26 11.04.2020
5107 Clouds 15 1015 45 16093 2.1 0 00:54 11.04.2020
5108 Clouds 15 1015 45 16093 2.1 0 00:36 11.04.2020
5109 Clouds 16 1015 45 16093 2.1 0 00:18 11.04.2020
5110 Clouds 16 1015 48 16093 2.6 0 23:41 10.04.2020
5111 Clouds 15 1015 48 16093 2.6 0 23:19 10.04.2020
5112 Clouds 15 1016 59 16093 3.1 100 22:57 10.04.2020
5113 Rain 15 1016 59 16093 3.1 100 22:37 10.04.2020
5114 Rain 15 1016 59 16093 3.1 100 22:19 10.04.2020
5115 Rain 14 1016 62 16093 2.1 0 21:41 10.04.2020
5116 Rain 13 1016 62 16093 2.1 0 21:21 10.04.2020
5117 Rain 13 1016 71 16093 4.1 80 20:57 10.04.2020
5118 Rain 13 1016 71 16093 4.1 80 20:39 10.04.2020
5119 Rain 13 1016 71 16093 4.1 80 20:19 10.04.2020
5120 Rain 12 1016 71 16093 2.1 70 19:55 10.04.2020
5121 Rain 12 1016 71 16093 2.1 70 19:37 10.04.2020
5122 Rain 12 1016 71 16093 2.1 70 19:19 10.04.2020
5123 Rain 11 1016 71 16093 2.1 0 18:56 10.04.2020
5124 Rain 11 1016 71 16093 2.1 0 18:38 10.04.2020
5125 Rain 11 1016 71 16093 2.1 0 18:19 10.04.2020
5126 Rain 10 1016 71 12874 2.1 50 17:57 10.04.2020
5127 Rain 10 1016 71 12874 2.1 50 17:39 10.04.2020
5128 Rain 10 1016 71 12874 2.1 50 17:19 10.04.2020
5129 Rain 9 1016 76 16093 3.5 61 16:45 10.04.2020
5130 Rain 9 1016 76 16093 3.5 61 16:24 10.04.2020
5131 Rain 9 1016 76 16093 3.5 61 16:24 10.04.2020
5132 Rain 9 1016 76 16093 1.5 0 15:59 10.04.2020
5133 Rain 9 1016 76 16093 1.5 0 15:40 10.04.2020
5134 Rain 9 1016 76 16093 1.5 0 15:21 10.04.2020
5135 Rain 9 1016 81 14484 1.5 0 14:59 10.04.2020
5136 Rain 9 1016 81 14484 1.5 0 14:41 10.04.2020
5137 Rain 9 1016 81 14484 1.5 0 14:23 10.04.2020
5138 Rain 9 1017 81 16093 2.49 30 13:56 10.04.2020
5139 Rain 9 1017 81 16093 2.49 30 13:38 10.04.2020
5140 Rain 9 1017 81 16093 2.49 30 13:20 10.04.2020
5141 Rain 9 1017 81 14484 2.6 60 12:42 10.04.2020
5142 Rain 9 1017 81 14484 2.6 60 12:21 10.04.2020
5143 Rain 9 1017 76 14484 2.1 0 11:55 10.04.2020
5144 Rain 9 1017 76 14484 2.1 0 11:36 10.04.2020
5145 Rain 9 1017 76 14484 2.1 0 11:18 10.04.2020
5146 Rain 9 1018 81 14484 1.5 0 10:42 10.04.2020
5147 Rain 9 1018 81 14484 1.5 0 10:22 10.04.2020
5148 Rain 9 1018 76 16093 2.1 70 09:45 10.04.2020
5149 Rain 9 1018 76 16093 2.1 70 09:25 10.04.2020
5150 Rain 9 1019 76 16093 2.1 60 08:57 10.04.2020
5151 Rain 9 1019 76 16093 2.1 60 08:39 10.04.2020
5152 Rain 9 1019 76 16093 2.1 60 08:20 10.04.2020
5153 Rain 9 1019 76 16093 1.5 90 07:45 10.04.2020
5154 Rain 9 1019 76 16093 1.5 90 07:23 10.04.2020
5155 Rain 10 1019 76 12874 2.6 90 06:49 10.04.2020
5156 Rain 10 1019 76 12874 2.6 90 06:28 10.04.2020
5157 Rain 10 1018 76 16093 2.6 90 05:40 10.04.2020
5158 Rain 10 1018 76 11265 2.6 0 04:58 10.04.2020
5159 Rain 10 1018 87 9656 4.1 90 03:49 10.04.2020
5160 Rain 10 1018 87 8047 3.1 90 03:30 10.04.2020
5161 Rain 11 1018 76 11265 3.1 80 02:48 10.04.2020
5162 Rain 11 1018 81 8047 2.1 90 02:28 10.04.2020
5163 Rain 11 1019 76 8047 2.6 90 01:30 10.04.2020
5164 Rain 11 1019 82 6437 2.1 80 00:50 10.04.2020
5165 Rain 11 1019 76 4828 2.6 90 00:24 10.04.2020
5166 Rain 11 1019 76 9656 2.6 0 23:56 09.04.2020
5167 Rain 11 1019 76 9656 2.6 0 23:38 09.04.2020
5168 Rain 11 1019 76 9656 2.6 0 23:19 09.04.2020
5169 Rain 11 1020 76 8047 2.1 70 22:41 09.04.2020
5170 Rain 11 1020 76 8047 2.1 70 22:41 09.04.2020
5171 Rain 11 1020 76 8047 2.1 70 22:23 09.04.2020
5172 Rain 11 1020 76 8047 2.6 0 21:56 09.04.2020
5173 Rain 11 1020 76 8047 2.6 0 21:37 09.04.2020
5174 Rain 11 1020 76 11265 3.6 90 21:19 09.04.2020
5175 Clouds 11 1020 67 16093 2.6 100 20:44 09.04.2020
5176 Rain 11 1020 67 16093 2.6 100 20:21 09.04.2020
5177 Rain 11 1020 71 14484 3.1 0 19:58 09.04.2020
5178 Rain 11 1020 71 14484 3.1 0 19:37 09.04.2020
5179 Rain 11 1020 71 14484 3.1 0 19:18 09.04.2020
5180 Rain 10 1020 76 16093 3.1 90 18:42 09.04.2020
5181 Rain 10 1020 76 16093 3.1 90 18:20 09.04.2020
5182 Rain 10 1020 71 16093 4.1 80 17:42 09.04.2020
5183 Rain 10 1020 71 16093 4.1 80 17:24 09.04.2020
5184 Rain 10 1020 76 11265 3.6 90 16:57 09.04.2020
5185 Rain 9 1019 71 12874 2.6 0 16:38 09.04.2020
5186 Rain 9 1019 71 12874 2.6 0 16:19 09.04.2020
5187 Rain 9 1019 71 16093 2.6 0 15:55 09.04.2020
5188 Rain 9 1019 71 16093 2.6 0 15:37 09.04.2020
5189 Rain 9 1019 71 16093 3.1 80 15:18 09.04.2020
5190 Rain 9 1019 71 16093 3.1 80 15:18 09.04.2020
5191 Rain 9 1019 71 16093 1.5 0 14:42 09.04.2020
5192 Rain 9 1019 76 8047 2.1 70 14:21 09.04.2020
5193 Rain 9 1019 66 16093 3.1 90 13:56 09.04.2020
5194 Clouds 9 1019 66 16093 3.1 90 13:38 09.04.2020
5195 Clouds 9 1019 66 16093 3.1 90 13:19 09.04.2020
5196 Clouds 9 1019 66 16093 2.1 80 12:43 09.04.2020
5197 Clouds 9 1019 66 16093 2.1 80 12:23 09.04.2020
5198 Rain 9 1019 71 14484 2.6 80 11:59 09.04.2020
5199 Rain 9 1019 71 14484 2.6 80 11:41 09.04.2020
5200 Rain 10 1019 71 14484 2.6 80 11:20 09.04.2020
5201 Rain 10 1019 71 12874 3.1 0 10:57 09.04.2020
5202 Rain 10 1019 71 12874 3.1 0 10:39 09.04.2020
5203 Rain 10 1019 71 12874 3.1 0 10:20 09.04.2020
5204 Clouds 10 1019 66 16093 3.1 0 09:56 09.04.2020
5205 Clouds 10 1019 66 16093 3.1 0 09:38 09.04.2020
5206 Clouds 10 1019 66 16093 3.1 0 09:19 09.04.2020
5207 Rain 10 1019 66 16093 1.5 0 08:43 09.04.2020
5208 Rain 11 1019 66 16093 1.5 0 08:23 09.04.2020
5209 Rain 11 1019 58 16093 3.1 100 07:55 09.04.2020
5210 Clouds 11 1019 58 16093 3.1 100 07:27 09.04.2020
5211 Clouds 11 1019 62 16093 3.06 203 06:55 09.04.2020
5212 Clouds 11 1019 62 16093 3.31 212 06:18 09.04.2020
5213 Clouds 12 1018 58 16093 3.31 212 05:40 09.04.2020
5214 Clear 13 1017 51 16093 2.1 250 03:55 09.04.2020
5215 Clouds 14 1016 48 16093 4.1 260 02:30 09.04.2020
5216 Rain 14 1016 45 16093 2.6 0 01:41 09.04.2020
5217 Rain 14 1016 45 16093 2.6 0 01:41 09.04.2020
5218 Rain 14 1016 45 16093 2.6 0 01:23 09.04.2020
5219 Rain 15 1016 42 16093 1.5 240 00:43 09.04.2020
5220 Clear 15 1016 42 16093 1.5 240 00:20 09.04.2020
5221 Rain 15 1016 48 16093 3.6 260 23:58 08.04.2020
5222 Rain 14 1016 48 16093 3.6 260 23:40 08.04.2020
5223 Rain 14 1016 48 16093 3.6 260 23:40 08.04.2020
5224 Rain 14 1016 48 16093 3.6 260 23:21 08.04.2020
5225 Clouds 14 1016 44 16093 1.5 0 22:43 08.04.2020
5226 Clouds 14 1016 44 16093 1.5 0 22:24 08.04.2020
5227 Clouds 14 1017 51 16093 1.5 250 21:57 08.04.2020
5228 Clouds 14 1017 51 16093 1.5 250 21:38 08.04.2020
5229 Clouds 13 1017 51 16093 1.5 250 21:19 08.04.2020
5230 Clouds 13 1016 58 16093 3.77 248 20:58 08.04.2020
5231 Clouds 13 1016 58 16093 3.77 248 20:38 08.04.2020
5232 Clouds 13 1016 58 16093 3.77 248 20:20 08.04.2020
5233 Clouds 12 1017 59 16093 3.77 248 19:56 08.04.2020
5234 Clouds 12 1017 59 16093 3.77 248 19:37 08.04.2020
5235 Rain 12 1017 66 12874 4.1 270 19:18 08.04.2020
5236 Clear 11 1016 76 14484 3.77 248 18:42 08.04.2020
5237 Clear 11 1016 76 14484 2.33 248 18:23 08.04.2020
5238 Haze 10 1016 81 8047 2.33 248 17:56 08.04.2020
5239 Haze 10 1016 81 8047 2.33 248 17:38 08.04.2020
5240 Mist 10 1015 87 6437 2.33 248 17:18 08.04.2020
5241 Mist 9 1015 87 6437 2.33 248 16:42 08.04.2020
5242 Mist 9 1015 87 6437 2.33 248 16:23 08.04.2020
5243 Mist 9 1015 87 9656 2.33 248 15:56 08.04.2020
5244 Mist 9 1015 87 9656 2.33 248 15:37 08.04.2020
5245 Clouds 9 1015 87 16093 1.3 248 15:19 08.04.2020
5246 Clouds 9 1014 81 12874 0.89 131 14:43 08.04.2020
5247 Rain 9 1014 81 12874 1.3 248 14:25 08.04.2020
5248 Rain 9 1014 81 12874 0.89 131 14:25 08.04.2020
5249 Rain 9 1015 76 14484 0.89 131 13:56 08.04.2020
5250 Rain 9 1015 76 14484 0.89 131 13:37 08.04.2020
5251 Rain 9 1015 76 14484 0.89 131 13:19 08.04.2020
5252 Clouds 9 1016 76 16093 1.5 40 12:42 08.04.2020
5253 Rain 9 1016 76 16093 1.5 40 12:18 08.04.2020
5254 Clouds 9 1016 76 16093 2.56 164 11:58 08.04.2020
5255 Rain 9 1016 76 16093 2.56 164 11:39 08.04.2020
5256 Rain 9 1016 76 16093 2.56 164 11:21 08.04.2020
5257 Rain 10 1017 81 16093 2.56 164 10:56 08.04.2020
5258 Rain 10 1017 81 16093 2.56 164 10:56 08.04.2020
5259 Rain 10 1017 81 16093 2.56 164 10:56 08.04.2020
5260 Rain 10 1017 81 16093 2.56 164 10:37 08.04.2020
5261 Rain 10 1017 81 16093 2.56 164 10:19 08.04.2020
5262 Rain 10 1017 81 16093 1.5 110 09:55 08.04.2020
5263 Rain 10 1017 81 16093 1.5 110 09:37 08.04.2020
5264 Rain 10 1017 81 16093 1.5 110 09:18 08.04.2020
5265 Rain 10 1017 81 11265 2.1 0 08:42 08.04.2020
5266 Rain 10 1017 81 11265 2.1 0 08:23 08.04.2020
5267 Rain 10 1017 81 16093 1.59 221 07:44 08.04.2020
5268 Rain 10 1017 81 16093 1.59 221 07:25 08.04.2020
5269 Rain 10 1015 81 8047 1.59 221 06:56 08.04.2020
5270 Rain 10 1015 81 8047 1.01 279 06:19 08.04.2020
5271 Rain 11 1013 87 4023 1.01 279 04:19 08.04.2020
5272 Rain 12 1013 82 3219 1.5 250 02:49 08.04.2020
5273 Rain 12 1013 82 2414 2.1 260 02:20 08.04.2020
5274 Rain 13 1015 82 4828 3.6 250 01:45 08.04.2020
5275 Rain 13 1015 82 4828 3.6 250 01:23 08.04.2020
5276 Rain 14 1015 63 16093 1.5 280 00:41 08.04.2020
5277 Rain 15 1015 63 16093 1.5 280 00:21 08.04.2020
5278 Rain 15 1017 77 16093 1.5 0 23:39 07.04.2020
5279 Rain 15 1017 77 16093 1.5 0 23:21 07.04.2020
5280 Rain 15 1017 55 12874 3.6 240 22:57 07.04.2020
5281 Rain 15 1017 72 16093 3.1 100 22:39 07.04.2020
5282 Rain 15 1017 72 16093 3.1 100 22:19 07.04.2020
5283 Rain 15 1017 48 16093 1.25 210 21:56 07.04.2020
5284 Clouds 15 1017 48 16093 1.25 210 21:38 07.04.2020
5285 Clouds 15 1017 48 16093 2.18 44 21:20 07.04.2020
5286 Clouds 15 1018 48 16093 1.5 0 20:57 07.04.2020
5287 Clouds 15 1018 48 16093 1.5 0 20:38 07.04.2020
5288 Clouds 15 1018 48 16093 1.5 0 20:20 07.04.2020
5289 Clouds 15 1018 48 16093 1.5 0 19:57 07.04.2020
5290 Clouds 15 1018 48 16093 1.5 0 19:36 07.04.2020
5291 Clouds 14 1018 67 16093 1.5 40 19:18 07.04.2020
5292 Clouds 14 1018 67 16093 1.5 40 18:56 07.04.2020
5293 Clouds 13 1018 67 16093 1.5 40 18:38 07.04.2020
5294 Rain 13 1018 71 16093 1.5 74 18:19 07.04.2020
5295 Rain 12 1018 71 16093 1.5 74 17:44 07.04.2020
5296 Rain 11 1018 71 16093 1.5 74 17:21 07.04.2020
5297 Rain 11 1017 67 16093 1.5 0 16:47 07.04.2020
5298 Rain 11 1017 71 16093 1.5 74 16:28 07.04.2020
5299 Clouds 10 1017 71 16093 1.5 74 15:57 07.04.2020
5300 Clouds 10 1017 71 16093 1.5 74 15:38 07.04.2020
5301 Clouds 10 1016 71 16093 0.84 72 15:20 07.04.2020
5302 Clouds 10 1016 71 16093 0.84 72 14:41 07.04.2020
5303 Clouds 10 1016 71 16093 0.95 83 14:22 07.04.2020
5304 Clouds 10 1016 71 16093 0.95 83 13:57 07.04.2020
5305 Clouds 10 1016 71 16093 0.95 83 13:37 07.04.2020
5306 Clouds 10 1016 71 16093 0.95 83 13:18 07.04.2020
5307 Clouds 10 1017 71 16093 0.95 83 12:55 07.04.2020
5308 Clouds 10 1017 71 16093 0.95 83 12:36 07.04.2020
5309 Clouds 10 1017 71 16093 0.95 83 12:36 07.04.2020
5310 Clouds 11 1017 71 16093 0.09 133 12:18 07.04.2020
5311 Rain 11 1017 62 16093 0.09 133 11:44 07.04.2020
5312 Rain 11 1017 62 16093 0.09 133 11:25 07.04.2020
5313 Rain 11 1017 62 16093 0.09 133 10:58 07.04.2020
5314 Clouds 11 1017 62 16093 0.09 133 10:38 07.04.2020
5315 Rain 11 1017 62 16093 0.09 133 10:19 07.04.2020
5316 Clouds 11 1017 71 16093 0.09 133 09:45 07.04.2020
5317 Clouds 11 1017 71 16093 1.95 268 09:19 07.04.2020
5318 Clouds 11 1017 71 16093 1.95 268 09:19 07.04.2020
5319 Rain 12 1017 62 16093 2.1 280 08:56 07.04.2020
5320 Rain 12 1017 62 16093 2.1 280 08:38 07.04.2020
5321 Rain 12 1017 62 16093 2.1 280 08:18 07.04.2020
5322 Clouds 12 1016 62 16093 1.95 268 07:41 07.04.2020
5323 Clouds 12 1016 62 16093 1.95 268 07:21 07.04.2020
5324 Clouds 12 1016 67 16093 1.5 280 06:51 07.04.2020
5325 Clouds 12 1016 67 16093 1.5 280 06:24 07.04.2020
5326 Clouds 12 1015 59 16093 1.5 260 05:46 07.04.2020
5327 Clouds 13 1015 59 16093 1.5 260 05:22 07.04.2020
5328 Rain 14 1014 55 16093 1.5 270 03:32 07.04.2020
5329 Clouds 14 1014 55 16093 1.5 196 02:59 07.04.2020
5330 Clouds 14 1014 55 16093 2.29 182 02:33 07.04.2020
5331 Clouds 14 1014 52 16093 2.29 182 01:33 07.04.2020
5332 Rain 14 1014 59 16093 2.29 182 00:44 07.04.2020
5333 Rain 14 1014 59 16093 1.75 217 00:25 07.04.2020
5334 Clouds 14 1014 67 16093 2.1 260 23:39 06.04.2020
5335 Clouds 14 1014 67 16093 2.1 260 23:20 06.04.2020
5336 Clouds 14 1014 67 16093 1.5 250 22:41 06.04.2020
5337 Clouds 14 1014 72 16093 2.1 250 22:23 06.04.2020
5338 Clouds 13 1014 72 16093 1.5 250 21:59 06.04.2020
5339 Clouds 13 1014 72 16093 1.5 250 21:40 06.04.2020
5340 Clouds 13 1013 72 16093 1.5 250 21:19 06.04.2020
5341 Rain 13 1013 72 16093 2.59 259 20:56 06.04.2020
5342 Rain 13 1013 82 16093 2.59 259 20:38 06.04.2020
5343 Rain 13 1013 82 16093 2.59 259 20:20 06.04.2020
5344 Rain 13 1013 87 16093 1.5 0 19:56 06.04.2020
5345 Rain 13 1013 82 16093 2.59 259 19:38 06.04.2020
5346 Rain 13 1013 82 16093 2.59 259 19:19 06.04.2020
5347 Rain 13 1013 82 16093 2.59 259 19:19 06.04.2020
5348 Rain 12 1012 87 14484 2.59 259 18:42 06.04.2020
5349 Rain 12 1012 87 2414 4.54 219 18:23 06.04.2020
5350 Rain 12 1011 87 6437 4.54 219 17:57 06.04.2020
5351 Rain 12 1011 87 6437 4.54 219 17:38 06.04.2020
5352 Rain 12 1011 87 4023 4.54 219 17:18 06.04.2020
5353 Rain 12 1011 93 1207 4.54 219 16:47 06.04.2020
5354 Rain 12 1011 93 1207 4.54 219 16:47 06.04.2020
5355 Rain 12 1010 87 6437 2.1 0 16:29 06.04.2020
5356 Rain 12 1010 82 4828 1.5 0 14:47 06.04.2020
5357 Rain 12 1010 82 4828 1.5 0 14:47 06.04.2020
5358 Rain 12 1010 82 4828 1.5 0 14:47 06.04.2020
5359 Rain 12 1010 82 4828 1.5 0 14:47 06.04.2020
5360 Rain 12 1010 82 4828 1.5 0 14:47 06.04.2020
5361 Rain 12 1010 82 4023 6.24 207 13:44 06.04.2020
5362 Rain 12 1010 82 4023 6.24 207 13:22 06.04.2020
5363 Rain 12 1010 82 4023 6.24 207 13:22 06.04.2020
5364 Rain 12 1010 87 6437 6.24 207 12:46 06.04.2020
5365 Rain 12 1010 87 6437 6.24 207 12:46 06.04.2020
5366 Rain 12 1010 87 6437 6.24 207 12:46 06.04.2020
5367 Rain 12 1010 87 6437 6.24 207 12:46 06.04.2020
5368 Rain 12 1010 87 6437 6.24 207 12:46 06.04.2020
5369 Rain 12 1010 87 4023 2.1 120 12:19 06.04.2020
5370 Rain 12 1011 82 16093 2.1 0 11:40 06.04.2020
5371 Clouds 12 1011 82 16093 2.1 0 11:03 06.04.2020
5372 Clouds 12 1011 82 16093 2.1 0 11:03 06.04.2020
5373 Clouds 12 1011 82 16093 2.1 0 11:03 06.04.2020
5374 Clouds 12 1011 82 16093 2.1 0 11:02 06.04.2020
5375 Clouds 12 1011 82 16093 2.1 0 11:02 06.04.2020
5376 Rain 12 1012 82 16093 2.1 110 10:37 06.04.2020
5377 Rain 12 1012 82 16093 2.1 110 10:19 06.04.2020
5378 Rain 12 1012 82 16093 2.1 110 10:19 06.04.2020
5379 Rain 12 1012 82 16093 2.1 110 10:19 06.04.2020
5380 Rain 12 1012 82 16093 2.1 110 10:19 06.04.2020
5381 Rain 12 1012 82 14484 7.08 193 09:39 06.04.2020
5382 Rain 12 1012 82 14484 7.08 193 09:39 06.04.2020
5383 Rain 12 1012 82 14484 7.08 193 09:39 06.04.2020
5384 Rain 12 1012 82 14484 7.08 193 09:39 06.04.2020
5385 Rain 12 1012 82 14484 7.08 193 09:39 06.04.2020
5386 Rain 12 1012 82 14484 6.4 187 09:19 06.04.2020
5387 Rain 12 1012 82 14484 6.4 187 09:19 06.04.2020
5388 Rain 12 1012 82 16093 2.1 100 08:43 06.04.2020
5389 Rain 12 1012 82 16093 2.1 100 08:43 06.04.2020
5390 Rain 12 1012 82 16093 2.1 100 08:43 06.04.2020
5391 Rain 12 1012 82 16093 2.1 100 08:43 06.04.2020
5392 Rain 12 1012 82 16093 2.1 100 08:43 06.04.2020
5393 Rain 12 1012 82 16093 2.1 0 08:23 06.04.2020
5394 Rain 13 1012 77 16093 1.5 0 07:22 06.04.2020
5395 Rain 13 1012 77 16093 1.5 0 07:22 06.04.2020
5396 Rain 13 1012 82 16093 6.4 187 06:27 06.04.2020
5397 Rain 13 1011 67 16093 4.61 186 05:50 06.04.2020
5398 Clouds 14 1011 55 16093 2.1 250 03:56 06.04.2020
5399 Clouds 15 1011 55 16093 4.29 208 02:52 06.04.2020
5400 Clouds 15 1011 59 16093 1.5 250 01:55 06.04.2020
5401 Clouds 15 1012 59 16093 4.52 211 00:55 06.04.2020
5402 Clouds 15 1012 52 16093 1.5 0 00:28 06.04.2020
5403 Clouds 15 1012 52 16093 3.75 216 23:52 05.04.2020
5404 Clouds 15 1012 52 16093 3.75 216 23:33 05.04.2020
5405 Clouds 15 1012 52 16093 3.75 216 22:58 05.04.2020
5406 Clouds 15 1012 52 16093 3.75 216 22:40 05.04.2020
5407 Clouds 15 1012 52 16093 3.75 216 22:22 05.04.2020
5408 Clouds 15 1013 55 16093 1.5 250 21:59 05.04.2020
5409 Clouds 15 1013 55 16093 1.5 250 21:41 05.04.2020
5410 Clouds 15 1013 55 16093 2.1 250 21:23 05.04.2020
5411 Clouds 14 1013 59 16093 3.17 217 20:24 05.04.2020
5412 Clouds 14 1013 59 16093 3.17 217 20:24 05.04.2020
5413 Clouds 14 1013 59 16093 1.5 250 19:43 05.04.2020
5414 Clouds 14 1013 59 16093 1.5 250 19:23 05.04.2020
5415 Clouds 14 1013 59 16093 3.17 217 18:48 05.04.2020
5416 Rain 13 1013 63 16093 2.44 223 18:18 05.04.2020
5417 Rain 13 1013 63 16093 2.44 223 18:18 05.04.2020
5418 Rain 13 1013 67 16093 2.44 223 17:47 05.04.2020
5419 Rain 13 1013 67 16093 2.44 223 17:47 05.04.2020
5420 Rain 13 1013 67 16093 2.44 223 17:47 05.04.2020
5421 Rain 13 1013 67 16093 2.44 223 17:47 05.04.2020
5422 Rain 13 1013 67 16093 2.44 223 17:47 05.04.2020
5423 Rain 13 1013 67 16093 2.44 223 17:22 05.04.2020
5424 Rain 12 1012 67 16093 2.44 223 16:47 05.04.2020
5425 Rain 12 1012 67 16093 2.44 223 16:47 05.04.2020
5426 Rain 12 1012 67 16093 2.44 223 16:47 05.04.2020
5427 Rain 12 1012 67 16093 2.44 223 16:47 05.04.2020
5428 Clouds 12 1012 67 16093 2.44 223 16:19 05.04.2020
5429 Clouds 12 1012 67 16093 2.44 223 15:46 05.04.2020
5430 Clouds 12 1012 67 16093 2.44 223 15:27 05.04.2020
5431 Clouds 12 1012 67 16093 2.44 223 15:27 05.04.2020
5432 Clouds 12 1012 67 16093 2.44 223 15:27 05.04.2020
5433 Clouds 12 1012 72 16093 1.5 0 14:48 05.04.2020
5434 Clouds 12 1012 72 16093 1.5 0 14:48 05.04.2020
5435 Clouds 12 1012 72 16093 1.5 0 14:48 05.04.2020
5436 Clouds 12 1012 72 16093 1.5 0 14:48 05.04.2020
5437 Rain 12 1012 67 16093 2.71 203 13:59 05.04.2020
5438 Rain 12 1012 67 16093 2.71 203 13:40 05.04.2020
5439 Rain 12 1012 67 16093 2.71 203 13:40 05.04.2020
5440 Rain 12 1012 67 16093 2.71 203 13:40 05.04.2020
5441 Rain 12 1012 67 16093 2.71 203 13:40 05.04.2020
5442 Rain 12 1012 67 16093 2.71 203 13:40 05.04.2020
5443 Clouds 13 1012 72 16093 2.1 260 12:20 05.04.2020
5444 Rain 13 1012 63 16093 2.94 192 11:40 05.04.2020
5445 Rain 13 1012 63 16093 2.94 192 11:20 05.04.2020
5446 Clouds 13 1012 67 16093 2.94 192 10:47 05.04.2020
5447 Clouds 13 1012 67 16093 2.94 192 10:23 05.04.2020
5448 Clouds 13 1013 67 16093 2.94 192 09:55 05.04.2020
5449 Clouds 13 1013 67 16093 2.89 190 09:27 05.04.2020
5450 Clouds 13 1013 67 14484 2.4 191 08:32 05.04.2020
5451 Clouds 14 1013 67 16093 2.4 191 07:06 05.04.2020
5452 Clouds 15 1011 63 14484 3.1 260 04:31 05.04.2020
5453 Clouds 16 1011 55 16093 1.5 0 03:28 05.04.2020
5454 Clouds 17 1011 52 16093 2.6 260 02:27 05.04.2020
5455 Clouds 18 1011 52 16093 3.6 260 01:44 05.04.2020
5456 Clouds 18 1011 52 16093 3.6 260 01:23 05.04.2020
5457 Clouds 18 1011 49 16093 2.6 250 00:37 05.04.2020
5458 Clouds 19 1011 49 16093 2.6 250 00:19 05.04.2020
5459 Clouds 18 1012 52 14484 1.5 0 23:42 04.04.2020
5460 Clouds 18 1012 52 14484 1.5 0 23:22 04.04.2020
5461 Clouds 18 1012 46 16093 2.4 212 22:57 04.04.2020
5462 Clouds 18 1012 52 14484 1.5 0 22:57 04.04.2020
5463 Clouds 18 1012 46 16093 2.4 212 22:39 04.04.2020
5464 Clouds 18 1013 52 16093 1.5 0 22:20 04.04.2020
5465 Clouds 18 1012 55 16093 3.1 100 21:58 04.04.2020
5466 Clouds 17 1013 52 14484 2.4 212 21:39 04.04.2020
5467 Clouds 17 1013 52 14484 2.75 168 21:19 04.04.2020
5468 Clouds 16 1014 55 14484 1.5 0 20:56 04.04.2020
5469 Clouds 16 1014 55 14484 1.5 0 20:37 04.04.2020
5470 Clouds 16 1014 55 14484 1.5 0 20:19 04.04.2020
5471 Clouds 16 1014 59 14484 2.1 0 19:55 04.04.2020
5472 Clouds 15 1014 59 14484 2.1 0 19:36 04.04.2020
5473 Clouds 15 1014 59 14484 2.1 0 19:36 04.04.2020
5474 Clouds 15 1014 59 14484 2.1 0 19:18 04.04.2020
5475 Clouds 15 1014 59 14484 2.1 0 18:55 04.04.2020
5476 Clouds 14 1014 59 14484 2.1 0 18:37 04.04.2020
5477 Clouds 14 1014 67 16093 2.6 90 18:18 04.04.2020
5478 Clouds 13 1013 63 11265 2.1 100 17:40 04.04.2020
5479 Clouds 13 1013 71 16093 2.1 100 17:20 04.04.2020
5480 Clouds 12 1012 67 14484 1.36 141 16:55 04.04.2020
5481 Clouds 12 1012 67 14484 1.34 144 16:37 04.04.2020
5482 Clouds 11 1013 76 16093 1.36 141 16:18 04.04.2020
5483 Clouds 11 1012 76 16093 1.36 141 15:40 04.04.2020
5484 Clear 11 1012 76 14484 1.68 131 15:22 04.04.2020
5485 Clouds 11 1012 81 16093 2.6 170 14:57 04.04.2020
5486 Clouds 11 1012 81 16093 2.6 170 14:57 04.04.2020
5487 Clouds 11 1012 72 14484 1.5 70 14:39 04.04.2020
5488 Clouds 11 1012 72 14484 1.5 70 14:20 04.04.2020
5489 Clouds 12 1013 72 14484 1.5 0 13:55 04.04.2020
5490 Clouds 11 1013 72 14484 1.5 0 13:37 04.04.2020
5491 Clouds 11 1013 72 14484 1.5 0 13:18 04.04.2020
5492 Clouds 11 1013 72 14484 1.5 90 12:44 04.04.2020
5493 Clear 11 1013 67 14484 1.71 148 12:23 04.04.2020
5494 Clear 11 1013 67 16093 1.71 148 11:55 04.04.2020
5495 Clear 11 1013 67 16093 1.71 148 11:37 04.04.2020
5496 Clear 11 1013 67 16093 1.71 148 11:18 04.04.2020
5497 Clear 11 1013 62 16093 1.71 148 10:55 04.04.2020
5498 Clear 11 1013 62 16093 1.71 148 10:37 04.04.2020
5499 Clear 11 1013 62 16093 1.71 148 10:18 04.04.2020
5500 Clear 12 1013 62 16093 1.71 148 09:54 04.04.2020
5501 Clear 12 1013 62 16093 1.71 148 09:36 04.04.2020
5502 Clear 12 1013 62 16093 1.5 142 09:18 04.04.2020
5503 Clear 12 1014 63 16093 1.5 142 08:38 04.04.2020
5504 Clear 13 1014 63 16093 1.5 142 08:20 04.04.2020
5505 Clear 13 1013 63 16093 1.5 142 07:44 04.04.2020
5506 Clear 13 1013 63 16093 1.5 142 07:26 04.04.2020
5507 Clear 13 1013 63 16093 1.5 260 06:47 04.04.2020
5508 Clear 14 1013 63 16093 1.5 260 06:19 04.04.2020
5509 Clear 14 1012 59 16093 2.58 203 05:41 04.04.2020
5510 Clear 14 1012 59 16093 2.58 203 05:23 04.04.2020
5511 Clear 15 1012 52 16093 2.6 270 04:30 04.04.2020
5512 Clear 17 1012 48 16093 2.6 260 03:49 04.04.2020
5513 Clear 18 1012 48 16093 1.5 0 02:51 04.04.2020
5514 Clear 18 1012 48 16093 1.5 0 02:32 04.04.2020
5515 Clear 19 1012 45 16093 4.24 230 01:53 04.04.2020
5516 Clear 19 1012 45 16093 4.24 230 01:25 04.04.2020
5517 Clear 19 1013 46 16093 2.6 260 00:49 04.04.2020
5518 Clear 19 1013 46 16093 2.6 260 00:30 04.04.2020
5519 Clear 19 1013 49 16093 2.1 0 23:40 03.04.2020
5520 Clear 19 1013 49 16093 2.1 0 23:21 03.04.2020
5521 Clear 19 1013 49 16093 2.1 0 22:58 03.04.2020
5522 Clouds 19 1014 52 16093 1.5 240 22:39 03.04.2020
5523 Clouds 19 1014 52 16093 1.5 240 22:19 03.04.2020
5524 Clear 19 1014 49 14484 2.1 0 21:45 03.04.2020
5525 Clear 19 1014 49 14484 2.1 0 21:26 03.04.2020
5526 Clear 18 1014 49 14484 2.1 0 20:57 03.04.2020
5527 Clear 18 1015 42 16093 2.55 221 20:39 03.04.2020
5528 Clear 17 1015 42 16093 2.55 221 20:21 03.04.2020
5529 Clouds 17 1016 59 16093 4.6 240 19:58 03.04.2020
5530 Clear 17 1015 52 14484 2.55 221 19:39 03.04.2020
5531 Clear 17 1015 52 14484 2.55 221 19:21 03.04.2020
5532 Clear 16 1015 63 12874 2.55 221 18:59 03.04.2020
5533 Clear 16 1015 63 12874 2.55 221 18:41 03.04.2020
5534 Clear 16 1015 63 12874 2.55 221 18:41 03.04.2020
5535 Clear 15 1015 63 12874 0.69 202 18:23 03.04.2020
5536 Clouds 14 1015 67 12874 0.69 202 17:58 03.04.2020
5537 Clouds 14 1015 67 12874 0.69 202 17:39 03.04.2020
5538 Clouds 13 1015 67 12874 0.69 202 17:18 03.04.2020
5539 Clouds 12 1015 76 12874 0.69 202 16:46 03.04.2020
5540 Clear 11 1015 76 11265 0.69 202 16:22 03.04.2020
5541 Clear 11 1015 77 12874 0.69 202 15:59 03.04.2020
5542 Clear 11 1015 77 12874 0.69 202 15:40 03.04.2020
5543 Clear 11 1015 77 12874 1.08 212 15:21 03.04.2020
5544 Clear 11 1015 76 16093 1.08 212 14:56 03.04.2020
5545 Clear 11 1013 75 0 1.08 212 14:38 03.04.2020
5546 Clouds 11 1014 72 14484 0.83 210 14:20 03.04.2020
5547 Clouds 12 1014 72 14484 0.83 210 13:45 03.04.2020
5548 Clear 11 1015 76 16093 0.83 210 13:26 03.04.2020
5549 Clouds 12 1014 72 16093 0.83 210 12:56 03.04.2020
5550 Clouds 12 1014 72 16093 0.83 210 12:37 03.04.2020
5551 Clouds 12 1014 67 16093 1.5 80 12:18 03.04.2020
5552 Clouds 12 1015 76 16093 1.21 182 11:55 03.04.2020
5553 Clear 12 1015 63 16093 1.21 182 11:37 03.04.2020
5554 Clear 12 1015 63 16093 1.21 182 11:18 03.04.2020
5555 Clear 12 1015 67 16093 1.21 182 10:56 03.04.2020
5556 Clear 12 1015 67 16093 1.21 182 10:37 03.04.2020
5557 Clear 13 1015 67 16093 1.21 182 10:18 03.04.2020
5558 Clouds 13 1015 67 16093 1.21 182 09:54 03.04.2020
5559 Clouds 13 1015 67 16093 0.9 179 09:36 03.04.2020
5560 Clouds 13 1015 67 16093 0.9 179 09:36 03.04.2020
5561 Clouds 13 1015 67 16093 1.3 202 09:18 03.04.2020
5562 Clouds 13 1015 63 16093 1.3 202 08:41 03.04.2020
5563 Clouds 13 1015 63 16093 1.3 202 08:22 03.04.2020
5564 Clear 14 1015 55 16093 1.3 202 07:50 03.04.2020
5565 Clear 14 1015 55 16093 1.3 202 07:32 03.04.2020
5566 Clear 14 1015 59 16093 1.5 250 06:57 03.04.2020
5567 Clear 15 1015 59 16093 1.5 250 06:27 03.04.2020
5568 Clear 15 1014 55 16093 1.5 260 05:42 03.04.2020
5569 Clear 16 1014 59 16093 3.6 290 04:18 03.04.2020
5570 Clear 17 1014 59 16093 3.6 280 03:32 03.04.2020
5571 Clear 18 1014 49 16093 3.92 232 02:31 03.04.2020
5572 Clouds 19 1014 52 16093 3.92 232 01:25 03.04.2020
5573 Clouds 19 1014 52 16093 3.92 232 00:46 03.04.2020
5574 Clouds 19 1014 52 16093 3.92 232 00:27 03.04.2020
5575 Clouds 19 1014 56 16093 1.5 240 23:54 02.04.2020
5576 Clouds 19 1014 56 16093 1.5 240 23:36 02.04.2020
5577 Clouds 19 1014 56 16093 1.5 240 23:18 02.04.2020
5578 Clouds 19 1014 52 14484 3.32 205 22:41 02.04.2020
5579 Clouds 19 1014 52 14484 3.32 205 22:22 02.04.2020
5580 Clouds 19 1014 52 14484 3.32 205 21:58 02.04.2020
5581 Clear 18 1015 46 16093 3.32 205 21:37 02.04.2020
5582 Clouds 18 1015 63 16093 3.6 260 21:18 02.04.2020
5583 Clouds 18 1015 52 16093 1.32 175 20:44 02.04.2020
5584 Clouds 18 1015 52 16093 1.32 175 20:25 02.04.2020
5585 Clouds 17 1015 52 16093 1.32 175 19:57 02.04.2020
5586 Clouds 17 1015 59 16093 1.32 175 19:39 02.04.2020
5587 Clouds 17 1015 59 16093 1.32 175 19:20 02.04.2020
5588 Clouds 16 1014 59 14484 1.5 100 18:55 02.04.2020
5589 Clouds 16 1014 59 14484 1.5 100 18:36 02.04.2020
5590 Clouds 16 1014 59 14484 1.5 100 18:18 02.04.2020
5591 Clouds 15 1014 63 14484 1.43 116 17:43 02.04.2020
5592 Clouds 14 1014 63 14484 1.43 116 17:24 02.04.2020
5593 Clouds 14 1013 63 16093 1.43 116 16:58 02.04.2020
5594 Clouds 14 1013 63 16093 1.43 116 16:40 02.04.2020
5595 Clouds 14 1013 63 16093 1.43 116 16:22 02.04.2020
5596 Clouds 14 1013 63 16093 1.43 116 15:57 02.04.2020
5597 Clouds 14 1013 63 16093 1.43 116 15:39 02.04.2020
5598 Clouds 14 1013 63 16093 1.5 0 15:19 02.04.2020
5599 Clouds 14 1013 63 16093 1.5 0 14:57 02.04.2020
5600 Clouds 14 1013 63 16093 1.5 0 14:38 02.04.2020
5601 Clouds 14 1013 63 16093 1.5 0 14:18 02.04.2020
5602 Clouds 14 1013 67 16093 1.5 0 13:55 02.04.2020
5603 Clouds 14 1013 67 16093 1.5 0 13:37 02.04.2020
5604 Clouds 14 1013 67 16093 1.5 0 13:18 02.04.2020
5605 Clouds 14 1013 63 16093 2.6 120 12:45 02.04.2020
5606 Clouds 14 1013 63 16093 2.6 120 12:19 02.04.2020
5607 Clouds 14 1013 67 16093 1.5 0 11:58 02.04.2020
5608 Clouds 14 1013 67 16093 1.5 0 11:58 02.04.2020
5609 Clouds 14 1013 67 16093 1.5 0 11:58 02.04.2020
5610 Clouds 14 1013 67 16093 1.5 0 11:39 02.04.2020
5611 Clouds 14 1013 67 16093 1.5 0 11:20 02.04.2020
5612 Clouds 14 1013 67 16093 1.5 0 10:57 02.04.2020
5613 Clouds 14 1013 67 16093 2.6 120 10:38 02.04.2020
5614 Clouds 14 1013 67 16093 2.6 120 10:20 02.04.2020
5615 Clouds 14 1013 67 16093 2.6 120 09:59 02.04.2020
5616 Clouds 14 1013 72 14484 2.1 0 09:41 02.04.2020
5617 Clouds 14 1013 72 14484 2.1 0 09:21 02.04.2020
5618 Clouds 14 1013 77 16093 2.6 130 08:47 02.04.2020
5619 Clouds 14 1013 77 16093 2.6 130 08:28 02.04.2020
5620 Clouds 14 1012 77 16093 2.1 120 07:59 02.04.2020
5621 Clear 14 1012 77 16093 2.47 170 07:40 02.04.2020
5622 Clear 14 1012 77 16093 2.47 170 07:19 02.04.2020
5623 Clear 14 1012 77 16093 2.47 170 06:25 02.04.2020
5624 Clear 15 1011 77 16093 1.5 250 05:46 02.04.2020
5625 Clear 16 1011 68 16093 2.8 185 04:58 02.04.2020
5626 Clear 20 1010 56 16093 4.09 218 02:26 02.04.2020
5627 Clear 20 1010 53 16093 1.5 0 01:27 02.04.2020
5628 Clear 21 1010 53 16093 3.1 260 00:41 02.04.2020
5629 Clear 21 1010 53 16093 3.1 260 00:20 02.04.2020
5630 Clear 21 1011 53 16093 4.37 214 23:40 01.04.2020
5631 Clear 21 1011 53 16093 4.37 214 23:19 01.04.2020
5632 Clear 21 1011 53 14484 3.1 260 22:57 01.04.2020
5633 Clear 21 1011 53 14484 3.1 260 22:57 01.04.2020
5634 Clear 21 1011 53 14484 3.1 260 22:38 01.04.2020
5635 Clear 21 1011 53 14484 3.1 260 22:20 01.04.2020
5636 Clear 21 1011 43 16093 1.5 0 21:41 01.04.2020
5637 Clear 20 1011 43 16093 1.5 0 21:19 01.04.2020
5638 Clear 20 1011 43 16093 1.5 0 20:57 01.04.2020
5639 Clear 20 1012 49 14484 1.5 0 20:39 01.04.2020
5640 Clear 19 1012 49 14484 1.5 0 20:20 01.04.2020
5641 Clear 19 1012 49 14484 1.5 0 19:59 01.04.2020
5642 Clear 19 1012 56 11265 2.11 199 19:40 01.04.2020
5643 Clear 18 1012 56 11265 2.11 199 19:20 01.04.2020
5644 Haze 17 1012 68 9656 2.11 199 18:44 01.04.2020
5645 Haze 17 1012 68 9656 2.11 199 18:25 01.04.2020
5646 Haze 16 1012 72 9656 0.27 216 17:58 01.04.2020
5647 Haze 15 1012 72 9656 0.27 216 17:38 01.04.2020
5648 Haze 14 1011 77 8047 0.27 216 17:19 01.04.2020
5649 Haze 14 1011 77 9656 0.27 216 16:59 01.04.2020
5650 Haze 13 1011 77 9656 0.27 216 16:39 01.04.2020
5651 Clouds 13 1011 87 12874 2.6 130 16:21 01.04.2020
5652 Clear 12 1011 76 16093 1.5 110 15:58 01.04.2020
5653 Mist 13 1011 87 9656 1.5 0 15:38 01.04.2020
5654 Mist 13 1011 87 9656 1.5 0 15:19 01.04.2020
5655 Mist 13 1011 87 8047 2.1 140 14:56 01.04.2020
5656 Clouds 13 1011 93 16093 1.31 186 14:38 01.04.2020
5657 Mist 13 1011 87 8047 2.1 140 14:19 01.04.2020
5658 Mist 13 1011 87 9656 3.1 130 13:57 01.04.2020
5659 Clouds 13 1010 77 12874 1.26 193 13:37 01.04.2020
5660 Clear 13 1011 72 16093 1.26 193 13:18 01.04.2020
5661 Clear 14 1011 72 16093 1.26 193 12:43 01.04.2020
5662 Clear 14 1011 72 16093 1.26 193 12:24 01.04.2020
5663 Clear 14 1011 72 16093 0.53 178 11:59 01.04.2020
5664 Clear 14 1012 72 16093 0.53 178 11:40 01.04.2020
5665 Clear 14 1011 67 16093 0.53 178 11:21 01.04.2020
5666 Clear 14 1012 67 16093 0.53 178 10:56 01.04.2020
5667 Clear 14 1012 67 16093 0.53 178 10:37 01.04.2020
5668 Clear 15 1012 67 16093 0.53 178 10:18 01.04.2020
5669 Clear 15 1012 67 16093 0.53 178 09:54 01.04.2020
5670 Clear 15 1012 67 16093 0.53 178 09:36 01.04.2020
5671 Clear 15 1012 67 16093 1.49 193 09:18 01.04.2020
5672 Clear 16 1012 67 16093 1.76 186 08:40 01.04.2020
5673 Clear 16 1012 67 16093 1.76 186 08:18 01.04.2020
5674 Clear 16 1013 59 16093 1.76 186 07:43 01.04.2020
5675 Clear 16 1013 59 16093 1.76 186 07:20 01.04.2020
5676 Clear 17 1012 55 16093 1.76 186 06:48 01.04.2020
5677 Clear 17 1012 55 16093 1.76 186 06:24 01.04.2020
5678 Clear 17 1012 42 16093 1.5 270 05:56 01.04.2020
5679 Clear 19 1012 40 16093 1.77 249 04:32 01.04.2020
5680 Clear 20 1013 35 16093 2.1 0 03:30 01.04.2020
5681 Clear 21 1013 35 16093 2.1 0 02:49 01.04.2020
5682 Clear 22 1013 35 16093 2.1 0 01:59 01.04.2020
5683 Clear 23 1014 33 16093 3.1 260 01:39 01.04.2020
5684 Clear 23 1014 33 16093 3.1 260 01:18 01.04.2020
5685 Clear 23 1014 36 16093 3.32 240 00:46 01.04.2020
5686 Clear 23 1014 36 16093 2.93 246 00:21 01.04.2020
5687 Clear 23 1014 38 16093 2.1 250 23:48 31.03.2020
5688 Clear 23 1014 38 16093 2.1 250 23:27 31.03.2020
5689 Clear 23 1015 41 16093 1.5 250 22:59 31.03.2020
5690 Clear 23 1015 41 16093 1.5 250 22:37 31.03.2020
5691 Clear 23 1015 41 16093 1.5 250 22:19 31.03.2020
5692 Clear 22 1016 33 16093 1.5 0 21:57 31.03.2020
5693 Clear 22 1016 33 16093 1.5 0 21:39 31.03.2020
5694 Clear 21 1016 33 16093 1.5 0 21:20 31.03.2020
5695 -273 0 0 0 0 0 20:55 31.03.2020
5696 Clear 21 1017 33 16093 1.5 0 20:36 31.03.2020
5697 Clear 21 1017 33 16093 1.5 0 20:36 31.03.2020
5698 Clouds 20 1017 40 16093 1.5 30 20:18 31.03.2020
5699 Clear 19 1017 46 14484 1.48 263 19:42 31.03.2020
5700 Clear 19 1017 46 14484 1.48 263 19:24 31.03.2020
5701 Clear 18 1018 59 14484 1.48 263 18:59 31.03.2020
5702 Clear 17 1018 59 14484 1.48 263 18:41 31.03.2020
5703 Clear 16 1018 59 14484 1.14 335 18:19 31.03.2020
5704 Clear 15 1018 63 14484 1.14 335 17:55 31.03.2020
5705 Clear 15 1018 63 14484 1.14 335 17:37 31.03.2020
5706 Clear 15 1018 63 14484 1.14 335 17:37 31.03.2020
5707 Clear 13 1018 63 14484 1.14 335 17:19 31.03.2020
5708 Clear 12 1018 71 16093 1.5 110 16:41 31.03.2020
5709 Clear 12 1018 71 16093 1.5 110 16:20 31.03.2020
5710 Clear 11 1018 71 16093 1.14 335 15:58 31.03.2020
5711 Clear 11 1018 71 16093 1.14 335 15:40 31.03.2020
5712 Clear 11 1018 71 16093 0.68 359 15:22 31.03.2020
5713 Clear 12 1018 71 16093 0.68 359 14:58 31.03.2020
5714 Clear 12 1018 71 16093 0.68 359 14:40 31.03.2020
5715 Clear 12 1018 71 16093 0.68 359 14:21 31.03.2020
5716 Clear 11 1019 71 16093 0.83 6 13:54 31.03.2020
5717 Clear 12 1019 71 16093 0.83 6 13:36 31.03.2020
5718 Clear 12 1019 71 16093 0.83 6 13:18 31.03.2020
5719 Clear 12 1019 71 16093 0.83 6 12:42 31.03.2020
5720 Clear 12 1019 71 16093 0.28 152 12:20 31.03.2020
5721 Clear 12 1020 71 16093 0.28 152 11:55 31.03.2020
5722 Clear 12 1020 71 16093 0.28 152 11:36 31.03.2020
5723 Clear 12 1020 71 16093 0.28 152 11:18 31.03.2020
5724 Clear 12 1020 72 16093 0.28 152 10:55 31.03.2020
5725 Clear 12 1020 72 16093 0.28 152 10:37 31.03.2020
5726 Clear 12 1020 72 16093 0.28 152 10:18 31.03.2020
5727 Clear 12 1021 72 16093 0.28 152 09:43 31.03.2020
5728 Clear 12 1021 72 16093 0.19 181 09:24 31.03.2020
5729 Clear 13 1021 72 16093 0.19 181 08:57 31.03.2020
5730 Clear 13 1022 67 16093 0.19 181 08:39 31.03.2020
5731 Clear 13 1022 67 16093 0.19 181 08:19 31.03.2020
5732 Clear 13 1022 63 16093 0.19 181 07:56 31.03.2020
5733 Clear 13 1022 63 16093 0.19 181 07:38 31.03.2020
5734 Clear 14 1022 63 16093 0.19 181 07:19 31.03.2020
5735 Clear 14 1022 67 16093 0.19 181 06:51 31.03.2020
5736 Clear 14 1022 67 16093 0.19 181 06:30 31.03.2020
5737 Clear 15 1021 59 16093 2.1 250 05:40 31.03.2020
5738 Clear 18 1021 52 16093 3.6 260 03:43 31.03.2020
5739 Clear 20 1021 46 16093 2.1 250 02:26 31.03.2020
5740 Clear 21 1021 43 16093 2.1 0 01:46 31.03.2020
5741 Clear 21 1021 40 16093 3.6 260 00:52 31.03.2020
5742 Clear 21 1021 40 16093 3.6 260 00:25 31.03.2020
5743 Clear 21 1021 40 16093 3.6 260 23:59 30.03.2020
5744 Clear 21 1022 31 16093 1.5 0 23:38 30.03.2020
5745 Clear 21 1022 31 16093 1.5 0 23:19 30.03.2020
5746 Clear 21 1023 37 16093 2.6 258 22:56 30.03.2020
5747 Clear 20 1023 37 16093 2.6 258 22:37 30.03.2020
5748 Clear 20 1023 37 16093 2.6 258 22:37 30.03.2020
5749 Clear 20 1023 37 16093 2.6 258 22:18 30.03.2020
5750 Clear 20 1024 37 16093 1.5 70 21:55 30.03.2020
5751 Clear 19 1024 37 16093 1.5 70 21:37 30.03.2020
5752 -273 0 0 0 0 0 21:18 30.03.2020
5753 Clear 18 1024 49 16093 1.34 210 20:55 30.03.2020
5754 Clear 18 1024 49 16093 1.34 210 20:36 30.03.2020
5755 Clear 17 1024 49 16093 1.34 210 20:18 30.03.2020
5756 Clear 17 1024 52 16093 1.34 210 19:40 30.03.2020
5757 Clear 16 1024 52 16093 1.34 210 19:22 30.03.2020
5758 Clear 16 1024 55 16093 1.5 0 18:57 30.03.2020
5759 Clear 15 1024 55 16093 1.5 0 18:39 30.03.2020
5760 Clear 14 1024 55 16093 1.5 0 18:20 30.03.2020
5761 Clear 14 1023 67 14484 1.68 65 17:57 30.03.2020
5762 Clear 13 1023 67 14484 1.68 65 17:38 30.03.2020
5763 Clear 12 1023 67 14484 1.68 65 17:19 30.03.2020
5764 Clear 11 1022 71 14484 1.68 65 16:56 30.03.2020
5765 Clear 10 1022 71 14484 1.68 65 16:38 30.03.2020
5766 Clear 9 1022 71 14484 1.68 65 16:19 30.03.2020
5767 Clear 9 1022 71 16093 1.68 65 15:54 30.03.2020
5768 Clear 9 1022 71 16093 1.68 65 15:36 30.03.2020
5769 Clear 8 1022 71 16093 1.39 73 15:18 30.03.2020
5770 Clear 9 1022 71 16093 1.39 73 14:54 30.03.2020
5771 Clear 9 1022 71 16093 1.39 73 14:36 30.03.2020
5772 Clear 9 1022 71 16093 1.63 92 14:18 30.03.2020
5773 Clear 9 1021 71 16093 1.63 92 13:43 30.03.2020
5774 Clear 9 1021 71 16093 1.63 92 13:21 30.03.2020
5775 Clear 9 1021 71 16093 1.63 92 12:58 30.03.2020
5776 Clear 10 1021 67 16093 1.63 92 12:40 30.03.2020
5777 Clear 10 1021 67 16093 1.31 73 12:19 30.03.2020
5778 Clear 10 1021 71 16093 1.31 73 11:56 30.03.2020
5779 Clear 10 1021 71 16093 1.31 73 11:38 30.03.2020
5780 Clear 11 1021 71 16093 1.31 73 11:20 30.03.2020
5781 Clear 11 1021 71 16093 1.31 73 10:40 30.03.2020
5782 Clear 11 1021 71 16093 1.31 73 10:22 30.03.2020
5783 Clear 11 1021 71 16093 1.31 73 09:56 30.03.2020
5784 Clear 11 1020 71 14484 1.31 73 09:38 30.03.2020
5785 Clear 11 1020 71 14484 2.23 269 09:19 30.03.2020
5786 Clear 12 1019 71 16093 2.23 269 08:42 30.03.2020
5787 Clear 12 1019 71 16093 2.23 269 08:22 30.03.2020
5788 Clear 12 1019 67 16093 2.23 269 07:50 30.03.2020
5789 Clear 12 1019 67 16093 2.23 269 07:31 30.03.2020
5790 Clear 13 1019 67 16093 2.23 269 06:57 30.03.2020
5791 Clear 13 1019 67 16093 2.23 269 06:33 30.03.2020
5792 Clear 13 1019 63 16093 2.1 250 05:54 30.03.2020
5793 Clear 14 1019 63 16093 2.1 250 05:33 30.03.2020
5794 Clear 14 1018 59 16093 3.6 260 04:24 30.03.2020
5795 Clear 15 1017 52 16093 5.1 260 03:44 30.03.2020
5796 Clear 17 1017 48 16093 4.1 250 02:42 30.03.2020
5797 Clouds 17 1018 42 16093 2.1 250 01:48 30.03.2020
5798 Clear 18 1018 45 16093 4.1 260 00:55 30.03.2020
5799 Clear 18 1018 45 16093 4.1 260 00:24 30.03.2020
5800 Clear 18 1019 42 16093 2.6 250 23:43 29.03.2020
5801 Clear 18 1019 42 16093 2.6 250 23:24 29.03.2020
5802 Clear 17 1019 42 16093 2.6 250 22:59 29.03.2020
5803 Clouds 17 1019 42 16093 4.1 260 22:39 29.03.2020
5804 Clouds 17 1019 42 16093 4.1 260 22:19 29.03.2020
5805 Clouds 17 1019 42 16093 4.1 260 21:58 29.03.2020
5806 Clear 17 1020 45 16093 1.5 0 21:37 29.03.2020
5807 Clear 17 1020 45 16093 1.5 0 21:18 29.03.2020
5808 Clouds 17 1020 52 14484 2.32 206 20:55 29.03.2020
5809 Clouds 17 1020 52 14484 2.32 206 20:55 29.03.2020
5810 Clouds 16 1020 52 14484 2.32 206 20:37 29.03.2020
5811 Clouds 16 1020 52 14484 2.32 206 20:37 29.03.2020
5812 Clouds 16 1020 52 14484 2.32 206 20:18 29.03.2020
5813 Clouds 15 1020 59 14484 2.1 0 19:55 29.03.2020
5814 Clouds 15 1020 59 14484 2.1 0 19:37 29.03.2020
5815 Clouds 15 1020 59 14484 2.1 0 19:18 29.03.2020
5816 Clouds 14 1020 59 14484 1.5 70 18:55 29.03.2020
5817 Clouds 14 1020 59 14484 1.5 70 18:36 29.03.2020
5818 Clouds 13 1020 59 14484 1.5 70 18:18 29.03.2020
5819 Clouds 12 1019 67 12874 2.1 90 17:42 29.03.2020
5820 Clouds 11 1019 71 14484 0.74 129 17:24 29.03.2020
5821 Clouds 10 1019 66 14484 1.5 60 16:59 29.03.2020
5822 Clouds 9 1019 76 16093 1.5 70 16:41 29.03.2020
5823 Clouds 8 1019 71 14484 0.74 129 16:21 29.03.2020
5824 Clouds 8 1019 81 16093 2.6 70 15:59 29.03.2020
5825 Clouds 8 1019 81 16093 2.6 70 15:59 29.03.2020
5826 Clouds 8 1018 76 16093 0.74 129 15:40 29.03.2020
5827 Clouds 8 1018 81 16093 2.6 80 15:21 29.03.2020
5828 Clouds 8 1018 75 16093 0.95 212 14:57 29.03.2020
5829 Clear 8 1018 81 16093 0.95 212 14:38 29.03.2020
5830 Clear 8 1018 81 16093 0.95 212 14:19 29.03.2020
5831 Clear 8 1018 71 16093 0.69 184 13:56 29.03.2020
5832 Clear 8 1018 71 16093 0.69 184 13:37 29.03.2020
5833 Clear 9 1018 71 16093 0.69 184 13:19 29.03.2020
5834 Clear 9 1018 76 16093 0.69 184 12:55 29.03.2020
5835 Clear 9 1018 76 16093 0.69 184 12:37 29.03.2020
5836 Clear 9 1018 76 16093 0.79 243 12:18 29.03.2020
5837 Clear 9 1018 76 16093 0.79 243 12:18 29.03.2020
5838 Clear 9 1019 76 14484 0.79 243 11:39 29.03.2020
5839 Clear 10 1019 76 14484 0.79 243 11:21 29.03.2020
5840 Clear 10 1019 76 14484 0.79 243 10:59 29.03.2020
5841 Clear 10 1019 76 12874 0.79 243 10:37 29.03.2020
5842 Clear 10 1019 76 12874 0.79 243 10:18 29.03.2020
5843 Clear 11 1019 71 14484 0.79 243 09:39 29.03.2020
5844 Clear 11 1019 71 14484 2.29 253 09:19 29.03.2020
5845 Clear 11 1019 71 14484 2.05 255 08:53 29.03.2020
5846 Clear 11 1019 71 14484 2.05 255 08:28 29.03.2020
5847 Clear 11 1019 71 14484 2.05 255 08:28 29.03.2020
5848 Clear 11 1019 67 16093 2.05 255 07:58 29.03.2020
5849 Clear 11 1019 67 16093 2.05 255 07:58 29.03.2020
5850 Clear 12 1019 67 16093 2.05 255 07:40 29.03.2020
5851 Clear 12 1019 67 16093 2.05 255 07:20 29.03.2020
5852 Clear 13 1019 59 16093 3.1 260 04:59 29.03.2020
5853 Clear 15 1019 42 16093 2.6 250 03:55 29.03.2020
5854 Clear 15 1019 42 16093 2.6 250 03:26 29.03.2020
5855 Clear 16 1019 45 16093 1.5 250 01:51 29.03.2020
5856 Clear 17 1019 45 16093 1.5 250 01:23 29.03.2020
5857 Clear 17 1019 42 16093 3.1 260 00:55 29.03.2020
5858 Clear 17 1019 42 16093 3.1 260 00:32 29.03.2020
5859 Clear 17 1020 42 16093 2.6 0 23:43 28.03.2020
5860 Clear 18 1020 42 16093 2.6 0 23:24 28.03.2020
5861 Clouds 18 1020 45 16093 1.5 280 22:59 28.03.2020
5862 Clouds 18 1020 45 16093 1.5 280 22:39 28.03.2020
5863 Clouds 18 1020 45 16093 1.5 280 22:20 28.03.2020
5864 Clear 17 1021 39 16093 3.5 217 21:55 28.03.2020
5865 Clear 17 1021 39 16093 3.5 217 21:37 28.03.2020
5866 Clear 17 1021 39 16093 3.5 217 21:18 28.03.2020
5867 Clouds 17 1022 42 16093 3.5 217 20:42 28.03.2020
5868 Clouds 16 1022 42 16093 3.5 217 20:23 28.03.2020
5869 Clouds 16 1022 42 16093 1.64 153 19:57 28.03.2020
5870 Clear 16 1023 42 16093 1.64 153 19:39 28.03.2020
5871 Clear 15 1023 42 16093 1.64 153 19:20 28.03.2020
5872 Clear 15 1022 48 16093 1.64 153 18:58 28.03.2020
5873 Clear 15 1022 48 16093 1.64 153 18:39 28.03.2020
5874 Clear 14 1022 48 16093 1.64 153 18:19 28.03.2020
5875 Clouds 13 1022 50 16093 2.1 80 17:39 28.03.2020
5876 Clouds 12 1022 50 16093 2.1 80 17:21 28.03.2020
5877 Clear 11 1021 54 16093 1.5 0 16:55 28.03.2020
5878 Clear 11 1021 54 16093 1.5 0 16:37 28.03.2020
5879 Clear 10 1021 54 16093 1.5 0 16:18 28.03.2020
5880 Clouds 9 1021 58 16093 1.7 103 15:39 28.03.2020
5881 Clouds 8 1021 58 16093 1.7 103 15:19 28.03.2020
5882 Clouds 8 1021 75 16093 2.1 230 14:56 28.03.2020
5883 Clouds 8 1021 71 16093 1.7 103 14:38 28.03.2020
5884 Clouds 8 1021 71 16093 1.35 133 14:20 28.03.2020
5885 Clouds 8 1021 54 16093 2.1 90 13:41 28.03.2020
5886 Clouds 8 1021 54 16093 1.5 0 13:22 28.03.2020
5887 Clouds 8 1021 54 16093 2.1 100 12:40 28.03.2020
5888 Clouds 9 1021 58 16093 1.5 0 12:22 28.03.2020
5889 Clouds 9 1021 58 16093 1.5 0 12:22 28.03.2020
5890 Clear 9 1022 71 16093 1.6 123 11:43 28.03.2020
5891 Clear 8 1022 71 16093 1.53 139 11:23 28.03.2020
5892 Clear 8 1021 58 16093 1.5 60 10:58 28.03.2020
5893 Clear 9 1021 58 16093 1.5 60 10:38 28.03.2020
5894 Clear 9 1021 58 16093 1.5 60 10:18 28.03.2020
5895 Clear 9 1022 76 16093 1.53 139 09:43 28.03.2020
5896 Clear 9 1022 76 16093 1.53 139 09:24 28.03.2020
5897 Clear 10 1021 67 14484 1.5 70 08:57 28.03.2020
5898 Clear 10 1021 67 14484 1.5 70 08:39 28.03.2020
5899 Clear 10 1021 67 14484 1.5 70 08:39 28.03.2020
5900 Clear 10 1021 67 14484 1.5 70 08:20 28.03.2020
5901 Clear 10 1022 71 16093 1.5 196 07:44 28.03.2020
5902 Clear 11 1021 67 16093 1.5 196 06:59 28.03.2020
5903 Clear 11 1021 67 16093 1.5 196 06:36 28.03.2020
5904 Clear 12 1021 62 16093 1.5 196 05:43 28.03.2020
5905 Clear 12 1021 62 16093 1.5 196 05:21 28.03.2020
5906 Clear 12 1020 55 16093 4.47 254 04:41 28.03.2020
5907 Clouds 13 1020 50 16093 2.6 290 03:54 28.03.2020
5908 Clear 15 1019 36 16093 2.6 250 02:25 28.03.2020
5909 Clear 16 1019 31 16093 3.6 260 01:41 28.03.2020
5910 Clear 16 1019 31 16093 3.6 260 01:18 28.03.2020
5911 Clear 17 1018 31 16093 2.1 240 00:45 28.03.2020
5912 Clear 17 1019 31 16093 3.6 260 23:59 27.03.2020
5913 Clear 17 1019 31 16093 3.6 260 23:41 27.03.2020
5914 Clear 17 1019 31 16093 3.6 260 23:22 27.03.2020
5915 Clear 17 1019 34 16093 1.5 0 22:56 27.03.2020
5916 Clear 17 1019 34 16093 1.5 0 22:38 27.03.2020
5917 Clear 17 1019 34 16093 1.5 0 22:20 27.03.2020
5918 Clear 17 1019 30 16093 2.1 250 21:55 27.03.2020
5919 Clear 17 1019 30 16093 2.1 250 21:37 27.03.2020
5920 Clear 16 1019 30 16093 2.1 250 21:19 27.03.2020
5921 Clear 16 1019 24 16093 4.39 244 20:42 27.03.2020
5922 Clear 15 1019 24 16093 1.23 290 20:21 27.03.2020
5923 Clear 15 1019 26 16093 4.1 300 19:59 27.03.2020
5924 Clear 15 1019 27 16093 1.5 0 19:40 27.03.2020
5925 Clear 15 1020 29 16093 3.1 0 19:22 27.03.2020
5926 Clear 14 1019 29 16093 3.1 300 18:56 27.03.2020
5927 Clear 14 1019 29 16093 3.1 300 18:38 27.03.2020
5928 Clear 14 1019 30 16093 4.1 320 18:19 27.03.2020
5929 Clear 12 1018 35 16093 2.6 280 17:40 27.03.2020
5930 Clear 12 1018 35 16093 2.6 280 17:20 27.03.2020
5931 Clear 12 1018 35 16093 2.6 280 17:20 27.03.2020
5932 Clear 11 1018 45 16093 1.5 0 16:54 27.03.2020
5933 Clear 10 1018 45 16093 1.5 0 16:36 27.03.2020
5934 Clear 10 1018 45 16093 1.5 0 16:36 27.03.2020
5935 Clear 9 1018 45 16093 1.5 0 16:18 27.03.2020
5936 Clear 8 1017 43 16093 1.98 345 15:41 27.03.2020
5937 Clear 9 1017 43 16093 1.98 345 15:23 27.03.2020
5938 Clear 8 1016 43 16093 1.98 345 14:46 27.03.2020
5939 Clear 8 1016 43 16093 1.98 345 14:25 27.03.2020
5940 Clear 8 1016 43 16093 2.57 344 13:57 27.03.2020
5941 Clear 8 1016 43 16093 2.57 344 13:38 27.03.2020
5942 Clear 8 1016 43 16093 2.29 348 13:19 27.03.2020
5943 Clear 8 1016 43 16093 2.1 300 12:57 27.03.2020
5944 Clear 8 1016 43 16093 2.1 300 12:38 27.03.2020
5945 Clear 8 1016 43 16093 2.1 300 12:18 27.03.2020
5946 Clouds 8 1016 43 16093 2.29 348 11:41 27.03.2020
5947 Clouds 8 1016 43 16093 2.29 348 11:23 27.03.2020
5948 Clear 8 1016 53 16093 1.27 336 10:55 27.03.2020
5949 Clear 8 1016 53 16093 1.27 336 10:37 27.03.2020
5950 Clear 9 1016 53 16093 1.27 336 10:18 27.03.2020
5951 Clouds 9 1016 57 16093 1.27 336 09:56 27.03.2020
5952 Clouds 9 1016 57 16093 1.27 336 09:37 27.03.2020
5953 Clouds 8 1016 57 16093 1.27 336 09:18 27.03.2020
5954 Clouds 9 1016 54 16093 1.5 270 08:56 27.03.2020
5955 Clouds 9 1016 54 16093 1.5 270 08:37 27.03.2020
5956 Clouds 9 1016 54 16093 1.5 270 08:19 27.03.2020
5957 Clear 9 1016 54 16093 3.66 261 07:50 27.03.2020
5958 Clear 9 1016 54 16093 3.66 261 07:23 27.03.2020
5959 Clouds 10 1016 47 16093 3.66 261 06:53 27.03.2020
5960 Clouds 10 1016 47 16093 3.66 261 06:35 27.03.2020
5961 Clear 11 1015 44 16093 2.6 0 04:24 27.03.2020
5962 Clear 13 1015 47 16093 9.3 260 02:32 27.03.2020
5963 Clear 15 1014 36 16093 4.1 270 01:23 27.03.2020
5964 Clear 15 1014 38 16093 7.2 270 00:50 27.03.2020
5965 Clear 15 1014 38 16093 7.2 270 00:24 27.03.2020
5966 Clear 15 1015 29 16093 3.1 250 23:44 26.03.2020
5967 Clear 15 1015 29 16093 3.1 250 23:23 26.03.2020
5968 Clear 16 1015 33 16093 2.1 0 22:59 26.03.2020
5969 Clear 16 1015 33 16093 2.1 0 22:59 26.03.2020
5970 Clear 16 1015 33 16093 2.1 0 22:38 26.03.2020
5971 Clear 16 1015 33 16093 2.1 0 22:20 26.03.2020
5972 Clear 16 1015 33 16093 2.1 0 21:57 26.03.2020
5973 Clear 16 1016 32 16093 4.1 260 21:39 26.03.2020
5974 Clear 16 1016 32 16093 4.1 260 21:20 26.03.2020
5975 Clear 15 1016 29 16093 7.15 252 20:58 26.03.2020
5976 Clear 15 1017 35 16093 5.1 230 20:38 26.03.2020
5977 Clear 15 1017 35 16093 5.1 230 20:38 26.03.2020
5978 Clear 15 1017 35 16093 5.1 230 20:20 26.03.2020
5979 Clear 15 1017 35 16093 5.1 230 20:20 26.03.2020
5980 Clear 15 1017 31 16093 2.1 160 19:56 26.03.2020
5981 Clear 14 1017 33 16093 2.29 248 19:37 26.03.2020
5982 Clear 14 1017 33 16093 2.29 248 19:19 26.03.2020
5983 Clear 14 1017 38 16093 2.29 248 18:55 26.03.2020
5984 Clear 13 1017 38 16093 2.29 248 18:36 26.03.2020
5985 Clear 13 1017 38 16093 2.29 248 18:18 26.03.2020
5986 Clear 12 1017 50 16093 2.29 248 17:42 26.03.2020
5987 Clear 11 1017 50 16093 1.99 309 17:19 26.03.2020
5988 Clear 10 1017 57 16093 1.99 309 16:45 26.03.2020
5989 Clear 10 1017 57 16093 1.99 309 16:27 26.03.2020
5990 Clear 9 1017 57 16093 1.99 309 15:59 26.03.2020
5991 Clear 8 1016 61 16093 1.99 309 15:40 26.03.2020
5992 Clear 6 1016 61 16093 1.99 309 15:22 26.03.2020
5993 Clear 7 1016 66 16093 1.99 309 14:58 26.03.2020
5994 Clear 6 1016 66 16093 1.99 309 14:39 26.03.2020
5995 Clear 7 1016 66 16093 2.74 279 14:19 26.03.2020
5996 Clear 6 1016 61 11265 2.74 279 13:44 26.03.2020
5997 Clear 7 1016 61 11265 2.63 282 13:24 26.03.2020
5998 Clear 7 1016 61 16093 2.63 282 12:58 26.03.2020
5999 Clear 8 1016 61 16093 2.63 282 12:38 26.03.2020
6000 Clear 7 1016 61 16093 2.63 282 12:20 26.03.2020
6001 Clear 8 1016 57 16093 2.63 282 11:45 26.03.2020
6002 Clear 8 1016 57 16093 2.63 282 11:22 26.03.2020
6003 Clear 8 1016 57 16093 2.63 282 11:22 26.03.2020
6004 Clear 9 1016 54 16093 4.14 275 10:56 26.03.2020
6005 Clear 9 1016 54 16093 4.14 275 10:38 26.03.2020
6006 Clear 9 1016 54 16093 4.14 275 10:19 26.03.2020
6007 Clear 9 1016 54 16093 4.14 275 09:44 26.03.2020
6008 Clear 9 1016 54 16093 4.14 275 09:20 26.03.2020
6009 Clouds 10 1016 54 16093 1.5 260 08:56 26.03.2020
6010 Clouds 10 1016 54 16093 1.5 260 08:37 26.03.2020
6011 Clouds 10 1016 54 16093 1.5 260 08:19 26.03.2020
6012 Clouds 11 1016 54 16093 1.5 270 07:44 26.03.2020
6013 Clouds 11 1016 54 16093 1.5 270 07:22 26.03.2020
6014 Clouds 11 1016 54 16093 2.1 260 06:56 26.03.2020
6015 Clouds 12 1016 51 16093 1.5 260 05:59 26.03.2020
6016 Clouds 12 1016 51 16093 1.5 260 05:22 26.03.2020
6017 Clouds 13 1015 55 16093 3.1 260 03:45 26.03.2020
6018 Clouds 14 1015 51 16093 2.6 250 02:56 26.03.2020
6019 Clouds 16 1016 55 16093 6.7 260 01:50 26.03.2020
6020 Clear 16 1016 48 16093 2.6 0 00:55 26.03.2020
6021 Clear 16 1016 48 16093 2.6 0 00:22 26.03.2020
6022 Clear 17 1016 48 16093 3.6 250 23:41 25.03.2020
6023 Clear 17 1016 48 16093 3.6 250 23:22 25.03.2020
6024 Clouds 17 1017 48 16093 1.5 0 22:42 25.03.2020
6025 Clouds 16 1017 48 16093 1.5 0 22:22 25.03.2020
6026 Clear 17 1018 45 16093 2.1 240 21:57 25.03.2020
6027 Clear 17 1018 45 16093 2.1 240 21:38 25.03.2020
6028 Clouds 17 1018 51 16093 5.7 260 21:20 25.03.2020
6029 Clouds 16 1019 55 16093 4.6 240 20:56 25.03.2020
6030 Clouds 16 1019 55 16093 4.6 240 20:37 25.03.2020
6031 Clouds 16 1019 55 16093 3.6 270 20:18 25.03.2020
6032 Clouds 16 1019 55 16093 4.6 240 20:18 25.03.2020
6033 Clouds 15 1019 55 16093 3.6 270 19:43 25.03.2020
6034 Clouds 15 1019 55 16093 3.6 270 19:23 25.03.2020
6035 Clouds 15 1020 62 16093 3.1 270 18:59 25.03.2020
6036 Clouds 15 1020 62 16093 3.1 270 18:40 25.03.2020
6037 Clouds 15 1020 62 16093 3.1 270 18:22 25.03.2020
6038 Clouds 14 1019 58 16093 2.75 230 17:57 25.03.2020
6039 Clouds 14 1019 58 16093 2.94 236 17:39 25.03.2020
6040 Clouds 13 1019 58 16093 1.19 259 17:21 25.03.2020
6041 Clouds 13 1019 62 16093 1.19 259 16:55 25.03.2020
6042 Clouds 13 1019 62 16093 1.19 259 16:36 25.03.2020
6043 Clouds 12 1019 62 16093 0.66 255 16:18 25.03.2020
6044 Clouds 12 1019 67 16093 1.19 259 15:41 25.03.2020
6045 Clouds 11 1019 67 16093 0.66 255 15:20 25.03.2020
6046 Clouds 11 1018 67 16093 0.66 255 14:56 25.03.2020
6047 Clouds 11 1018 67 16093 1.19 259 14:37 25.03.2020
6048 Clouds 11 1018 67 16093 1.34 239 14:19 25.03.2020
6049 Clouds 11 1018 62 16093 1.17 223 13:42 25.03.2020
6050 Clouds 11 1018 62 16093 1.34 239 13:22 25.03.2020
6051 Clouds 11 1018 62 16093 1.17 223 12:38 25.03.2020
6052 Clouds 11 1018 62 16093 1.34 239 12:20 25.03.2020
6053 Clouds 11 1019 58 16093 1.17 223 11:57 25.03.2020
6054 Clouds 11 1019 58 16093 1.17 223 11:39 25.03.2020
6055 Clouds 11 1019 58 16093 2.53 245 11:20 25.03.2020
6056 Clouds 12 1019 58 16093 2.53 245 10:57 25.03.2020
6057 Clouds 12 1019 58 16093 2.53 245 10:39 25.03.2020
6058 Clouds 12 1019 58 16093 2.53 245 10:18 25.03.2020
6059 Clouds 12 1020 58 16093 2.53 245 09:43 25.03.2020
6060 Clouds 12 1020 58 16093 2.53 245 09:25 25.03.2020
6061 Clouds 11 1020 58 16093 2.53 245 08:58 25.03.2020
6062 Clouds 12 1020 58 16093 2.53 245 08:39 25.03.2020
6063 Clouds 12 1020 58 16093 2.8 250 08:20 25.03.2020
6064 Clouds 12 1020 58 16093 2.99 247 07:55 25.03.2020
6065 Clouds 12 1020 58 16093 2.99 247 07:36 25.03.2020
6066 Clouds 12 1020 58 16093 2.99 247 07:18 25.03.2020
6067 Clouds 12 1020 58 16093 2.99 247 06:41 25.03.2020
6068 Clouds 12 1020 58 16093 2.99 247 06:22 25.03.2020
6069 Clear 12 1020 58 16093 1.5 250 05:47 25.03.2020
6070 Clear 13 1020 55 16093 2.6 250 04:42 25.03.2020
6071 Clear 13 1020 55 16093 2.6 250 03:57 25.03.2020
6072 Clear 13 1020 55 16093 2.6 260 03:32 25.03.2020
6073 Clear 16 1019 48 16093 2.6 240 01:40 25.03.2020
6074 Clear 17 1020 52 16093 3.1 0 00:50 25.03.2020
6075 Clear 17 1020 52 16093 3.1 0 00:27 25.03.2020
6076 Clouds 17 1020 52 16093 2.6 250 23:57 24.03.2020
6077 Clouds 17 1020 52 16093 2.6 250 23:37 24.03.2020
6078 Clouds 17 1020 52 16093 2.6 250 23:19 24.03.2020
6079 Clouds 17 1021 52 16093 3.1 260 22:54 24.03.2020
6080 Clouds 17 1021 52 16093 3.1 260 22:36 24.03.2020
6081 Clouds 17 1021 52 16093 3.1 260 22:18 24.03.2020
6082 Clouds 17 1022 59 16093 4.1 190 21:42 24.03.2020
6083 Clouds 16 1022 59 16093 4.1 190 21:19 24.03.2020
6084 Clouds 16 1022 59 16093 4.1 260 20:59 24.03.2020
6085 Clouds 16 1022 59 16093 4.33 231 20:40 24.03.2020
6086 Clouds 16 1022 59 16093 1.86 221 20:22 24.03.2020
6087 Clouds 15 1022 59 16093 1.5 30 19:48 24.03.2020
6088 Clouds 15 1022 59 16093 1.5 30 19:22 24.03.2020
6089 Clouds 15 1022 72 14484 1.5 0 18:59 24.03.2020
6090 Clouds 15 1022 72 14484 1.5 0 18:39 24.03.2020
6091 Clouds 15 1022 72 14484 1.5 0 18:20 24.03.2020
6092 Rain 14 1022 71 11265 1.5 80 17:58 24.03.2020
6093 Rain 13 1022 71 11265 1.5 80 17:40 24.03.2020
6094 Rain 13 1022 71 11265 1.5 80 17:40 24.03.2020
6095 Rain 13 1022 71 11265 1.5 80 17:22 24.03.2020
6096 Rain 12 1022 76 12874 2.6 110 16:57 24.03.2020
6097 Rain 12 1022 76 14484 0.42 149 16:38 24.03.2020
6098 Rain 11 1022 71 16093 0.42 149 16:20 24.03.2020
6099 Rain 11 1022 87 6437 0.42 149 15:43 24.03.2020
6100 Clouds 10 1022 76 12874 2.1 80 15:25 24.03.2020
6101 Clouds 10 1021 81 16093 0.42 149 14:57 24.03.2020
6102 Clouds 10 1021 81 16093 0.42 149 14:37 24.03.2020
6103 Clouds 10 1021 76 16093 1.33 234 14:18 24.03.2020
6104 Clear 10 1021 81 16093 1.33 234 13:41 24.03.2020
6105 Clear 10 1021 81 16093 1.31 218 13:22 24.03.2020
6106 Clouds 10 1021 81 16093 1.31 218 12:47 24.03.2020
6107 Clouds 10 1021 81 16093 1.31 218 12:28 24.03.2020
6108 Clear 10 1022 76 16093 1.5 20 11:58 24.03.2020
6109 Clear 10 1022 76 16093 1.5 20 11:38 24.03.2020
6110 Clear 10 1022 76 16093 1.5 20 11:18 24.03.2020
6111 Clouds 10 1022 87 16093 0.93 209 10:42 24.03.2020
6112 Clear 10 1022 76 16093 0.93 209 10:19 24.03.2020
6113 Clouds 10 1022 76 16093 0.93 209 09:57 24.03.2020
6114 Clouds 10 1022 76 16093 0.93 209 09:39 24.03.2020
6115 Clear 11 1022 76 16093 0.93 209 09:20 24.03.2020
6116 Clouds 11 1022 100 14484 1.5 340 08:38 24.03.2020
6117 Clouds 11 1022 76 16093 2.87 221 08:20 24.03.2020
6118 Clouds 11 1022 93 16093 1.5 320 07:47 24.03.2020
6119 Clear 11 1022 71 16093 2.87 221 07:24 24.03.2020
6120 Clear 12 1022 76 16093 2.87 221 06:52 24.03.2020
6121 Clear 12 1022 72 16093 2.87 221 06:25 24.03.2020
6122 Clouds 13 1022 67 16093 5.7 280 04:57 24.03.2020
6123 Clear 13 1021 71 16093 3.1 290 03:48 24.03.2020
6124 Clouds 14 1021 59 16093 2.6 250 03:18 24.03.2020
6125 Clear 15 1021 51 16093 4.1 270 01:47 24.03.2020
6126 Clouds 16 1021 58 16093 2.6 130 00:48 24.03.2020
6127 Clouds 16 1020 48 16093 5.45 246 00:25 24.03.2020
6128 Clouds 17 1020 55 16093 5.7 240 23:45 23.03.2020
6129 Clear 17 1021 45 16093 2.6 260 23:26 23.03.2020
6130 Clouds 17 1021 59 16093 6.2 250 22:56 23.03.2020
6131 Clouds 17 1021 59 16093 6.2 250 22:56 23.03.2020
6132 Clouds 17 1020 58 16093 4.1 240 22:37 23.03.2020
6133 Clouds 17 1021 48 16093 1.5 0 22:19 23.03.2020
6134 Clouds 17 1021 48 16093 4.1 250 21:44 23.03.2020
6135 Clouds 17 1021 48 16093 1.5 250 21:21 23.03.2020
6136 Rain 16 1022 59 16093 4.1 210 20:58 23.03.2020
6137 Rain 16 1021 48 16093 2.1 250 20:40 23.03.2020
6138 Rain 16 1021 48 16093 2.1 250 20:22 23.03.2020
6139 Clouds 16 1021 58 16093 2.1 130 19:54 23.03.2020
6140 Clouds 16 1021 48 16093 2.1 0 19:36 23.03.2020
6141 Clouds 15 1021 48 16093 2.1 0 19:18 23.03.2020
6142 Clouds 15 1020 71 16093 1.5 0 18:42 23.03.2020
6143 Clear 15 1021 59 16093 1.5 250 18:23 23.03.2020
6144 Clouds 14 1021 67 16093 4.1 260 17:56 23.03.2020
6145 Clouds 14 1021 71 16093 4.1 290 17:38 23.03.2020
6146 Rain 13 1020 72 16093 1.5 290 17:19 23.03.2020
6147 Rain 13 1019 100 16093 5.7 260 16:43 23.03.2020
6148 Rain 12 1020 82 16093 3.72 247 16:25 23.03.2020
6149 Rain 12 1019 100 16093 5.1 270 15:44 23.03.2020
6150 Rain 11 1019 71 16093 2.1 290 15:21 23.03.2020
6151 Rain 11 1018 87 16093 3.72 247 14:57 23.03.2020
6152 Rain 12 1018 100 12874 4.1 270 14:37 23.03.2020
6153 Rain 12 1018 87 16093 4.06 246 14:18 23.03.2020
6154 Rain 12 1018 87 16093 4.06 246 14:18 23.03.2020
6155 Rain 12 1017 87 16093 2.1 140 13:54 23.03.2020
6156 Rain 12 1017 87 16093 2.1 140 13:54 23.03.2020
6157 Rain 12 1017 100 12874 3.6 230 13:36 23.03.2020
6158 Rain 12 1017 87 11265 3.72 243 13:18 23.03.2020
6159 Rain 12 1017 82 12874 1.5 240 12:41 23.03.2020
6160 Rain 12 1017 87 14484 3.72 243 12:22 23.03.2020
6161 Rain 12 1017 77 16093 4.1 240 11:55 23.03.2020
6162 Rain 12 1017 87 12874 2.6 150 11:37 23.03.2020
6163 Rain 12 1017 93 16093 2.6 110 11:18 23.03.2020
6164 Rain 13 1018 87 16093 0.77 87 10:40 23.03.2020
6165 Rain 13 1018 87 16093 0.77 87 10:40 23.03.2020
6166 Rain 13 1018 82 16093 0.77 87 10:22 23.03.2020
6167 Rain 13 1018 82 16093 0.77 87 09:59 23.03.2020
6168 Rain 13 1018 87 16093 3.6 230 09:40 23.03.2020
6169 Rain 13 1017 100 8047 0.77 87 09:19 23.03.2020
6170 Rain 13 1017 87 11265 0.77 87 08:38 23.03.2020
6171 Rain 13 1017 87 4828 2.1 90 08:20 23.03.2020
6172 Rain 13 1018 87 8047 4.1 230 07:51 23.03.2020
6173 Rain 13 1017 87 4023 2.1 60 07:33 23.03.2020
6174 Rain 13 1018 87 6437 4.1 260 06:55 23.03.2020
6175 Rain 13 1017 87 4828 1.5 0 06:34 23.03.2020
6176 Rain 13 1017 87 3219 4.1 100 05:44 23.03.2020
6177 Rain 13 1017 77 4828 2.6 80 03:54 23.03.2020
6178 Rain 13 1018 87 4828 3.6 90 02:45 23.03.2020
6179 Rain 14 1018 87 4828 3.1 190 01:50 23.03.2020
6180 Rain 16 1018 67 9656 3.1 150 00:50 23.03.2020
6181 Rain 16 1018 52 16093 4.6 160 00:29 23.03.2020
6182 Clouds 18 1018 37 16093 4.6 260 23:44 22.03.2020
6183 Rain 18 1018 43 16093 1.97 182 23:24 22.03.2020
6184 Clouds 18 1018 39 16093 3.6 220 22:42 22.03.2020
6185 Clouds 19 1018 37 16093 4.46 212 22:22 22.03.2020
6186 Clouds 19 1019 48 16093 4.1 180 21:55 22.03.2020
6187 Clear 19 1019 39 16093 4.6 230 21:36 22.03.2020
6188 Clouds 19 1019 40 16093 4.46 212 21:18 22.03.2020
6189 Clear 19 1020 45 16093 1.5 0 20:45 22.03.2020
6190 Clear 19 1020 37 16093 4.02 204 20:25 22.03.2020
6191 Clear 18 1020 45 16093 3.6 130 19:58 22.03.2020
6192 Clear 18 1020 48 16093 3.45 102 19:39 22.03.2020
6193 Clear 18 1020 42 16093 2.1 110 19:20 22.03.2020
6194 Clouds 17 1020 48 16093 2.6 70 18:59 22.03.2020
6195 Clear 17 1021 54 16093 2.6 120 18:41 22.03.2020
6196 Clear 16 1021 48 16093 2.1 140 18:22 22.03.2020
6197 Clouds 15 1021 59 16093 2.6 70 17:58 22.03.2020
6198 Clear 14 1021 71 16093 4.1 120 17:38 22.03.2020
6199 Clear 14 1020 59 16093 2.1 0 17:20 22.03.2020
6200 Clouds 13 1021 63 16093 3.6 100 16:57 22.03.2020
6201 Clear 12 1021 76 14484 3.1 70 16:39 22.03.2020
6202 Clear 11 1021 67 16093 0.72 155 16:21 22.03.2020
6203 Clear 10 1020 76 16093 1.5 60 15:44 22.03.2020
6204 Clear 9 1020 71 16093 0.72 155 15:26 22.03.2020
6205 Clouds 8 1021 76 16093 0.72 155 14:46 22.03.2020
6206 Clear 9 1020 76 16093 1.14 113 14:19 22.03.2020
6207 Clear 9 1020 81 16093 1.14 113 13:55 22.03.2020
6208 Clouds 9 1020 81 16093 1.14 113 13:37 22.03.2020
6209 Clear 9 1020 71 16093 0.94 130 13:18 22.03.2020
6210 Clouds 9 1020 76 16093 1.5 40 12:43 22.03.2020
6211 Clear 9 1020 76 16093 0.94 130 12:20 22.03.2020
6212 Clouds 9 1020 76 16093 2.1 70 11:56 22.03.2020
6213 Clear 10 1020 81 16093 0.94 130 11:37 22.03.2020
6214 Clear 10 1020 71 16093 1.09 179 11:19 22.03.2020
6215 Clear 10 1020 81 16093 1.09 179 10:43 22.03.2020
6216 Clouds 10 1021 76 16093 1.09 179 10:23 22.03.2020
6217 Clear 10 1021 93 16093 1.5 40 09:48 22.03.2020
6218 Clear 10 1021 71 16093 1.09 179 09:29 22.03.2020
6219 Clear 11 1021 71 16093 1.09 179 08:55 22.03.2020
6220 Clouds 11 1021 93 16093 1.09 179 08:36 22.03.2020
6221 Clear 11 1021 71 16093 1.17 185 08:18 22.03.2020
6222 Clouds 11 1021 87 16093 1.48 198 07:48 22.03.2020
6223 Clear 12 1021 67 16093 1.48 198 07:18 22.03.2020
6224 Clouds 13 1021 67 16093 1.5 340 05:54 22.03.2020
6225 Clouds 14 1021 67 16093 3.1 270 04:50 22.03.2020
6226 Clouds 15 1020 77 16093 3.6 250 02:43 22.03.2020
6227 Clouds 17 1019 52 16093 3.6 280 01:20 22.03.2020
6228 Clouds 18 1019 45 16093 4.6 240 00:35 22.03.2020
6229 Clouds 18 1019 55 16093 6.2 260 23:58 21.03.2020
6230 Clouds 18 1019 45 16093 4.1 210 23:40 21.03.2020
6231 Clear 18 1019 45 16093 1.5 0 23:18 21.03.2020
6232 Clouds 18 1019 45 16093 3.1 220 22:38 21.03.2020
6233 Clouds 18 1020 48 16093 3.8 214 22:20 21.03.2020
6234 Clouds 18 1020 48 16093 3.8 214 21:59 21.03.2020
6235 Clear 18 1020 55 16093 3.8 214 21:40 21.03.2020
6236 Clouds 18 1021 48 16093 2.1 250 21:22 21.03.2020
6237 Clouds 17 1021 52 16093 6.2 260 20:56 21.03.2020
6238 Clouds 17 1021 58 16093 3.1 260 20:38 21.03.2020
6239 Clouds 17 1021 48 16093 1.5 170 20:18 21.03.2020
6240 Clouds 17 1021 67 16093 1.5 200 19:43 21.03.2020
6241 Clear 16 1021 55 16093 3.19 219 19:23 21.03.2020
6242 Clouds 16 1022 67 16093 3.19 219 18:55 21.03.2020
6243 Clouds 16 1021 71 16093 2.6 180 18:37 21.03.2020
6244 Clear 15 1021 55 16093 3.19 219 18:19 21.03.2020
6245 Clouds 15 1021 59 16093 1.5 0 17:55 21.03.2020
6246 Clear 14 1021 71 14484 3.19 219 17:37 21.03.2020
6247 Clouds 14 1021 63 16093 0.31 193 17:18 21.03.2020
6248 Clear 12 1021 87 12874 0.31 193 16:40 21.03.2020
6249 Clouds 11 1021 71 16093 0.31 193 16:19 21.03.2020
6250 Clouds 11 1021 71 16093 0.31 193 15:55 21.03.2020
6251 Clear 10 1020 81 16093 1.5 20 15:37 21.03.2020
6252 Clouds 10 1021 82 16093 0.31 193 15:18 21.03.2020
6253 Clouds 10 1020 76 16093 0.31 193 14:54 21.03.2020
6254 Clouds 10 1020 81 16093 2.1 10 14:36 21.03.2020
6255 Clouds 10 1020 71 16093 2.5 294 14:18 21.03.2020
6256 Clouds 10 1020 81 16093 2.5 294 13:56 21.03.2020
6257 Clear 10 1019 87 16093 2.1 30 13:38 21.03.2020
6258 Clouds 11 1019 76 16093 1.38 293 13:19 21.03.2020
6259 Clear 11 1019 81 16093 1.38 293 12:39 21.03.2020
6260 Clouds 11 1020 71 16093 1.38 293 12:19 21.03.2020
6261 Rain 11 1019 87 16093 1.5 350 11:58 21.03.2020
6262 Rain 11 1020 76 16093 1.38 293 11:38 21.03.2020
6263 Rain 12 1020 76 16093 1.61 202 11:19 21.03.2020
6264 Clouds 12 1020 67 16093 2.6 270 10:57 21.03.2020
6265 Clouds 12 1020 81 16093 1.61 202 10:39 21.03.2020
6266 -273 0 0 0 0 0 10:20 21.03.2020
6267 Clouds 12 1020 76 16093 2.6 150 09:57 21.03.2020
6268 Clear 12 1020 87 16093 1.61 202 09:37 21.03.2020
6269 Clear 12 1020 87 16093 1.61 202 09:37 21.03.2020
6270 Clouds 12 1021 76 16093 1.61 202 09:19 21.03.2020
6271 Clouds 12 1021 67 16093 1.61 202 08:55 21.03.2020
6272 Clouds 12 1021 76 16093 1.61 202 08:37 21.03.2020
6273 Clear 12 1021 72 16093 1.5 260 08:18 21.03.2020
6274 Clouds 12 1021 87 16093 1.5 290 07:32 21.03.2020
6275 Clouds 12 1021 67 16093 4.6 260 06:49 21.03.2020
6276 Clouds 12 1021 71 16093 3.1 270 06:29 21.03.2020
6277 Clouds 13 1021 72 16093 4.1 270 05:50 21.03.2020
6278 Clear 13 1020 63 16093 2.52 223 05:23 21.03.2020
6279 Clouds 14 1020 67 16093 2.1 310 03:38 21.03.2020
6280 Clouds 15 1020 58 16093 3.1 290 02:36 21.03.2020
6281 Clear 16 1020 54 16093 2.6 0 01:42 21.03.2020
6282 Clouds 16 1020 48 16093 3.17 207 01:21 21.03.2020
6283 Clouds 16 1020 51 16093 3.1 220 00:38 21.03.2020
6284 Clouds 16 1021 55 16093 2.6 110 00:20 21.03.2020
6285 Clouds 16 1021 47 16093 3.6 220 23:41 20.03.2020
6286 Clouds 16 1021 48 16093 3.58 195 23:20 20.03.2020
6287 Clouds 16 1021 44 16093 3.58 195 22:44 20.03.2020
6288 Clouds 16 1022 48 16093 3.58 195 22:24 20.03.2020
6289 Clouds 16 1023 51 16093 4.1 170 21:58 20.03.2020
6290 Clouds 16 1023 48 16093 1.5 0 21:39 20.03.2020
6291 Clouds 16 1023 48 16093 1.5 0 21:20 20.03.2020
6292 Clouds 16 1023 48 16093 1.5 0 20:58 20.03.2020
6293 Clouds 16 1023 44 16093 3.1 70 20:40 20.03.2020
6294 Clouds 16 1023 48 16093 1.5 0 20:19 20.03.2020
6295 Clouds 16 1023 54 16093 1.5 0 19:47 20.03.2020
6296 Clouds 15 1023 52 16093 2.6 0 19:20 20.03.2020
6297 Clouds 15 1023 59 16093 4.1 100 18:57 20.03.2020
6298 Clouds 15 1023 66 16093 2.1 0 18:38 20.03.2020
6299 Clouds 14 1023 55 16093 1.5 130 18:20 20.03.2020
6300 Clouds 14 1023 62 16093 3.1 80 17:56 20.03.2020
6301 Clouds 13 1023 66 16093 3.1 140 17:37 20.03.2020
6302 Clear 13 1023 67 16093 2.6 90 17:18 20.03.2020
6303 Clear 12 1022 81 16093 3.1 80 16:41 20.03.2020
6304 Clouds 11 1022 71 16093 3.61 89 16:21 20.03.2020
6305 Clear 10 1022 87 16093 2.1 90 15:55 20.03.2020
6306 Clear 10 1022 93 16093 2.6 50 15:37 20.03.2020
6307 Clouds 9 1022 71 16093 2.1 90 15:18 20.03.2020
6308 Clouds 9 1021 81 16093 3.61 89 14:42 20.03.2020
6309 Clear 10 1021 71 16093 1.5 0 14:21 20.03.2020
6310 Rain 10 1022 87 12874 2.1 60 13:49 20.03.2020
6311 Rain 10 1022 87 12874 2.1 60 13:49 20.03.2020
6312 Rain 10 1022 81 16093 2.1 80 13:25 20.03.2020
6313 Clouds 10 1022 81 16093 3.1 80 12:59 20.03.2020
6314 Clouds 10 1021 100 16093 2.6 50 12:38 20.03.2020
6315 Clouds 10 1022 71 16093 2.1 90 12:20 20.03.2020
6316 Clouds 10 1021 81 16093 2.6 120 11:40 20.03.2020
6317 Clouds 10 1022 71 16093 2.1 0 11:21 20.03.2020
6318 Rain 10 1022 76 16093 3.1 70 10:57 20.03.2020
6319 Rain 10 1022 100 16093 2.1 50 10:38 20.03.2020
6320 Rain 10 1022 66 16093 2.6 100 10:18 20.03.2020
6321 Rain 10 1021 87 8047 2.2 68 09:46 20.03.2020
6322 Rain 10 1022 87 16093 2.6 70 09:21 20.03.2020
6323 Rain 10 1022 87 16093 3.1 60 08:58 20.03.2020
6324 Rain 10 1022 87 16093 2.2 68 08:39 20.03.2020
6325 Rain 11 1022 87 9656 2.6 90 08:19 20.03.2020
6326 Rain 11 1022 81 16093 2.1 10 07:45 20.03.2020
6327 Rain 11 1022 81 16093 4.1 80 07:26 20.03.2020
6328 Rain 11 1022 81 16093 2.1 0 06:47 20.03.2020
6329 Rain 11 1021 76 16093 4.1 130 06:29 20.03.2020
6330 Rain 12 1021 67 16093 1.5 100 04:49 20.03.2020
6331 Rain 12 1019 58 16093 1.47 237 03:18 20.03.2020
6332 Rain 14 1019 87 6437 1.5 290 01:51 20.03.2020
6333 Rain 14 1019 50 16093 5.1 120 00:46 20.03.2020
6334 Rain 14 1019 48 16093 4.38 236 00:25 20.03.2020
6335 Rain 14 1019 42 16093 4.38 236 23:44 19.03.2020
6336 Rain 14 1019 42 16093 4.38 236 23:25 19.03.2020
6337 Rain 14 1019 48 16093 4.6 240 22:56 19.03.2020
6338 Rain 14 1019 45 16093 2.1 250 22:37 19.03.2020
6339 Rain 14 1019 45 16093 2.1 250 22:18 19.03.2020
6340 Drizzle 14 1019 87 14484 4.1 330 21:41 19.03.2020
6341 Rain 14 1019 48 16093 2.1 0 21:20 19.03.2020
6342 Rain 13 1020 67 14484 5.7 250 20:58 19.03.2020
6343 Rain 13 1019 71 16093 1.5 0 20:39 19.03.2020
6344 Rain 13 1019 59 16093 1.5 280 20:20 19.03.2020
6345 Rain 13 1019 48 14484 5.1 250 19:55 19.03.2020
6346 Rain 13 1018 62 16093 2.1 280 19:37 19.03.2020
6347 Rain 13 1018 62 16093 2.1 280 19:19 19.03.2020
6348 Rain 12 1019 71 8047 1.5 200 18:42 19.03.2020
6349 Rain 13 1018 62 16093 3.17 238 18:22 19.03.2020
6350 Rain 13 1018 62 16093 3.17 238 18:22 19.03.2020
6351 Rain 12 1018 62 16093 3.1 230 17:58 19.03.2020
6352 Clouds 12 1018 71 16093 3.1 110 17:40 19.03.2020
6353 Clouds 12 1017 62 16093 1.5 120 17:19 19.03.2020
6354 Clouds 11 1017 87 16093 2.63 245 16:43 19.03.2020
6355 Clear 11 1016 71 14484 1.5 100 16:23 19.03.2020
6356 Clouds 10 1015 76 16093 2.63 245 15:46 19.03.2020
6357 Clouds 9 1015 76 16093 2.63 245 15:27 19.03.2020
6358 Rain 9 1015 76 16093 2.63 245 14:58 19.03.2020
6359 Rain 9 1015 87 16093 2.63 245 14:40 19.03.2020
6360 Rain 10 1015 71 16093 1.79 235 14:19 19.03.2020
6361 Rain 10 1014 76 16093 1.79 235 13:40 19.03.2020
6362 Rain 10 1014 76 16093 1.79 235 13:40 19.03.2020
6363 Rain 10 1014 71 16093 2.51 198 13:19 19.03.2020
6364 Clouds 10 1014 66 16093 2.51 198 12:56 19.03.2020
6365 Clouds 10 1013 75 16093 2.51 198 12:37 19.03.2020
6366 Clouds 10 1014 71 16093 2.51 198 12:19 19.03.2020
6367 Clouds 10 1013 75 16093 2.51 198 11:42 19.03.2020
6368 Clouds 10 1013 71 16093 2.51 198 11:23 19.03.2020
6369 Clouds 10 1013 71 16093 2.6 140 10:57 19.03.2020
6370 Clouds 10 1013 71 16093 2.6 140 10:37 19.03.2020
6371 Clear 10 1013 66 16093 2.58 156 10:18 19.03.2020
6372 Clouds 10 1013 66 16093 4.1 250 09:44 19.03.2020
6373 Clouds 10 1013 66 16093 4.1 250 09:26 19.03.2020
6374 Clear 10 1012 70 16093 2.58 156 08:58 19.03.2020
6375 Clouds 10 1012 81 16093 2.58 156 08:40 19.03.2020
6376 Clear 11 1012 66 16093 2.51 221 08:19 19.03.2020
6377 Clouds 11 1012 81 16093 1.5 80 07:44 19.03.2020
6378 Clear 11 1011 71 16093 2.51 221 07:23 19.03.2020
6379 Clear 11 1010 66 16093 2.51 221 06:32 19.03.2020
6380 Clouds 12 1010 71 16093 2.6 210 05:47 19.03.2020
6381 Clouds 12 1009 57 16093 2.1 240 04:53 19.03.2020
6382 Clouds 12 1009 62 16093 2.6 170 04:34 19.03.2020
6383 Clouds 14 1007 38 16093 7.2 260 02:34 19.03.2020
6384 Clouds 16 1007 39 16093 8.7 260 00:58 19.03.2020
6385 Clear 16 1007 34 16093 4.1 270 00:22 19.03.2020
6386 Clear 16 1008 34 16093 2.6 250 23:48 18.03.2020
6387 Clear 16 1008 34 16093 2.6 250 23:29 18.03.2020
6388 Clouds 16 1008 48 16093 6.7 250 22:56 18.03.2020
6389 Clouds 16 1008 50 16093 4.1 180 22:38 18.03.2020
6390 Clear 15 1008 34 16093 3.38 216 22:20 18.03.2020
6391 Clouds 15 1008 25 16093 3.38 216 21:42 18.03.2020
6392 Clear 15 1009 29 16093 3.38 216 21:21 18.03.2020
6393 Clear 15 1009 41 16093 2.1 0 20:58 18.03.2020
6394 Clear 14 1009 25 16093 2.1 0 20:40 18.03.2020
6395 Clear 14 1009 38 16093 1.97 254 20:20 18.03.2020
6396 Clear 13 1009 47 16093 1.5 0 19:56 18.03.2020
6397 Clear 13 1009 66 16093 3.6 180 19:38 18.03.2020
6398 Clear 13 1009 44 16093 2.27 255 19:19 18.03.2020
6399 Clear 13 1009 44 16093 2.27 255 19:19 18.03.2020
6400 Clear 12 1009 53 16093 2.1 180 18:41 18.03.2020
6401 Clear 11 1010 54 16093 2.27 255 18:20 18.03.2020
6402 Clouds 11 1010 54 16093 1.5 20 17:58 18.03.2020
6403 Clear 10 1009 57 16093 2.27 255 17:40 18.03.2020
6404 Clear 9 1009 53 16093 1.75 309 17:21 18.03.2020
6405 Clouds 9 1010 57 16093 1.5 0 16:58 18.03.2020
6406 Clear 8 1009 65 16093 1.5 290 16:39 18.03.2020
6407 Clear 8 1008 57 16093 1.5 0 16:20 18.03.2020
6408 Clear 7 1008 70 16093 1.75 309 15:45 18.03.2020
6409 Clear 7 1008 66 16093 1.75 309 15:20 18.03.2020
6410 Clear 6 1007 52 16093 2.1 10 14:45 18.03.2020
6411 Clear 6 1009 66 16093 1.34 359 14:22 18.03.2020
6412 Clear 6 1009 75 16093 2.1 350 13:59 18.03.2020
6413 Clear 6 1009 56 16093 2.1 30 13:37 18.03.2020
6414 Clear 6 1010 66 16093 1.61 23 13:19 18.03.2020
6415 Clear 5 1009 56 16093 2.1 50 12:41 18.03.2020
6416 Clear 5 1011 66 16093 1.61 23 12:20 18.03.2020
6417 Clear 5 1011 75 16093 2.1 40 11:41 18.03.2020
6418 Clear 6 1012 61 16093 1.59 246 11:21 18.03.2020
6419 Clouds 6 1012 70 16093 2.1 50 10:58 18.03.2020
6420 Clouds 6 1012 70 16093 2.1 50 10:39 18.03.2020
6421 Clear 6 1013 66 16093 1.5 20 10:20 18.03.2020
6422 Clear 6 1013 66 16093 1.5 20 10:20 18.03.2020
6423 Clear 6 1013 66 16093 1.5 20 09:59 18.03.2020
6424 Clear 6 1012 65 16093 2.1 40 09:39 18.03.2020
6425 Clear 7 1013 62 16093 1.59 246 09:21 18.03.2020
6426 Clouds 7 1013 65 16093 1.5 40 08:40 18.03.2020
6427 Clear 7 1014 71 16093 2.45 242 08:21 18.03.2020
6428 Clear 7 1013 52 16093 2.45 242 07:49 18.03.2020
6429 Clear 8 1014 66 16093 2.45 242 07:31 18.03.2020
6430 Clouds 8 1014 58 16093 3.1 320 06:55 18.03.2020
6431 Clear 8 1014 62 16093 2.45 242 06:37 18.03.2020
6432 Clear 9 1013 61 16093 2.1 330 05:37 18.03.2020
6433 Clear 10 1013 54 16093 1.5 270 04:32 18.03.2020
6434 Clear 12 1013 50 16093 1.5 260 03:21 18.03.2020
6435 Rain 13 1012 50 16093 3.6 270 02:36 18.03.2020
6436 Clouds 13 1013 50 16093 4.6 270 01:43 18.03.2020
6437 Rain 14 1013 50 16093 5.1 280 00:45 18.03.2020
6438 Rain 14 1014 42 16093 2.6 260 00:21 18.03.2020
6439 Rain 14 1013 36 16093 2.1 250 23:42 17.03.2020
6440 Rain 14 1014 41 16093 2.1 0 23:21 17.03.2020
6441 Clouds 13 1014 34 16093 4.1 230 22:46 17.03.2020
6442 Clouds 13 1015 50 16093 2.1 0 22:28 17.03.2020
6443 Clouds 14 1015 58 16093 2.1 350 21:57 17.03.2020
6444 Clouds 14 1015 34 16093 4.1 250 21:36 17.03.2020
6445 Clouds 13 1016 50 16093 1.5 290 21:18 17.03.2020
6446 Rain 13 1015 34 16093 3.1 0 20:38 17.03.2020
6447 Rain 13 1016 41 16093 0.95 206 20:19 17.03.2020
6448 Clouds 12 1016 37 16093 1.5 210 19:42 17.03.2020
6449 Clouds 12 1017 50 16093 1.5 0 19:21 17.03.2020
6450 Clouds 12 1017 58 16093 3.1 130 18:59 17.03.2020
6451 Clouds 12 1016 50 16093 2.6 230 18:40 17.03.2020
6452 Clouds 11 1017 58 16093 0.95 206 18:22 17.03.2020
6453 Rain 11 1017 62 16093 3.1 110 17:59 17.03.2020
6454 Rain 10 1016 37 16093 1.5 0 17:39 17.03.2020
6455 Rain 10 1017 71 16093 1.06 314 17:19 17.03.2020
6456 Rain 9 1015 61 16093 1.06 314 16:43 17.03.2020
6457 Rain 8 1016 66 16093 1.06 314 16:19 17.03.2020
6458 Clouds 7 1016 86 16093 1.06 314 15:56 17.03.2020
6459 Clear 7 1015 81 16093 1.06 314 15:38 17.03.2020
6460 Clear 6 1015 75 16093 1.5 360 15:18 17.03.2020
6461 Rain 6 1015 81 16093 1.06 314 14:41 17.03.2020
6462 Rain 6 1015 76 16093 1.65 254 14:18 17.03.2020
6463 Rain 7 1015 93 1609 1.65 254 13:41 17.03.2020
6464 Rain 7 1015 81 16093 1.99 268 13:22 17.03.2020
6465 Fog 7 1014 93 805 2.32 262 12:48 17.03.2020
6466 Clear 7 1015 81 16093 1.99 268 12:26 17.03.2020
6467 Rain 7 1015 76 16093 2.1 10 11:59 17.03.2020
6468 Rain 7 1015 93 8047 1.5 290 11:40 17.03.2020
6469 Rain 8 1015 87 16093 2.78 258 11:22 17.03.2020
6470 Clouds 8 1014 100 16093 3.6 270 10:56 17.03.2020
6471 Clouds 8 1014 100 16093 3.6 270 10:37 17.03.2020
6472 Rain 8 1015 81 16093 2.78 258 10:18 17.03.2020
6473 Rain 9 1014 93 16093 2.6 280 09:46 17.03.2020
6474 Rain 9 1015 81 16093 2.78 258 09:20 17.03.2020
6475 Rain 9 1015 81 16093 2.78 258 08:59 17.03.2020
6476 Rain 9 1014 100 4828 3.6 270 08:41 17.03.2020
6477 Rain 9 1015 76 16093 3.73 271 08:20 17.03.2020
6478 Rain 9 1015 71 16093 3.1 310 07:49 17.03.2020
6479 Rain 9 1015 76 16093 3.73 271 07:21 17.03.2020
6480 Rain 10 1015 66 16093 3.6 280 06:52 17.03.2020
6481 Rain 10 1015 87 16093 3.1 290 06:25 17.03.2020
6482 Rain 10 1014 93 6437 2.1 90 05:34 17.03.2020
6483 Rain 11 1014 87 9656 4.97 247 03:36 17.03.2020
6484 Rain 12 1014 87 4828 4.97 247 02:31 17.03.2020
6485 Rain 12 1014 82 2816 6.99 181 01:39 17.03.2020
6486 Rain 13 1014 71 8047 4.1 170 00:54 17.03.2020
6487 Rain 13 1014 55 16093 2.6 0 00:19 17.03.2020
6488 Rain 14 1015 58 16093 4.1 200 23:43 16.03.2020
6489 Rain 14 1014 51 16093 3.1 0 23:22 16.03.2020
6490 Clouds 14 1015 62 16093 6.2 190 22:38 16.03.2020
6491 Clouds 14 1014 45 16093 2.6 0 22:20 16.03.2020
6492 Rain 14 1015 55 16093 5.7 170 21:55 16.03.2020
6493 Rain 14 1014 81 16093 4.6 170 21:36 16.03.2020
6494 Rain 14 1016 48 16093 2.6 0 21:18 16.03.2020
6495 Rain 14 1016 54 16093 2.1 0 20:42 16.03.2020
6496 Rain 14 1016 55 14484 3.1 0 20:24 16.03.2020
6497 Clouds 14 1016 66 16093 8.7 130 19:56 16.03.2020
6498 Rain 14 1017 63 16093 5.1 160 19:37 16.03.2020
6499 Rain 14 1017 67 16093 5.1 110 19:18 16.03.2020
6500 Clouds 14 1017 62 16093 5.1 120 18:41 16.03.2020
6501 Clouds 14 1017 55 16093 3.1 100 18:20 16.03.2020
6502 Clouds 13 1018 62 16093 4.37 156 17:46 16.03.2020
6503 Clouds 13 1017 63 16093 2.1 0 17:26 16.03.2020
6504 Clouds 12 1017 71 12874 3.6 110 16:58 16.03.2020
6505 Clouds 12 1018 76 16093 2.1 100 16:40 16.03.2020
6506 Clouds 12 1017 67 16093 1.5 90 16:22 16.03.2020
6507 Clouds 11 1017 76 16093 1.5 90 15:43 16.03.2020
6508 Clouds 11 1017 62 16093 1.5 100 15:25 16.03.2020
6509 Clouds 11 1017 81 16093 1.5 60 14:48 16.03.2020
6510 Clouds 11 1017 62 16093 2.1 90 14:25 16.03.2020
6511 Rain 11 1017 81 16093 1.38 174 13:55 16.03.2020
6512 Rain 11 1017 81 16093 1.38 174 13:37 16.03.2020
6513 Clouds 11 1017 71 16093 1.59 152 13:18 16.03.2020
6514 Clouds 11 1017 81 16093 1.59 152 12:42 16.03.2020
6515 Clear 11 1018 66 16093 1.59 152 12:23 16.03.2020
6516 Clouds 11 1018 76 16093 1.59 152 11:45 16.03.2020
6517 Clouds 11 1018 66 16093 1.59 152 11:26 16.03.2020
6518 Clouds 11 1018 71 16093 1.5 110 10:55 16.03.2020
6519 Clouds 11 1019 66 16093 1.86 170 10:37 16.03.2020
6520 Clouds 11 1019 67 16093 1.86 170 10:18 16.03.2020
6521 Clouds 11 1019 66 16093 1.86 170 09:40 16.03.2020
6522 Clouds 11 1019 58 16093 1.86 170 09:20 16.03.2020
6523 Clouds 12 1019 66 16093 1.86 170 08:47 16.03.2020
6524 Clouds 12 1019 58 16093 2.16 206 08:24 16.03.2020
6525 Clouds 12 1019 71 16093 2.16 206 07:45 16.03.2020
6526 Clouds 12 1020 62 16093 2.16 206 07:21 16.03.2020
6527 Clouds 12 1020 54 16093 1.5 250 06:51 16.03.2020
6528 Clouds 12 1020 54 16093 2.16 206 06:23 16.03.2020
6529 Clouds 13 1020 54 16093 2.6 250 04:54 16.03.2020
6530 Clouds 14 1019 62 16093 4.1 260 02:40 16.03.2020
6531 Clouds 16 1020 47 16093 3.6 130 00:52 16.03.2020
6532 Clouds 16 1019 45 16093 2.6 270 00:32 16.03.2020
6533 Clouds 16 1019 51 16093 4.6 230 23:46 15.03.2020
6534 Clouds 16 1020 45 16093 2.6 250 23:20 15.03.2020
6535 Clouds 16 1020 51 16093 3.6 260 22:42 15.03.2020
6536 Clouds 16 1020 45 16093 1.5 0 22:22 15.03.2020
6537 Clouds 16 1020 45 16093 5.1 210 21:56 15.03.2020
6538 Clouds 16 1020 51 16093 4.1 270 21:37 15.03.2020
6539 Clouds 16 1021 48 16093 2.6 0 21:18 15.03.2020
6540 Clouds 15 1020 58 16093 4.1 240 20:42 15.03.2020
6541 Clouds 15 1021 55 16093 3.1 270 20:20 15.03.2020
6542 Clouds 15 1021 58 16093 5.1 210 19:58 15.03.2020
6543 Clouds 15 1021 66 16093 4.1 270 19:39 15.03.2020
6544 Clouds 14 1021 55 16093 0.9 226 19:19 15.03.2020
6545 Clouds 14 1020 62 16093 2.1 0 18:55 15.03.2020
6546 Clouds 14 1021 76 16093 4.6 270 18:37 15.03.2020
6547 Clouds 14 1021 63 16093 0.9 226 18:19 15.03.2020
6548 Clouds 13 1020 93 16093 2.1 320 17:41 15.03.2020
6549 Rain 12 1020 82 16093 0.67 224 17:21 15.03.2020
6550 Clouds 12 1020 71 16093 0.67 224 16:58 15.03.2020
6551 Rain 12 1020 100 2414 3.6 290 16:40 15.03.2020
6552 Clouds 11 1020 82 16093 0.67 224 16:21 15.03.2020
6553 Rain 11 1019 81 16093 0.67 224 15:48 15.03.2020
6554 Rain 11 1019 81 16093 0.67 224 15:30 15.03.2020
6555 Rain 11 1019 81 16093 0.67 224 14:58 15.03.2020
6556 Rain 11 1019 82 16093 1.5 0 14:38 15.03.2020
6557 Rain 11 1019 82 16093 1.5 0 14:19 15.03.2020
6558 Rain 11 1019 82 16093 3.6 290 13:55 15.03.2020
6559 Rain 11 1019 87 11265 0.93 177 13:37 15.03.2020
6560 Rain 11 1019 87 16093 0.74 13 13:18 15.03.2020
6561 Rain 11 1019 87 16093 0.74 13 13:18 15.03.2020
6562 Rain 11 1019 82 14484 0.74 13 12:40 15.03.2020
6563 Rain 11 1019 87 8047 1.5 220 12:21 15.03.2020
6564 Rain 11 1019 76 16093 2.1 280 11:44 15.03.2020
6565 Rain 12 1019 82 16093 1.5 90 11:25 15.03.2020
6566 Drizzle 12 1020 82 16093 6.2 290 10:59 15.03.2020
6567 Rain 12 1020 93 2816 2.6 240 10:40 15.03.2020
6568 Rain 12 1019 81 11265 1.5 270 10:21 15.03.2020
6569 Rain 12 1019 87 12874 3.6 130 09:59 15.03.2020
6570 Rain 12 1020 100 16093 2.6 290 09:38 15.03.2020
6571 Clouds 12 1020 82 16093 1.86 349 09:19 15.03.2020
6572 Rain 12 1020 100 16093 3.1 260 08:41 15.03.2020
6573 Rain 12 1020 82 16093 1.5 80 08:19 15.03.2020
6574 Clouds 12 1020 82 16093 1.52 298 07:48 15.03.2020
6575 Clouds 13 1020 82 16093 1.52 298 07:22 15.03.2020
6576 Clouds 13 1020 87 16093 1.5 270 06:44 15.03.2020
6577 Rain 13 1020 93 16093 1.52 298 05:48 15.03.2020
6578 Rain 13 1020 67 16093 2.1 267 04:57 15.03.2020
6579 Rain 13 1020 87 16093 2.1 160 04:38 15.03.2020
6580 Rain 13 1020 77 16093 2.1 267 04:20 15.03.2020
6581 Rain 13 1020 72 16093 2.1 267 03:19 15.03.2020
6582 Clouds 13 1020 67 16093 2.1 267 02:23 15.03.2020
6583 Rain 14 1019 82 16093 1.5 250 00:59 15.03.2020
6584 Rain 14 1020 82 6437 2.1 280 00:41 15.03.2020
6585 Rain 14 1020 87 6437 1.5 0 00:19 15.03.2020
6586 Rain 14 1019 82 4023 2.51 217 23:40 14.03.2020
6587 Clouds 14 1020 72 16093 2.1 0 23:20 14.03.2020
6588 Rain 14 1020 77 16093 6.2 230 22:56 14.03.2020
6589 Rain 14 1020 77 16093 2.75 229 22:38 14.03.2020
6590 Rain 14 1020 77 11265 3.1 270 22:20 14.03.2020
6591 Rain 14 1019 87 16093 3.1 130 21:56 14.03.2020
6592 Rain 14 1020 87 4828 2.1 250 21:36 14.03.2020
6593 Rain 14 1020 82 2414 2.75 229 21:18 14.03.2020
6594 Rain 14 1020 87 4023 4.1 250 21:18 14.03.2020
6595 Rain 14 1020 82 2414 2.75 229 20:58 14.03.2020
6596 Rain 14 1020 77 16093 1.5 40 20:39 14.03.2020
6597 Rain 14 1020 82 4828 0.58 134 20:18 14.03.2020
6598 Rain 14 1020 82 12874 0.58 134 19:42 14.03.2020
6599 Rain 14 1020 87 6437 0.58 134 19:24 14.03.2020
6600 Rain 13 1020 82 4828 1.5 0 18:41 14.03.2020
6601 Rain 13 1020 77 6437 1.5 100 18:22 14.03.2020
6602 Rain 13 1020 82 16093 0.58 134 17:56 14.03.2020
6603 Rain 13 1020 82 16093 0.58 134 17:37 14.03.2020
6604 Rain 13 1020 82 16093 0.63 228 17:19 14.03.2020
6605 Rain 12 1019 87 16093 3.6 130 16:40 14.03.2020
6606 Rain 12 1019 82 16093 1.5 90 16:22 14.03.2020
6607 Rain 12 1018 81 16093 3.6 130 15:54 14.03.2020
6608 Rain 12 1018 82 16093 2.1 220 15:26 14.03.2020
6609 Rain 12 1018 87 16093 1.5 110 14:55 14.03.2020
6610 Rain 12 1018 82 12874 0.63 228 14:36 14.03.2020
6611 Rain 12 1018 82 16093 1.5 130 14:18 14.03.2020
6612 Rain 12 1018 100 4023 0.66 145 13:42 14.03.2020
6613 Rain 12 1017 82 16093 0.78 217 13:23 14.03.2020
6614 Clouds 12 1017 93 16093 1.5 260 12:47 14.03.2020
6615 Rain 12 1017 87 16093 3.6 120 12:27 14.03.2020
6616 Rain 12 1017 87 16093 3.6 120 12:27 14.03.2020
6617 Rain 12 1017 76 16093 1.5 130 11:57 14.03.2020
6618 Rain 12 1017 93 6437 1.5 190 11:38 14.03.2020
6619 Rain 12 1017 87 8047 2.1 130 11:20 14.03.2020
6620 Rain 12 1018 82 16093 2.61 177 11:20 14.03.2020
6621 Rain 12 1018 81 16093 2.1 100 10:45 14.03.2020
6622 Rain 12 1018 82 8047 2.61 177 10:27 14.03.2020
6623 Rain 12 1018 82 16093 2.6 140 09:57 14.03.2020
6624 Rain 12 1018 87 16093 1.5 80 09:39 14.03.2020
6625 Rain 12 1018 82 16093 2.61 177 09:19 14.03.2020
6626 Rain 12 1018 82 16093 2.61 177 08:45 14.03.2020
6627 Rain 12 1018 82 16093 1.86 158 08:22 14.03.2020
6628 Rain 12 1018 93 16093 1.81 180 07:39 14.03.2020
6629 Rain 12 1018 93 16093 1.81 180 07:39 14.03.2020
6630 Rain 12 1018 77 14484 2.6 180 07:20 14.03.2020
6631 Clouds 12 1017 87 14484 1.81 180 06:41 14.03.2020
6632 Clouds 12 1017 87 16093 2.1 180 05:56 14.03.2020
6633 Rain 12 1016 82 16093 2.6 240 04:51 14.03.2020
6634 Rain 13 1015 82 16093 3.1 250 03:25 14.03.2020
6635 Rain 13 1015 82 12874 2.14 191 02:35 14.03.2020
6636 Rain 13 1014 87 6437 1.5 90 01:27 14.03.2020
6637 Rain 13 1014 82 2414 2.18 196 00:20 14.03.2020
6638 Rain 13 1014 77 4023 2.18 196 23:38 13.03.2020
6639 Rain 13 1014 82 3219 2.1 0 23:18 13.03.2020
6640 Rain 13 1013 93 4023 3.1 170 22:41 13.03.2020
6641 Rain 13 1014 82 16093 1.5 0 22:20 13.03.2020
6642 Rain 13 1013 87 9656 3.6 160 21:40 13.03.2020
6643 Rain 13 1014 82 11265 2.87 186 21:18 13.03.2020
6644 Rain 12 1014 93 9656 2.6 170 20:41 13.03.2020
6645 Rain 12 1014 82 16093 1.73 162 20:22 13.03.2020
6646 Rain 12 1013 76 11265 2.6 70 19:55 13.03.2020
6647 Rain 12 1013 93 2816 2.6 180 19:36 13.03.2020
6648 Rain 12 1013 82 6437 2.16 136 19:18 13.03.2020
6649 Rain 12 1013 82 11265 2.16 136 18:40 13.03.2020
6650 Rain 12 1012 93 3219 2.16 136 18:22 13.03.2020
6651 Rain 12 1012 87 16093 2.16 136 17:42 13.03.2020
6652 Rain 12 1013 100 16093 1.5 80 17:21 13.03.2020
6653 Rain 11 1012 87 14484 2.1 0 16:56 13.03.2020
6654 Rain 11 1012 100 16093 2.1 70 16:38 13.03.2020
6655 Rain 11 1012 87 8047 2.34 138 16:20 13.03.2020
6656 Rain 11 1011 87 8047 2.34 138 15:43 13.03.2020
6657 Rain 11 1011 93 3219 1.5 310 15:22 13.03.2020
6658 Rain 11 1011 87 9656 2.34 138 14:58 13.03.2020
6659 Rain 11 1011 100 8047 2.34 138 14:40 13.03.2020
6660 Rain 11 1011 100 8047 0.68 213 14:21 13.03.2020
6661 Rain 11 1011 82 9656 0.68 213 13:42 13.03.2020
6662 Rain 11 1011 87 4828 2.6 40 13:24 13.03.2020
6663 Rain 11 1010 87 6437 2.1 60 12:59 13.03.2020
6664 Rain 11 1010 82 9656 1.5 60 12:38 13.03.2020
6665 Rain 11 1010 82 9656 1.5 60 12:38 13.03.2020
6666 Rain 11 1010 93 8047 1.2 318 12:19 13.03.2020
6667 Rain 11 1010 87 9656 2.1 0 11:56 13.03.2020
6668 Rain 11 1010 87 8047 1.5 280 11:36 13.03.2020
6669 Rain 11 1010 87 8047 1.5 280 11:36 13.03.2020
6670 Rain 11 1010 87 6437 0.61 85 11:18 13.03.2020
6671 Rain 11 1011 100 9656 0.61 85 10:46 13.03.2020
6672 Rain 11 1011 93 11265 0.61 85 10:26 13.03.2020
6673 Rain 11 1010 82 16093 2.1 350 09:48 13.03.2020